<?xml version="1.0" encoding="UTF-8" standalone="no" ?>
<gpx xmlns="http://www.topografix.com/GPX/1/1" xmlns:xsi="http://www.w3.org/2001/XMLSchema-instance" xsi:schemaLocation="http://www.topografix.com/GPX/1/1 http://www.topografix.com/GPX/1/1/gpx.xsd" version="1.1" creator="VisuGPX - https://www.visugpx.com">
  <metadata>
    <name>Parcours 13 km du Téléthon 2019</name>
    <desc><![CDATA[Trés bien, et organisation au top! merci pour cette journée]]></desc>
  </metadata>
  <trk>
    <name><![CDATA[Parcours 13 km du Téléthon 2019_1]]></name>
    <trkseg>
      <trkpt lat="47.03865" lon="-0.83721">
        <ele>104.3</ele>
        <time>2019-11-24T08:16:48Z</time>
      </trkpt>
      <trkpt lat="47.03865" lon="-0.83721">
        <ele>158.477</ele>
        <time>2019-11-24T08:16:50Z</time>
      </trkpt>
      <trkpt lat="47.03862" lon="-0.83713">
        <ele>157.605</ele>
        <time>2019-11-24T08:17:02Z</time>
      </trkpt>
      <trkpt lat="47.03864" lon="-0.83707">
        <ele>157.441</ele>
        <time>2019-11-24T08:17:06Z</time>
      </trkpt>
      <trkpt lat="47.03865" lon="-0.83703">
        <ele>157.293</ele>
        <time>2019-11-24T08:17:09Z</time>
      </trkpt>
      <trkpt lat="47.03865" lon="-0.83696">
        <ele>156.877</ele>
        <time>2019-11-24T08:17:17Z</time>
      </trkpt>
      <trkpt lat="47.03865" lon="-0.83689">
        <ele>156.476</ele>
        <time>2019-11-24T08:17:25Z</time>
      </trkpt>
      <trkpt lat="47.03866" lon="-0.83683">
        <ele>156.144</ele>
        <time>2019-11-24T08:17:29Z</time>
      </trkpt>
      <trkpt lat="47.03868" lon="-0.83679">
        <ele>155.955</ele>
        <time>2019-11-24T08:17:31Z</time>
      </trkpt>
      <trkpt lat="47.03869" lon="-0.83671">
        <ele>155.743</ele>
        <time>2019-11-24T08:17:33Z</time>
      </trkpt>
      <trkpt lat="47.03871" lon="-0.83662">
        <ele>155.432</ele>
        <time>2019-11-24T08:17:36Z</time>
      </trkpt>
      <trkpt lat="47.03872" lon="-0.83655">
        <ele>155.134</ele>
        <time>2019-11-24T08:17:39Z</time>
      </trkpt>
      <trkpt lat="47.03873" lon="-0.83651">
        <ele>154.943</ele>
        <time>2019-11-24T08:17:41Z</time>
      </trkpt>
      <trkpt lat="47.03876" lon="-0.83644">
        <ele>154.561</ele>
        <time>2019-11-24T08:17:45Z</time>
      </trkpt>
      <trkpt lat="47.03877" lon="-0.83641">
        <ele>154.364</ele>
        <time>2019-11-24T08:17:47Z</time>
      </trkpt>
      <trkpt lat="47.03879" lon="-0.83634">
        <ele>154.054</ele>
        <time>2019-11-24T08:17:50Z</time>
      </trkpt>
      <trkpt lat="47.0388" lon="-0.83628">
        <ele>153.751</ele>
        <time>2019-11-24T08:17:53Z</time>
      </trkpt>
      <trkpt lat="47.03884" lon="-0.83625">
        <ele>153.345</ele>
        <time>2019-11-24T08:17:57Z</time>
      </trkpt>
      <trkpt lat="47.03886" lon="-0.83623">
        <ele>153.033</ele>
        <time>2019-11-24T08:18:00Z</time>
      </trkpt>
      <trkpt lat="47.03892" lon="-0.83623">
        <ele>152.595</ele>
        <time>2019-11-24T08:18:04Z</time>
      </trkpt>
      <trkpt lat="47.03887" lon="-0.8362">
        <ele>151.803</ele>
        <time>2019-11-24T08:18:12Z</time>
      </trkpt>
      <trkpt lat="47.03878" lon="-0.83611">
        <ele>151.231</ele>
        <time>2019-11-24T08:18:19Z</time>
      </trkpt>
      <trkpt lat="47.03873" lon="-0.83608">
        <ele>151.011</ele>
        <time>2019-11-24T08:18:22Z</time>
      </trkpt>
      <trkpt lat="47.03867" lon="-0.83607">
        <ele>150.803</ele>
        <time>2019-11-24T08:18:25Z</time>
      </trkpt>
      <trkpt lat="47.03865" lon="-0.83606">
        <ele>150.668</ele>
        <time>2019-11-24T08:18:27Z</time>
      </trkpt>
      <trkpt lat="47.0386" lon="-0.83604">
        <ele>150.538</ele>
        <time>2019-11-24T08:18:29Z</time>
      </trkpt>
      <trkpt lat="47.03854" lon="-0.83601">
        <ele>150.317</ele>
        <time>2019-11-24T08:18:33Z</time>
      </trkpt>
      <trkpt lat="47.03848" lon="-0.83601">
        <ele>150.173</ele>
        <time>2019-11-24T08:18:36Z</time>
      </trkpt>
      <trkpt lat="47.03844" lon="-0.83598">
        <ele>150.023</ele>
        <time>2019-11-24T08:18:39Z</time>
      </trkpt>
      <trkpt lat="47.03844" lon="-0.83591">
        <ele>149.886</ele>
        <time>2019-11-24T08:18:42Z</time>
      </trkpt>
      <trkpt lat="47.03847" lon="-0.83577">
        <ele>149.753</ele>
        <time>2019-11-24T08:18:45Z</time>
      </trkpt>
      <trkpt lat="47.03849" lon="-0.83571">
        <ele>149.65</ele>
        <time>2019-11-24T08:18:47Z</time>
      </trkpt>
      <trkpt lat="47.0385" lon="-0.83567">
        <ele>149.596</ele>
        <time>2019-11-24T08:18:48Z</time>
      </trkpt>
      <trkpt lat="47.03854" lon="-0.83562">
        <ele>149.423</ele>
        <time>2019-11-24T08:18:51Z</time>
      </trkpt>
      <trkpt lat="47.03857" lon="-0.83559">
        <ele>149.305</ele>
        <time>2019-11-24T08:18:53Z</time>
      </trkpt>
      <trkpt lat="47.03861" lon="-0.83556">
        <ele>149.084</ele>
        <time>2019-11-24T08:18:57Z</time>
      </trkpt>
      <trkpt lat="47.03864" lon="-0.83549">
        <ele>148.942</ele>
        <time>2019-11-24T08:19:00Z</time>
      </trkpt>
      <trkpt lat="47.03867" lon="-0.83543">
        <ele>148.817</ele>
        <time>2019-11-24T08:19:03Z</time>
      </trkpt>
      <trkpt lat="47.03869" lon="-0.83539">
        <ele>148.738</ele>
        <time>2019-11-24T08:19:05Z</time>
      </trkpt>
      <trkpt lat="47.03871" lon="-0.83529">
        <ele>148.631</ele>
        <time>2019-11-24T08:19:08Z</time>
      </trkpt>
      <trkpt lat="47.03875" lon="-0.83521">
        <ele>148.505</ele>
        <time>2019-11-24T08:19:12Z</time>
      </trkpt>
      <trkpt lat="47.03879" lon="-0.83517">
        <ele>148.334</ele>
        <time>2019-11-24T08:19:18Z</time>
      </trkpt>
      <trkpt lat="47.03882" lon="-0.83514">
        <ele>148.223</ele>
        <time>2019-11-24T08:19:22Z</time>
      </trkpt>
      <trkpt lat="47.03885" lon="-0.83511">
        <ele>148.114</ele>
        <time>2019-11-24T08:19:26Z</time>
      </trkpt>
      <trkpt lat="47.0389" lon="-0.83509">
        <ele>148.013</ele>
        <time>2019-11-24T08:19:30Z</time>
      </trkpt>
      <trkpt lat="47.03895" lon="-0.83506">
        <ele>147.873</ele>
        <time>2019-11-24T08:19:35Z</time>
      </trkpt>
      <trkpt lat="47.03901" lon="-0.83513">
        <ele>147.73</ele>
        <time>2019-11-24T08:19:43Z</time>
      </trkpt>
      <trkpt lat="47.03904" lon="-0.83517">
        <ele>147.635</ele>
        <time>2019-11-24T08:19:46Z</time>
      </trkpt>
      <trkpt lat="47.03908" lon="-0.8352">
        <ele>147.511</ele>
        <time>2019-11-24T08:19:50Z</time>
      </trkpt>
      <trkpt lat="47.03912" lon="-0.83528">
        <ele>147.419</ele>
        <time>2019-11-24T08:19:53Z</time>
      </trkpt>
      <trkpt lat="47.03917" lon="-0.8353">
        <ele>147.33</ele>
        <time>2019-11-24T08:19:56Z</time>
      </trkpt>
      <trkpt lat="47.03922" lon="-0.83535">
        <ele>147.192</ele>
        <time>2019-11-24T08:20:01Z</time>
      </trkpt>
      <trkpt lat="47.03923" lon="-0.83537">
        <ele>147.141</ele>
        <time>2019-11-24T08:20:03Z</time>
      </trkpt>
      <trkpt lat="47.03926" lon="-0.83543">
        <ele>147.092</ele>
        <time>2019-11-24T08:20:06Z</time>
      </trkpt>
      <trkpt lat="47.03932" lon="-0.8355">
        <ele>146.999</ele>
        <time>2019-11-24T08:20:11Z</time>
      </trkpt>
      <trkpt lat="47.03934" lon="-0.83553">
        <ele>146.956</ele>
        <time>2019-11-24T08:20:14Z</time>
      </trkpt>
      <trkpt lat="47.03939" lon="-0.83554">
        <ele>146.89</ele>
        <time>2019-11-24T08:20:20Z</time>
      </trkpt>
      <trkpt lat="47.03943" lon="-0.83555">
        <ele>146.866</ele>
        <time>2019-11-24T08:20:23Z</time>
      </trkpt>
      <trkpt lat="47.03946" lon="-0.83569">
        <ele>146.808</ele>
        <time>2019-11-24T08:20:29Z</time>
      </trkpt>
      <trkpt lat="47.03956" lon="-0.83558">
        <ele>146.776</ele>
        <time>2019-11-24T08:20:33Z</time>
      </trkpt>
      <trkpt lat="47.03959" lon="-0.83562">
        <ele>146.705</ele>
        <time>2019-11-24T08:20:41Z</time>
      </trkpt>
      <trkpt lat="47.03965" lon="-0.8356">
        <ele>146.687</ele>
        <time>2019-11-24T08:20:43Z</time>
      </trkpt>
      <trkpt lat="47.0397" lon="-0.8356">
        <ele>146.68</ele>
        <time>2019-11-24T08:20:44Z</time>
      </trkpt>
      <trkpt lat="47.03974" lon="-0.83561">
        <ele>146.674</ele>
        <time>2019-11-24T08:20:45Z</time>
      </trkpt>
      <trkpt lat="47.03979" lon="-0.83561">
        <ele>146.664</ele>
        <time>2019-11-24T08:20:48Z</time>
      </trkpt>
      <trkpt lat="47.03982" lon="-0.8356">
        <ele>146.663</ele>
        <time>2019-11-24T08:20:51Z</time>
      </trkpt>
      <trkpt lat="47.03989" lon="-0.83555">
        <ele>146.665</ele>
        <time>2019-11-24T08:20:59Z</time>
      </trkpt>
      <trkpt lat="47.03996" lon="-0.83553">
        <ele>146.675</ele>
        <time>2019-11-24T08:21:06Z</time>
      </trkpt>
      <trkpt lat="47.04002" lon="-0.83551">
        <ele>146.698</ele>
        <time>2019-11-24T08:21:11Z</time>
      </trkpt>
      <trkpt lat="47.04007" lon="-0.83554">
        <ele>146.713</ele>
        <time>2019-11-24T08:21:15Z</time>
      </trkpt>
      <trkpt lat="47.04013" lon="-0.83553">
        <ele>146.737</ele>
        <time>2019-11-24T08:21:21Z</time>
      </trkpt>
      <trkpt lat="47.04015" lon="-0.83548">
        <ele>146.751</ele>
        <time>2019-11-24T08:21:23Z</time>
      </trkpt>
      <trkpt lat="47.04018" lon="-0.83544">
        <ele>146.799</ele>
        <time>2019-11-24T08:21:30Z</time>
      </trkpt>
      <trkpt lat="47.04016" lon="-0.83534">
        <ele>146.846</ele>
        <time>2019-11-24T08:21:38Z</time>
      </trkpt>
      <trkpt lat="47.04011" lon="-0.8353">
        <ele>146.871</ele>
        <time>2019-11-24T08:21:43Z</time>
      </trkpt>
      <trkpt lat="47.04006" lon="-0.83531">
        <ele>146.89</ele>
        <time>2019-11-24T08:21:47Z</time>
      </trkpt>
      <trkpt lat="47.04004" lon="-0.83531">
        <ele>146.9</ele>
        <time>2019-11-24T08:21:49Z</time>
      </trkpt>
      <trkpt lat="47.03999" lon="-0.83528">
        <ele>146.922</ele>
        <time>2019-11-24T08:21:53Z</time>
      </trkpt>
      <trkpt lat="47.03994" lon="-0.83526">
        <ele>146.941</ele>
        <time>2019-11-24T08:21:56Z</time>
      </trkpt>
      <trkpt lat="47.0399" lon="-0.83526">
        <ele>146.969</ele>
        <time>2019-11-24T08:22:00Z</time>
      </trkpt>
      <trkpt lat="47.03986" lon="-0.83527">
        <ele>146.991</ele>
        <time>2019-11-24T08:22:03Z</time>
      </trkpt>
      <trkpt lat="47.03983" lon="-0.83527">
        <ele>147.007</ele>
        <time>2019-11-24T08:22:05Z</time>
      </trkpt>
      <trkpt lat="47.03977" lon="-0.83524">
        <ele>147.041</ele>
        <time>2019-11-24T08:22:09Z</time>
      </trkpt>
      <trkpt lat="47.03972" lon="-0.83521">
        <ele>147.079</ele>
        <time>2019-11-24T08:22:13Z</time>
      </trkpt>
      <trkpt lat="47.03967" lon="-0.83517">
        <ele>147.121</ele>
        <time>2019-11-24T08:22:17Z</time>
      </trkpt>
      <trkpt lat="47.03961" lon="-0.83513">
        <ele>147.177</ele>
        <time>2019-11-24T08:22:22Z</time>
      </trkpt>
      <trkpt lat="47.03958" lon="-0.83508">
        <ele>147.235</ele>
        <time>2019-11-24T08:22:27Z</time>
      </trkpt>
      <trkpt lat="47.03957" lon="-0.83499">
        <ele>147.28</ele>
        <time>2019-11-24T08:22:31Z</time>
      </trkpt>
      <trkpt lat="47.03955" lon="-0.83492">
        <ele>147.347</ele>
        <time>2019-11-24T08:22:37Z</time>
      </trkpt>
      <trkpt lat="47.03954" lon="-0.83485">
        <ele>147.383</ele>
        <time>2019-11-24T08:22:40Z</time>
      </trkpt>
      <trkpt lat="47.03954" lon="-0.83477">
        <ele>147.421</ele>
        <time>2019-11-24T08:22:43Z</time>
      </trkpt>
      <trkpt lat="47.03952" lon="-0.83469">
        <ele>147.474</ele>
        <time>2019-11-24T08:22:47Z</time>
      </trkpt>
      <trkpt lat="47.0395" lon="-0.83464">
        <ele>147.514</ele>
        <time>2019-11-24T08:22:50Z</time>
      </trkpt>
      <trkpt lat="47.03949" lon="-0.8346">
        <ele>147.544</ele>
        <time>2019-11-24T08:22:52Z</time>
      </trkpt>
      <trkpt lat="47.0395" lon="-0.83454">
        <ele>147.59</ele>
        <time>2019-11-24T08:22:55Z</time>
      </trkpt>
      <trkpt lat="47.03949" lon="-0.83445">
        <ele>147.633</ele>
        <time>2019-11-24T08:22:58Z</time>
      </trkpt>
      <trkpt lat="47.03949" lon="-0.83439">
        <ele>147.711</ele>
        <time>2019-11-24T08:23:03Z</time>
      </trkpt>
      <trkpt lat="47.03948" lon="-0.83431">
        <ele>147.829</ele>
        <time>2019-11-24T08:23:10Z</time>
      </trkpt>
      <trkpt lat="47.03948" lon="-0.83424">
        <ele>147.903</ele>
        <time>2019-11-24T08:23:14Z</time>
      </trkpt>
      <trkpt lat="47.0395" lon="-0.83418">
        <ele>147.975</ele>
        <time>2019-11-24T08:23:18Z</time>
      </trkpt>
      <trkpt lat="47.03952" lon="-0.83414">
        <ele>148.059</ele>
        <time>2019-11-24T08:23:23Z</time>
      </trkpt>
      <trkpt lat="47.03953" lon="-0.83407">
        <ele>148.136</ele>
        <time>2019-11-24T08:23:28Z</time>
      </trkpt>
      <trkpt lat="47.03954" lon="-0.83392">
        <ele>148.174</ele>
        <time>2019-11-24T08:23:31Z</time>
      </trkpt>
      <trkpt lat="47.03954" lon="-0.83388">
        <ele>148.186</ele>
        <time>2019-11-24T08:23:32Z</time>
      </trkpt>
      <trkpt lat="47.03955" lon="-0.8338">
        <ele>148.222</ele>
        <time>2019-11-24T08:23:35Z</time>
      </trkpt>
      <trkpt lat="47.03955" lon="-0.83376">
        <ele>148.248</ele>
        <time>2019-11-24T08:23:37Z</time>
      </trkpt>
      <trkpt lat="47.03959" lon="-0.8337">
        <ele>148.311</ele>
        <time>2019-11-24T08:23:42Z</time>
      </trkpt>
      <trkpt lat="47.03963" lon="-0.83369">
        <ele>148.359</ele>
        <time>2019-11-24T08:23:47Z</time>
      </trkpt>
      <trkpt lat="47.0397" lon="-0.83366">
        <ele>148.4</ele>
        <time>2019-11-24T08:23:51Z</time>
      </trkpt>
      <trkpt lat="47.03973" lon="-0.83364">
        <ele>148.418</ele>
        <time>2019-11-24T08:23:53Z</time>
      </trkpt>
      <trkpt lat="47.03976" lon="-0.83362">
        <ele>148.437</ele>
        <time>2019-11-24T08:23:55Z</time>
      </trkpt>
      <trkpt lat="47.03979" lon="-0.83357">
        <ele>148.472</ele>
        <time>2019-11-24T08:23:58Z</time>
      </trkpt>
      <trkpt lat="47.03982" lon="-0.83354">
        <ele>148.513</ele>
        <time>2019-11-24T08:24:01Z</time>
      </trkpt>
      <trkpt lat="47.03986" lon="-0.83353">
        <ele>148.652</ele>
        <time>2019-11-24T08:24:09Z</time>
      </trkpt>
      <trkpt lat="47.0399" lon="-0.83348">
        <ele>148.746</ele>
        <time>2019-11-24T08:24:14Z</time>
      </trkpt>
      <trkpt lat="47.03994" lon="-0.83344">
        <ele>148.803</ele>
        <time>2019-11-24T08:24:17Z</time>
      </trkpt>
      <trkpt lat="47.03999" lon="-0.8334">
        <ele>148.856</ele>
        <time>2019-11-24T08:24:20Z</time>
      </trkpt>
      <trkpt lat="47.04001" lon="-0.83338">
        <ele>148.889</ele>
        <time>2019-11-24T08:24:22Z</time>
      </trkpt>
      <trkpt lat="47.04005" lon="-0.83334">
        <ele>148.934</ele>
        <time>2019-11-24T08:24:25Z</time>
      </trkpt>
      <trkpt lat="47.04008" lon="-0.83332">
        <ele>148.963</ele>
        <time>2019-11-24T08:24:27Z</time>
      </trkpt>
      <trkpt lat="47.04011" lon="-0.83329">
        <ele>148.993</ele>
        <time>2019-11-24T08:24:29Z</time>
      </trkpt>
      <trkpt lat="47.04015" lon="-0.83323">
        <ele>149.058</ele>
        <time>2019-11-24T08:24:33Z</time>
      </trkpt>
      <trkpt lat="47.04019" lon="-0.83318">
        <ele>149.148</ele>
        <time>2019-11-24T08:24:38Z</time>
      </trkpt>
      <trkpt lat="47.04023" lon="-0.83315">
        <ele>149.225</ele>
        <time>2019-11-24T08:24:42Z</time>
      </trkpt>
      <trkpt lat="47.04025" lon="-0.83313">
        <ele>149.264</ele>
        <time>2019-11-24T08:24:44Z</time>
      </trkpt>
      <trkpt lat="47.04029" lon="-0.8331">
        <ele>149.346</ele>
        <time>2019-11-24T08:24:48Z</time>
      </trkpt>
      <trkpt lat="47.04033" lon="-0.83306">
        <ele>149.428</ele>
        <time>2019-11-24T08:24:52Z</time>
      </trkpt>
      <trkpt lat="47.04036" lon="-0.83304">
        <ele>149.468</ele>
        <time>2019-11-24T08:24:54Z</time>
      </trkpt>
      <trkpt lat="47.04038" lon="-0.83302">
        <ele>149.507</ele>
        <time>2019-11-24T08:24:56Z</time>
      </trkpt>
      <trkpt lat="47.04043" lon="-0.833">
        <ele>149.568</ele>
        <time>2019-11-24T08:24:59Z</time>
      </trkpt>
      <trkpt lat="47.04048" lon="-0.83298">
        <ele>149.629</ele>
        <time>2019-11-24T08:25:02Z</time>
      </trkpt>
      <trkpt lat="47.04055" lon="-0.83294">
        <ele>149.693</ele>
        <time>2019-11-24T08:25:05Z</time>
      </trkpt>
      <trkpt lat="47.04058" lon="-0.83293">
        <ele>149.74</ele>
        <time>2019-11-24T08:25:07Z</time>
      </trkpt>
      <trkpt lat="47.04064" lon="-0.83289">
        <ele>149.846</ele>
        <time>2019-11-24T08:25:11Z</time>
      </trkpt>
      <trkpt lat="47.04067" lon="-0.83287">
        <ele>149.933</ele>
        <time>2019-11-24T08:25:14Z</time>
      </trkpt>
      <trkpt lat="47.04069" lon="-0.83285">
        <ele>149.965</ele>
        <time>2019-11-24T08:25:15Z</time>
      </trkpt>
      <trkpt lat="47.04073" lon="-0.83281">
        <ele>150.162</ele>
        <time>2019-11-24T08:25:21Z</time>
      </trkpt>
      <trkpt lat="47.04076" lon="-0.83278">
        <ele>150.23</ele>
        <time>2019-11-24T08:25:23Z</time>
      </trkpt>
      <trkpt lat="47.04078" lon="-0.83276">
        <ele>150.332</ele>
        <time>2019-11-24T08:25:26Z</time>
      </trkpt>
      <trkpt lat="47.04083" lon="-0.83273">
        <ele>150.463</ele>
        <time>2019-11-24T08:25:30Z</time>
      </trkpt>
      <trkpt lat="47.04088" lon="-0.83269">
        <ele>150.563</ele>
        <time>2019-11-24T08:25:33Z</time>
      </trkpt>
      <trkpt lat="47.04088" lon="-0.83269">
        <ele>150.563</ele>
        <time>2019-11-24T08:25:38Z</time>
      </trkpt>
      <trkpt lat="47.04091" lon="-0.83263">
        <ele>150.75</ele>
        <time>2019-11-24T08:25:39Z</time>
      </trkpt>
      <trkpt lat="47.04095" lon="-0.83258">
        <ele>150.861</ele>
        <time>2019-11-24T08:25:43Z</time>
      </trkpt>
      <trkpt lat="47.04098" lon="-0.83252">
        <ele>150.964</ele>
        <time>2019-11-24T08:25:47Z</time>
      </trkpt>
      <trkpt lat="47.04102" lon="-0.83247">
        <ele>151.038</ele>
        <time>2019-11-24T08:25:50Z</time>
      </trkpt>
      <trkpt lat="47.04104" lon="-0.83241">
        <ele>151.134</ele>
        <time>2019-11-24T08:25:54Z</time>
      </trkpt>
      <trkpt lat="47.04107" lon="-0.83236">
        <ele>151.253</ele>
        <time>2019-11-24T08:26:01Z</time>
      </trkpt>
      <trkpt lat="47.04109" lon="-0.83228">
        <ele>151.349</ele>
        <time>2019-11-24T08:26:05Z</time>
      </trkpt>
      <trkpt lat="47.0411" lon="-0.83224">
        <ele>151.4</ele>
        <time>2019-11-24T08:26:07Z</time>
      </trkpt>
      <trkpt lat="47.04111" lon="-0.8322">
        <ele>151.451</ele>
        <time>2019-11-24T08:26:09Z</time>
      </trkpt>
      <trkpt lat="47.04113" lon="-0.83212">
        <ele>151.528</ele>
        <time>2019-11-24T08:26:12Z</time>
      </trkpt>
      <trkpt lat="47.04114" lon="-0.83206">
        <ele>151.583</ele>
        <time>2019-11-24T08:26:14Z</time>
      </trkpt>
      <trkpt lat="47.04115" lon="-0.832">
        <ele>151.639</ele>
        <time>2019-11-24T08:26:16Z</time>
      </trkpt>
      <trkpt lat="47.04116" lon="-0.83192">
        <ele>151.758</ele>
        <time>2019-11-24T08:26:20Z</time>
      </trkpt>
      <trkpt lat="47.04116" lon="-0.83185">
        <ele>151.884</ele>
        <time>2019-11-24T08:26:24Z</time>
      </trkpt>
      <trkpt lat="47.04116" lon="-0.83181">
        <ele>151.947</ele>
        <time>2019-11-24T08:26:26Z</time>
      </trkpt>
      <trkpt lat="47.04116" lon="-0.83174">
        <ele>152.075</ele>
        <time>2019-11-24T08:26:30Z</time>
      </trkpt>
      <trkpt lat="47.04116" lon="-0.8317">
        <ele>152.139</ele>
        <time>2019-11-24T08:26:32Z</time>
      </trkpt>
      <trkpt lat="47.04116" lon="-0.83163">
        <ele>152.247</ele>
        <time>2019-11-24T08:26:35Z</time>
      </trkpt>
      <trkpt lat="47.04118" lon="-0.83155">
        <ele>152.402</ele>
        <time>2019-11-24T08:26:39Z</time>
      </trkpt>
      <trkpt lat="47.04117" lon="-0.83148">
        <ele>152.528</ele>
        <time>2019-11-24T08:26:42Z</time>
      </trkpt>
      <trkpt lat="47.04118" lon="-0.83139">
        <ele>152.701</ele>
        <time>2019-11-24T08:26:46Z</time>
      </trkpt>
      <trkpt lat="47.04117" lon="-0.83132">
        <ele>152.878</ele>
        <time>2019-11-24T08:26:50Z</time>
      </trkpt>
      <trkpt lat="47.04117" lon="-0.83126">
        <ele>153.015</ele>
        <time>2019-11-24T08:26:53Z</time>
      </trkpt>
      <trkpt lat="47.04117" lon="-0.83123">
        <ele>153.154</ele>
        <time>2019-11-24T08:26:56Z</time>
      </trkpt>
      <trkpt lat="47.04116" lon="-0.83119">
        <ele>153.291</ele>
        <time>2019-11-24T08:26:59Z</time>
      </trkpt>
      <trkpt lat="47.04115" lon="-0.83112">
        <ele>153.512</ele>
        <time>2019-11-24T08:27:04Z</time>
      </trkpt>
      <trkpt lat="47.04114" lon="-0.83104">
        <ele>153.691</ele>
        <time>2019-11-24T08:27:08Z</time>
      </trkpt>
      <trkpt lat="47.04114" lon="-0.83098">
        <ele>153.828</ele>
        <time>2019-11-24T08:27:11Z</time>
      </trkpt>
      <trkpt lat="47.04113" lon="-0.8309">
        <ele>154.02</ele>
        <time>2019-11-24T08:27:15Z</time>
      </trkpt>
      <trkpt lat="47.04113" lon="-0.83084">
        <ele>154.118</ele>
        <time>2019-11-24T08:27:17Z</time>
      </trkpt>
      <trkpt lat="47.04112" lon="-0.83079">
        <ele>154.216</ele>
        <time>2019-11-24T08:27:19Z</time>
      </trkpt>
      <trkpt lat="47.04113" lon="-0.83071">
        <ele>154.563</ele>
        <time>2019-11-24T08:27:26Z</time>
      </trkpt>
      <trkpt lat="47.04112" lon="-0.83064">
        <ele>154.757</ele>
        <time>2019-11-24T08:27:30Z</time>
      </trkpt>
      <trkpt lat="47.04111" lon="-0.83059">
        <ele>154.856</ele>
        <time>2019-11-24T08:27:32Z</time>
      </trkpt>
      <trkpt lat="47.04111" lon="-0.83053">
        <ele>154.955</ele>
        <time>2019-11-24T08:27:34Z</time>
      </trkpt>
      <trkpt lat="47.04112" lon="-0.83047">
        <ele>155.199</ele>
        <time>2019-11-24T08:27:39Z</time>
      </trkpt>
      <trkpt lat="47.04112" lon="-0.83042">
        <ele>155.384</ele>
        <time>2019-11-24T08:27:43Z</time>
      </trkpt>
      <trkpt lat="47.04112" lon="-0.83039">
        <ele>155.475</ele>
        <time>2019-11-24T08:27:45Z</time>
      </trkpt>
      <trkpt lat="47.04112" lon="-0.83033">
        <ele>155.651</ele>
        <time>2019-11-24T08:27:49Z</time>
      </trkpt>
      <trkpt lat="47.04111" lon="-0.83026">
        <ele>155.861</ele>
        <time>2019-11-24T08:27:54Z</time>
      </trkpt>
      <trkpt lat="47.04111" lon="-0.83022">
        <ele>155.943</ele>
        <time>2019-11-24T08:27:56Z</time>
      </trkpt>
      <trkpt lat="47.0411" lon="-0.83016">
        <ele>156.024</ele>
        <time>2019-11-24T08:27:58Z</time>
      </trkpt>
      <trkpt lat="47.04109" lon="-0.8301">
        <ele>156.103</ele>
        <time>2019-11-24T08:28:00Z</time>
      </trkpt>
      <trkpt lat="47.04108" lon="-0.83004">
        <ele>156.182</ele>
        <time>2019-11-24T08:28:02Z</time>
      </trkpt>
      <trkpt lat="47.04108" lon="-0.82999">
        <ele>156.261</ele>
        <time>2019-11-24T08:28:04Z</time>
      </trkpt>
      <trkpt lat="47.04107" lon="-0.82991">
        <ele>156.378</ele>
        <time>2019-11-24T08:28:07Z</time>
      </trkpt>
      <trkpt lat="47.04107" lon="-0.82984">
        <ele>156.495</ele>
        <time>2019-11-24T08:28:10Z</time>
      </trkpt>
      <trkpt lat="47.04105" lon="-0.82977">
        <ele>156.648</ele>
        <time>2019-11-24T08:28:14Z</time>
      </trkpt>
      <trkpt lat="47.04104" lon="-0.82973">
        <ele>156.726</ele>
        <time>2019-11-24T08:28:16Z</time>
      </trkpt>
      <trkpt lat="47.04103" lon="-0.82965">
        <ele>156.919</ele>
        <time>2019-11-24T08:28:21Z</time>
      </trkpt>
      <trkpt lat="47.04103" lon="-0.82962">
        <ele>156.995</ele>
        <time>2019-11-24T08:28:23Z</time>
      </trkpt>
      <trkpt lat="47.04102" lon="-0.82956">
        <ele>157.105</ele>
        <time>2019-11-24T08:28:26Z</time>
      </trkpt>
      <trkpt lat="47.04101" lon="-0.82952">
        <ele>157.176</ele>
        <time>2019-11-24T08:28:28Z</time>
      </trkpt>
      <trkpt lat="47.041" lon="-0.82944">
        <ele>157.315</ele>
        <time>2019-11-24T08:28:32Z</time>
      </trkpt>
      <trkpt lat="47.041" lon="-0.82934">
        <ele>157.491</ele>
        <time>2019-11-24T08:28:37Z</time>
      </trkpt>
      <trkpt lat="47.041" lon="-0.82927">
        <ele>157.594</ele>
        <time>2019-11-24T08:28:40Z</time>
      </trkpt>
      <trkpt lat="47.04098" lon="-0.8292">
        <ele>157.723</ele>
        <time>2019-11-24T08:28:44Z</time>
      </trkpt>
      <trkpt lat="47.04098" lon="-0.82916">
        <ele>157.785</ele>
        <time>2019-11-24T08:28:46Z</time>
      </trkpt>
      <trkpt lat="47.04097" lon="-0.82913">
        <ele>157.845</ele>
        <time>2019-11-24T08:28:48Z</time>
      </trkpt>
      <trkpt lat="47.04095" lon="-0.82904">
        <ele>157.995</ele>
        <time>2019-11-24T08:28:53Z</time>
      </trkpt>
      <trkpt lat="47.04095" lon="-0.82897">
        <ele>158.082</ele>
        <time>2019-11-24T08:28:56Z</time>
      </trkpt>
      <trkpt lat="47.04094" lon="-0.82893">
        <ele>158.14</ele>
        <time>2019-11-24T08:28:58Z</time>
      </trkpt>
      <trkpt lat="47.04093" lon="-0.82889">
        <ele>158.195</ele>
        <time>2019-11-24T08:29:00Z</time>
      </trkpt>
      <trkpt lat="47.04092" lon="-0.82882">
        <ele>158.278</ele>
        <time>2019-11-24T08:29:03Z</time>
      </trkpt>
      <trkpt lat="47.04091" lon="-0.82878">
        <ele>158.332</ele>
        <time>2019-11-24T08:29:05Z</time>
      </trkpt>
      <trkpt lat="47.04089" lon="-0.82869">
        <ele>158.435</ele>
        <time>2019-11-24T08:29:09Z</time>
      </trkpt>
      <trkpt lat="47.04087" lon="-0.82864">
        <ele>158.486</ele>
        <time>2019-11-24T08:29:11Z</time>
      </trkpt>
      <trkpt lat="47.04086" lon="-0.82857">
        <ele>158.584</ele>
        <time>2019-11-24T08:29:15Z</time>
      </trkpt>
      <trkpt lat="47.04083" lon="-0.82851">
        <ele>158.678</ele>
        <time>2019-11-24T08:29:19Z</time>
      </trkpt>
      <trkpt lat="47.04081" lon="-0.82848">
        <ele>158.724</ele>
        <time>2019-11-24T08:29:21Z</time>
      </trkpt>
      <trkpt lat="47.0408" lon="-0.82845">
        <ele>158.768</ele>
        <time>2019-11-24T08:29:23Z</time>
      </trkpt>
      <trkpt lat="47.04078" lon="-0.82841">
        <ele>158.81</ele>
        <time>2019-11-24T08:29:25Z</time>
      </trkpt>
      <trkpt lat="47.04077" lon="-0.82838">
        <ele>158.85</ele>
        <time>2019-11-24T08:29:27Z</time>
      </trkpt>
      <trkpt lat="47.04075" lon="-0.82831">
        <ele>158.924</ele>
        <time>2019-11-24T08:29:31Z</time>
      </trkpt>
      <trkpt lat="47.04077" lon="-0.82824">
        <ele>158.977</ele>
        <time>2019-11-24T08:29:34Z</time>
      </trkpt>
      <trkpt lat="47.0408" lon="-0.82818">
        <ele>159.026</ele>
        <time>2019-11-24T08:29:37Z</time>
      </trkpt>
      <trkpt lat="47.04083" lon="-0.82814">
        <ele>159.069</ele>
        <time>2019-11-24T08:29:40Z</time>
      </trkpt>
      <trkpt lat="47.04089" lon="-0.82811">
        <ele>159.139</ele>
        <time>2019-11-24T08:29:45Z</time>
      </trkpt>
      <trkpt lat="47.04092" lon="-0.82809">
        <ele>159.166</ele>
        <time>2019-11-24T08:29:47Z</time>
      </trkpt>
      <trkpt lat="47.04097" lon="-0.82807">
        <ele>159.218</ele>
        <time>2019-11-24T08:29:51Z</time>
      </trkpt>
      <trkpt lat="47.041" lon="-0.82806">
        <ele>159.244</ele>
        <time>2019-11-24T08:29:53Z</time>
      </trkpt>
      <trkpt lat="47.04104" lon="-0.82803">
        <ele>159.281</ele>
        <time>2019-11-24T08:29:56Z</time>
      </trkpt>
      <trkpt lat="47.04107" lon="-0.82801">
        <ele>159.32</ele>
        <time>2019-11-24T08:29:59Z</time>
      </trkpt>
      <trkpt lat="47.04111" lon="-0.82797">
        <ele>159.357</ele>
        <time>2019-11-24T08:30:02Z</time>
      </trkpt>
      <trkpt lat="47.04115" lon="-0.82791">
        <ele>159.393</ele>
        <time>2019-11-24T08:30:05Z</time>
      </trkpt>
      <trkpt lat="47.04117" lon="-0.82788">
        <ele>159.415</ele>
        <time>2019-11-24T08:30:07Z</time>
      </trkpt>
      <trkpt lat="47.0412" lon="-0.8278">
        <ele>159.454</ele>
        <time>2019-11-24T08:30:11Z</time>
      </trkpt>
      <trkpt lat="47.04122" lon="-0.82776">
        <ele>159.472</ele>
        <time>2019-11-24T08:30:13Z</time>
      </trkpt>
      <trkpt lat="47.04124" lon="-0.82771">
        <ele>159.491</ele>
        <time>2019-11-24T08:30:15Z</time>
      </trkpt>
      <trkpt lat="47.04125" lon="-0.82768">
        <ele>159.5</ele>
        <time>2019-11-24T08:30:16Z</time>
      </trkpt>
      <trkpt lat="47.04127" lon="-0.82763">
        <ele>159.517</ele>
        <time>2019-11-24T08:30:18Z</time>
      </trkpt>
      <trkpt lat="47.04129" lon="-0.82755">
        <ele>159.552</ele>
        <time>2019-11-24T08:30:22Z</time>
      </trkpt>
      <trkpt lat="47.04131" lon="-0.82748">
        <ele>159.578</ele>
        <time>2019-11-24T08:30:25Z</time>
      </trkpt>
      <trkpt lat="47.04132" lon="-0.82741">
        <ele>159.602</ele>
        <time>2019-11-24T08:30:28Z</time>
      </trkpt>
      <trkpt lat="47.04132" lon="-0.82734">
        <ele>159.634</ele>
        <time>2019-11-24T08:30:32Z</time>
      </trkpt>
      <trkpt lat="47.04133" lon="-0.82731">
        <ele>159.651</ele>
        <time>2019-11-24T08:30:34Z</time>
      </trkpt>
      <trkpt lat="47.04133" lon="-0.82727">
        <ele>159.671</ele>
        <time>2019-11-24T08:30:36Z</time>
      </trkpt>
      <trkpt lat="47.04135" lon="-0.8272">
        <ele>159.7</ele>
        <time>2019-11-24T08:30:39Z</time>
      </trkpt>
      <trkpt lat="47.04135" lon="-0.82712">
        <ele>159.735</ele>
        <time>2019-11-24T08:30:42Z</time>
      </trkpt>
      <trkpt lat="47.04136" lon="-0.82707">
        <ele>159.775</ele>
        <time>2019-11-24T08:30:45Z</time>
      </trkpt>
      <trkpt lat="47.04136" lon="-0.82703">
        <ele>159.803</ele>
        <time>2019-11-24T08:30:47Z</time>
      </trkpt>
      <trkpt lat="47.04136" lon="-0.82698">
        <ele>159.832</ele>
        <time>2019-11-24T08:30:49Z</time>
      </trkpt>
      <trkpt lat="47.04136" lon="-0.82691">
        <ele>159.879</ele>
        <time>2019-11-24T08:30:52Z</time>
      </trkpt>
      <trkpt lat="47.04137" lon="-0.82684">
        <ele>159.925</ele>
        <time>2019-11-24T08:30:55Z</time>
      </trkpt>
      <trkpt lat="47.04137" lon="-0.82677">
        <ele>159.985</ele>
        <time>2019-11-24T08:30:59Z</time>
      </trkpt>
      <trkpt lat="47.04139" lon="-0.82669">
        <ele>160.063</ele>
        <time>2019-11-24T08:31:04Z</time>
      </trkpt>
      <trkpt lat="47.04141" lon="-0.82666">
        <ele>160.097</ele>
        <time>2019-11-24T08:31:06Z</time>
      </trkpt>
      <trkpt lat="47.04142" lon="-0.82663">
        <ele>160.133</ele>
        <time>2019-11-24T08:31:08Z</time>
      </trkpt>
      <trkpt lat="47.04143" lon="-0.8266">
        <ele>160.171</ele>
        <time>2019-11-24T08:31:10Z</time>
      </trkpt>
      <trkpt lat="47.04144" lon="-0.82653">
        <ele>160.228</ele>
        <time>2019-11-24T08:31:13Z</time>
      </trkpt>
      <trkpt lat="47.04148" lon="-0.82647">
        <ele>160.288</ele>
        <time>2019-11-24T08:31:16Z</time>
      </trkpt>
      <trkpt lat="47.04151" lon="-0.8264">
        <ele>160.374</ele>
        <time>2019-11-24T08:31:20Z</time>
      </trkpt>
      <trkpt lat="47.04154" lon="-0.82635">
        <ele>160.443</ele>
        <time>2019-11-24T08:31:23Z</time>
      </trkpt>
      <trkpt lat="47.04156" lon="-0.82629">
        <ele>160.538</ele>
        <time>2019-11-24T08:31:27Z</time>
      </trkpt>
      <trkpt lat="47.0416" lon="-0.82623">
        <ele>160.636</ele>
        <time>2019-11-24T08:31:31Z</time>
      </trkpt>
      <trkpt lat="47.04164" lon="-0.82618">
        <ele>160.758</ele>
        <time>2019-11-24T08:31:36Z</time>
      </trkpt>
      <trkpt lat="47.04167" lon="-0.82611">
        <ele>160.874</ele>
        <time>2019-11-24T08:31:41Z</time>
      </trkpt>
      <trkpt lat="47.04171" lon="-0.82604">
        <ele>160.96</ele>
        <time>2019-11-24T08:31:45Z</time>
      </trkpt>
      <trkpt lat="47.04173" lon="-0.826">
        <ele>160.999</ele>
        <time>2019-11-24T08:31:47Z</time>
      </trkpt>
      <trkpt lat="47.04175" lon="-0.82594">
        <ele>161.052</ele>
        <time>2019-11-24T08:31:50Z</time>
      </trkpt>
      <trkpt lat="47.04177" lon="-0.8259">
        <ele>161.085</ele>
        <time>2019-11-24T08:31:52Z</time>
      </trkpt>
      <trkpt lat="47.04179" lon="-0.82587">
        <ele>161.116</ele>
        <time>2019-11-24T08:31:54Z</time>
      </trkpt>
      <trkpt lat="47.04182" lon="-0.8258">
        <ele>161.174</ele>
        <time>2019-11-24T08:31:58Z</time>
      </trkpt>
      <trkpt lat="47.04185" lon="-0.82576">
        <ele>161.201</ele>
        <time>2019-11-24T08:32:00Z</time>
      </trkpt>
      <trkpt lat="47.04187" lon="-0.82573">
        <ele>161.228</ele>
        <time>2019-11-24T08:32:02Z</time>
      </trkpt>
      <trkpt lat="47.04188" lon="-0.82571">
        <ele>161.255</ele>
        <time>2019-11-24T08:32:04Z</time>
      </trkpt>
      <trkpt lat="47.04192" lon="-0.82566">
        <ele>161.305</ele>
        <time>2019-11-24T08:32:08Z</time>
      </trkpt>
      <trkpt lat="47.04193" lon="-0.82563">
        <ele>161.329</ele>
        <time>2019-11-24T08:32:10Z</time>
      </trkpt>
      <trkpt lat="47.04197" lon="-0.82557">
        <ele>161.37</ele>
        <time>2019-11-24T08:32:14Z</time>
      </trkpt>
      <trkpt lat="47.04199" lon="-0.82551">
        <ele>161.396</ele>
        <time>2019-11-24T08:32:17Z</time>
      </trkpt>
      <trkpt lat="47.04201" lon="-0.82547">
        <ele>161.412</ele>
        <time>2019-11-24T08:32:19Z</time>
      </trkpt>
      <trkpt lat="47.04202" lon="-0.82544">
        <ele>161.426</ele>
        <time>2019-11-24T08:32:21Z</time>
      </trkpt>
      <trkpt lat="47.04203" lon="-0.82541">
        <ele>161.438</ele>
        <time>2019-11-24T08:32:23Z</time>
      </trkpt>
      <trkpt lat="47.04204" lon="-0.82537">
        <ele>161.448</ele>
        <time>2019-11-24T08:32:25Z</time>
      </trkpt>
      <trkpt lat="47.04206" lon="-0.82533">
        <ele>161.456</ele>
        <time>2019-11-24T08:32:27Z</time>
      </trkpt>
      <trkpt lat="47.04208" lon="-0.8253">
        <ele>161.462</ele>
        <time>2019-11-24T08:32:29Z</time>
      </trkpt>
      <trkpt lat="47.04209" lon="-0.82527">
        <ele>161.466</ele>
        <time>2019-11-24T08:32:31Z</time>
      </trkpt>
      <trkpt lat="47.04211" lon="-0.82523">
        <ele>161.468</ele>
        <time>2019-11-24T08:32:33Z</time>
      </trkpt>
      <trkpt lat="47.04215" lon="-0.8252">
        <ele>161.471</ele>
        <time>2019-11-24T08:32:37Z</time>
      </trkpt>
      <trkpt lat="47.04219" lon="-0.82514">
        <ele>161.473</ele>
        <time>2019-11-24T08:32:40Z</time>
      </trkpt>
      <trkpt lat="47.04222" lon="-0.82507">
        <ele>161.473</ele>
        <time>2019-11-24T08:32:44Z</time>
      </trkpt>
      <trkpt lat="47.04224" lon="-0.82502">
        <ele>161.472</ele>
        <time>2019-11-24T08:32:47Z</time>
      </trkpt>
      <trkpt lat="47.04227" lon="-0.82495">
        <ele>161.468</ele>
        <time>2019-11-24T08:32:51Z</time>
      </trkpt>
      <trkpt lat="47.04229" lon="-0.82489">
        <ele>161.465</ele>
        <time>2019-11-24T08:32:55Z</time>
      </trkpt>
      <trkpt lat="47.04234" lon="-0.82485">
        <ele>161.459</ele>
        <time>2019-11-24T08:32:59Z</time>
      </trkpt>
      <trkpt lat="47.04238" lon="-0.82478">
        <ele>161.456</ele>
        <time>2019-11-24T08:33:03Z</time>
      </trkpt>
      <trkpt lat="47.0424" lon="-0.82474">
        <ele>161.452</ele>
        <time>2019-11-24T08:33:05Z</time>
      </trkpt>
      <trkpt lat="47.04243" lon="-0.8247">
        <ele>161.447</ele>
        <time>2019-11-24T08:33:08Z</time>
      </trkpt>
      <trkpt lat="47.04248" lon="-0.82464">
        <ele>161.435</ele>
        <time>2019-11-24T08:33:12Z</time>
      </trkpt>
      <trkpt lat="47.0425" lon="-0.82456">
        <ele>161.418</ele>
        <time>2019-11-24T08:33:16Z</time>
      </trkpt>
      <trkpt lat="47.04253" lon="-0.8245">
        <ele>161.395</ele>
        <time>2019-11-24T08:33:20Z</time>
      </trkpt>
      <trkpt lat="47.04257" lon="-0.82444">
        <ele>161.376</ele>
        <time>2019-11-24T08:33:23Z</time>
      </trkpt>
      <trkpt lat="47.0426" lon="-0.82438">
        <ele>161.359</ele>
        <time>2019-11-24T08:33:26Z</time>
      </trkpt>
      <trkpt lat="47.04263" lon="-0.82434">
        <ele>161.347</ele>
        <time>2019-11-24T08:33:28Z</time>
      </trkpt>
      <trkpt lat="47.04266" lon="-0.82429">
        <ele>161.329</ele>
        <time>2019-11-24T08:33:31Z</time>
      </trkpt>
      <trkpt lat="47.04269" lon="-0.82424">
        <ele>161.309</ele>
        <time>2019-11-24T08:33:34Z</time>
      </trkpt>
      <trkpt lat="47.04273" lon="-0.82419">
        <ele>161.289</ele>
        <time>2019-11-24T08:33:37Z</time>
      </trkpt>
      <trkpt lat="47.04277" lon="-0.82413">
        <ele>161.263</ele>
        <time>2019-11-24T08:33:41Z</time>
      </trkpt>
      <trkpt lat="47.04281" lon="-0.82408">
        <ele>161.244</ele>
        <time>2019-11-24T08:33:44Z</time>
      </trkpt>
      <trkpt lat="47.04284" lon="-0.82403">
        <ele>161.224</ele>
        <time>2019-11-24T08:33:47Z</time>
      </trkpt>
      <trkpt lat="47.04288" lon="-0.82399">
        <ele>161.204</ele>
        <time>2019-11-24T08:33:50Z</time>
      </trkpt>
      <trkpt lat="47.0429" lon="-0.82393">
        <ele>161.184</ele>
        <time>2019-11-24T08:33:53Z</time>
      </trkpt>
      <trkpt lat="47.04292" lon="-0.82388">
        <ele>161.163</ele>
        <time>2019-11-24T08:33:56Z</time>
      </trkpt>
      <trkpt lat="47.04294" lon="-0.82382">
        <ele>161.142</ele>
        <time>2019-11-24T08:33:59Z</time>
      </trkpt>
      <trkpt lat="47.04295" lon="-0.82379">
        <ele>161.127</ele>
        <time>2019-11-24T08:34:01Z</time>
      </trkpt>
      <trkpt lat="47.04298" lon="-0.82373">
        <ele>161.103</ele>
        <time>2019-11-24T08:34:04Z</time>
      </trkpt>
      <trkpt lat="47.04297" lon="-0.82368">
        <ele>161.065</ele>
        <time>2019-11-24T08:34:11Z</time>
      </trkpt>
      <trkpt lat="47.04299" lon="-0.8236">
        <ele>161.016</ele>
        <time>2019-11-24T08:34:16Z</time>
      </trkpt>
      <trkpt lat="47.043" lon="-0.82351">
        <ele>160.986</ele>
        <time>2019-11-24T08:34:19Z</time>
      </trkpt>
      <trkpt lat="47.043" lon="-0.82347">
        <ele>160.967</ele>
        <time>2019-11-24T08:34:21Z</time>
      </trkpt>
      <trkpt lat="47.04299" lon="-0.8234">
        <ele>160.936</ele>
        <time>2019-11-24T08:34:24Z</time>
      </trkpt>
      <trkpt lat="47.04299" lon="-0.82335">
        <ele>160.914</ele>
        <time>2019-11-24T08:34:26Z</time>
      </trkpt>
      <trkpt lat="47.04299" lon="-0.82329">
        <ele>160.891</ele>
        <time>2019-11-24T08:34:28Z</time>
      </trkpt>
      <trkpt lat="47.04299" lon="-0.82324">
        <ele>160.866</ele>
        <time>2019-11-24T08:34:30Z</time>
      </trkpt>
      <trkpt lat="47.04301" lon="-0.82318">
        <ele>160.813</ele>
        <time>2019-11-24T08:34:34Z</time>
      </trkpt>
      <trkpt lat="47.04302" lon="-0.82315">
        <ele>160.785</ele>
        <time>2019-11-24T08:34:36Z</time>
      </trkpt>
      <trkpt lat="47.04303" lon="-0.82311">
        <ele>160.756</ele>
        <time>2019-11-24T08:34:38Z</time>
      </trkpt>
      <trkpt lat="47.04305" lon="-0.82307">
        <ele>160.727</ele>
        <time>2019-11-24T08:34:40Z</time>
      </trkpt>
      <trkpt lat="47.04306" lon="-0.82303">
        <ele>160.697</ele>
        <time>2019-11-24T08:34:42Z</time>
      </trkpt>
      <trkpt lat="47.04309" lon="-0.82298">
        <ele>160.651</ele>
        <time>2019-11-24T08:34:45Z</time>
      </trkpt>
      <trkpt lat="47.04313" lon="-0.82292">
        <ele>160.586</ele>
        <time>2019-11-24T08:34:49Z</time>
      </trkpt>
      <trkpt lat="47.04316" lon="-0.82287">
        <ele>160.517</ele>
        <time>2019-11-24T08:34:53Z</time>
      </trkpt>
      <trkpt lat="47.04318" lon="-0.82284">
        <ele>160.481</ele>
        <time>2019-11-24T08:34:55Z</time>
      </trkpt>
      <trkpt lat="47.04322" lon="-0.8228">
        <ele>160.407</ele>
        <time>2019-11-24T08:34:59Z</time>
      </trkpt>
      <trkpt lat="47.04325" lon="-0.82277">
        <ele>160.369</ele>
        <time>2019-11-24T08:35:01Z</time>
      </trkpt>
      <trkpt lat="47.04329" lon="-0.82272">
        <ele>160.311</ele>
        <time>2019-11-24T08:35:04Z</time>
      </trkpt>
      <trkpt lat="47.04332" lon="-0.8227">
        <ele>160.272</ele>
        <time>2019-11-24T08:35:06Z</time>
      </trkpt>
      <trkpt lat="47.04336" lon="-0.82266">
        <ele>160.212</ele>
        <time>2019-11-24T08:35:09Z</time>
      </trkpt>
      <trkpt lat="47.0434" lon="-0.82262">
        <ele>160.109</ele>
        <time>2019-11-24T08:35:14Z</time>
      </trkpt>
      <trkpt lat="47.04343" lon="-0.82256">
        <ele>160.05</ele>
        <time>2019-11-24T08:35:17Z</time>
      </trkpt>
      <trkpt lat="47.04347" lon="-0.82252">
        <ele>159.975</ele>
        <time>2019-11-24T08:35:21Z</time>
      </trkpt>
      <trkpt lat="47.04352" lon="-0.82248">
        <ele>159.92</ele>
        <time>2019-11-24T08:35:24Z</time>
      </trkpt>
      <trkpt lat="47.04355" lon="-0.82245">
        <ele>159.884</ele>
        <time>2019-11-24T08:35:26Z</time>
      </trkpt>
      <trkpt lat="47.04357" lon="-0.82244">
        <ele>159.848</ele>
        <time>2019-11-24T08:35:28Z</time>
      </trkpt>
      <trkpt lat="47.04362" lon="-0.82239">
        <ele>159.779</ele>
        <time>2019-11-24T08:35:32Z</time>
      </trkpt>
      <trkpt lat="47.04366" lon="-0.82236">
        <ele>159.729</ele>
        <time>2019-11-24T08:35:35Z</time>
      </trkpt>
      <trkpt lat="47.04371" lon="-0.82234">
        <ele>159.663</ele>
        <time>2019-11-24T08:35:39Z</time>
      </trkpt>
      <trkpt lat="47.04375" lon="-0.8223">
        <ele>159.617</ele>
        <time>2019-11-24T08:35:42Z</time>
      </trkpt>
      <trkpt lat="47.04378" lon="-0.82227">
        <ele>159.587</ele>
        <time>2019-11-24T08:35:44Z</time>
      </trkpt>
      <trkpt lat="47.04381" lon="-0.82222">
        <ele>159.528</ele>
        <time>2019-11-24T08:35:48Z</time>
      </trkpt>
      <trkpt lat="47.04383" lon="-0.8222">
        <ele>159.499</ele>
        <time>2019-11-24T08:35:50Z</time>
      </trkpt>
      <trkpt lat="47.04385" lon="-0.82217">
        <ele>159.472</ele>
        <time>2019-11-24T08:35:52Z</time>
      </trkpt>
      <trkpt lat="47.04389" lon="-0.82214">
        <ele>159.429</ele>
        <time>2019-11-24T08:35:55Z</time>
      </trkpt>
      <trkpt lat="47.04392" lon="-0.82212">
        <ele>159.4</ele>
        <time>2019-11-24T08:35:57Z</time>
      </trkpt>
      <trkpt lat="47.04395" lon="-0.82209">
        <ele>159.37</ele>
        <time>2019-11-24T08:35:59Z</time>
      </trkpt>
      <trkpt lat="47.044" lon="-0.82207">
        <ele>159.328</ele>
        <time>2019-11-24T08:36:02Z</time>
      </trkpt>
      <trkpt lat="47.04404" lon="-0.82203">
        <ele>159.271</ele>
        <time>2019-11-24T08:36:06Z</time>
      </trkpt>
      <trkpt lat="47.04407" lon="-0.822">
        <ele>159.241</ele>
        <time>2019-11-24T08:36:08Z</time>
      </trkpt>
      <trkpt lat="47.04411" lon="-0.82195">
        <ele>159.183</ele>
        <time>2019-11-24T08:36:12Z</time>
      </trkpt>
      <trkpt lat="47.04415" lon="-0.82191">
        <ele>159.141</ele>
        <time>2019-11-24T08:36:15Z</time>
      </trkpt>
      <trkpt lat="47.04418" lon="-0.82186">
        <ele>159.1</ele>
        <time>2019-11-24T08:36:18Z</time>
      </trkpt>
      <trkpt lat="47.04422" lon="-0.82182">
        <ele>159.06</ele>
        <time>2019-11-24T08:36:21Z</time>
      </trkpt>
      <trkpt lat="47.04425" lon="-0.82176">
        <ele>159.007</ele>
        <time>2019-11-24T08:36:25Z</time>
      </trkpt>
      <trkpt lat="47.04427" lon="-0.82173">
        <ele>158.98</ele>
        <time>2019-11-24T08:36:27Z</time>
      </trkpt>
      <trkpt lat="47.04429" lon="-0.82171">
        <ele>158.953</ele>
        <time>2019-11-24T08:36:29Z</time>
      </trkpt>
      <trkpt lat="47.04431" lon="-0.82167">
        <ele>158.926</ele>
        <time>2019-11-24T08:36:31Z</time>
      </trkpt>
      <trkpt lat="47.04435" lon="-0.82162">
        <ele>158.873</ele>
        <time>2019-11-24T08:36:35Z</time>
      </trkpt>
      <trkpt lat="47.04438" lon="-0.82159">
        <ele>158.836</ele>
        <time>2019-11-24T08:36:38Z</time>
      </trkpt>
      <trkpt lat="47.0444" lon="-0.82155">
        <ele>158.8</ele>
        <time>2019-11-24T08:36:41Z</time>
      </trkpt>
      <trkpt lat="47.04445" lon="-0.82151">
        <ele>158.752</ele>
        <time>2019-11-24T08:36:45Z</time>
      </trkpt>
      <trkpt lat="47.04449" lon="-0.82149">
        <ele>158.692</ele>
        <time>2019-11-24T08:36:50Z</time>
      </trkpt>
      <trkpt lat="47.04453" lon="-0.82148">
        <ele>158.656</ele>
        <time>2019-11-24T08:36:53Z</time>
      </trkpt>
      <trkpt lat="47.04457" lon="-0.82146">
        <ele>158.61</ele>
        <time>2019-11-24T08:36:57Z</time>
      </trkpt>
      <trkpt lat="47.04462" lon="-0.82142">
        <ele>158.547</ele>
        <time>2019-11-24T08:37:03Z</time>
      </trkpt>
      <trkpt lat="47.04468" lon="-0.82141">
        <ele>158.513</ele>
        <time>2019-11-24T08:37:07Z</time>
      </trkpt>
      <trkpt lat="47.0447" lon="-0.8214">
        <ele>158.489</ele>
        <time>2019-11-24T08:37:10Z</time>
      </trkpt>
      <trkpt lat="47.04476" lon="-0.82137">
        <ele>158.46</ele>
        <time>2019-11-24T08:37:14Z</time>
      </trkpt>
      <trkpt lat="47.04479" lon="-0.82135">
        <ele>158.438</ele>
        <time>2019-11-24T08:37:17Z</time>
      </trkpt>
      <trkpt lat="47.04481" lon="-0.82134">
        <ele>158.424</ele>
        <time>2019-11-24T08:37:19Z</time>
      </trkpt>
      <trkpt lat="47.04483" lon="-0.82133">
        <ele>158.41</ele>
        <time>2019-11-24T08:37:21Z</time>
      </trkpt>
      <trkpt lat="47.04486" lon="-0.82132">
        <ele>158.396</ele>
        <time>2019-11-24T08:37:23Z</time>
      </trkpt>
      <trkpt lat="47.0449" lon="-0.82131">
        <ele>158.37</ele>
        <time>2019-11-24T08:37:27Z</time>
      </trkpt>
      <trkpt lat="47.04493" lon="-0.8213">
        <ele>158.356</ele>
        <time>2019-11-24T08:37:29Z</time>
      </trkpt>
      <trkpt lat="47.04497" lon="-0.82127">
        <ele>158.329</ele>
        <time>2019-11-24T08:37:33Z</time>
      </trkpt>
      <trkpt lat="47.04502" lon="-0.82128">
        <ele>158.304</ele>
        <time>2019-11-24T08:37:37Z</time>
      </trkpt>
      <trkpt lat="47.04506" lon="-0.82125">
        <ele>158.282</ele>
        <time>2019-11-24T08:37:41Z</time>
      </trkpt>
      <trkpt lat="47.04509" lon="-0.82123">
        <ele>158.266</ele>
        <time>2019-11-24T08:37:44Z</time>
      </trkpt>
      <trkpt lat="47.04514" lon="-0.82121">
        <ele>158.237</ele>
        <time>2019-11-24T08:37:50Z</time>
      </trkpt>
      <trkpt lat="47.0452" lon="-0.8212">
        <ele>158.222</ele>
        <time>2019-11-24T08:37:53Z</time>
      </trkpt>
      <trkpt lat="47.04523" lon="-0.8212">
        <ele>158.217</ele>
        <time>2019-11-24T08:37:54Z</time>
      </trkpt>
      <trkpt lat="47.04528" lon="-0.82116">
        <ele>158.199</ele>
        <time>2019-11-24T08:37:58Z</time>
      </trkpt>
      <trkpt lat="47.04532" lon="-0.82114">
        <ele>158.18</ele>
        <time>2019-11-24T08:38:03Z</time>
      </trkpt>
      <trkpt lat="47.04537" lon="-0.82111">
        <ele>158.163</ele>
        <time>2019-11-24T08:38:09Z</time>
      </trkpt>
      <trkpt lat="47.0454" lon="-0.8211">
        <ele>158.158</ele>
        <time>2019-11-24T08:38:12Z</time>
      </trkpt>
      <trkpt lat="47.04545" lon="-0.82108">
        <ele>158.156</ele>
        <time>2019-11-24T08:38:17Z</time>
      </trkpt>
      <trkpt lat="47.04549" lon="-0.82107">
        <ele>158.157</ele>
        <time>2019-11-24T08:38:21Z</time>
      </trkpt>
      <trkpt lat="47.04554" lon="-0.82104">
        <ele>158.164</ele>
        <time>2019-11-24T08:38:26Z</time>
      </trkpt>
      <trkpt lat="47.04558" lon="-0.82103">
        <ele>158.18</ele>
        <time>2019-11-24T08:38:30Z</time>
      </trkpt>
      <trkpt lat="47.04562" lon="-0.82097">
        <ele>158.211</ele>
        <time>2019-11-24T08:38:36Z</time>
      </trkpt>
      <trkpt lat="47.04565" lon="-0.82093">
        <ele>158.229</ele>
        <time>2019-11-24T08:38:39Z</time>
      </trkpt>
      <trkpt lat="47.04568" lon="-0.82087">
        <ele>158.257</ele>
        <time>2019-11-24T08:38:43Z</time>
      </trkpt>
      <trkpt lat="47.04568" lon="-0.82079">
        <ele>158.302</ele>
        <time>2019-11-24T08:38:48Z</time>
      </trkpt>
      <trkpt lat="47.04568" lon="-0.82071">
        <ele>158.364</ele>
        <time>2019-11-24T08:38:53Z</time>
      </trkpt>
      <trkpt lat="47.04566" lon="-0.82063">
        <ele>158.418</ele>
        <time>2019-11-24T08:38:57Z</time>
      </trkpt>
      <trkpt lat="47.04564" lon="-0.82059">
        <ele>158.462</ele>
        <time>2019-11-24T08:39:00Z</time>
      </trkpt>
      <trkpt lat="47.04562" lon="-0.82053">
        <ele>158.522</ele>
        <time>2019-11-24T08:39:04Z</time>
      </trkpt>
      <trkpt lat="47.0456" lon="-0.82049">
        <ele>158.568</ele>
        <time>2019-11-24T08:39:07Z</time>
      </trkpt>
      <trkpt lat="47.04558" lon="-0.82045">
        <ele>158.601</ele>
        <time>2019-11-24T08:39:09Z</time>
      </trkpt>
      <trkpt lat="47.04557" lon="-0.82042">
        <ele>158.637</ele>
        <time>2019-11-24T08:39:11Z</time>
      </trkpt>
      <trkpt lat="47.04555" lon="-0.82036">
        <ele>158.73</ele>
        <time>2019-11-24T08:39:16Z</time>
      </trkpt>
      <trkpt lat="47.04553" lon="-0.82029">
        <ele>158.806</ele>
        <time>2019-11-24T08:39:20Z</time>
      </trkpt>
      <trkpt lat="47.04552" lon="-0.82025">
        <ele>158.864</ele>
        <time>2019-11-24T08:39:23Z</time>
      </trkpt>
      <trkpt lat="47.04551" lon="-0.82021">
        <ele>158.903</ele>
        <time>2019-11-24T08:39:25Z</time>
      </trkpt>
      <trkpt lat="47.04551" lon="-0.82017">
        <ele>158.942</ele>
        <time>2019-11-24T08:39:27Z</time>
      </trkpt>
      <trkpt lat="47.0455" lon="-0.82013">
        <ele>158.98</ele>
        <time>2019-11-24T08:39:29Z</time>
      </trkpt>
      <trkpt lat="47.04549" lon="-0.82009">
        <ele>159.018</ele>
        <time>2019-11-24T08:39:31Z</time>
      </trkpt>
      <trkpt lat="47.04549" lon="-0.82005">
        <ele>159.057</ele>
        <time>2019-11-24T08:39:33Z</time>
      </trkpt>
      <trkpt lat="47.04548" lon="-0.82002">
        <ele>159.095</ele>
        <time>2019-11-24T08:39:35Z</time>
      </trkpt>
      <trkpt lat="47.04547" lon="-0.81997">
        <ele>159.134</ele>
        <time>2019-11-24T08:39:37Z</time>
      </trkpt>
      <trkpt lat="47.04547" lon="-0.81993">
        <ele>159.173</ele>
        <time>2019-11-24T08:39:39Z</time>
      </trkpt>
      <trkpt lat="47.04546" lon="-0.81988">
        <ele>159.214</ele>
        <time>2019-11-24T08:39:41Z</time>
      </trkpt>
      <trkpt lat="47.04545" lon="-0.81981">
        <ele>159.32</ele>
        <time>2019-11-24T08:39:46Z</time>
      </trkpt>
      <trkpt lat="47.04545" lon="-0.81976">
        <ele>159.383</ele>
        <time>2019-11-24T08:39:49Z</time>
      </trkpt>
      <trkpt lat="47.04545" lon="-0.81973">
        <ele>159.444</ele>
        <time>2019-11-24T08:39:52Z</time>
      </trkpt>
      <trkpt lat="47.04545" lon="-0.81969">
        <ele>159.484</ele>
        <time>2019-11-24T08:39:54Z</time>
      </trkpt>
      <trkpt lat="47.04547" lon="-0.81961">
        <ele>159.566</ele>
        <time>2019-11-24T08:39:58Z</time>
      </trkpt>
      <trkpt lat="47.04549" lon="-0.81957">
        <ele>159.606</ele>
        <time>2019-11-24T08:40:00Z</time>
      </trkpt>
      <trkpt lat="47.04549" lon="-0.81951">
        <ele>159.69</ele>
        <time>2019-11-24T08:40:04Z</time>
      </trkpt>
      <trkpt lat="47.04551" lon="-0.81947">
        <ele>159.803</ele>
        <time>2019-11-24T08:40:10Z</time>
      </trkpt>
      <trkpt lat="47.04561" lon="-0.81944">
        <ele>159.948</ele>
        <time>2019-11-24T08:40:17Z</time>
      </trkpt>
      <trkpt lat="47.04565" lon="-0.81945">
        <ele>160.106</ele>
        <time>2019-11-24T08:40:29Z</time>
      </trkpt>
      <trkpt lat="47.0457" lon="-0.81947">
        <ele>160.175</ele>
        <time>2019-11-24T08:40:34Z</time>
      </trkpt>
      <trkpt lat="47.04574" lon="-0.81945">
        <ele>160.223</ele>
        <time>2019-11-24T08:40:37Z</time>
      </trkpt>
      <trkpt lat="47.04577" lon="-0.81944">
        <ele>160.253</ele>
        <time>2019-11-24T08:40:39Z</time>
      </trkpt>
      <trkpt lat="47.0458" lon="-0.81943">
        <ele>160.297</ele>
        <time>2019-11-24T08:40:42Z</time>
      </trkpt>
      <trkpt lat="47.0459" lon="-0.81943">
        <ele>160.366</ele>
        <time>2019-11-24T08:40:46Z</time>
      </trkpt>
      <trkpt lat="47.04595" lon="-0.8194">
        <ele>160.402</ele>
        <time>2019-11-24T08:40:48Z</time>
      </trkpt>
      <trkpt lat="47.04598" lon="-0.81935">
        <ele>160.436</ele>
        <time>2019-11-24T08:40:50Z</time>
      </trkpt>
      <trkpt lat="47.04596" lon="-0.81925">
        <ele>160.514</ele>
        <time>2019-11-24T08:40:55Z</time>
      </trkpt>
      <trkpt lat="47.04596" lon="-0.8192">
        <ele>160.571</ele>
        <time>2019-11-24T08:40:59Z</time>
      </trkpt>
      <trkpt lat="47.04595" lon="-0.81917">
        <ele>160.598</ele>
        <time>2019-11-24T08:41:01Z</time>
      </trkpt>
      <trkpt lat="47.04595" lon="-0.81912">
        <ele>160.623</ele>
        <time>2019-11-24T08:41:03Z</time>
      </trkpt>
      <trkpt lat="47.04594" lon="-0.81906">
        <ele>160.648</ele>
        <time>2019-11-24T08:41:05Z</time>
      </trkpt>
      <trkpt lat="47.04594" lon="-0.81902">
        <ele>160.66</ele>
        <time>2019-11-24T08:41:06Z</time>
      </trkpt>
      <trkpt lat="47.04595" lon="-0.81895">
        <ele>160.715</ele>
        <time>2019-11-24T08:41:11Z</time>
      </trkpt>
      <trkpt lat="47.04596" lon="-0.8189">
        <ele>160.747</ele>
        <time>2019-11-24T08:41:14Z</time>
      </trkpt>
      <trkpt lat="47.04597" lon="-0.81886">
        <ele>160.786</ele>
        <time>2019-11-24T08:41:18Z</time>
      </trkpt>
      <trkpt lat="47.04599" lon="-0.81879">
        <ele>160.825</ele>
        <time>2019-11-24T08:41:22Z</time>
      </trkpt>
      <trkpt lat="47.046" lon="-0.81876">
        <ele>160.853</ele>
        <time>2019-11-24T08:41:25Z</time>
      </trkpt>
      <trkpt lat="47.04601" lon="-0.81873">
        <ele>160.894</ele>
        <time>2019-11-24T08:41:29Z</time>
      </trkpt>
      <trkpt lat="47.04603" lon="-0.81866">
        <ele>160.947</ele>
        <time>2019-11-24T08:41:34Z</time>
      </trkpt>
      <trkpt lat="47.04608" lon="-0.8186">
        <ele>160.994</ele>
        <time>2019-11-24T08:41:38Z</time>
      </trkpt>
      <trkpt lat="47.04613" lon="-0.81857">
        <ele>161.064</ele>
        <time>2019-11-24T08:41:43Z</time>
      </trkpt>
      <trkpt lat="47.04617" lon="-0.81851">
        <ele>161.158</ele>
        <time>2019-11-24T08:41:49Z</time>
      </trkpt>
      <trkpt lat="47.04621" lon="-0.81849">
        <ele>161.224</ele>
        <time>2019-11-24T08:41:53Z</time>
      </trkpt>
      <trkpt lat="47.04625" lon="-0.81847">
        <ele>161.276</ele>
        <time>2019-11-24T08:41:56Z</time>
      </trkpt>
      <trkpt lat="47.04628" lon="-0.81846">
        <ele>161.313</ele>
        <time>2019-11-24T08:41:58Z</time>
      </trkpt>
      <trkpt lat="47.04632" lon="-0.8184">
        <ele>161.412</ele>
        <time>2019-11-24T08:42:03Z</time>
      </trkpt>
      <trkpt lat="47.04632" lon="-0.8183">
        <ele>161.461</ele>
        <time>2019-11-24T08:42:05Z</time>
      </trkpt>
      <trkpt lat="47.04638" lon="-0.81828">
        <ele>161.628</ele>
        <time>2019-11-24T08:42:11Z</time>
      </trkpt>
      <trkpt lat="47.04643" lon="-0.81827">
        <ele>161.716</ele>
        <time>2019-11-24T08:42:14Z</time>
      </trkpt>
      <trkpt lat="47.04646" lon="-0.81827">
        <ele>161.776</ele>
        <time>2019-11-24T08:42:16Z</time>
      </trkpt>
      <trkpt lat="47.04649" lon="-0.81826">
        <ele>161.837</ele>
        <time>2019-11-24T08:42:18Z</time>
      </trkpt>
      <trkpt lat="47.04653" lon="-0.81822">
        <ele>161.935</ele>
        <time>2019-11-24T08:42:21Z</time>
      </trkpt>
      <trkpt lat="47.04656" lon="-0.81816">
        <ele>162.172</ele>
        <time>2019-11-24T08:42:28Z</time>
      </trkpt>
      <trkpt lat="47.04661" lon="-0.81814">
        <ele>162.346</ele>
        <time>2019-11-24T08:42:33Z</time>
      </trkpt>
      <trkpt lat="47.04665" lon="-0.81807">
        <ele>162.451</ele>
        <time>2019-11-24T08:42:36Z</time>
      </trkpt>
      <trkpt lat="47.04669" lon="-0.81803">
        <ele>162.661</ele>
        <time>2019-11-24T08:42:42Z</time>
      </trkpt>
      <trkpt lat="47.04675" lon="-0.81804">
        <ele>162.76</ele>
        <time>2019-11-24T08:42:45Z</time>
      </trkpt>
      <trkpt lat="47.04678" lon="-0.81809">
        <ele>162.885</ele>
        <time>2019-11-24T08:42:49Z</time>
      </trkpt>
      <trkpt lat="47.04683" lon="-0.81816">
        <ele>162.948</ele>
        <time>2019-11-24T08:42:52Z</time>
      </trkpt>
      <trkpt lat="47.04687" lon="-0.81821">
        <ele>163.076</ele>
        <time>2019-11-24T08:42:56Z</time>
      </trkpt>
      <trkpt lat="47.0469" lon="-0.81827">
        <ele>163.199</ele>
        <time>2019-11-24T08:43:00Z</time>
      </trkpt>
      <trkpt lat="47.04692" lon="-0.81833">
        <ele>163.343</ele>
        <time>2019-11-24T08:43:05Z</time>
      </trkpt>
      <trkpt lat="47.04694" lon="-0.81839">
        <ele>163.449</ele>
        <time>2019-11-24T08:43:09Z</time>
      </trkpt>
      <trkpt lat="47.04695" lon="-0.81843">
        <ele>163.522</ele>
        <time>2019-11-24T08:43:12Z</time>
      </trkpt>
      <trkpt lat="47.04696" lon="-0.81846">
        <ele>163.568</ele>
        <time>2019-11-24T08:43:14Z</time>
      </trkpt>
      <trkpt lat="47.047" lon="-0.81854">
        <ele>163.658</ele>
        <time>2019-11-24T08:43:18Z</time>
      </trkpt>
      <trkpt lat="47.04703" lon="-0.8186">
        <ele>163.731</ele>
        <time>2019-11-24T08:43:22Z</time>
      </trkpt>
      <trkpt lat="47.04705" lon="-0.81863">
        <ele>163.843</ele>
        <time>2019-11-24T08:43:26Z</time>
      </trkpt>
      <trkpt lat="47.04703" lon="-0.8187">
        <ele>164.023</ele>
        <time>2019-11-24T08:43:32Z</time>
      </trkpt>
      <trkpt lat="47.04701" lon="-0.81878">
        <ele>164.181</ele>
        <time>2019-11-24T08:43:37Z</time>
      </trkpt>
      <trkpt lat="47.04701" lon="-0.81882">
        <ele>164.245</ele>
        <time>2019-11-24T08:43:39Z</time>
      </trkpt>
      <trkpt lat="47.047" lon="-0.81886">
        <ele>164.31</ele>
        <time>2019-11-24T08:43:41Z</time>
      </trkpt>
      <trkpt lat="47.04698" lon="-0.81893">
        <ele>164.472</ele>
        <time>2019-11-24T08:43:46Z</time>
      </trkpt>
      <trkpt lat="47.04697" lon="-0.819">
        <ele>164.631</ele>
        <time>2019-11-24T08:43:51Z</time>
      </trkpt>
      <trkpt lat="47.04698" lon="-0.81907">
        <ele>164.774</ele>
        <time>2019-11-24T08:43:56Z</time>
      </trkpt>
      <trkpt lat="47.04698" lon="-0.81914">
        <ele>164.854</ele>
        <time>2019-11-24T08:43:59Z</time>
      </trkpt>
      <trkpt lat="47.047" lon="-0.81921">
        <ele>164.958</ele>
        <time>2019-11-24T08:44:03Z</time>
      </trkpt>
      <trkpt lat="47.04701" lon="-0.81927">
        <ele>165.031</ele>
        <time>2019-11-24T08:44:06Z</time>
      </trkpt>
      <trkpt lat="47.04703" lon="-0.81934">
        <ele>165.098</ele>
        <time>2019-11-24T08:44:09Z</time>
      </trkpt>
      <trkpt lat="47.04704" lon="-0.81941">
        <ele>165.142</ele>
        <time>2019-11-24T08:44:11Z</time>
      </trkpt>
      <trkpt lat="47.04705" lon="-0.81945">
        <ele>165.163</ele>
        <time>2019-11-24T08:44:12Z</time>
      </trkpt>
      <trkpt lat="47.04706" lon="-0.81951">
        <ele>165.206</ele>
        <time>2019-11-24T08:44:14Z</time>
      </trkpt>
      <trkpt lat="47.04707" lon="-0.81959">
        <ele>165.266</ele>
        <time>2019-11-24T08:44:17Z</time>
      </trkpt>
      <trkpt lat="47.04708" lon="-0.81963">
        <ele>165.304</ele>
        <time>2019-11-24T08:44:19Z</time>
      </trkpt>
      <trkpt lat="47.0471" lon="-0.8197">
        <ele>165.378</ele>
        <time>2019-11-24T08:44:23Z</time>
      </trkpt>
      <trkpt lat="47.04714" lon="-0.81972">
        <ele>165.51</ele>
        <time>2019-11-24T08:44:30Z</time>
      </trkpt>
      <trkpt lat="47.04718" lon="-0.81977">
        <ele>165.588</ele>
        <time>2019-11-24T08:44:34Z</time>
      </trkpt>
      <trkpt lat="47.0472" lon="-0.8198">
        <ele>165.627</ele>
        <time>2019-11-24T08:44:36Z</time>
      </trkpt>
      <trkpt lat="47.04724" lon="-0.81985">
        <ele>165.686</ele>
        <time>2019-11-24T08:44:39Z</time>
      </trkpt>
      <trkpt lat="47.04727" lon="-0.81992">
        <ele>165.765</ele>
        <time>2019-11-24T08:44:43Z</time>
      </trkpt>
      <trkpt lat="47.04731" lon="-0.81998">
        <ele>165.846</ele>
        <time>2019-11-24T08:44:47Z</time>
      </trkpt>
      <trkpt lat="47.04733" lon="-0.82001">
        <ele>165.886</ele>
        <time>2019-11-24T08:44:49Z</time>
      </trkpt>
      <trkpt lat="47.04737" lon="-0.82005">
        <ele>165.967</ele>
        <time>2019-11-24T08:44:53Z</time>
      </trkpt>
      <trkpt lat="47.04743" lon="-0.8201">
        <ele>166.068</ele>
        <time>2019-11-24T08:44:58Z</time>
      </trkpt>
      <trkpt lat="47.04746" lon="-0.82012">
        <ele>166.144</ele>
        <time>2019-11-24T08:45:02Z</time>
      </trkpt>
      <trkpt lat="47.04752" lon="-0.82014">
        <ele>166.202</ele>
        <time>2019-11-24T08:45:05Z</time>
      </trkpt>
      <trkpt lat="47.04756" lon="-0.82019">
        <ele>166.28</ele>
        <time>2019-11-24T08:45:09Z</time>
      </trkpt>
      <trkpt lat="47.04758" lon="-0.82022">
        <ele>166.339</ele>
        <time>2019-11-24T08:45:12Z</time>
      </trkpt>
      <trkpt lat="47.04764" lon="-0.82025">
        <ele>166.421</ele>
        <time>2019-11-24T08:45:16Z</time>
      </trkpt>
      <trkpt lat="47.04767" lon="-0.82027">
        <ele>166.466</ele>
        <time>2019-11-24T08:45:18Z</time>
      </trkpt>
      <trkpt lat="47.04772" lon="-0.82031">
        <ele>166.607</ele>
        <time>2019-11-24T08:45:24Z</time>
      </trkpt>
      <trkpt lat="47.04775" lon="-0.82034">
        <ele>166.725</ele>
        <time>2019-11-24T08:45:29Z</time>
      </trkpt>
      <trkpt lat="47.04779" lon="-0.8204">
        <ele>166.818</ele>
        <time>2019-11-24T08:45:33Z</time>
      </trkpt>
      <trkpt lat="47.04784" lon="-0.82044">
        <ele>166.906</ele>
        <time>2019-11-24T08:45:37Z</time>
      </trkpt>
      <trkpt lat="47.0479" lon="-0.82046">
        <ele>166.976</ele>
        <time>2019-11-24T08:45:40Z</time>
      </trkpt>
      <trkpt lat="47.04793" lon="-0.82051">
        <ele>167.047</ele>
        <time>2019-11-24T08:45:43Z</time>
      </trkpt>
      <trkpt lat="47.04797" lon="-0.82058">
        <ele>167.136</ele>
        <time>2019-11-24T08:45:47Z</time>
      </trkpt>
      <trkpt lat="47.04799" lon="-0.82063">
        <ele>167.181</ele>
        <time>2019-11-24T08:45:49Z</time>
      </trkpt>
      <trkpt lat="47.048" lon="-0.82066">
        <ele>167.204</ele>
        <time>2019-11-24T08:45:50Z</time>
      </trkpt>
      <trkpt lat="47.04802" lon="-0.82073">
        <ele>167.301</ele>
        <time>2019-11-24T08:45:54Z</time>
      </trkpt>
      <trkpt lat="47.04804" lon="-0.82078">
        <ele>167.352</ele>
        <time>2019-11-24T08:45:56Z</time>
      </trkpt>
      <trkpt lat="47.04805" lon="-0.82082">
        <ele>167.404</ele>
        <time>2019-11-24T08:45:58Z</time>
      </trkpt>
      <trkpt lat="47.04806" lon="-0.82089">
        <ele>167.536</ele>
        <time>2019-11-24T08:46:03Z</time>
      </trkpt>
      <trkpt lat="47.04808" lon="-0.82089">
        <ele>167.7</ele>
        <time>2019-11-24T08:46:09Z</time>
      </trkpt>
      <trkpt lat="47.04813" lon="-0.82088">
        <ele>167.895</ele>
        <time>2019-11-24T08:46:16Z</time>
      </trkpt>
      <trkpt lat="47.04817" lon="-0.82089">
        <ele>168.01</ele>
        <time>2019-11-24T08:46:20Z</time>
      </trkpt>
      <trkpt lat="47.04822" lon="-0.82091">
        <ele>168.098</ele>
        <time>2019-11-24T08:46:23Z</time>
      </trkpt>
      <trkpt lat="47.04825" lon="-0.82091">
        <ele>168.185</ele>
        <time>2019-11-24T08:46:26Z</time>
      </trkpt>
      <trkpt lat="47.04828" lon="-0.82092">
        <ele>168.272</ele>
        <time>2019-11-24T08:46:29Z</time>
      </trkpt>
      <trkpt lat="47.04831" lon="-0.82093">
        <ele>168.416</ele>
        <time>2019-11-24T08:46:34Z</time>
      </trkpt>
      <trkpt lat="47.04835" lon="-0.82093">
        <ele>168.551</ele>
        <time>2019-11-24T08:46:39Z</time>
      </trkpt>
      <trkpt lat="47.0484" lon="-0.82092">
        <ele>168.606</ele>
        <time>2019-11-24T08:46:41Z</time>
      </trkpt>
      <trkpt lat="47.04846" lon="-0.82091">
        <ele>168.72</ele>
        <time>2019-11-24T08:46:45Z</time>
      </trkpt>
      <trkpt lat="47.04848" lon="-0.8209">
        <ele>168.751</ele>
        <time>2019-11-24T08:46:46Z</time>
      </trkpt>
      <trkpt lat="47.04851" lon="-0.82089">
        <ele>168.815</ele>
        <time>2019-11-24T08:46:48Z</time>
      </trkpt>
      <trkpt lat="47.04856" lon="-0.82088">
        <ele>168.914</ele>
        <time>2019-11-24T08:46:51Z</time>
      </trkpt>
      <trkpt lat="47.0486" lon="-0.82083">
        <ele>169.05</ele>
        <time>2019-11-24T08:46:55Z</time>
      </trkpt>
      <trkpt lat="47.04865" lon="-0.82081">
        <ele>169.194</ele>
        <time>2019-11-24T08:46:59Z</time>
      </trkpt>
      <trkpt lat="47.04867" lon="-0.8208">
        <ele>169.266</ele>
        <time>2019-11-24T08:47:01Z</time>
      </trkpt>
      <trkpt lat="47.04872" lon="-0.82078">
        <ele>169.374</ele>
        <time>2019-11-24T08:47:04Z</time>
      </trkpt>
      <trkpt lat="47.04875" lon="-0.82077">
        <ele>169.448</ele>
        <time>2019-11-24T08:47:06Z</time>
      </trkpt>
      <trkpt lat="47.0488" lon="-0.82074">
        <ele>169.597</ele>
        <time>2019-11-24T08:47:10Z</time>
      </trkpt>
      <trkpt lat="47.04883" lon="-0.82072">
        <ele>169.673</ele>
        <time>2019-11-24T08:47:12Z</time>
      </trkpt>
      <trkpt lat="47.04886" lon="-0.8207">
        <ele>169.788</ele>
        <time>2019-11-24T08:47:15Z</time>
      </trkpt>
      <trkpt lat="47.04891" lon="-0.82066">
        <ele>169.945</ele>
        <time>2019-11-24T08:47:19Z</time>
      </trkpt>
      <trkpt lat="47.04896" lon="-0.82063">
        <ele>170.217</ele>
        <time>2019-11-24T08:47:26Z</time>
      </trkpt>
      <trkpt lat="47.04899" lon="-0.82058">
        <ele>170.335</ele>
        <time>2019-11-24T08:47:29Z</time>
      </trkpt>
      <trkpt lat="47.04902" lon="-0.82054">
        <ele>170.532</ele>
        <time>2019-11-24T08:47:34Z</time>
      </trkpt>
      <trkpt lat="47.04906" lon="-0.82052">
        <ele>170.694</ele>
        <time>2019-11-24T08:47:38Z</time>
      </trkpt>
      <trkpt lat="47.0491" lon="-0.82048">
        <ele>170.901</ele>
        <time>2019-11-24T08:47:43Z</time>
      </trkpt>
      <trkpt lat="47.04914" lon="-0.82043">
        <ele>171.067</ele>
        <time>2019-11-24T08:47:47Z</time>
      </trkpt>
      <trkpt lat="47.04917" lon="-0.82039">
        <ele>171.191</ele>
        <time>2019-11-24T08:47:50Z</time>
      </trkpt>
      <trkpt lat="47.04922" lon="-0.82036">
        <ele>171.396</ele>
        <time>2019-11-24T08:47:55Z</time>
      </trkpt>
      <trkpt lat="47.04926" lon="-0.82033">
        <ele>171.627</ele>
        <time>2019-11-24T08:48:01Z</time>
      </trkpt>
      <trkpt lat="47.0493" lon="-0.82031">
        <ele>171.774</ele>
        <time>2019-11-24T08:48:05Z</time>
      </trkpt>
      <trkpt lat="47.04933" lon="-0.8203">
        <ele>171.846</ele>
        <time>2019-11-24T08:48:07Z</time>
      </trkpt>
      <trkpt lat="47.04938" lon="-0.82028">
        <ele>171.951</ele>
        <time>2019-11-24T08:48:10Z</time>
      </trkpt>
      <trkpt lat="47.04942" lon="-0.82024">
        <ele>172.055</ele>
        <time>2019-11-24T08:48:13Z</time>
      </trkpt>
      <trkpt lat="47.04946" lon="-0.82019">
        <ele>172.223</ele>
        <time>2019-11-24T08:48:18Z</time>
      </trkpt>
      <trkpt lat="47.04952" lon="-0.82015">
        <ele>172.354</ele>
        <time>2019-11-24T08:48:22Z</time>
      </trkpt>
      <trkpt lat="47.04957" lon="-0.82011">
        <ele>172.487</ele>
        <time>2019-11-24T08:48:26Z</time>
      </trkpt>
      <trkpt lat="47.04959" lon="-0.82003">
        <ele>172.625</ele>
        <time>2019-11-24T08:48:30Z</time>
      </trkpt>
      <trkpt lat="47.0496" lon="-0.81996">
        <ele>172.732</ele>
        <time>2019-11-24T08:48:33Z</time>
      </trkpt>
      <trkpt lat="47.0496" lon="-0.81987">
        <ele>172.841</ele>
        <time>2019-11-24T08:48:36Z</time>
      </trkpt>
      <trkpt lat="47.04961" lon="-0.81978">
        <ele>172.948</ele>
        <time>2019-11-24T08:48:39Z</time>
      </trkpt>
      <trkpt lat="47.04959" lon="-0.81969">
        <ele>173.086</ele>
        <time>2019-11-24T08:48:43Z</time>
      </trkpt>
      <trkpt lat="47.04958" lon="-0.81965">
        <ele>173.153</ele>
        <time>2019-11-24T08:48:45Z</time>
      </trkpt>
      <trkpt lat="47.04956" lon="-0.81957">
        <ele>173.25</ele>
        <time>2019-11-24T08:48:48Z</time>
      </trkpt>
      <trkpt lat="47.04956" lon="-0.81953">
        <ele>173.313</ele>
        <time>2019-11-24T08:48:50Z</time>
      </trkpt>
      <trkpt lat="47.04954" lon="-0.81946">
        <ele>173.433</ele>
        <time>2019-11-24T08:48:54Z</time>
      </trkpt>
      <trkpt lat="47.04954" lon="-0.8194">
        <ele>173.519</ele>
        <time>2019-11-24T08:48:57Z</time>
      </trkpt>
      <trkpt lat="47.04951" lon="-0.81935">
        <ele>173.658</ele>
        <time>2019-11-24T08:49:02Z</time>
      </trkpt>
      <trkpt lat="47.0495" lon="-0.81927">
        <ele>173.764</ele>
        <time>2019-11-24T08:49:06Z</time>
      </trkpt>
      <trkpt lat="47.04949" lon="-0.81922">
        <ele>173.816</ele>
        <time>2019-11-24T08:49:08Z</time>
      </trkpt>
      <trkpt lat="47.04948" lon="-0.81916">
        <ele>173.894</ele>
        <time>2019-11-24T08:49:11Z</time>
      </trkpt>
      <trkpt lat="47.04947" lon="-0.81912">
        <ele>173.946</ele>
        <time>2019-11-24T08:49:13Z</time>
      </trkpt>
      <trkpt lat="47.04946" lon="-0.81908">
        <ele>173.997</ele>
        <time>2019-11-24T08:49:15Z</time>
      </trkpt>
      <trkpt lat="47.04945" lon="-0.81905">
        <ele>174.049</ele>
        <time>2019-11-24T08:49:17Z</time>
      </trkpt>
      <trkpt lat="47.04944" lon="-0.81898">
        <ele>174.15</ele>
        <time>2019-11-24T08:49:21Z</time>
      </trkpt>
      <trkpt lat="47.04943" lon="-0.81894">
        <ele>174.175</ele>
        <time>2019-11-24T08:49:22Z</time>
      </trkpt>
      <trkpt lat="47.04942" lon="-0.8189">
        <ele>174.225</ele>
        <time>2019-11-24T08:49:24Z</time>
      </trkpt>
      <trkpt lat="47.04941" lon="-0.81886">
        <ele>174.276</ele>
        <time>2019-11-24T08:49:26Z</time>
      </trkpt>
      <trkpt lat="47.0494" lon="-0.81882">
        <ele>174.326</ele>
        <time>2019-11-24T08:49:28Z</time>
      </trkpt>
      <trkpt lat="47.04937" lon="-0.81876">
        <ele>174.474</ele>
        <time>2019-11-24T08:49:34Z</time>
      </trkpt>
      <trkpt lat="47.04936" lon="-0.81869">
        <ele>174.594</ele>
        <time>2019-11-24T08:49:39Z</time>
      </trkpt>
      <trkpt lat="47.04935" lon="-0.81862">
        <ele>174.687</ele>
        <time>2019-11-24T08:49:43Z</time>
      </trkpt>
      <trkpt lat="47.04935" lon="-0.81858">
        <ele>174.733</ele>
        <time>2019-11-24T08:49:45Z</time>
      </trkpt>
      <trkpt lat="47.04935" lon="-0.81853">
        <ele>174.779</ele>
        <time>2019-11-24T08:49:47Z</time>
      </trkpt>
      <trkpt lat="47.04933" lon="-0.81847">
        <ele>174.87</ele>
        <time>2019-11-24T08:49:51Z</time>
      </trkpt>
      <trkpt lat="47.04934" lon="-0.81839">
        <ele>174.964</ele>
        <time>2019-11-24T08:49:55Z</time>
      </trkpt>
      <trkpt lat="47.04934" lon="-0.81834">
        <ele>175.035</ele>
        <time>2019-11-24T08:49:58Z</time>
      </trkpt>
      <trkpt lat="47.04933" lon="-0.81825">
        <ele>175.131</ele>
        <time>2019-11-24T08:50:02Z</time>
      </trkpt>
      <trkpt lat="47.04932" lon="-0.81817">
        <ele>175.224</ele>
        <time>2019-11-24T08:50:06Z</time>
      </trkpt>
      <trkpt lat="47.0493" lon="-0.81811">
        <ele>175.317</ele>
        <time>2019-11-24T08:50:10Z</time>
      </trkpt>
      <trkpt lat="47.04926" lon="-0.81805">
        <ele>175.409</ele>
        <time>2019-11-24T08:50:14Z</time>
      </trkpt>
      <trkpt lat="47.04925" lon="-0.81798">
        <ele>175.498</ele>
        <time>2019-11-24T08:50:18Z</time>
      </trkpt>
      <trkpt lat="47.04923" lon="-0.81792">
        <ele>175.564</ele>
        <time>2019-11-24T08:50:21Z</time>
      </trkpt>
      <trkpt lat="47.04921" lon="-0.81786">
        <ele>175.649</ele>
        <time>2019-11-24T08:50:25Z</time>
      </trkpt>
      <trkpt lat="47.0492" lon="-0.81783">
        <ele>175.691</ele>
        <time>2019-11-24T08:50:27Z</time>
      </trkpt>
      <trkpt lat="47.04919" lon="-0.8178">
        <ele>175.733</ele>
        <time>2019-11-24T08:50:29Z</time>
      </trkpt>
      <trkpt lat="47.04915" lon="-0.81774">
        <ele>175.837</ele>
        <time>2019-11-24T08:50:34Z</time>
      </trkpt>
      <trkpt lat="47.04913" lon="-0.81767">
        <ele>175.918</ele>
        <time>2019-11-24T08:50:38Z</time>
      </trkpt>
      <trkpt lat="47.04911" lon="-0.81761">
        <ele>175.996</ele>
        <time>2019-11-24T08:50:42Z</time>
      </trkpt>
      <trkpt lat="47.0491" lon="-0.81756">
        <ele>176.034</ele>
        <time>2019-11-24T08:50:44Z</time>
      </trkpt>
      <trkpt lat="47.04907" lon="-0.81749">
        <ele>176.109</ele>
        <time>2019-11-24T08:50:48Z</time>
      </trkpt>
      <trkpt lat="47.04904" lon="-0.81744">
        <ele>176.182</ele>
        <time>2019-11-24T08:50:52Z</time>
      </trkpt>
      <trkpt lat="47.04902" lon="-0.81741">
        <ele>176.218</ele>
        <time>2019-11-24T08:50:54Z</time>
      </trkpt>
      <trkpt lat="47.04901" lon="-0.81738">
        <ele>176.252</ele>
        <time>2019-11-24T08:50:56Z</time>
      </trkpt>
      <trkpt lat="47.04899" lon="-0.81734">
        <ele>176.286</ele>
        <time>2019-11-24T08:50:58Z</time>
      </trkpt>
      <trkpt lat="47.04897" lon="-0.8173">
        <ele>176.32</ele>
        <time>2019-11-24T08:51:00Z</time>
      </trkpt>
      <trkpt lat="47.04895" lon="-0.81726">
        <ele>176.354</ele>
        <time>2019-11-24T08:51:02Z</time>
      </trkpt>
      <trkpt lat="47.04893" lon="-0.81721">
        <ele>176.388</ele>
        <time>2019-11-24T08:51:04Z</time>
      </trkpt>
      <trkpt lat="47.04891" lon="-0.81718">
        <ele>176.422</ele>
        <time>2019-11-24T08:51:06Z</time>
      </trkpt>
      <trkpt lat="47.04888" lon="-0.81714">
        <ele>176.472</ele>
        <time>2019-11-24T08:51:09Z</time>
      </trkpt>
      <trkpt lat="47.04885" lon="-0.81709">
        <ele>176.522</ele>
        <time>2019-11-24T08:51:12Z</time>
      </trkpt>
      <trkpt lat="47.04882" lon="-0.81703">
        <ele>176.586</ele>
        <time>2019-11-24T08:51:16Z</time>
      </trkpt>
      <trkpt lat="47.04881" lon="-0.81699">
        <ele>176.616</ele>
        <time>2019-11-24T08:51:18Z</time>
      </trkpt>
      <trkpt lat="47.04877" lon="-0.81694">
        <ele>176.676</ele>
        <time>2019-11-24T08:51:22Z</time>
      </trkpt>
      <trkpt lat="47.04879" lon="-0.81686">
        <ele>176.749</ele>
        <time>2019-11-24T08:51:27Z</time>
      </trkpt>
      <trkpt lat="47.04883" lon="-0.81682">
        <ele>176.806</ele>
        <time>2019-11-24T08:51:31Z</time>
      </trkpt>
      <trkpt lat="47.04885" lon="-0.81675">
        <ele>176.862</ele>
        <time>2019-11-24T08:51:35Z</time>
      </trkpt>
      <trkpt lat="47.04886" lon="-0.8167">
        <ele>176.889</ele>
        <time>2019-11-24T08:51:37Z</time>
      </trkpt>
      <trkpt lat="47.04887" lon="-0.81664">
        <ele>176.916</ele>
        <time>2019-11-24T08:51:39Z</time>
      </trkpt>
      <trkpt lat="47.04889" lon="-0.81659">
        <ele>176.943</ele>
        <time>2019-11-24T08:51:41Z</time>
      </trkpt>
      <trkpt lat="47.0489" lon="-0.81655">
        <ele>176.956</ele>
        <time>2019-11-24T08:51:42Z</time>
      </trkpt>
      <trkpt lat="47.04891" lon="-0.81651">
        <ele>176.983</ele>
        <time>2019-11-24T08:51:44Z</time>
      </trkpt>
      <trkpt lat="47.04892" lon="-0.81646">
        <ele>177.009</ele>
        <time>2019-11-24T08:51:46Z</time>
      </trkpt>
      <trkpt lat="47.04893" lon="-0.81641">
        <ele>177.036</ele>
        <time>2019-11-24T08:51:48Z</time>
      </trkpt>
      <trkpt lat="47.04894" lon="-0.81633">
        <ele>177.09</ele>
        <time>2019-11-24T08:51:52Z</time>
      </trkpt>
      <trkpt lat="47.04897" lon="-0.81628">
        <ele>177.164</ele>
        <time>2019-11-24T08:51:57Z</time>
      </trkpt>
      <trkpt lat="47.049" lon="-0.8162">
        <ele>177.241</ele>
        <time>2019-11-24T08:52:02Z</time>
      </trkpt>
      <trkpt lat="47.04901" lon="-0.81614">
        <ele>177.303</ele>
        <time>2019-11-24T08:52:06Z</time>
      </trkpt>
      <trkpt lat="47.04904" lon="-0.81608">
        <ele>177.348</ele>
        <time>2019-11-24T08:52:09Z</time>
      </trkpt>
      <trkpt lat="47.04906" lon="-0.81605">
        <ele>177.378</ele>
        <time>2019-11-24T08:52:11Z</time>
      </trkpt>
      <trkpt lat="47.04907" lon="-0.81602">
        <ele>177.407</ele>
        <time>2019-11-24T08:52:13Z</time>
      </trkpt>
      <trkpt lat="47.04909" lon="-0.81599">
        <ele>177.435</ele>
        <time>2019-11-24T08:52:15Z</time>
      </trkpt>
      <trkpt lat="47.0491" lon="-0.81597">
        <ele>177.462</ele>
        <time>2019-11-24T08:52:17Z</time>
      </trkpt>
      <trkpt lat="47.04912" lon="-0.8159">
        <ele>177.5</ele>
        <time>2019-11-24T08:52:20Z</time>
      </trkpt>
      <trkpt lat="47.04916" lon="-0.81584">
        <ele>177.561</ele>
        <time>2019-11-24T08:52:25Z</time>
      </trkpt>
      <trkpt lat="47.04916" lon="-0.81576">
        <ele>177.599</ele>
        <time>2019-11-24T08:52:31Z</time>
      </trkpt>
      <trkpt lat="47.04919" lon="-0.81571">
        <ele>177.695</ele>
        <time>2019-11-24T08:52:42Z</time>
      </trkpt>
      <trkpt lat="47.04921" lon="-0.81564">
        <ele>177.734</ele>
        <time>2019-11-24T08:52:46Z</time>
      </trkpt>
      <trkpt lat="47.04922" lon="-0.81558">
        <ele>177.765</ele>
        <time>2019-11-24T08:52:49Z</time>
      </trkpt>
      <trkpt lat="47.04925" lon="-0.81551">
        <ele>177.796</ele>
        <time>2019-11-24T08:52:52Z</time>
      </trkpt>
      <trkpt lat="47.04926" lon="-0.81547">
        <ele>177.816</ele>
        <time>2019-11-24T08:52:54Z</time>
      </trkpt>
      <trkpt lat="47.04927" lon="-0.81539">
        <ele>177.846</ele>
        <time>2019-11-24T08:52:57Z</time>
      </trkpt>
      <trkpt lat="47.04928" lon="-0.81532">
        <ele>177.873</ele>
        <time>2019-11-24T08:53:00Z</time>
      </trkpt>
      <trkpt lat="47.04928" lon="-0.81528">
        <ele>177.891</ele>
        <time>2019-11-24T08:53:02Z</time>
      </trkpt>
      <trkpt lat="47.04928" lon="-0.81519">
        <ele>177.934</ele>
        <time>2019-11-24T08:53:07Z</time>
      </trkpt>
      <trkpt lat="47.04928" lon="-0.81516">
        <ele>177.96</ele>
        <time>2019-11-24T08:53:10Z</time>
      </trkpt>
      <trkpt lat="47.04926" lon="-0.81509">
        <ele>177.992</ele>
        <time>2019-11-24T08:53:14Z</time>
      </trkpt>
      <trkpt lat="47.04924" lon="-0.81503">
        <ele>178.014</ele>
        <time>2019-11-24T08:53:17Z</time>
      </trkpt>
      <trkpt lat="47.04922" lon="-0.81497">
        <ele>178.035</ele>
        <time>2019-11-24T08:53:20Z</time>
      </trkpt>
      <trkpt lat="47.04921" lon="-0.81493">
        <ele>178.049</ele>
        <time>2019-11-24T08:53:22Z</time>
      </trkpt>
      <trkpt lat="47.04918" lon="-0.81487">
        <ele>178.07</ele>
        <time>2019-11-24T08:53:25Z</time>
      </trkpt>
      <trkpt lat="47.04916" lon="-0.81484">
        <ele>178.085</ele>
        <time>2019-11-24T08:53:27Z</time>
      </trkpt>
      <trkpt lat="47.04915" lon="-0.81481">
        <ele>178.1</ele>
        <time>2019-11-24T08:53:29Z</time>
      </trkpt>
      <trkpt lat="47.04911" lon="-0.81476">
        <ele>178.131</ele>
        <time>2019-11-24T08:53:33Z</time>
      </trkpt>
      <trkpt lat="47.04907" lon="-0.81469">
        <ele>178.17</ele>
        <time>2019-11-24T08:53:38Z</time>
      </trkpt>
      <trkpt lat="47.04905" lon="-0.81466">
        <ele>178.186</ele>
        <time>2019-11-24T08:53:40Z</time>
      </trkpt>
      <trkpt lat="47.04903" lon="-0.81459">
        <ele>178.216</ele>
        <time>2019-11-24T08:53:44Z</time>
      </trkpt>
      <trkpt lat="47.04903" lon="-0.81451">
        <ele>178.241</ele>
        <time>2019-11-24T08:53:47Z</time>
      </trkpt>
      <trkpt lat="47.04903" lon="-0.81447">
        <ele>178.257</ele>
        <time>2019-11-24T08:53:49Z</time>
      </trkpt>
      <trkpt lat="47.04903" lon="-0.81443">
        <ele>178.274</ele>
        <time>2019-11-24T08:53:51Z</time>
      </trkpt>
      <trkpt lat="47.04904" lon="-0.81439">
        <ele>178.289</ele>
        <time>2019-11-24T08:53:53Z</time>
      </trkpt>
      <trkpt lat="47.04903" lon="-0.8143">
        <ele>178.32</ele>
        <time>2019-11-24T08:53:57Z</time>
      </trkpt>
      <trkpt lat="47.04902" lon="-0.81422">
        <ele>178.351</ele>
        <time>2019-11-24T08:54:01Z</time>
      </trkpt>
      <trkpt lat="47.04902" lon="-0.81419">
        <ele>178.367</ele>
        <time>2019-11-24T08:54:03Z</time>
      </trkpt>
      <trkpt lat="47.04903" lon="-0.81411">
        <ele>178.398</ele>
        <time>2019-11-24T08:54:07Z</time>
      </trkpt>
      <trkpt lat="47.04905" lon="-0.81405">
        <ele>178.421</ele>
        <time>2019-11-24T08:54:10Z</time>
      </trkpt>
      <trkpt lat="47.04907" lon="-0.81402">
        <ele>178.436</ele>
        <time>2019-11-24T08:54:12Z</time>
      </trkpt>
      <trkpt lat="47.04909" lon="-0.81395">
        <ele>178.459</ele>
        <time>2019-11-24T08:54:15Z</time>
      </trkpt>
      <trkpt lat="47.04912" lon="-0.8139">
        <ele>178.489</ele>
        <time>2019-11-24T08:54:19Z</time>
      </trkpt>
      <trkpt lat="47.04914" lon="-0.81387">
        <ele>178.511</ele>
        <time>2019-11-24T08:54:22Z</time>
      </trkpt>
      <trkpt lat="47.04919" lon="-0.8138">
        <ele>178.563</ele>
        <time>2019-11-24T08:54:29Z</time>
      </trkpt>
      <trkpt lat="47.04923" lon="-0.81375">
        <ele>178.596</ele>
        <time>2019-11-24T08:54:33Z</time>
      </trkpt>
      <trkpt lat="47.04926" lon="-0.81371">
        <ele>178.624</ele>
        <time>2019-11-24T08:54:36Z</time>
      </trkpt>
      <trkpt lat="47.04929" lon="-0.81367">
        <ele>178.663</ele>
        <time>2019-11-24T08:54:40Z</time>
      </trkpt>
      <trkpt lat="47.04931" lon="-0.81364">
        <ele>178.696</ele>
        <time>2019-11-24T08:54:43Z</time>
      </trkpt>
      <trkpt lat="47.04936" lon="-0.8136">
        <ele>178.764</ele>
        <time>2019-11-24T08:54:49Z</time>
      </trkpt>
      <trkpt lat="47.04938" lon="-0.81358">
        <ele>178.809</ele>
        <time>2019-11-24T08:54:53Z</time>
      </trkpt>
      <trkpt lat="47.0494" lon="-0.81356">
        <ele>178.846</ele>
        <time>2019-11-24T08:54:56Z</time>
      </trkpt>
      <trkpt lat="47.04944" lon="-0.81351">
        <ele>178.895</ele>
        <time>2019-11-24T08:55:00Z</time>
      </trkpt>
      <trkpt lat="47.04949" lon="-0.81347">
        <ele>178.931</ele>
        <time>2019-11-24T08:55:03Z</time>
      </trkpt>
      <trkpt lat="47.04952" lon="-0.81342">
        <ele>178.982</ele>
        <time>2019-11-24T08:55:07Z</time>
      </trkpt>
      <trkpt lat="47.04958" lon="-0.81338">
        <ele>179.035</ele>
        <time>2019-11-24T08:55:11Z</time>
      </trkpt>
      <trkpt lat="47.04963" lon="-0.81334">
        <ele>179.091</ele>
        <time>2019-11-24T08:55:15Z</time>
      </trkpt>
      <trkpt lat="47.04966" lon="-0.81331">
        <ele>179.123</ele>
        <time>2019-11-24T08:55:17Z</time>
      </trkpt>
      <trkpt lat="47.0497" lon="-0.81329">
        <ele>179.172</ele>
        <time>2019-11-24T08:55:20Z</time>
      </trkpt>
      <trkpt lat="47.04973" lon="-0.81327">
        <ele>179.205</ele>
        <time>2019-11-24T08:55:22Z</time>
      </trkpt>
      <trkpt lat="47.04975" lon="-0.81325">
        <ele>179.239</ele>
        <time>2019-11-24T08:55:24Z</time>
      </trkpt>
      <trkpt lat="47.0498" lon="-0.81324">
        <ele>179.292</ele>
        <time>2019-11-24T08:55:27Z</time>
      </trkpt>
      <trkpt lat="47.04983" lon="-0.81323">
        <ele>179.347</ele>
        <time>2019-11-24T08:55:30Z</time>
      </trkpt>
      <trkpt lat="47.04986" lon="-0.81323">
        <ele>179.384</ele>
        <time>2019-11-24T08:55:32Z</time>
      </trkpt>
      <trkpt lat="47.04989" lon="-0.81322">
        <ele>179.441</ele>
        <time>2019-11-24T08:55:35Z</time>
      </trkpt>
      <trkpt lat="47.04991" lon="-0.81321">
        <ele>179.481</ele>
        <time>2019-11-24T08:55:37Z</time>
      </trkpt>
      <trkpt lat="47.04994" lon="-0.8132">
        <ele>179.521</ele>
        <time>2019-11-24T08:55:39Z</time>
      </trkpt>
      <trkpt lat="47.04996" lon="-0.81319">
        <ele>179.56</ele>
        <time>2019-11-24T08:55:41Z</time>
      </trkpt>
      <trkpt lat="47.05" lon="-0.81317">
        <ele>179.62</ele>
        <time>2019-11-24T08:55:44Z</time>
      </trkpt>
      <trkpt lat="47.05004" lon="-0.81316">
        <ele>179.68</ele>
        <time>2019-11-24T08:55:47Z</time>
      </trkpt>
      <trkpt lat="47.05008" lon="-0.81313">
        <ele>179.761</ele>
        <time>2019-11-24T08:55:51Z</time>
      </trkpt>
      <trkpt lat="47.05011" lon="-0.81312">
        <ele>179.821</ele>
        <time>2019-11-24T08:55:54Z</time>
      </trkpt>
      <trkpt lat="47.05015" lon="-0.81309">
        <ele>179.881</ele>
        <time>2019-11-24T08:55:57Z</time>
      </trkpt>
      <trkpt lat="47.05017" lon="-0.81307">
        <ele>179.921</ele>
        <time>2019-11-24T08:55:59Z</time>
      </trkpt>
      <trkpt lat="47.05023" lon="-0.81303">
        <ele>180.004</ele>
        <time>2019-11-24T08:56:03Z</time>
      </trkpt>
      <trkpt lat="47.05025" lon="-0.81302">
        <ele>180.046</ele>
        <time>2019-11-24T08:56:05Z</time>
      </trkpt>
      <trkpt lat="47.05029" lon="-0.81297">
        <ele>180.133</ele>
        <time>2019-11-24T08:56:09Z</time>
      </trkpt>
      <trkpt lat="47.05035" lon="-0.81294">
        <ele>180.244</ele>
        <time>2019-11-24T08:56:14Z</time>
      </trkpt>
      <trkpt lat="47.0504" lon="-0.81293">
        <ele>180.336</ele>
        <time>2019-11-24T08:56:18Z</time>
      </trkpt>
      <trkpt lat="47.05045" lon="-0.81292">
        <ele>180.429</ele>
        <time>2019-11-24T08:56:22Z</time>
      </trkpt>
      <trkpt lat="47.05047" lon="-0.81291">
        <ele>180.476</ele>
        <time>2019-11-24T08:56:24Z</time>
      </trkpt>
      <trkpt lat="47.0505" lon="-0.8129">
        <ele>180.523</ele>
        <time>2019-11-24T08:56:26Z</time>
      </trkpt>
      <trkpt lat="47.05054" lon="-0.81286">
        <ele>180.672</ele>
        <time>2019-11-24T08:56:32Z</time>
      </trkpt>
      <trkpt lat="47.05061" lon="-0.81286">
        <ele>180.795</ele>
        <time>2019-11-24T08:56:37Z</time>
      </trkpt>
      <trkpt lat="47.05066" lon="-0.81283">
        <ele>180.917</ele>
        <time>2019-11-24T08:56:42Z</time>
      </trkpt>
      <trkpt lat="47.05068" lon="-0.81282">
        <ele>180.966</ele>
        <time>2019-11-24T08:56:44Z</time>
      </trkpt>
      <trkpt lat="47.05071" lon="-0.8128">
        <ele>181.014</ele>
        <time>2019-11-24T08:56:46Z</time>
      </trkpt>
      <trkpt lat="47.05075" lon="-0.81278">
        <ele>181.086</ele>
        <time>2019-11-24T08:56:49Z</time>
      </trkpt>
      <trkpt lat="47.05079" lon="-0.81275">
        <ele>181.16</ele>
        <time>2019-11-24T08:56:52Z</time>
      </trkpt>
      <trkpt lat="47.05082" lon="-0.81273">
        <ele>181.211</ele>
        <time>2019-11-24T08:56:54Z</time>
      </trkpt>
      <trkpt lat="47.05085" lon="-0.81271">
        <ele>181.265</ele>
        <time>2019-11-24T08:56:56Z</time>
      </trkpt>
      <trkpt lat="47.05088" lon="-0.81268">
        <ele>181.385</ele>
        <time>2019-11-24T08:57:00Z</time>
      </trkpt>
      <trkpt lat="47.05094" lon="-0.81268">
        <ele>181.512</ele>
        <time>2019-11-24T08:57:04Z</time>
      </trkpt>
      <trkpt lat="47.05098" lon="-0.81269">
        <ele>181.575</ele>
        <time>2019-11-24T08:57:06Z</time>
      </trkpt>
      <trkpt lat="47.05101" lon="-0.81269">
        <ele>181.637</ele>
        <time>2019-11-24T08:57:08Z</time>
      </trkpt>
      <trkpt lat="47.05104" lon="-0.81269">
        <ele>181.7</ele>
        <time>2019-11-24T08:57:10Z</time>
      </trkpt>
      <trkpt lat="47.05106" lon="-0.8127">
        <ele>181.794</ele>
        <time>2019-11-24T08:57:13Z</time>
      </trkpt>
      <trkpt lat="47.05112" lon="-0.81268">
        <ele>181.984</ele>
        <time>2019-11-24T08:57:19Z</time>
      </trkpt>
      <trkpt lat="47.05117" lon="-0.81266">
        <ele>182.083</ele>
        <time>2019-11-24T08:57:22Z</time>
      </trkpt>
      <trkpt lat="47.05122" lon="-0.81266">
        <ele>182.185</ele>
        <time>2019-11-24T08:57:25Z</time>
      </trkpt>
      <trkpt lat="47.05125" lon="-0.81265">
        <ele>182.255</ele>
        <time>2019-11-24T08:57:27Z</time>
      </trkpt>
      <trkpt lat="47.0513" lon="-0.81263">
        <ele>182.432</ele>
        <time>2019-11-24T08:57:32Z</time>
      </trkpt>
      <trkpt lat="47.05135" lon="-0.81264">
        <ele>182.612</ele>
        <time>2019-11-24T08:57:37Z</time>
      </trkpt>
      <trkpt lat="47.05137" lon="-0.81264">
        <ele>182.685</ele>
        <time>2019-11-24T08:57:39Z</time>
      </trkpt>
      <trkpt lat="47.05142" lon="-0.81261">
        <ele>182.905</ele>
        <time>2019-11-24T08:57:45Z</time>
      </trkpt>
      <trkpt lat="47.05147" lon="-0.81258">
        <ele>183.084</ele>
        <time>2019-11-24T08:57:50Z</time>
      </trkpt>
      <trkpt lat="47.0515" lon="-0.81256">
        <ele>183.156</ele>
        <time>2019-11-24T08:57:52Z</time>
      </trkpt>
      <trkpt lat="47.05155" lon="-0.81256">
        <ele>183.264</ele>
        <time>2019-11-24T08:57:55Z</time>
      </trkpt>
      <trkpt lat="47.05159" lon="-0.81255">
        <ele>183.335</ele>
        <time>2019-11-24T08:57:57Z</time>
      </trkpt>
      <trkpt lat="47.05162" lon="-0.81255">
        <ele>183.44</ele>
        <time>2019-11-24T08:58:00Z</time>
      </trkpt>
      <trkpt lat="47.05168" lon="-0.81254">
        <ele>183.577</ele>
        <time>2019-11-24T08:58:04Z</time>
      </trkpt>
      <trkpt lat="47.05171" lon="-0.81254">
        <ele>183.644</ele>
        <time>2019-11-24T08:58:06Z</time>
      </trkpt>
      <trkpt lat="47.05173" lon="-0.81254">
        <ele>183.711</ele>
        <time>2019-11-24T08:58:08Z</time>
      </trkpt>
      <trkpt lat="47.05176" lon="-0.81254">
        <ele>183.779</ele>
        <time>2019-11-24T08:58:10Z</time>
      </trkpt>
      <trkpt lat="47.0518" lon="-0.81255">
        <ele>183.846</ele>
        <time>2019-11-24T08:58:12Z</time>
      </trkpt>
      <trkpt lat="47.05182" lon="-0.81255">
        <ele>183.912</ele>
        <time>2019-11-24T08:58:14Z</time>
      </trkpt>
      <trkpt lat="47.05187" lon="-0.81254">
        <ele>184.045</ele>
        <time>2019-11-24T08:58:18Z</time>
      </trkpt>
      <trkpt lat="47.0519" lon="-0.81254">
        <ele>184.112</ele>
        <time>2019-11-24T08:58:20Z</time>
      </trkpt>
      <trkpt lat="47.05194" lon="-0.81255">
        <ele>184.179</ele>
        <time>2019-11-24T08:58:22Z</time>
      </trkpt>
      <trkpt lat="47.05198" lon="-0.81256">
        <ele>184.248</ele>
        <time>2019-11-24T08:58:24Z</time>
      </trkpt>
      <trkpt lat="47.05201" lon="-0.81256">
        <ele>184.319</ele>
        <time>2019-11-24T08:58:26Z</time>
      </trkpt>
      <trkpt lat="47.05204" lon="-0.81256">
        <ele>184.354</ele>
        <time>2019-11-24T08:58:27Z</time>
      </trkpt>
      <trkpt lat="47.05209" lon="-0.81258">
        <ele>184.46</ele>
        <time>2019-11-24T08:58:30Z</time>
      </trkpt>
      <trkpt lat="47.05215" lon="-0.81259">
        <ele>184.599</ele>
        <time>2019-11-24T08:58:34Z</time>
      </trkpt>
      <trkpt lat="47.05218" lon="-0.8126">
        <ele>184.67</ele>
        <time>2019-11-24T08:58:36Z</time>
      </trkpt>
      <trkpt lat="47.0522" lon="-0.8126">
        <ele>184.741</ele>
        <time>2019-11-24T08:58:38Z</time>
      </trkpt>
      <trkpt lat="47.05226" lon="-0.8126">
        <ele>184.885</ele>
        <time>2019-11-24T08:58:42Z</time>
      </trkpt>
      <trkpt lat="47.05231" lon="-0.81261">
        <ele>185.028</ele>
        <time>2019-11-24T08:58:46Z</time>
      </trkpt>
      <trkpt lat="47.05236" lon="-0.81261">
        <ele>185.171</ele>
        <time>2019-11-24T08:58:50Z</time>
      </trkpt>
      <trkpt lat="47.05239" lon="-0.81261">
        <ele>185.242</ele>
        <time>2019-11-24T08:58:52Z</time>
      </trkpt>
      <trkpt lat="47.05241" lon="-0.81261">
        <ele>185.313</ele>
        <time>2019-11-24T08:58:54Z</time>
      </trkpt>
      <trkpt lat="47.05245" lon="-0.81261">
        <ele>185.418</ele>
        <time>2019-11-24T08:58:57Z</time>
      </trkpt>
      <trkpt lat="47.0525" lon="-0.81261">
        <ele>185.559</ele>
        <time>2019-11-24T08:59:01Z</time>
      </trkpt>
      <trkpt lat="47.05256" lon="-0.81262">
        <ele>185.7</ele>
        <time>2019-11-24T08:59:05Z</time>
      </trkpt>
      <trkpt lat="47.05261" lon="-0.81262">
        <ele>185.913</ele>
        <time>2019-11-24T08:59:11Z</time>
      </trkpt>
      <trkpt lat="47.05266" lon="-0.81263">
        <ele>186.054</ele>
        <time>2019-11-24T08:59:15Z</time>
      </trkpt>
      <trkpt lat="47.05272" lon="-0.81263">
        <ele>186.329</ele>
        <time>2019-11-24T08:59:23Z</time>
      </trkpt>
      <trkpt lat="47.05275" lon="-0.81264">
        <ele>186.462</ele>
        <time>2019-11-24T08:59:27Z</time>
      </trkpt>
      <trkpt lat="47.05281" lon="-0.81263">
        <ele>186.625</ele>
        <time>2019-11-24T08:59:32Z</time>
      </trkpt>
      <trkpt lat="47.05286" lon="-0.81261">
        <ele>186.717</ele>
        <time>2019-11-24T08:59:35Z</time>
      </trkpt>
      <trkpt lat="47.05292" lon="-0.81262">
        <ele>186.837</ele>
        <time>2019-11-24T08:59:39Z</time>
      </trkpt>
      <trkpt lat="47.05296" lon="-0.81264">
        <ele>186.955</ele>
        <time>2019-11-24T08:59:43Z</time>
      </trkpt>
      <trkpt lat="47.05299" lon="-0.81265">
        <ele>187.013</ele>
        <time>2019-11-24T08:59:45Z</time>
      </trkpt>
      <trkpt lat="47.05304" lon="-0.81265">
        <ele>187.127</ele>
        <time>2019-11-24T08:59:49Z</time>
      </trkpt>
      <trkpt lat="47.05307" lon="-0.81266">
        <ele>187.156</ele>
        <time>2019-11-24T08:59:50Z</time>
      </trkpt>
      <trkpt lat="47.0531" lon="-0.81265">
        <ele>187.183</ele>
        <time>2019-11-24T08:59:51Z</time>
      </trkpt>
      <trkpt lat="47.05314" lon="-0.81264">
        <ele>187.269</ele>
        <time>2019-11-24T08:59:54Z</time>
      </trkpt>
      <trkpt lat="47.05321" lon="-0.81263">
        <ele>187.358</ele>
        <time>2019-11-24T08:59:57Z</time>
      </trkpt>
      <trkpt lat="47.05328" lon="-0.81262">
        <ele>187.453</ele>
        <time>2019-11-24T09:00:00Z</time>
      </trkpt>
      <trkpt lat="47.05331" lon="-0.81261">
        <ele>187.518</ele>
        <time>2019-11-24T09:00:02Z</time>
      </trkpt>
      <trkpt lat="47.05336" lon="-0.81261">
        <ele>187.618</ele>
        <time>2019-11-24T09:00:05Z</time>
      </trkpt>
      <trkpt lat="47.05339" lon="-0.81262">
        <ele>187.718</ele>
        <time>2019-11-24T09:00:08Z</time>
      </trkpt>
      <trkpt lat="47.05345" lon="-0.81259">
        <ele>187.851</ele>
        <time>2019-11-24T09:00:12Z</time>
      </trkpt>
      <trkpt lat="47.05351" lon="-0.81258">
        <ele>187.98</ele>
        <time>2019-11-24T09:00:16Z</time>
      </trkpt>
      <trkpt lat="47.05354" lon="-0.81256">
        <ele>188.044</ele>
        <time>2019-11-24T09:00:18Z</time>
      </trkpt>
      <trkpt lat="47.05356" lon="-0.81255">
        <ele>188.109</ele>
        <time>2019-11-24T09:00:20Z</time>
      </trkpt>
      <trkpt lat="47.0536" lon="-0.81254">
        <ele>188.204</ele>
        <time>2019-11-24T09:00:23Z</time>
      </trkpt>
      <trkpt lat="47.05366" lon="-0.81253">
        <ele>188.326</ele>
        <time>2019-11-24T09:00:27Z</time>
      </trkpt>
      <trkpt lat="47.0537" lon="-0.81253">
        <ele>188.415</ele>
        <time>2019-11-24T09:00:30Z</time>
      </trkpt>
      <trkpt lat="47.05375" lon="-0.81252">
        <ele>188.534</ele>
        <time>2019-11-24T09:00:34Z</time>
      </trkpt>
      <trkpt lat="47.0538" lon="-0.81252">
        <ele>188.682</ele>
        <time>2019-11-24T09:00:39Z</time>
      </trkpt>
      <trkpt lat="47.05384" lon="-0.81253">
        <ele>188.8</ele>
        <time>2019-11-24T09:00:43Z</time>
      </trkpt>
      <trkpt lat="47.0539" lon="-0.81253">
        <ele>188.889</ele>
        <time>2019-11-24T09:00:46Z</time>
      </trkpt>
      <trkpt lat="47.05396" lon="-0.81251">
        <ele>189.009</ele>
        <time>2019-11-24T09:00:50Z</time>
      </trkpt>
      <trkpt lat="47.05398" lon="-0.8125">
        <ele>189.068</ele>
        <time>2019-11-24T09:00:52Z</time>
      </trkpt>
      <trkpt lat="47.05401" lon="-0.8125">
        <ele>189.125</ele>
        <time>2019-11-24T09:00:54Z</time>
      </trkpt>
      <trkpt lat="47.05406" lon="-0.81248">
        <ele>189.272</ele>
        <time>2019-11-24T09:00:59Z</time>
      </trkpt>
      <trkpt lat="47.05412" lon="-0.8125">
        <ele>189.418</ele>
        <time>2019-11-24T09:01:04Z</time>
      </trkpt>
      <trkpt lat="47.05415" lon="-0.81251">
        <ele>189.503</ele>
        <time>2019-11-24T09:01:07Z</time>
      </trkpt>
      <trkpt lat="47.05418" lon="-0.81251">
        <ele>189.587</ele>
        <time>2019-11-24T09:01:10Z</time>
      </trkpt>
      <trkpt lat="47.05423" lon="-0.81253">
        <ele>189.696</ele>
        <time>2019-11-24T09:01:14Z</time>
      </trkpt>
      <trkpt lat="47.05426" lon="-0.81254">
        <ele>189.775</ele>
        <time>2019-11-24T09:01:17Z</time>
      </trkpt>
      <trkpt lat="47.05431" lon="-0.81255">
        <ele>189.873</ele>
        <time>2019-11-24T09:01:21Z</time>
      </trkpt>
      <trkpt lat="47.05434" lon="-0.81255">
        <ele>189.92</ele>
        <time>2019-11-24T09:01:23Z</time>
      </trkpt>
      <trkpt lat="47.05437" lon="-0.81256">
        <ele>189.966</ele>
        <time>2019-11-24T09:01:25Z</time>
      </trkpt>
      <trkpt lat="47.0544" lon="-0.81256">
        <ele>190.031</ele>
        <time>2019-11-24T09:01:28Z</time>
      </trkpt>
      <trkpt lat="47.05444" lon="-0.81259">
        <ele>190.112</ele>
        <time>2019-11-24T09:01:32Z</time>
      </trkpt>
      <trkpt lat="47.05449" lon="-0.81263">
        <ele>190.185</ele>
        <time>2019-11-24T09:01:36Z</time>
      </trkpt>
      <trkpt lat="47.05454" lon="-0.81267">
        <ele>190.251</ele>
        <time>2019-11-24T09:01:40Z</time>
      </trkpt>
      <trkpt lat="47.05458" lon="-0.81271">
        <ele>190.299</ele>
        <time>2019-11-24T09:01:43Z</time>
      </trkpt>
      <trkpt lat="47.0546" lon="-0.81272">
        <ele>190.33</ele>
        <time>2019-11-24T09:01:45Z</time>
      </trkpt>
      <trkpt lat="47.05463" lon="-0.81275">
        <ele>190.375</ele>
        <time>2019-11-24T09:01:48Z</time>
      </trkpt>
      <trkpt lat="47.05466" lon="-0.8128">
        <ele>190.448</ele>
        <time>2019-11-24T09:01:53Z</time>
      </trkpt>
      <trkpt lat="47.05471" lon="-0.81284">
        <ele>190.506</ele>
        <time>2019-11-24T09:01:57Z</time>
      </trkpt>
      <trkpt lat="47.05475" lon="-0.81287">
        <ele>190.55</ele>
        <time>2019-11-24T09:02:00Z</time>
      </trkpt>
      <trkpt lat="47.05478" lon="-0.81289">
        <ele>190.593</ele>
        <time>2019-11-24T09:02:03Z</time>
      </trkpt>
      <trkpt lat="47.05481" lon="-0.81292">
        <ele>190.635</ele>
        <time>2019-11-24T09:02:06Z</time>
      </trkpt>
      <trkpt lat="47.05483" lon="-0.81293">
        <ele>190.678</ele>
        <time>2019-11-24T09:02:09Z</time>
      </trkpt>
      <trkpt lat="47.05487" lon="-0.81296">
        <ele>190.721</ele>
        <time>2019-11-24T09:02:12Z</time>
      </trkpt>
      <trkpt lat="47.05489" lon="-0.81298">
        <ele>190.75</ele>
        <time>2019-11-24T09:02:14Z</time>
      </trkpt>
      <trkpt lat="47.05492" lon="-0.81299">
        <ele>190.779</ele>
        <time>2019-11-24T09:02:16Z</time>
      </trkpt>
      <trkpt lat="47.05494" lon="-0.81301">
        <ele>190.824</ele>
        <time>2019-11-24T09:02:19Z</time>
      </trkpt>
      <trkpt lat="47.05497" lon="-0.81304">
        <ele>190.854</ele>
        <time>2019-11-24T09:02:21Z</time>
      </trkpt>
      <trkpt lat="47.055" lon="-0.81306">
        <ele>190.903</ele>
        <time>2019-11-24T09:02:24Z</time>
      </trkpt>
      <trkpt lat="47.05502" lon="-0.81308">
        <ele>190.937</ele>
        <time>2019-11-24T09:02:26Z</time>
      </trkpt>
      <trkpt lat="47.05507" lon="-0.8131">
        <ele>191.028</ele>
        <time>2019-11-24T09:02:31Z</time>
      </trkpt>
      <trkpt lat="47.05511" lon="-0.81311">
        <ele>191.126</ele>
        <time>2019-11-24T09:02:36Z</time>
      </trkpt>
      <trkpt lat="47.05519" lon="-0.81311">
        <ele>191.233</ele>
        <time>2019-11-24T09:02:41Z</time>
      </trkpt>
      <trkpt lat="47.05522" lon="-0.81311">
        <ele>191.278</ele>
        <time>2019-11-24T09:02:43Z</time>
      </trkpt>
      <trkpt lat="47.05526" lon="-0.81312">
        <ele>191.324</ele>
        <time>2019-11-24T09:02:45Z</time>
      </trkpt>
      <trkpt lat="47.0553" lon="-0.81313">
        <ele>191.444</ele>
        <time>2019-11-24T09:02:50Z</time>
      </trkpt>
      <trkpt lat="47.05536" lon="-0.81316">
        <ele>191.627</ele>
        <time>2019-11-24T09:02:57Z</time>
      </trkpt>
      <trkpt lat="47.0554" lon="-0.81313">
        <ele>191.74</ele>
        <time>2019-11-24T09:03:01Z</time>
      </trkpt>
      <trkpt lat="47.05546" lon="-0.81314">
        <ele>191.857</ele>
        <time>2019-11-24T09:03:05Z</time>
      </trkpt>
      <trkpt lat="47.05551" lon="-0.81314">
        <ele>191.976</ele>
        <time>2019-11-24T09:03:09Z</time>
      </trkpt>
      <trkpt lat="47.05554" lon="-0.81315">
        <ele>192.097</ele>
        <time>2019-11-24T09:03:13Z</time>
      </trkpt>
      <trkpt lat="47.0556" lon="-0.81315">
        <ele>192.19</ele>
        <time>2019-11-24T09:03:16Z</time>
      </trkpt>
      <trkpt lat="47.05564" lon="-0.81315">
        <ele>192.252</ele>
        <time>2019-11-24T09:03:18Z</time>
      </trkpt>
      <trkpt lat="47.0557" lon="-0.81316">
        <ele>192.315</ele>
        <time>2019-11-24T09:03:20Z</time>
      </trkpt>
      <trkpt lat="47.05575" lon="-0.81316">
        <ele>192.411</ele>
        <time>2019-11-24T09:03:23Z</time>
      </trkpt>
      <trkpt lat="47.05577" lon="-0.81316">
        <ele>192.444</ele>
        <time>2019-11-24T09:03:24Z</time>
      </trkpt>
      <trkpt lat="47.05581" lon="-0.81316">
        <ele>192.51</ele>
        <time>2019-11-24T09:03:26Z</time>
      </trkpt>
      <trkpt lat="47.05585" lon="-0.81316">
        <ele>192.576</ele>
        <time>2019-11-24T09:03:28Z</time>
      </trkpt>
      <trkpt lat="47.05588" lon="-0.81317">
        <ele>192.643</ele>
        <time>2019-11-24T09:03:30Z</time>
      </trkpt>
      <trkpt lat="47.05593" lon="-0.81316">
        <ele>192.743</ele>
        <time>2019-11-24T09:03:33Z</time>
      </trkpt>
      <trkpt lat="47.05596" lon="-0.81316">
        <ele>192.81</ele>
        <time>2019-11-24T09:03:35Z</time>
      </trkpt>
      <trkpt lat="47.05598" lon="-0.81315">
        <ele>192.876</ele>
        <time>2019-11-24T09:03:37Z</time>
      </trkpt>
      <trkpt lat="47.05601" lon="-0.81315">
        <ele>192.942</ele>
        <time>2019-11-24T09:03:39Z</time>
      </trkpt>
      <trkpt lat="47.05606" lon="-0.81312">
        <ele>193.073</ele>
        <time>2019-11-24T09:03:43Z</time>
      </trkpt>
      <trkpt lat="47.0561" lon="-0.81311">
        <ele>193.172</ele>
        <time>2019-11-24T09:03:46Z</time>
      </trkpt>
      <trkpt lat="47.05613" lon="-0.8131">
        <ele>193.27</ele>
        <time>2019-11-24T09:03:49Z</time>
      </trkpt>
      <trkpt lat="47.05616" lon="-0.81309">
        <ele>193.369</ele>
        <time>2019-11-24T09:03:52Z</time>
      </trkpt>
      <trkpt lat="47.05619" lon="-0.81309">
        <ele>193.435</ele>
        <time>2019-11-24T09:03:54Z</time>
      </trkpt>
      <trkpt lat="47.05622" lon="-0.81308">
        <ele>193.5</ele>
        <time>2019-11-24T09:03:56Z</time>
      </trkpt>
      <trkpt lat="47.05625" lon="-0.81308">
        <ele>193.565</ele>
        <time>2019-11-24T09:03:58Z</time>
      </trkpt>
      <trkpt lat="47.05628" lon="-0.81307">
        <ele>193.663</ele>
        <time>2019-11-24T09:04:01Z</time>
      </trkpt>
      <trkpt lat="47.05632" lon="-0.81306">
        <ele>193.759</ele>
        <time>2019-11-24T09:04:04Z</time>
      </trkpt>
      <trkpt lat="47.05635" lon="-0.81302">
        <ele>193.89</ele>
        <time>2019-11-24T09:04:08Z</time>
      </trkpt>
      <trkpt lat="47.0564" lon="-0.813">
        <ele>194.028</ele>
        <time>2019-11-24T09:04:12Z</time>
      </trkpt>
      <trkpt lat="47.05645" lon="-0.81299">
        <ele>194.129</ele>
        <time>2019-11-24T09:04:15Z</time>
      </trkpt>
      <trkpt lat="47.05648" lon="-0.81299">
        <ele>194.195</ele>
        <time>2019-11-24T09:04:17Z</time>
      </trkpt>
      <trkpt lat="47.05651" lon="-0.81298">
        <ele>194.261</ele>
        <time>2019-11-24T09:04:19Z</time>
      </trkpt>
      <trkpt lat="47.05654" lon="-0.81298">
        <ele>194.327</ele>
        <time>2019-11-24T09:04:21Z</time>
      </trkpt>
      <trkpt lat="47.05657" lon="-0.81298">
        <ele>194.392</ele>
        <time>2019-11-24T09:04:23Z</time>
      </trkpt>
      <trkpt lat="47.0566" lon="-0.81297">
        <ele>194.457</ele>
        <time>2019-11-24T09:04:25Z</time>
      </trkpt>
      <trkpt lat="47.05663" lon="-0.81297">
        <ele>194.521</ele>
        <time>2019-11-24T09:04:27Z</time>
      </trkpt>
      <trkpt lat="47.05667" lon="-0.81295">
        <ele>194.645</ele>
        <time>2019-11-24T09:04:31Z</time>
      </trkpt>
      <trkpt lat="47.05673" lon="-0.81293">
        <ele>194.765</ele>
        <time>2019-11-24T09:04:35Z</time>
      </trkpt>
      <trkpt lat="47.05676" lon="-0.81293">
        <ele>194.824</ele>
        <time>2019-11-24T09:04:37Z</time>
      </trkpt>
      <trkpt lat="47.05678" lon="-0.81292">
        <ele>194.882</ele>
        <time>2019-11-24T09:04:39Z</time>
      </trkpt>
      <trkpt lat="47.05681" lon="-0.81291">
        <ele>194.939</ele>
        <time>2019-11-24T09:04:41Z</time>
      </trkpt>
      <trkpt lat="47.05684" lon="-0.8129">
        <ele>194.996</ele>
        <time>2019-11-24T09:04:43Z</time>
      </trkpt>
      <trkpt lat="47.05687" lon="-0.81289">
        <ele>195.052</ele>
        <time>2019-11-24T09:04:45Z</time>
      </trkpt>
      <trkpt lat="47.05691" lon="-0.81287">
        <ele>195.136</ele>
        <time>2019-11-24T09:04:48Z</time>
      </trkpt>
      <trkpt lat="47.05693" lon="-0.81286">
        <ele>195.191</ele>
        <time>2019-11-24T09:04:50Z</time>
      </trkpt>
      <trkpt lat="47.05698" lon="-0.81282">
        <ele>195.301</ele>
        <time>2019-11-24T09:04:54Z</time>
      </trkpt>
      <trkpt lat="47.05701" lon="-0.81281">
        <ele>195.356</ele>
        <time>2019-11-24T09:04:56Z</time>
      </trkpt>
      <trkpt lat="47.05704" lon="-0.81279">
        <ele>195.437</ele>
        <time>2019-11-24T09:04:59Z</time>
      </trkpt>
      <trkpt lat="47.05708" lon="-0.81275">
        <ele>195.549</ele>
        <time>2019-11-24T09:05:03Z</time>
      </trkpt>
      <trkpt lat="47.05711" lon="-0.81272">
        <ele>195.635</ele>
        <time>2019-11-24T09:05:06Z</time>
      </trkpt>
      <trkpt lat="47.05714" lon="-0.81267">
        <ele>195.759</ele>
        <time>2019-11-24T09:05:10Z</time>
      </trkpt>
      <trkpt lat="47.05718" lon="-0.81262">
        <ele>195.886</ele>
        <time>2019-11-24T09:05:14Z</time>
      </trkpt>
      <trkpt lat="47.05721" lon="-0.81258">
        <ele>196.009</ele>
        <time>2019-11-24T09:05:18Z</time>
      </trkpt>
      <trkpt lat="47.05723" lon="-0.81255">
        <ele>196.071</ele>
        <time>2019-11-24T09:05:20Z</time>
      </trkpt>
      <trkpt lat="47.05726" lon="-0.81251">
        <ele>196.135</ele>
        <time>2019-11-24T09:05:22Z</time>
      </trkpt>
      <trkpt lat="47.05728" lon="-0.81247">
        <ele>196.199</ele>
        <time>2019-11-24T09:05:24Z</time>
      </trkpt>
      <trkpt lat="47.05733" lon="-0.81244">
        <ele>196.293</ele>
        <time>2019-11-24T09:05:27Z</time>
      </trkpt>
      <trkpt lat="47.05736" lon="-0.81243">
        <ele>196.356</ele>
        <time>2019-11-24T09:05:29Z</time>
      </trkpt>
      <trkpt lat="47.05741" lon="-0.8124">
        <ele>196.507</ele>
        <time>2019-11-24T09:05:34Z</time>
      </trkpt>
      <trkpt lat="47.05744" lon="-0.81239">
        <ele>196.683</ele>
        <time>2019-11-24T09:05:40Z</time>
      </trkpt>
      <trkpt lat="47.0575" lon="-0.81237">
        <ele>196.797</ele>
        <time>2019-11-24T09:05:44Z</time>
      </trkpt>
      <trkpt lat="47.05753" lon="-0.81232">
        <ele>196.883</ele>
        <time>2019-11-24T09:05:47Z</time>
      </trkpt>
      <trkpt lat="47.05759" lon="-0.81231">
        <ele>196.97</ele>
        <time>2019-11-24T09:05:50Z</time>
      </trkpt>
      <trkpt lat="47.05762" lon="-0.8123">
        <ele>197.027</ele>
        <time>2019-11-24T09:05:52Z</time>
      </trkpt>
      <trkpt lat="47.05766" lon="-0.81229">
        <ele>197.085</ele>
        <time>2019-11-24T09:05:54Z</time>
      </trkpt>
      <trkpt lat="47.05771" lon="-0.81229">
        <ele>197.252</ele>
        <time>2019-11-24T09:06:00Z</time>
      </trkpt>
      <trkpt lat="47.05776" lon="-0.81227">
        <ele>197.357</ele>
        <time>2019-11-24T09:06:04Z</time>
      </trkpt>
      <trkpt lat="47.05781" lon="-0.81226">
        <ele>197.481</ele>
        <time>2019-11-24T09:06:09Z</time>
      </trkpt>
      <trkpt lat="47.05786" lon="-0.81223">
        <ele>197.552</ele>
        <time>2019-11-24T09:06:12Z</time>
      </trkpt>
      <trkpt lat="47.05791" lon="-0.81222">
        <ele>197.643</ele>
        <time>2019-11-24T09:06:16Z</time>
      </trkpt>
      <trkpt lat="47.05796" lon="-0.81221">
        <ele>197.731</ele>
        <time>2019-11-24T09:06:20Z</time>
      </trkpt>
      <trkpt lat="47.058" lon="-0.8122">
        <ele>197.794</ele>
        <time>2019-11-24T09:06:23Z</time>
      </trkpt>
      <trkpt lat="47.05803" lon="-0.81219">
        <ele>197.854</ele>
        <time>2019-11-24T09:06:26Z</time>
      </trkpt>
      <trkpt lat="47.05806" lon="-0.81218">
        <ele>197.893</ele>
        <time>2019-11-24T09:06:28Z</time>
      </trkpt>
      <trkpt lat="47.05809" lon="-0.81217">
        <ele>197.932</ele>
        <time>2019-11-24T09:06:30Z</time>
      </trkpt>
      <trkpt lat="47.05812" lon="-0.81216">
        <ele>197.97</ele>
        <time>2019-11-24T09:06:32Z</time>
      </trkpt>
      <trkpt lat="47.05817" lon="-0.81213">
        <ele>198.043</ele>
        <time>2019-11-24T09:06:36Z</time>
      </trkpt>
      <trkpt lat="47.05821" lon="-0.81209">
        <ele>198.115</ele>
        <time>2019-11-24T09:06:40Z</time>
      </trkpt>
      <trkpt lat="47.05826" lon="-0.81209">
        <ele>198.184</ele>
        <time>2019-11-24T09:06:44Z</time>
      </trkpt>
      <trkpt lat="47.0583" lon="-0.81208">
        <ele>198.249</ele>
        <time>2019-11-24T09:06:48Z</time>
      </trkpt>
      <trkpt lat="47.05836" lon="-0.81207">
        <ele>198.327</ele>
        <time>2019-11-24T09:06:53Z</time>
      </trkpt>
      <trkpt lat="47.0584" lon="-0.8121">
        <ele>198.37</ele>
        <time>2019-11-24T09:06:56Z</time>
      </trkpt>
      <trkpt lat="47.05844" lon="-0.81214">
        <ele>198.432</ele>
        <time>2019-11-24T09:07:01Z</time>
      </trkpt>
      <trkpt lat="47.05846" lon="-0.8122">
        <ele>198.483</ele>
        <time>2019-11-24T09:07:06Z</time>
      </trkpt>
      <trkpt lat="47.05848" lon="-0.81225">
        <ele>198.511</ele>
        <time>2019-11-24T09:07:09Z</time>
      </trkpt>
      <trkpt lat="47.05849" lon="-0.81229">
        <ele>198.529</ele>
        <time>2019-11-24T09:07:11Z</time>
      </trkpt>
      <trkpt lat="47.05853" lon="-0.81234">
        <ele>198.562</ele>
        <time>2019-11-24T09:07:15Z</time>
      </trkpt>
      <trkpt lat="47.05855" lon="-0.81238">
        <ele>198.579</ele>
        <time>2019-11-24T09:07:17Z</time>
      </trkpt>
      <trkpt lat="47.0586" lon="-0.8124">
        <ele>198.612</ele>
        <time>2019-11-24T09:07:21Z</time>
      </trkpt>
      <trkpt lat="47.05867" lon="-0.81242">
        <ele>198.668</ele>
        <time>2019-11-24T09:07:27Z</time>
      </trkpt>
      <trkpt lat="47.05873" lon="-0.81246">
        <ele>198.698</ele>
        <time>2019-11-24T09:07:30Z</time>
      </trkpt>
      <trkpt lat="47.05876" lon="-0.81248">
        <ele>198.72</ele>
        <time>2019-11-24T09:07:32Z</time>
      </trkpt>
      <trkpt lat="47.05881" lon="-0.81249">
        <ele>198.763</ele>
        <time>2019-11-24T09:07:36Z</time>
      </trkpt>
      <trkpt lat="47.05883" lon="-0.81249">
        <ele>198.784</ele>
        <time>2019-11-24T09:07:38Z</time>
      </trkpt>
      <trkpt lat="47.05888" lon="-0.81249">
        <ele>198.82</ele>
        <time>2019-11-24T09:07:42Z</time>
      </trkpt>
      <trkpt lat="47.05891" lon="-0.81249">
        <ele>198.836</ele>
        <time>2019-11-24T09:07:44Z</time>
      </trkpt>
      <trkpt lat="47.05896" lon="-0.81248">
        <ele>198.868</ele>
        <time>2019-11-24T09:07:48Z</time>
      </trkpt>
      <trkpt lat="47.05901" lon="-0.81249">
        <ele>198.897</ele>
        <time>2019-11-24T09:07:52Z</time>
      </trkpt>
      <trkpt lat="47.05907" lon="-0.81248">
        <ele>198.923</ele>
        <time>2019-11-24T09:07:56Z</time>
      </trkpt>
      <trkpt lat="47.05909" lon="-0.81247">
        <ele>198.936</ele>
        <time>2019-11-24T09:07:58Z</time>
      </trkpt>
      <trkpt lat="47.05912" lon="-0.81246">
        <ele>198.949</ele>
        <time>2019-11-24T09:08:00Z</time>
      </trkpt>
      <trkpt lat="47.05917" lon="-0.81244">
        <ele>198.971</ele>
        <time>2019-11-24T09:08:03Z</time>
      </trkpt>
      <trkpt lat="47.05921" lon="-0.81242">
        <ele>198.995</ele>
        <time>2019-11-24T09:08:06Z</time>
      </trkpt>
      <trkpt lat="47.05926" lon="-0.81243">
        <ele>199.024</ele>
        <time>2019-11-24T09:08:10Z</time>
      </trkpt>
      <trkpt lat="47.05931" lon="-0.81243">
        <ele>199.05</ele>
        <time>2019-11-24T09:08:14Z</time>
      </trkpt>
      <trkpt lat="47.05933" lon="-0.81243">
        <ele>199.062</ele>
        <time>2019-11-24T09:08:16Z</time>
      </trkpt>
      <trkpt lat="47.05936" lon="-0.81243">
        <ele>199.079</ele>
        <time>2019-11-24T09:08:19Z</time>
      </trkpt>
      <trkpt lat="47.05941" lon="-0.81243">
        <ele>199.109</ele>
        <time>2019-11-24T09:08:24Z</time>
      </trkpt>
      <trkpt lat="47.05946" lon="-0.81246">
        <ele>199.124</ele>
        <time>2019-11-24T09:08:27Z</time>
      </trkpt>
      <trkpt lat="47.05949" lon="-0.81247">
        <ele>199.134</ele>
        <time>2019-11-24T09:08:29Z</time>
      </trkpt>
      <trkpt lat="47.05954" lon="-0.81249">
        <ele>199.149</ele>
        <time>2019-11-24T09:08:32Z</time>
      </trkpt>
      <trkpt lat="47.05957" lon="-0.8125">
        <ele>199.157</ele>
        <time>2019-11-24T09:08:34Z</time>
      </trkpt>
      <trkpt lat="47.05962" lon="-0.81251">
        <ele>199.168</ele>
        <time>2019-11-24T09:08:37Z</time>
      </trkpt>
      <trkpt lat="47.05966" lon="-0.81252">
        <ele>199.175</ele>
        <time>2019-11-24T09:08:39Z</time>
      </trkpt>
      <trkpt lat="47.0597" lon="-0.81252">
        <ele>199.185</ele>
        <time>2019-11-24T09:08:42Z</time>
      </trkpt>
      <trkpt lat="47.05973" lon="-0.81251">
        <ele>199.192</ele>
        <time>2019-11-24T09:08:44Z</time>
      </trkpt>
      <trkpt lat="47.05976" lon="-0.81251">
        <ele>199.2</ele>
        <time>2019-11-24T09:08:47Z</time>
      </trkpt>
      <trkpt lat="47.0598" lon="-0.8125">
        <ele>199.208</ele>
        <time>2019-11-24T09:08:50Z</time>
      </trkpt>
      <trkpt lat="47.05983" lon="-0.8125">
        <ele>199.211</ele>
        <time>2019-11-24T09:08:52Z</time>
      </trkpt>
      <trkpt lat="47.05988" lon="-0.81251">
        <ele>199.218</ele>
        <time>2019-11-24T09:08:56Z</time>
      </trkpt>
      <trkpt lat="47.05994" lon="-0.81254">
        <ele>199.226</ele>
        <time>2019-11-24T09:08:59Z</time>
      </trkpt>
      <trkpt lat="47.05997" lon="-0.81256">
        <ele>199.232</ele>
        <time>2019-11-24T09:09:01Z</time>
      </trkpt>
      <trkpt lat="47.06003" lon="-0.81256">
        <ele>199.247</ele>
        <time>2019-11-24T09:09:05Z</time>
      </trkpt>
      <trkpt lat="47.06009" lon="-0.81257">
        <ele>199.259</ele>
        <time>2019-11-24T09:09:09Z</time>
      </trkpt>
      <trkpt lat="47.06014" lon="-0.81257">
        <ele>199.266</ele>
        <time>2019-11-24T09:09:12Z</time>
      </trkpt>
      <trkpt lat="47.06018" lon="-0.81256">
        <ele>199.271</ele>
        <time>2019-11-24T09:09:15Z</time>
      </trkpt>
      <trkpt lat="47.06024" lon="-0.81256">
        <ele>199.277</ele>
        <time>2019-11-24T09:09:18Z</time>
      </trkpt>
      <trkpt lat="47.06028" lon="-0.81257">
        <ele>199.283</ele>
        <time>2019-11-24T09:09:21Z</time>
      </trkpt>
      <trkpt lat="47.06033" lon="-0.81253">
        <ele>199.292</ele>
        <time>2019-11-24T09:09:27Z</time>
      </trkpt>
      <trkpt lat="47.06038" lon="-0.81253">
        <ele>199.297</ele>
        <time>2019-11-24T09:09:32Z</time>
      </trkpt>
      <trkpt lat="47.0604" lon="-0.81253">
        <ele>199.299</ele>
        <time>2019-11-24T09:09:34Z</time>
      </trkpt>
      <trkpt lat="47.06045" lon="-0.81254">
        <ele>199.302</ele>
        <time>2019-11-24T09:09:39Z</time>
      </trkpt>
      <trkpt lat="47.06048" lon="-0.81254">
        <ele>199.305</ele>
        <time>2019-11-24T09:09:41Z</time>
      </trkpt>
      <trkpt lat="47.06052" lon="-0.81252">
        <ele>199.309</ele>
        <time>2019-11-24T09:09:44Z</time>
      </trkpt>
      <trkpt lat="47.06055" lon="-0.81251">
        <ele>199.316</ele>
        <time>2019-11-24T09:09:47Z</time>
      </trkpt>
      <trkpt lat="47.0606" lon="-0.81251">
        <ele>199.332</ele>
        <time>2019-11-24T09:09:52Z</time>
      </trkpt>
      <trkpt lat="47.06063" lon="-0.81246">
        <ele>199.343</ele>
        <time>2019-11-24T09:09:55Z</time>
      </trkpt>
      <trkpt lat="47.06066" lon="-0.81243">
        <ele>199.356</ele>
        <time>2019-11-24T09:09:58Z</time>
      </trkpt>
      <trkpt lat="47.0607" lon="-0.81242">
        <ele>199.371</ele>
        <time>2019-11-24T09:10:02Z</time>
      </trkpt>
      <trkpt lat="47.06076" lon="-0.81242">
        <ele>199.385</ele>
        <time>2019-11-24T09:10:06Z</time>
      </trkpt>
      <trkpt lat="47.06079" lon="-0.81241">
        <ele>199.395</ele>
        <time>2019-11-24T09:10:09Z</time>
      </trkpt>
      <trkpt lat="47.06085" lon="-0.81243">
        <ele>199.409</ele>
        <time>2019-11-24T09:10:14Z</time>
      </trkpt>
      <trkpt lat="47.06088" lon="-0.81244">
        <ele>199.412</ele>
        <time>2019-11-24T09:10:16Z</time>
      </trkpt>
      <trkpt lat="47.06091" lon="-0.81244">
        <ele>199.418</ele>
        <time>2019-11-24T09:10:19Z</time>
      </trkpt>
      <trkpt lat="47.06097" lon="-0.81242">
        <ele>199.425</ele>
        <time>2019-11-24T09:10:22Z</time>
      </trkpt>
      <trkpt lat="47.06101" lon="-0.81238">
        <ele>199.431</ele>
        <time>2019-11-24T09:10:24Z</time>
      </trkpt>
      <trkpt lat="47.06104" lon="-0.81236">
        <ele>199.433</ele>
        <time>2019-11-24T09:10:25Z</time>
      </trkpt>
      <trkpt lat="47.0611" lon="-0.81233">
        <ele>199.438</ele>
        <time>2019-11-24T09:10:27Z</time>
      </trkpt>
      <trkpt lat="47.06113" lon="-0.81232">
        <ele>199.442</ele>
        <time>2019-11-24T09:10:29Z</time>
      </trkpt>
      <trkpt lat="47.06119" lon="-0.81232">
        <ele>199.45</ele>
        <time>2019-11-24T09:10:32Z</time>
      </trkpt>
      <trkpt lat="47.06123" lon="-0.81237">
        <ele>199.469</ele>
        <time>2019-11-24T09:10:37Z</time>
      </trkpt>
      <trkpt lat="47.06125" lon="-0.81239">
        <ele>199.474</ele>
        <time>2019-11-24T09:10:38Z</time>
      </trkpt>
      <trkpt lat="47.06131" lon="-0.81242">
        <ele>199.504</ele>
        <time>2019-11-24T09:10:44Z</time>
      </trkpt>
      <trkpt lat="47.06133" lon="-0.81243">
        <ele>199.528</ele>
        <time>2019-11-24T09:10:50Z</time>
      </trkpt>
      <trkpt lat="47.06139" lon="-0.81247">
        <ele>199.557</ele>
        <time>2019-11-24T09:11:06Z</time>
      </trkpt>
      <trkpt lat="47.06144" lon="-0.81248">
        <ele>199.559</ele>
        <time>2019-11-24T09:11:08Z</time>
      </trkpt>
      <trkpt lat="47.06151" lon="-0.81249">
        <ele>199.561</ele>
        <time>2019-11-24T09:11:10Z</time>
      </trkpt>
      <trkpt lat="47.06156" lon="-0.81251">
        <ele>199.562</ele>
        <time>2019-11-24T09:11:11Z</time>
      </trkpt>
      <trkpt lat="47.06161" lon="-0.81252">
        <ele>199.562</ele>
        <time>2019-11-24T09:11:12Z</time>
      </trkpt>
      <trkpt lat="47.06169" lon="-0.81253">
        <ele>199.562</ele>
        <time>2019-11-24T09:11:15Z</time>
      </trkpt>
      <trkpt lat="47.06171" lon="-0.81253">
        <ele>199.559</ele>
        <time>2019-11-24T09:11:18Z</time>
      </trkpt>
      <trkpt lat="47.06177" lon="-0.81253">
        <ele>199.555</ele>
        <time>2019-11-24T09:11:22Z</time>
      </trkpt>
      <trkpt lat="47.06182" lon="-0.81254">
        <ele>199.555</ele>
        <time>2019-11-24T09:11:23Z</time>
      </trkpt>
      <trkpt lat="47.06187" lon="-0.81253">
        <ele>199.556</ele>
        <time>2019-11-24T09:11:26Z</time>
      </trkpt>
      <trkpt lat="47.06193" lon="-0.81251">
        <ele>199.561</ele>
        <time>2019-11-24T09:11:29Z</time>
      </trkpt>
      <trkpt lat="47.06198" lon="-0.81252">
        <ele>199.57</ele>
        <time>2019-11-24T09:11:33Z</time>
      </trkpt>
      <trkpt lat="47.06198" lon="-0.81252">
        <ele>199.57</ele>
        <time>2019-11-24T09:11:40Z</time>
      </trkpt>
      <trkpt lat="47.06198" lon="-0.81252">
        <ele>199.57</ele>
        <time>2019-11-24T09:11:43Z</time>
      </trkpt>
      <trkpt lat="47.06203" lon="-0.81251">
        <ele>199.566</ele>
        <time>2019-11-24T09:11:46Z</time>
      </trkpt>
      <trkpt lat="47.06223" lon="-0.81251">
        <ele>199.562</ele>
        <time>2019-11-24T09:11:49Z</time>
      </trkpt>
      <trkpt lat="47.06227" lon="-0.81246">
        <ele>199.553</ele>
        <time>2019-11-24T09:11:55Z</time>
      </trkpt>
      <trkpt lat="47.06231" lon="-0.81245">
        <ele>199.544</ele>
        <time>2019-11-24T09:11:58Z</time>
      </trkpt>
      <trkpt lat="47.06234" lon="-0.81244">
        <ele>199.538</ele>
        <time>2019-11-24T09:12:00Z</time>
      </trkpt>
      <trkpt lat="47.06239" lon="-0.81245">
        <ele>199.518</ele>
        <time>2019-11-24T09:12:05Z</time>
      </trkpt>
      <trkpt lat="47.06244" lon="-0.81242">
        <ele>199.503</ele>
        <time>2019-11-24T09:12:09Z</time>
      </trkpt>
      <trkpt lat="47.06249" lon="-0.81242">
        <ele>199.488</ele>
        <time>2019-11-24T09:12:13Z</time>
      </trkpt>
      <trkpt lat="47.06257" lon="-0.81239">
        <ele>199.462</ele>
        <time>2019-11-24T09:12:19Z</time>
      </trkpt>
      <trkpt lat="47.06262" lon="-0.81241">
        <ele>199.446</ele>
        <time>2019-11-24T09:12:22Z</time>
      </trkpt>
      <trkpt lat="47.06266" lon="-0.81242">
        <ele>199.435</ele>
        <time>2019-11-24T09:12:24Z</time>
      </trkpt>
      <trkpt lat="47.06272" lon="-0.81244">
        <ele>199.42</ele>
        <time>2019-11-24T09:12:27Z</time>
      </trkpt>
      <trkpt lat="47.06275" lon="-0.81246">
        <ele>199.41</ele>
        <time>2019-11-24T09:12:29Z</time>
      </trkpt>
      <trkpt lat="47.0628" lon="-0.81247">
        <ele>199.389</ele>
        <time>2019-11-24T09:12:33Z</time>
      </trkpt>
      <trkpt lat="47.06283" lon="-0.81248">
        <ele>199.377</ele>
        <time>2019-11-24T09:12:35Z</time>
      </trkpt>
      <trkpt lat="47.06288" lon="-0.81247">
        <ele>199.346</ele>
        <time>2019-11-24T09:12:40Z</time>
      </trkpt>
      <trkpt lat="47.06292" lon="-0.81247">
        <ele>199.325</ele>
        <time>2019-11-24T09:12:43Z</time>
      </trkpt>
      <trkpt lat="47.06296" lon="-0.81247">
        <ele>199.311</ele>
        <time>2019-11-24T09:12:45Z</time>
      </trkpt>
      <trkpt lat="47.06302" lon="-0.81247">
        <ele>199.29</ele>
        <time>2019-11-24T09:12:48Z</time>
      </trkpt>
      <trkpt lat="47.06307" lon="-0.81245">
        <ele>199.25</ele>
        <time>2019-11-24T09:12:53Z</time>
      </trkpt>
      <trkpt lat="47.06313" lon="-0.81243">
        <ele>199.201</ele>
        <time>2019-11-24T09:12:59Z</time>
      </trkpt>
      <trkpt lat="47.06315" lon="-0.81242">
        <ele>199.193</ele>
        <time>2019-11-24T09:13:00Z</time>
      </trkpt>
      <trkpt lat="47.0632" lon="-0.81241">
        <ele>199.18</ele>
        <time>2019-11-24T09:13:02Z</time>
      </trkpt>
      <trkpt lat="47.06324" lon="-0.81239">
        <ele>199.163</ele>
        <time>2019-11-24T09:13:05Z</time>
      </trkpt>
      <trkpt lat="47.06328" lon="-0.81238">
        <ele>199.15</ele>
        <time>2019-11-24T09:13:08Z</time>
      </trkpt>
      <trkpt lat="47.06332" lon="-0.81236">
        <ele>199.14</ele>
        <time>2019-11-24T09:13:11Z</time>
      </trkpt>
      <trkpt lat="47.06335" lon="-0.81235">
        <ele>199.133</ele>
        <time>2019-11-24T09:13:13Z</time>
      </trkpt>
      <trkpt lat="47.0634" lon="-0.81232">
        <ele>199.116</ele>
        <time>2019-11-24T09:13:17Z</time>
      </trkpt>
      <trkpt lat="47.06343" lon="-0.8123">
        <ele>199.106</ele>
        <time>2019-11-24T09:13:19Z</time>
      </trkpt>
      <trkpt lat="47.06348" lon="-0.81228">
        <ele>199.084</ele>
        <time>2019-11-24T09:13:23Z</time>
      </trkpt>
      <trkpt lat="47.06351" lon="-0.81224">
        <ele>199.066</ele>
        <time>2019-11-24T09:13:27Z</time>
      </trkpt>
      <trkpt lat="47.06353" lon="-0.81222">
        <ele>199.045</ele>
        <time>2019-11-24T09:13:32Z</time>
      </trkpt>
      <trkpt lat="47.06359" lon="-0.8122">
        <ele>199.023</ele>
        <time>2019-11-24T09:13:36Z</time>
      </trkpt>
      <trkpt lat="47.06364" lon="-0.8122">
        <ele>198.995</ele>
        <time>2019-11-24T09:13:40Z</time>
      </trkpt>
      <trkpt lat="47.06366" lon="-0.8122">
        <ele>198.979</ele>
        <time>2019-11-24T09:13:42Z</time>
      </trkpt>
      <trkpt lat="47.06371" lon="-0.81217">
        <ele>198.938</ele>
        <time>2019-11-24T09:13:47Z</time>
      </trkpt>
      <trkpt lat="47.06376" lon="-0.81216">
        <ele>198.911</ele>
        <time>2019-11-24T09:13:51Z</time>
      </trkpt>
      <trkpt lat="47.06382" lon="-0.8122">
        <ele>198.881</ele>
        <time>2019-11-24T09:13:56Z</time>
      </trkpt>
      <trkpt lat="47.06386" lon="-0.81218">
        <ele>198.823</ele>
        <time>2019-11-24T09:14:05Z</time>
      </trkpt>
      <trkpt lat="47.0639" lon="-0.81216">
        <ele>198.807</ele>
        <time>2019-11-24T09:14:07Z</time>
      </trkpt>
      <trkpt lat="47.06398" lon="-0.81216">
        <ele>198.784</ele>
        <time>2019-11-24T09:14:10Z</time>
      </trkpt>
      <trkpt lat="47.06405" lon="-0.81215">
        <ele>198.77</ele>
        <time>2019-11-24T09:14:12Z</time>
      </trkpt>
      <trkpt lat="47.0641" lon="-0.81214">
        <ele>198.763</ele>
        <time>2019-11-24T09:14:13Z</time>
      </trkpt>
      <trkpt lat="47.06412" lon="-0.81213">
        <ele>198.755</ele>
        <time>2019-11-24T09:14:14Z</time>
      </trkpt>
      <trkpt lat="47.06416" lon="-0.81213">
        <ele>198.717</ele>
        <time>2019-11-24T09:14:20Z</time>
      </trkpt>
      <trkpt lat="47.06421" lon="-0.81213">
        <ele>198.67</ele>
        <time>2019-11-24T09:14:27Z</time>
      </trkpt>
      <trkpt lat="47.06424" lon="-0.81212">
        <ele>198.656</ele>
        <time>2019-11-24T09:14:29Z</time>
      </trkpt>
      <trkpt lat="47.06429" lon="-0.81211">
        <ele>198.634</ele>
        <time>2019-11-24T09:14:32Z</time>
      </trkpt>
      <trkpt lat="47.06432" lon="-0.81211">
        <ele>198.619</ele>
        <time>2019-11-24T09:14:34Z</time>
      </trkpt>
      <trkpt lat="47.06437" lon="-0.81212">
        <ele>198.59</ele>
        <time>2019-11-24T09:14:41Z</time>
      </trkpt>
      <trkpt lat="47.06441" lon="-0.81213">
        <ele>198.575</ele>
        <time>2019-11-24T09:14:43Z</time>
      </trkpt>
      <trkpt lat="47.06445" lon="-0.81214">
        <ele>198.574</ele>
        <time>2019-11-24T09:14:44Z</time>
      </trkpt>
      <trkpt lat="47.06454" lon="-0.81214">
        <ele>198.549</ele>
        <time>2019-11-24T09:14:47Z</time>
      </trkpt>
      <trkpt lat="47.06457" lon="-0.81215">
        <ele>198.533</ele>
        <time>2019-11-24T09:14:49Z</time>
      </trkpt>
      <trkpt lat="47.06462" lon="-0.81213">
        <ele>198.516</ele>
        <time>2019-11-24T09:14:51Z</time>
      </trkpt>
      <trkpt lat="47.06469" lon="-0.81213">
        <ele>198.499</ele>
        <time>2019-11-24T09:14:53Z</time>
      </trkpt>
      <trkpt lat="47.06474" lon="-0.81213">
        <ele>198.474</ele>
        <time>2019-11-24T09:14:56Z</time>
      </trkpt>
      <trkpt lat="47.06478" lon="-0.81214">
        <ele>198.457</ele>
        <time>2019-11-24T09:14:58Z</time>
      </trkpt>
      <trkpt lat="47.06483" lon="-0.81213">
        <ele>198.424</ele>
        <time>2019-11-24T09:15:02Z</time>
      </trkpt>
      <trkpt lat="47.06483" lon="-0.81213">
        <ele>198.424</ele>
        <time>2019-11-24T09:15:10Z</time>
      </trkpt>
      <trkpt lat="47.06487" lon="-0.81212">
        <ele>198.368</ele>
        <time>2019-11-24T09:15:11Z</time>
      </trkpt>
      <trkpt lat="47.0649" lon="-0.81211">
        <ele>198.355</ele>
        <time>2019-11-24T09:15:13Z</time>
      </trkpt>
      <trkpt lat="47.06494" lon="-0.81216">
        <ele>198.349</ele>
        <time>2019-11-24T09:15:14Z</time>
      </trkpt>
      <trkpt lat="47.06499" lon="-0.81215">
        <ele>198.331</ele>
        <time>2019-11-24T09:15:17Z</time>
      </trkpt>
      <trkpt lat="47.06505" lon="-0.81216">
        <ele>198.314</ele>
        <time>2019-11-24T09:15:20Z</time>
      </trkpt>
      <trkpt lat="47.06509" lon="-0.81218">
        <ele>198.263</ele>
        <time>2019-11-24T09:15:29Z</time>
      </trkpt>
      <trkpt lat="47.06514" lon="-0.81224">
        <ele>198.244</ele>
        <time>2019-11-24T09:15:33Z</time>
      </trkpt>
      <trkpt lat="47.06517" lon="-0.81227">
        <ele>198.22</ele>
        <time>2019-11-24T09:15:38Z</time>
      </trkpt>
      <trkpt lat="47.06522" lon="-0.8122">
        <ele>198.179</ele>
        <time>2019-11-24T09:15:45Z</time>
      </trkpt>
      <trkpt lat="47.06527" lon="-0.8122">
        <ele>198.175</ele>
        <time>2019-11-24T09:15:46Z</time>
      </trkpt>
      <trkpt lat="47.06535" lon="-0.81223">
        <ele>198.164</ele>
        <time>2019-11-24T09:15:49Z</time>
      </trkpt>
      <trkpt lat="47.06541" lon="-0.81222">
        <ele>198.155</ele>
        <time>2019-11-24T09:15:51Z</time>
      </trkpt>
      <trkpt lat="47.06546" lon="-0.81219">
        <ele>198.151</ele>
        <time>2019-11-24T09:15:52Z</time>
      </trkpt>
      <trkpt lat="47.06551" lon="-0.81218">
        <ele>198.142</ele>
        <time>2019-11-24T09:15:54Z</time>
      </trkpt>
      <trkpt lat="47.06556" lon="-0.81219">
        <ele>198.125</ele>
        <time>2019-11-24T09:15:58Z</time>
      </trkpt>
      <trkpt lat="47.06559" lon="-0.81219">
        <ele>198.113</ele>
        <time>2019-11-24T09:16:01Z</time>
      </trkpt>
      <trkpt lat="47.06564" lon="-0.81218">
        <ele>198.106</ele>
        <time>2019-11-24T09:16:03Z</time>
      </trkpt>
      <trkpt lat="47.06564" lon="-0.81218">
        <ele>198.106</ele>
        <time>2019-11-24T09:16:08Z</time>
      </trkpt>
      <trkpt lat="47.06564" lon="-0.81218">
        <ele>198.106</ele>
        <time>2019-11-24T09:16:09Z</time>
      </trkpt>
      <trkpt lat="47.0657" lon="-0.8122">
        <ele>198.089</ele>
        <time>2019-11-24T09:16:11Z</time>
      </trkpt>
      <trkpt lat="47.06572" lon="-0.81221">
        <ele>198.062</ele>
        <time>2019-11-24T09:16:18Z</time>
      </trkpt>
      <trkpt lat="47.06575" lon="-0.81226">
        <ele>198</ele>
        <time>2019-11-24T09:16:28Z</time>
      </trkpt>
      <trkpt lat="47.06581" lon="-0.81218">
        <ele>197.866</ele>
        <time>2019-11-24T09:16:44Z</time>
      </trkpt>
      <trkpt lat="47.06589" lon="-0.81222">
        <ele>197.792</ele>
        <time>2019-11-24T09:16:56Z</time>
      </trkpt>
      <trkpt lat="47.06594" lon="-0.81215">
        <ele>197.699</ele>
        <time>2019-11-24T09:17:02Z</time>
      </trkpt>
      <trkpt lat="47.06607" lon="-0.81218">
        <ele>197.648</ele>
        <time>2019-11-24T09:17:06Z</time>
      </trkpt>
      <trkpt lat="47.06612" lon="-0.81218">
        <ele>197.575</ele>
        <time>2019-11-24T09:17:14Z</time>
      </trkpt>
      <trkpt lat="47.0662" lon="-0.81217">
        <ele>197.526</ele>
        <time>2019-11-24T09:17:18Z</time>
      </trkpt>
      <trkpt lat="47.06625" lon="-0.81216">
        <ele>197.51</ele>
        <time>2019-11-24T09:17:19Z</time>
      </trkpt>
      <trkpt lat="47.06629" lon="-0.81216">
        <ele>197.479</ele>
        <time>2019-11-24T09:17:21Z</time>
      </trkpt>
      <trkpt lat="47.06633" lon="-0.81217">
        <ele>197.45</ele>
        <time>2019-11-24T09:17:23Z</time>
      </trkpt>
      <trkpt lat="47.0664" lon="-0.81212">
        <ele>197.435</ele>
        <time>2019-11-24T09:17:24Z</time>
      </trkpt>
      <trkpt lat="47.06648" lon="-0.81207">
        <ele>197.421</ele>
        <time>2019-11-24T09:17:25Z</time>
      </trkpt>
      <trkpt lat="47.06652" lon="-0.81208">
        <ele>197.402</ele>
        <time>2019-11-24T09:17:30Z</time>
      </trkpt>
      <trkpt lat="47.06652" lon="-0.81208">
        <ele>197.402</ele>
        <time>2019-11-24T09:17:38Z</time>
      </trkpt>
      <trkpt lat="47.06652" lon="-0.81208">
        <ele>197.402</ele>
        <time>2019-11-24T09:17:39Z</time>
      </trkpt>
      <trkpt lat="47.06659" lon="-0.81213">
        <ele>197.289</ele>
        <time>2019-11-24T09:17:43Z</time>
      </trkpt>
      <trkpt lat="47.06665" lon="-0.81213">
        <ele>197.278</ele>
        <time>2019-11-24T09:17:44Z</time>
      </trkpt>
      <trkpt lat="47.06668" lon="-0.81213">
        <ele>197.255</ele>
        <time>2019-11-24T09:17:47Z</time>
      </trkpt>
      <trkpt lat="47.06677" lon="-0.81213">
        <ele>197.232</ele>
        <time>2019-11-24T09:17:50Z</time>
      </trkpt>
      <trkpt lat="47.06681" lon="-0.81213">
        <ele>197.221</ele>
        <time>2019-11-24T09:17:51Z</time>
      </trkpt>
      <trkpt lat="47.06686" lon="-0.81214">
        <ele>197.196</ele>
        <time>2019-11-24T09:17:55Z</time>
      </trkpt>
      <trkpt lat="47.06694" lon="-0.81217">
        <ele>197.184</ele>
        <time>2019-11-24T09:17:57Z</time>
      </trkpt>
      <trkpt lat="47.06704" lon="-0.81215">
        <ele>197.128</ele>
        <time>2019-11-24T09:18:04Z</time>
      </trkpt>
      <trkpt lat="47.06713" lon="-0.81221">
        <ele>197.095</ele>
        <time>2019-11-24T09:18:07Z</time>
      </trkpt>
      <trkpt lat="47.06719" lon="-0.81222">
        <ele>197.07</ele>
        <time>2019-11-24T09:18:09Z</time>
      </trkpt>
      <trkpt lat="47.06726" lon="-0.81218">
        <ele>197.044</ele>
        <time>2019-11-24T09:18:11Z</time>
      </trkpt>
      <trkpt lat="47.06731" lon="-0.81214">
        <ele>197.018</ele>
        <time>2019-11-24T09:18:13Z</time>
      </trkpt>
      <trkpt lat="47.0674" lon="-0.81214">
        <ele>196.951</ele>
        <time>2019-11-24T09:18:18Z</time>
      </trkpt>
      <trkpt lat="47.06746" lon="-0.81216">
        <ele>196.929</ele>
        <time>2019-11-24T09:18:20Z</time>
      </trkpt>
      <trkpt lat="47.06751" lon="-0.81214">
        <ele>196.895</ele>
        <time>2019-11-24T09:18:23Z</time>
      </trkpt>
      <trkpt lat="47.06755" lon="-0.81212">
        <ele>196.884</ele>
        <time>2019-11-24T09:18:24Z</time>
      </trkpt>
      <trkpt lat="47.0676" lon="-0.81209">
        <ele>196.851</ele>
        <time>2019-11-24T09:18:27Z</time>
      </trkpt>
      <trkpt lat="47.06763" lon="-0.81203">
        <ele>196.817</ele>
        <time>2019-11-24T09:18:30Z</time>
      </trkpt>
      <trkpt lat="47.06767" lon="-0.81197">
        <ele>196.763</ele>
        <time>2019-11-24T09:18:35Z</time>
      </trkpt>
      <trkpt lat="47.06769" lon="-0.81193">
        <ele>196.72</ele>
        <time>2019-11-24T09:18:39Z</time>
      </trkpt>
      <trkpt lat="47.0677" lon="-0.81186">
        <ele>196.686</ele>
        <time>2019-11-24T09:18:42Z</time>
      </trkpt>
      <trkpt lat="47.06771" lon="-0.8118">
        <ele>196.637</ele>
        <time>2019-11-24T09:18:46Z</time>
      </trkpt>
      <trkpt lat="47.06771" lon="-0.81173">
        <ele>196.588</ele>
        <time>2019-11-24T09:18:50Z</time>
      </trkpt>
      <trkpt lat="47.06776" lon="-0.81159">
        <ele>196.541</ele>
        <time>2019-11-24T09:18:54Z</time>
      </trkpt>
      <trkpt lat="47.06777" lon="-0.81152">
        <ele>196.497</ele>
        <time>2019-11-24T09:19:00Z</time>
      </trkpt>
      <trkpt lat="47.06781" lon="-0.81153">
        <ele>196.42</ele>
        <time>2019-11-24T09:19:09Z</time>
      </trkpt>
      <trkpt lat="47.06786" lon="-0.81153">
        <ele>196.365</ele>
        <time>2019-11-24T09:19:15Z</time>
      </trkpt>
      <trkpt lat="47.06782" lon="-0.81142">
        <ele>195.111</ele>
        <time>2019-11-24T09:20:51Z</time>
      </trkpt>
      <trkpt lat="47.06781" lon="-0.81135">
        <ele>194.972</ele>
        <time>2019-11-24T09:20:54Z</time>
      </trkpt>
      <trkpt lat="47.06782" lon="-0.81128">
        <ele>194.792</ele>
        <time>2019-11-24T09:20:58Z</time>
      </trkpt>
      <trkpt lat="47.06786" lon="-0.81117">
        <ele>194.507</ele>
        <time>2019-11-24T09:21:05Z</time>
      </trkpt>
      <trkpt lat="47.06787" lon="-0.81109">
        <ele>194.397</ele>
        <time>2019-11-24T09:21:08Z</time>
      </trkpt>
      <trkpt lat="47.06787" lon="-0.81103">
        <ele>194.258</ele>
        <time>2019-11-24T09:21:12Z</time>
      </trkpt>
      <trkpt lat="47.06789" lon="-0.81096">
        <ele>194.128</ele>
        <time>2019-11-24T09:21:16Z</time>
      </trkpt>
      <trkpt lat="47.06795" lon="-0.8109">
        <ele>194.037</ele>
        <time>2019-11-24T09:21:19Z</time>
      </trkpt>
      <trkpt lat="47.06798" lon="-0.81086">
        <ele>193.979</ele>
        <time>2019-11-24T09:21:21Z</time>
      </trkpt>
      <trkpt lat="47.06802" lon="-0.8108">
        <ele>193.868</ele>
        <time>2019-11-24T09:21:25Z</time>
      </trkpt>
      <trkpt lat="47.06806" lon="-0.81078">
        <ele>193.79</ele>
        <time>2019-11-24T09:21:28Z</time>
      </trkpt>
      <trkpt lat="47.06812" lon="-0.81068">
        <ele>193.715</ele>
        <time>2019-11-24T09:21:31Z</time>
      </trkpt>
      <trkpt lat="47.06813" lon="-0.81062">
        <ele>193.668</ele>
        <time>2019-11-24T09:21:33Z</time>
      </trkpt>
      <trkpt lat="47.06814" lon="-0.8106">
        <ele>193.538</ele>
        <time>2019-11-24T09:21:39Z</time>
      </trkpt>
      <trkpt lat="47.06819" lon="-0.81055">
        <ele>193.458</ele>
        <time>2019-11-24T09:21:43Z</time>
      </trkpt>
      <trkpt lat="47.06822" lon="-0.81048">
        <ele>193.382</ele>
        <time>2019-11-24T09:21:47Z</time>
      </trkpt>
      <trkpt lat="47.06823" lon="-0.81045">
        <ele>193.329</ele>
        <time>2019-11-24T09:21:50Z</time>
      </trkpt>
      <trkpt lat="47.06825" lon="-0.8104">
        <ele>193.295</ele>
        <time>2019-11-24T09:21:52Z</time>
      </trkpt>
      <trkpt lat="47.06829" lon="-0.81034">
        <ele>193.263</ele>
        <time>2019-11-24T09:21:54Z</time>
      </trkpt>
      <trkpt lat="47.06831" lon="-0.81031">
        <ele>193.232</ele>
        <time>2019-11-24T09:21:56Z</time>
      </trkpt>
      <trkpt lat="47.06833" lon="-0.81025">
        <ele>193.16</ele>
        <time>2019-11-24T09:22:01Z</time>
      </trkpt>
      <trkpt lat="47.06835" lon="-0.81018">
        <ele>193.109</ele>
        <time>2019-11-24T09:22:05Z</time>
      </trkpt>
      <trkpt lat="47.06837" lon="-0.81011">
        <ele>193.06</ele>
        <time>2019-11-24T09:22:09Z</time>
      </trkpt>
      <trkpt lat="47.06839" lon="-0.81005">
        <ele>193.025</ele>
        <time>2019-11-24T09:22:12Z</time>
      </trkpt>
      <trkpt lat="47.06841" lon="-0.80997">
        <ele>192.981</ele>
        <time>2019-11-24T09:22:16Z</time>
      </trkpt>
      <trkpt lat="47.06841" lon="-0.8099">
        <ele>192.929</ele>
        <time>2019-11-24T09:22:21Z</time>
      </trkpt>
      <trkpt lat="47.06843" lon="-0.80981">
        <ele>192.859</ele>
        <time>2019-11-24T09:22:29Z</time>
      </trkpt>
      <trkpt lat="47.06844" lon="-0.80978">
        <ele>192.84</ele>
        <time>2019-11-24T09:22:31Z</time>
      </trkpt>
      <trkpt lat="47.06845" lon="-0.80971">
        <ele>192.796</ele>
        <time>2019-11-24T09:22:36Z</time>
      </trkpt>
      <trkpt lat="47.06846" lon="-0.80965">
        <ele>192.763</ele>
        <time>2019-11-24T09:22:40Z</time>
      </trkpt>
      <trkpt lat="47.06849" lon="-0.80959">
        <ele>192.734</ele>
        <time>2019-11-24T09:22:44Z</time>
      </trkpt>
      <trkpt lat="47.06854" lon="-0.80954">
        <ele>192.706</ele>
        <time>2019-11-24T09:22:48Z</time>
      </trkpt>
      <trkpt lat="47.06859" lon="-0.80952">
        <ele>192.688</ele>
        <time>2019-11-24T09:22:51Z</time>
      </trkpt>
      <trkpt lat="47.06868" lon="-0.80945">
        <ele>192.666</ele>
        <time>2019-11-24T09:22:55Z</time>
      </trkpt>
      <trkpt lat="47.0687" lon="-0.80943">
        <ele>192.661</ele>
        <time>2019-11-24T09:22:56Z</time>
      </trkpt>
      <trkpt lat="47.06876" lon="-0.80939">
        <ele>192.652</ele>
        <time>2019-11-24T09:22:58Z</time>
      </trkpt>
      <trkpt lat="47.0688" lon="-0.80933">
        <ele>192.634</ele>
        <time>2019-11-24T09:23:02Z</time>
      </trkpt>
      <trkpt lat="47.06882" lon="-0.80926">
        <ele>192.621</ele>
        <time>2019-11-24T09:23:05Z</time>
      </trkpt>
      <trkpt lat="47.06884" lon="-0.8092">
        <ele>192.612</ele>
        <time>2019-11-24T09:23:07Z</time>
      </trkpt>
      <trkpt lat="47.06886" lon="-0.80916">
        <ele>192.6</ele>
        <time>2019-11-24T09:23:10Z</time>
      </trkpt>
      <trkpt lat="47.06888" lon="-0.80913">
        <ele>192.592</ele>
        <time>2019-11-24T09:23:12Z</time>
      </trkpt>
      <trkpt lat="47.06891" lon="-0.80907">
        <ele>192.576</ele>
        <time>2019-11-24T09:23:16Z</time>
      </trkpt>
      <trkpt lat="47.06893" lon="-0.80904">
        <ele>192.565</ele>
        <time>2019-11-24T09:23:19Z</time>
      </trkpt>
      <trkpt lat="47.06894" lon="-0.80901">
        <ele>192.557</ele>
        <time>2019-11-24T09:23:21Z</time>
      </trkpt>
      <trkpt lat="47.06896" lon="-0.80898">
        <ele>192.55</ele>
        <time>2019-11-24T09:23:23Z</time>
      </trkpt>
      <trkpt lat="47.06898" lon="-0.80891">
        <ele>192.535</ele>
        <time>2019-11-24T09:23:27Z</time>
      </trkpt>
      <trkpt lat="47.069" lon="-0.80886">
        <ele>192.52</ele>
        <time>2019-11-24T09:23:31Z</time>
      </trkpt>
      <trkpt lat="47.06904" lon="-0.80879">
        <ele>192.501</ele>
        <time>2019-11-24T09:23:36Z</time>
      </trkpt>
      <trkpt lat="47.06907" lon="-0.80875">
        <ele>192.49</ele>
        <time>2019-11-24T09:23:39Z</time>
      </trkpt>
      <trkpt lat="47.06912" lon="-0.80869">
        <ele>192.483</ele>
        <time>2019-11-24T09:23:41Z</time>
      </trkpt>
      <trkpt lat="47.06916" lon="-0.80864">
        <ele>192.476</ele>
        <time>2019-11-24T09:23:43Z</time>
      </trkpt>
      <trkpt lat="47.06919" lon="-0.80861">
        <ele>192.47</ele>
        <time>2019-11-24T09:23:45Z</time>
      </trkpt>
      <trkpt lat="47.06921" lon="-0.80858">
        <ele>192.462</ele>
        <time>2019-11-24T09:23:48Z</time>
      </trkpt>
      <trkpt lat="47.06924" lon="-0.80852">
        <ele>192.446</ele>
        <time>2019-11-24T09:23:53Z</time>
      </trkpt>
      <trkpt lat="47.06926" lon="-0.80849">
        <ele>192.436</ele>
        <time>2019-11-24T09:23:56Z</time>
      </trkpt>
      <trkpt lat="47.06928" lon="-0.80846">
        <ele>192.43</ele>
        <time>2019-11-24T09:23:58Z</time>
      </trkpt>
      <trkpt lat="47.0693" lon="-0.80842">
        <ele>192.424</ele>
        <time>2019-11-24T09:24:00Z</time>
      </trkpt>
      <trkpt lat="47.06934" lon="-0.80838">
        <ele>192.411</ele>
        <time>2019-11-24T09:24:03Z</time>
      </trkpt>
      <trkpt lat="47.06936" lon="-0.80832">
        <ele>192.4</ele>
        <time>2019-11-24T09:24:06Z</time>
      </trkpt>
      <trkpt lat="47.06937" lon="-0.80829">
        <ele>192.392</ele>
        <time>2019-11-24T09:24:08Z</time>
      </trkpt>
      <trkpt lat="47.06939" lon="-0.80825">
        <ele>192.381</ele>
        <time>2019-11-24T09:24:11Z</time>
      </trkpt>
      <trkpt lat="47.06942" lon="-0.80818">
        <ele>192.37</ele>
        <time>2019-11-24T09:24:14Z</time>
      </trkpt>
      <trkpt lat="47.06944" lon="-0.80817">
        <ele>192.348</ele>
        <time>2019-11-24T09:24:23Z</time>
      </trkpt>
      <trkpt lat="47.06949" lon="-0.80817">
        <ele>192.99</ele>
        <time>2019-11-24T09:28:55Z</time>
      </trkpt>
      <trkpt lat="47.06953" lon="-0.80813">
        <ele>192.997</ele>
        <time>2019-11-24T09:28:59Z</time>
      </trkpt>
      <trkpt lat="47.06958" lon="-0.80812">
        <ele>193.003</ele>
        <time>2019-11-24T09:29:04Z</time>
      </trkpt>
      <trkpt lat="47.0696" lon="-0.80805">
        <ele>193.005</ele>
        <time>2019-11-24T09:29:10Z</time>
      </trkpt>
      <trkpt lat="47.06963" lon="-0.808">
        <ele>193.003</ele>
        <time>2019-11-24T09:29:14Z</time>
      </trkpt>
      <trkpt lat="47.06966" lon="-0.80795">
        <ele>193.002</ele>
        <time>2019-11-24T09:29:15Z</time>
      </trkpt>
      <trkpt lat="47.0697" lon="-0.80787">
        <ele>193</ele>
        <time>2019-11-24T09:29:18Z</time>
      </trkpt>
      <trkpt lat="47.06975" lon="-0.8078">
        <ele>193.001</ele>
        <time>2019-11-24T09:29:21Z</time>
      </trkpt>
      <trkpt lat="47.06977" lon="-0.80778">
        <ele>193.002</ele>
        <time>2019-11-24T09:29:22Z</time>
      </trkpt>
      <trkpt lat="47.06979" lon="-0.80774">
        <ele>193.003</ele>
        <time>2019-11-24T09:29:24Z</time>
      </trkpt>
      <trkpt lat="47.06981" lon="-0.80768">
        <ele>193.003</ele>
        <time>2019-11-24T09:29:27Z</time>
      </trkpt>
      <trkpt lat="47.06983" lon="-0.80764">
        <ele>193.005</ele>
        <time>2019-11-24T09:29:30Z</time>
      </trkpt>
      <trkpt lat="47.06985" lon="-0.8076">
        <ele>193.009</ele>
        <time>2019-11-24T09:29:33Z</time>
      </trkpt>
      <trkpt lat="47.06986" lon="-0.80757">
        <ele>193.011</ele>
        <time>2019-11-24T09:29:35Z</time>
      </trkpt>
      <trkpt lat="47.06989" lon="-0.80752">
        <ele>193.018</ele>
        <time>2019-11-24T09:29:43Z</time>
      </trkpt>
      <trkpt lat="47.06994" lon="-0.80748">
        <ele>193.02</ele>
        <time>2019-11-24T09:29:48Z</time>
      </trkpt>
      <trkpt lat="47.06998" lon="-0.80747">
        <ele>193.021</ele>
        <time>2019-11-24T09:29:52Z</time>
      </trkpt>
      <trkpt lat="47.07003" lon="-0.80742">
        <ele>193.022</ele>
        <time>2019-11-24T09:29:56Z</time>
      </trkpt>
      <trkpt lat="47.07007" lon="-0.80736">
        <ele>193.021</ele>
        <time>2019-11-24T09:29:59Z</time>
      </trkpt>
      <trkpt lat="47.07012" lon="-0.8073">
        <ele>193.019</ele>
        <time>2019-11-24T09:30:01Z</time>
      </trkpt>
      <trkpt lat="47.07017" lon="-0.80727">
        <ele>193.016</ele>
        <time>2019-11-24T09:30:04Z</time>
      </trkpt>
      <trkpt lat="47.07021" lon="-0.80723">
        <ele>193.009</ele>
        <time>2019-11-24T09:30:09Z</time>
      </trkpt>
      <trkpt lat="47.07025" lon="-0.80719">
        <ele>192.999</ele>
        <time>2019-11-24T09:30:13Z</time>
      </trkpt>
      <trkpt lat="47.07031" lon="-0.80717">
        <ele>192.99</ele>
        <time>2019-11-24T09:30:17Z</time>
      </trkpt>
      <trkpt lat="47.07035" lon="-0.80714">
        <ele>192.984</ele>
        <time>2019-11-24T09:30:20Z</time>
      </trkpt>
      <trkpt lat="47.0704" lon="-0.80712">
        <ele>192.972</ele>
        <time>2019-11-24T09:30:25Z</time>
      </trkpt>
      <trkpt lat="47.07044" lon="-0.80708">
        <ele>192.961</ele>
        <time>2019-11-24T09:30:29Z</time>
      </trkpt>
      <trkpt lat="47.07046" lon="-0.80702">
        <ele>192.956</ele>
        <time>2019-11-24T09:30:33Z</time>
      </trkpt>
      <trkpt lat="47.07051" lon="-0.80698">
        <ele>192.957</ele>
        <time>2019-11-24T09:30:37Z</time>
      </trkpt>
      <trkpt lat="47.07055" lon="-0.80694">
        <ele>192.958</ele>
        <time>2019-11-24T09:30:40Z</time>
      </trkpt>
      <trkpt lat="47.0706" lon="-0.80688">
        <ele>192.96</ele>
        <time>2019-11-24T09:30:44Z</time>
      </trkpt>
      <trkpt lat="47.07064" lon="-0.80681">
        <ele>192.963</ele>
        <time>2019-11-24T09:30:47Z</time>
      </trkpt>
      <trkpt lat="47.07067" lon="-0.80677">
        <ele>192.967</ele>
        <time>2019-11-24T09:30:50Z</time>
      </trkpt>
      <trkpt lat="47.07072" lon="-0.80673">
        <ele>192.97</ele>
        <time>2019-11-24T09:30:53Z</time>
      </trkpt>
      <trkpt lat="47.07072" lon="-0.80673">
        <ele>192.97</ele>
        <time>2019-11-24T09:30:59Z</time>
      </trkpt>
      <trkpt lat="47.07074" lon="-0.80667">
        <ele>192.972</ele>
        <time>2019-11-24T09:31:00Z</time>
      </trkpt>
      <trkpt lat="47.07077" lon="-0.80661">
        <ele>192.97</ele>
        <time>2019-11-24T09:31:03Z</time>
      </trkpt>
      <trkpt lat="47.07077" lon="-0.80661">
        <ele>192.97</ele>
        <time>2019-11-24T09:31:08Z</time>
      </trkpt>
      <trkpt lat="47.07077" lon="-0.80661">
        <ele>192.97</ele>
        <time>2019-11-24T09:31:09Z</time>
      </trkpt>
      <trkpt lat="47.07083" lon="-0.80656">
        <ele>192.961</ele>
        <time>2019-11-24T09:31:11Z</time>
      </trkpt>
      <trkpt lat="47.07087" lon="-0.80654">
        <ele>192.95</ele>
        <time>2019-11-24T09:31:16Z</time>
      </trkpt>
      <trkpt lat="47.07092" lon="-0.80652">
        <ele>192.939</ele>
        <time>2019-11-24T09:31:19Z</time>
      </trkpt>
      <trkpt lat="47.07096" lon="-0.80651">
        <ele>192.932</ele>
        <time>2019-11-24T09:31:21Z</time>
      </trkpt>
      <trkpt lat="47.07099" lon="-0.80651">
        <ele>192.912</ele>
        <time>2019-11-24T09:31:27Z</time>
      </trkpt>
      <trkpt lat="47.07103" lon="-0.80651">
        <ele>192.904</ele>
        <time>2019-11-24T09:31:29Z</time>
      </trkpt>
      <trkpt lat="47.07108" lon="-0.80649">
        <ele>192.89</ele>
        <time>2019-11-24T09:31:32Z</time>
      </trkpt>
      <trkpt lat="47.07117" lon="-0.80648">
        <ele>192.866</ele>
        <time>2019-11-24T09:31:37Z</time>
      </trkpt>
      <trkpt lat="47.07122" lon="-0.80648">
        <ele>192.857</ele>
        <time>2019-11-24T09:31:39Z</time>
      </trkpt>
      <trkpt lat="47.07128" lon="-0.80644">
        <ele>192.847</ele>
        <time>2019-11-24T09:31:41Z</time>
      </trkpt>
      <trkpt lat="47.07136" lon="-0.80644">
        <ele>192.835</ele>
        <time>2019-11-24T09:31:44Z</time>
      </trkpt>
      <trkpt lat="47.07141" lon="-0.80644">
        <ele>192.826</ele>
        <time>2019-11-24T09:31:47Z</time>
      </trkpt>
      <trkpt lat="47.07145" lon="-0.80644">
        <ele>192.818</ele>
        <time>2019-11-24T09:31:50Z</time>
      </trkpt>
      <trkpt lat="47.07148" lon="-0.80643">
        <ele>192.812</ele>
        <time>2019-11-24T09:31:52Z</time>
      </trkpt>
      <trkpt lat="47.07153" lon="-0.80643">
        <ele>192.803</ele>
        <time>2019-11-24T09:31:56Z</time>
      </trkpt>
      <trkpt lat="47.07156" lon="-0.80642">
        <ele>192.799</ele>
        <time>2019-11-24T09:31:58Z</time>
      </trkpt>
      <trkpt lat="47.0716" lon="-0.80643">
        <ele>192.793</ele>
        <time>2019-11-24T09:32:01Z</time>
      </trkpt>
      <trkpt lat="47.07164" lon="-0.80643">
        <ele>192.786</ele>
        <time>2019-11-24T09:32:04Z</time>
      </trkpt>
      <trkpt lat="47.07167" lon="-0.80643">
        <ele>192.782</ele>
        <time>2019-11-24T09:32:06Z</time>
      </trkpt>
      <trkpt lat="47.0717" lon="-0.80643">
        <ele>192.778</ele>
        <time>2019-11-24T09:32:08Z</time>
      </trkpt>
      <trkpt lat="47.07175" lon="-0.80641">
        <ele>192.769</ele>
        <time>2019-11-24T09:32:12Z</time>
      </trkpt>
      <trkpt lat="47.0718" lon="-0.80641">
        <ele>192.759</ele>
        <time>2019-11-24T09:32:17Z</time>
      </trkpt>
      <trkpt lat="47.07186" lon="-0.80642">
        <ele>192.75</ele>
        <time>2019-11-24T09:32:21Z</time>
      </trkpt>
      <trkpt lat="47.07191" lon="-0.8064">
        <ele>192.746</ele>
        <time>2019-11-24T09:32:24Z</time>
      </trkpt>
      <trkpt lat="47.07194" lon="-0.80639">
        <ele>192.741</ele>
        <time>2019-11-24T09:32:27Z</time>
      </trkpt>
      <trkpt lat="47.07201" lon="-0.80639">
        <ele>192.721</ele>
        <time>2019-11-24T09:32:33Z</time>
      </trkpt>
      <trkpt lat="47.07203" lon="-0.80639">
        <ele>192.717</ele>
        <time>2019-11-24T09:32:34Z</time>
      </trkpt>
      <trkpt lat="47.07207" lon="-0.80639">
        <ele>192.696</ele>
        <time>2019-11-24T09:32:38Z</time>
      </trkpt>
      <trkpt lat="47.07213" lon="-0.80637">
        <ele>192.656</ele>
        <time>2019-11-24T09:32:44Z</time>
      </trkpt>
      <trkpt lat="47.07216" lon="-0.80632">
        <ele>192.641</ele>
        <time>2019-11-24T09:32:46Z</time>
      </trkpt>
      <trkpt lat="47.07221" lon="-0.80631">
        <ele>192.609</ele>
        <time>2019-11-24T09:32:50Z</time>
      </trkpt>
      <trkpt lat="47.07226" lon="-0.80632">
        <ele>192.574</ele>
        <time>2019-11-24T09:32:54Z</time>
      </trkpt>
      <trkpt lat="47.07235" lon="-0.80629">
        <ele>192.536</ele>
        <time>2019-11-24T09:32:58Z</time>
      </trkpt>
      <trkpt lat="47.07239" lon="-0.80627">
        <ele>192.518</ele>
        <time>2019-11-24T09:33:00Z</time>
      </trkpt>
      <trkpt lat="47.07243" lon="-0.80625">
        <ele>192.509</ele>
        <time>2019-11-24T09:33:01Z</time>
      </trkpt>
      <trkpt lat="47.0725" lon="-0.80624">
        <ele>192.483</ele>
        <time>2019-11-24T09:33:04Z</time>
      </trkpt>
      <trkpt lat="47.07254" lon="-0.80622">
        <ele>192.445</ele>
        <time>2019-11-24T09:33:08Z</time>
      </trkpt>
      <trkpt lat="47.07258" lon="-0.80621">
        <ele>192.414</ele>
        <time>2019-11-24T09:33:11Z</time>
      </trkpt>
      <trkpt lat="47.07264" lon="-0.8062">
        <ele>192.372</ele>
        <time>2019-11-24T09:33:15Z</time>
      </trkpt>
      <trkpt lat="47.07269" lon="-0.8062">
        <ele>192.315</ele>
        <time>2019-11-24T09:33:21Z</time>
      </trkpt>
      <trkpt lat="47.07274" lon="-0.80618">
        <ele>192.264</ele>
        <time>2019-11-24T09:33:27Z</time>
      </trkpt>
      <trkpt lat="47.07283" lon="-0.80614">
        <ele>192.224</ele>
        <time>2019-11-24T09:33:32Z</time>
      </trkpt>
      <trkpt lat="47.07288" lon="-0.80615">
        <ele>192.211</ele>
        <time>2019-11-24T09:33:34Z</time>
      </trkpt>
      <trkpt lat="47.07293" lon="-0.80617">
        <ele>192.183</ele>
        <time>2019-11-24T09:33:39Z</time>
      </trkpt>
      <trkpt lat="47.07298" lon="-0.80617">
        <ele>192.169</ele>
        <time>2019-11-24T09:33:42Z</time>
      </trkpt>
      <trkpt lat="47.07303" lon="-0.80619">
        <ele>192.155</ele>
        <time>2019-11-24T09:33:45Z</time>
      </trkpt>
      <trkpt lat="47.07308" lon="-0.80623">
        <ele>192.145</ele>
        <time>2019-11-24T09:33:48Z</time>
      </trkpt>
      <trkpt lat="47.0731" lon="-0.80625">
        <ele>192.136</ele>
        <time>2019-11-24T09:33:52Z</time>
      </trkpt>
      <trkpt lat="47.07317" lon="-0.80627">
        <ele>192.133</ele>
        <time>2019-11-24T09:33:55Z</time>
      </trkpt>
      <trkpt lat="47.07319" lon="-0.80628">
        <ele>192.134</ele>
        <time>2019-11-24T09:33:56Z</time>
      </trkpt>
      <trkpt lat="47.07323" lon="-0.8063">
        <ele>192.143</ele>
        <time>2019-11-24T09:34:01Z</time>
      </trkpt>
      <trkpt lat="47.07327" lon="-0.80631">
        <ele>192.157</ele>
        <time>2019-11-24T09:34:05Z</time>
      </trkpt>
      <trkpt lat="47.07332" lon="-0.80633">
        <ele>192.175</ele>
        <time>2019-11-24T09:34:09Z</time>
      </trkpt>
      <trkpt lat="47.07337" lon="-0.80633">
        <ele>192.188</ele>
        <time>2019-11-24T09:34:11Z</time>
      </trkpt>
      <trkpt lat="47.07341" lon="-0.80636">
        <ele>192.22</ele>
        <time>2019-11-24T09:34:16Z</time>
      </trkpt>
      <trkpt lat="47.07344" lon="-0.80638">
        <ele>192.249</ele>
        <time>2019-11-24T09:34:21Z</time>
      </trkpt>
      <trkpt lat="47.0735" lon="-0.8064">
        <ele>192.273</ele>
        <time>2019-11-24T09:34:26Z</time>
      </trkpt>
      <trkpt lat="47.07356" lon="-0.8064">
        <ele>192.29</ele>
        <time>2019-11-24T09:34:30Z</time>
      </trkpt>
      <trkpt lat="47.07361" lon="-0.80641">
        <ele>192.296</ele>
        <time>2019-11-24T09:34:31Z</time>
      </trkpt>
      <trkpt lat="47.07367" lon="-0.80641">
        <ele>192.303</ele>
        <time>2019-11-24T09:34:32Z</time>
      </trkpt>
      <trkpt lat="47.07372" lon="-0.80643">
        <ele>192.317</ele>
        <time>2019-11-24T09:34:34Z</time>
      </trkpt>
      <trkpt lat="47.07375" lon="-0.80643">
        <ele>192.363</ele>
        <time>2019-11-24T09:34:41Z</time>
      </trkpt>
      <trkpt lat="47.07381" lon="-0.80642">
        <ele>192.39</ele>
        <time>2019-11-24T09:34:46Z</time>
      </trkpt>
      <trkpt lat="47.07384" lon="-0.8064">
        <ele>192.399</ele>
        <time>2019-11-24T09:34:48Z</time>
      </trkpt>
      <trkpt lat="47.07387" lon="-0.80641">
        <ele>192.416</ele>
        <time>2019-11-24T09:34:56Z</time>
      </trkpt>
      <trkpt lat="47.07394" lon="-0.80644">
        <ele>192.418</ele>
        <time>2019-11-24T09:34:58Z</time>
      </trkpt>
      <trkpt lat="47.074" lon="-0.80644">
        <ele>192.42</ele>
        <time>2019-11-24T09:35:00Z</time>
      </trkpt>
      <trkpt lat="47.07404" lon="-0.80644">
        <ele>192.422</ele>
        <time>2019-11-24T09:35:02Z</time>
      </trkpt>
      <trkpt lat="47.07409" lon="-0.80647">
        <ele>192.424</ele>
        <time>2019-11-24T09:35:05Z</time>
      </trkpt>
      <trkpt lat="47.07413" lon="-0.80649">
        <ele>192.425</ele>
        <time>2019-11-24T09:35:07Z</time>
      </trkpt>
      <trkpt lat="47.0742" lon="-0.80654">
        <ele>192.429</ele>
        <time>2019-11-24T09:35:10Z</time>
      </trkpt>
      <trkpt lat="47.07423" lon="-0.80656">
        <ele>192.433</ele>
        <time>2019-11-24T09:35:12Z</time>
      </trkpt>
      <trkpt lat="47.07426" lon="-0.80658">
        <ele>192.441</ele>
        <time>2019-11-24T09:35:15Z</time>
      </trkpt>
      <trkpt lat="47.07428" lon="-0.80665">
        <ele>192.459</ele>
        <time>2019-11-24T09:35:21Z</time>
      </trkpt>
      <trkpt lat="47.0743" lon="-0.80669">
        <ele>192.465</ele>
        <time>2019-11-24T09:35:23Z</time>
      </trkpt>
      <trkpt lat="47.07435" lon="-0.80676">
        <ele>192.471</ele>
        <time>2019-11-24T09:35:26Z</time>
      </trkpt>
      <trkpt lat="47.07439" lon="-0.80681">
        <ele>192.479</ele>
        <time>2019-11-24T09:35:30Z</time>
      </trkpt>
      <trkpt lat="47.07443" lon="-0.80686">
        <ele>192.486</ele>
        <time>2019-11-24T09:35:33Z</time>
      </trkpt>
      <trkpt lat="47.07444" lon="-0.80692">
        <ele>192.493</ele>
        <time>2019-11-24T09:35:36Z</time>
      </trkpt>
      <trkpt lat="47.07445" lon="-0.80696">
        <ele>192.497</ele>
        <time>2019-11-24T09:35:38Z</time>
      </trkpt>
      <trkpt lat="47.07445" lon="-0.80701">
        <ele>192.504</ele>
        <time>2019-11-24T09:35:42Z</time>
      </trkpt>
      <trkpt lat="47.07444" lon="-0.80709">
        <ele>192.504</ele>
        <time>2019-11-24T09:35:46Z</time>
      </trkpt>
      <trkpt lat="47.07444" lon="-0.80712">
        <ele>192.499</ele>
        <time>2019-11-24T09:35:49Z</time>
      </trkpt>
      <trkpt lat="47.07441" lon="-0.80724">
        <ele>192.478</ele>
        <time>2019-11-24T09:35:56Z</time>
      </trkpt>
      <trkpt lat="47.07443" lon="-0.80732">
        <ele>192.468</ele>
        <time>2019-11-24T09:35:59Z</time>
      </trkpt>
      <trkpt lat="47.07441" lon="-0.80739">
        <ele>192.457</ele>
        <time>2019-11-24T09:36:02Z</time>
      </trkpt>
      <trkpt lat="47.0744" lon="-0.80742">
        <ele>192.447</ele>
        <time>2019-11-24T09:36:04Z</time>
      </trkpt>
      <trkpt lat="47.0744" lon="-0.8075">
        <ele>192.43</ele>
        <time>2019-11-24T09:36:08Z</time>
      </trkpt>
      <trkpt lat="47.07439" lon="-0.80757">
        <ele>192.405</ele>
        <time>2019-11-24T09:36:12Z</time>
      </trkpt>
      <trkpt lat="47.07438" lon="-0.80765">
        <ele>192.386</ele>
        <time>2019-11-24T09:36:15Z</time>
      </trkpt>
      <trkpt lat="47.07438" lon="-0.80772">
        <ele>192.364</ele>
        <time>2019-11-24T09:36:18Z</time>
      </trkpt>
      <trkpt lat="47.07439" lon="-0.80779">
        <ele>192.332</ele>
        <time>2019-11-24T09:36:22Z</time>
      </trkpt>
      <trkpt lat="47.07438" lon="-0.80786">
        <ele>192.29</ele>
        <time>2019-11-24T09:36:27Z</time>
      </trkpt>
      <trkpt lat="47.07437" lon="-0.80793">
        <ele>192.267</ele>
        <time>2019-11-24T09:36:30Z</time>
      </trkpt>
      <trkpt lat="47.07436" lon="-0.80802">
        <ele>192.227</ele>
        <time>2019-11-24T09:36:35Z</time>
      </trkpt>
      <trkpt lat="47.07436" lon="-0.80806">
        <ele>192.211</ele>
        <time>2019-11-24T09:36:37Z</time>
      </trkpt>
      <trkpt lat="47.07436" lon="-0.8081">
        <ele>192.202</ele>
        <time>2019-11-24T09:36:38Z</time>
      </trkpt>
      <trkpt lat="47.07434" lon="-0.80823">
        <ele>192.159</ele>
        <time>2019-11-24T09:36:43Z</time>
      </trkpt>
      <trkpt lat="47.07433" lon="-0.80828">
        <ele>192.143</ele>
        <time>2019-11-24T09:36:45Z</time>
      </trkpt>
      <trkpt lat="47.0743" lon="-0.80835">
        <ele>192.113</ele>
        <time>2019-11-24T09:36:49Z</time>
      </trkpt>
      <trkpt lat="47.07429" lon="-0.80842">
        <ele>192.093</ele>
        <time>2019-11-24T09:36:52Z</time>
      </trkpt>
      <trkpt lat="47.07428" lon="-0.80851">
        <ele>192.073</ele>
        <time>2019-11-24T09:36:55Z</time>
      </trkpt>
      <trkpt lat="47.07428" lon="-0.8086">
        <ele>192.053</ele>
        <time>2019-11-24T09:36:58Z</time>
      </trkpt>
      <trkpt lat="47.07429" lon="-0.80867">
        <ele>192.033</ele>
        <time>2019-11-24T09:37:01Z</time>
      </trkpt>
      <trkpt lat="47.0743" lon="-0.80871">
        <ele>192.02</ele>
        <time>2019-11-24T09:37:03Z</time>
      </trkpt>
      <trkpt lat="47.0743" lon="-0.80875">
        <ele>191.984</ele>
        <time>2019-11-24T09:37:08Z</time>
      </trkpt>
      <trkpt lat="47.07431" lon="-0.80881">
        <ele>191.95</ele>
        <time>2019-11-24T09:37:12Z</time>
      </trkpt>
      <trkpt lat="47.07431" lon="-0.80885">
        <ele>191.931</ele>
        <time>2019-11-24T09:37:14Z</time>
      </trkpt>
      <trkpt lat="47.07431" lon="-0.80892">
        <ele>191.891</ele>
        <time>2019-11-24T09:37:18Z</time>
      </trkpt>
      <trkpt lat="47.07431" lon="-0.80897">
        <ele>191.859</ele>
        <time>2019-11-24T09:37:21Z</time>
      </trkpt>
      <trkpt lat="47.0743" lon="-0.80902">
        <ele>191.825</ele>
        <time>2019-11-24T09:37:24Z</time>
      </trkpt>
      <trkpt lat="47.07428" lon="-0.80909">
        <ele>191.772</ele>
        <time>2019-11-24T09:37:28Z</time>
      </trkpt>
      <trkpt lat="47.07427" lon="-0.80913">
        <ele>191.742</ele>
        <time>2019-11-24T09:37:30Z</time>
      </trkpt>
      <trkpt lat="47.07427" lon="-0.80913">
        <ele>129.7</ele>
        <time>2019-11-24T09:37:37Z</time>
      </trkpt>
      <trkpt lat="47.07427" lon="-0.80913">
        <ele>129.7</ele>
        <time>2019-11-24T09:47:14Z</time>
      </trkpt>
      <trkpt lat="47.0741" lon="-0.80947">
        <ele>189.516</ele>
        <time>2019-11-24T09:47:15Z</time>
      </trkpt>
      <trkpt lat="47.0741" lon="-0.80947">
        <ele>128.7</ele>
        <time>2019-11-24T09:51:41Z</time>
      </trkpt>
      <trkpt lat="47.0741" lon="-0.80947">
        <ele>128.7</ele>
        <time>2019-11-24T09:51:47Z</time>
      </trkpt>
      <trkpt lat="47.07413" lon="-0.8094">
        <ele>188.386</ele>
        <time>2019-11-24T09:51:48Z</time>
      </trkpt>
      <trkpt lat="47.07422" lon="-0.80938">
        <ele>188.04</ele>
        <time>2019-11-24T09:52:03Z</time>
      </trkpt>
      <trkpt lat="47.07423" lon="-0.80945">
        <ele>187.962</ele>
        <time>2019-11-24T09:52:07Z</time>
      </trkpt>
      <trkpt lat="47.07423" lon="-0.80952">
        <ele>187.889</ele>
        <time>2019-11-24T09:52:11Z</time>
      </trkpt>
      <trkpt lat="47.07424" lon="-0.8096">
        <ele>187.821</ele>
        <time>2019-11-24T09:52:15Z</time>
      </trkpt>
      <trkpt lat="47.07425" lon="-0.80968">
        <ele>187.758</ele>
        <time>2019-11-24T09:52:19Z</time>
      </trkpt>
      <trkpt lat="47.07426" lon="-0.80972">
        <ele>187.714</ele>
        <time>2019-11-24T09:52:22Z</time>
      </trkpt>
      <trkpt lat="47.07426" lon="-0.80975">
        <ele>187.686</ele>
        <time>2019-11-24T09:52:24Z</time>
      </trkpt>
      <trkpt lat="47.07426" lon="-0.8098">
        <ele>187.647</ele>
        <time>2019-11-24T09:52:27Z</time>
      </trkpt>
      <trkpt lat="47.07427" lon="-0.80986">
        <ele>187.611</ele>
        <time>2019-11-24T09:52:30Z</time>
      </trkpt>
      <trkpt lat="47.07427" lon="-0.80991">
        <ele>187.578</ele>
        <time>2019-11-24T09:52:33Z</time>
      </trkpt>
      <trkpt lat="47.07427" lon="-0.80997">
        <ele>187.547</ele>
        <time>2019-11-24T09:52:36Z</time>
      </trkpt>
      <trkpt lat="47.07428" lon="-0.81003">
        <ele>187.501</ele>
        <time>2019-11-24T09:52:41Z</time>
      </trkpt>
      <trkpt lat="47.07431" lon="-0.8101">
        <ele>187.468</ele>
        <time>2019-11-24T09:52:45Z</time>
      </trkpt>
      <trkpt lat="47.07432" lon="-0.81017">
        <ele>187.416</ele>
        <time>2019-11-24T09:52:52Z</time>
      </trkpt>
      <trkpt lat="47.07433" lon="-0.81023">
        <ele>187.396</ele>
        <time>2019-11-24T09:52:55Z</time>
      </trkpt>
      <trkpt lat="47.07433" lon="-0.81031">
        <ele>187.372</ele>
        <time>2019-11-24T09:52:59Z</time>
      </trkpt>
      <trkpt lat="47.07433" lon="-0.81035">
        <ele>187.366</ele>
        <time>2019-11-24T09:53:00Z</time>
      </trkpt>
      <trkpt lat="47.07433" lon="-0.8104">
        <ele>187.355</ele>
        <time>2019-11-24T09:53:02Z</time>
      </trkpt>
      <trkpt lat="47.07433" lon="-0.81045">
        <ele>187.344</ele>
        <time>2019-11-24T09:53:04Z</time>
      </trkpt>
      <trkpt lat="47.07433" lon="-0.81049">
        <ele>187.333</ele>
        <time>2019-11-24T09:53:06Z</time>
      </trkpt>
      <trkpt lat="47.07433" lon="-0.81056">
        <ele>187.307</ele>
        <time>2019-11-24T09:53:11Z</time>
      </trkpt>
      <trkpt lat="47.07432" lon="-0.8106">
        <ele>187.298</ele>
        <time>2019-11-24T09:53:13Z</time>
      </trkpt>
      <trkpt lat="47.07432" lon="-0.81064">
        <ele>187.289</ele>
        <time>2019-11-24T09:53:15Z</time>
      </trkpt>
      <trkpt lat="47.07431" lon="-0.81068">
        <ele>187.281</ele>
        <time>2019-11-24T09:53:17Z</time>
      </trkpt>
      <trkpt lat="47.07431" lon="-0.81073">
        <ele>187.273</ele>
        <time>2019-11-24T09:53:19Z</time>
      </trkpt>
      <trkpt lat="47.0743" lon="-0.81077">
        <ele>187.266</ele>
        <time>2019-11-24T09:53:21Z</time>
      </trkpt>
      <trkpt lat="47.07431" lon="-0.81084">
        <ele>187.256</ele>
        <time>2019-11-24T09:53:24Z</time>
      </trkpt>
      <trkpt lat="47.07432" lon="-0.8109">
        <ele>187.244</ele>
        <time>2019-11-24T09:53:28Z</time>
      </trkpt>
      <trkpt lat="47.07431" lon="-0.81097">
        <ele>187.232</ele>
        <time>2019-11-24T09:53:33Z</time>
      </trkpt>
      <trkpt lat="47.0743" lon="-0.81104">
        <ele>187.224</ele>
        <time>2019-11-24T09:53:37Z</time>
      </trkpt>
      <trkpt lat="47.0743" lon="-0.81107">
        <ele>187.221</ele>
        <time>2019-11-24T09:53:39Z</time>
      </trkpt>
      <trkpt lat="47.07431" lon="-0.81114">
        <ele>187.216</ele>
        <time>2019-11-24T09:53:43Z</time>
      </trkpt>
      <trkpt lat="47.07432" lon="-0.81119">
        <ele>187.214</ele>
        <time>2019-11-24T09:53:45Z</time>
      </trkpt>
      <trkpt lat="47.07433" lon="-0.81126">
        <ele>187.211</ele>
        <time>2019-11-24T09:53:49Z</time>
      </trkpt>
      <trkpt lat="47.07434" lon="-0.81133">
        <ele>187.208</ele>
        <time>2019-11-24T09:53:53Z</time>
      </trkpt>
      <trkpt lat="47.07434" lon="-0.81141">
        <ele>187.206</ele>
        <time>2019-11-24T09:53:56Z</time>
      </trkpt>
      <trkpt lat="47.07434" lon="-0.81148">
        <ele>187.204</ele>
        <time>2019-11-24T09:54:00Z</time>
      </trkpt>
      <trkpt lat="47.07434" lon="-0.81152">
        <ele>187.202</ele>
        <time>2019-11-24T09:54:02Z</time>
      </trkpt>
      <trkpt lat="47.07436" lon="-0.81159">
        <ele>187.2</ele>
        <time>2019-11-24T09:54:06Z</time>
      </trkpt>
      <trkpt lat="47.07436" lon="-0.81166">
        <ele>187.198</ele>
        <time>2019-11-24T09:54:10Z</time>
      </trkpt>
      <trkpt lat="47.07438" lon="-0.81173">
        <ele>187.196</ele>
        <time>2019-11-24T09:54:13Z</time>
      </trkpt>
      <trkpt lat="47.07438" lon="-0.81176">
        <ele>187.195</ele>
        <time>2019-11-24T09:54:15Z</time>
      </trkpt>
      <trkpt lat="47.07439" lon="-0.81183">
        <ele>187.193</ele>
        <time>2019-11-24T09:54:20Z</time>
      </trkpt>
      <trkpt lat="47.0744" lon="-0.81192">
        <ele>187.193</ele>
        <time>2019-11-24T09:54:24Z</time>
      </trkpt>
      <trkpt lat="47.07441" lon="-0.812">
        <ele>187.194</ele>
        <time>2019-11-24T09:54:27Z</time>
      </trkpt>
      <trkpt lat="47.07442" lon="-0.81203">
        <ele>187.194</ele>
        <time>2019-11-24T09:54:29Z</time>
      </trkpt>
      <trkpt lat="47.07443" lon="-0.81208">
        <ele>187.196</ele>
        <time>2019-11-24T09:54:32Z</time>
      </trkpt>
      <trkpt lat="47.07444" lon="-0.81217">
        <ele>187.199</ele>
        <time>2019-11-24T09:54:35Z</time>
      </trkpt>
      <trkpt lat="47.07444" lon="-0.81221">
        <ele>187.201</ele>
        <time>2019-11-24T09:54:36Z</time>
      </trkpt>
      <trkpt lat="47.07441" lon="-0.8123">
        <ele>187.205</ele>
        <time>2019-11-24T09:54:38Z</time>
      </trkpt>
      <trkpt lat="47.07441" lon="-0.81237">
        <ele>187.213</ele>
        <time>2019-11-24T09:54:42Z</time>
      </trkpt>
      <trkpt lat="47.07441" lon="-0.81242">
        <ele>187.219</ele>
        <time>2019-11-24T09:54:45Z</time>
      </trkpt>
      <trkpt lat="47.07442" lon="-0.81248">
        <ele>187.224</ele>
        <time>2019-11-24T09:54:48Z</time>
      </trkpt>
      <trkpt lat="47.07443" lon="-0.81254">
        <ele>187.231</ele>
        <time>2019-11-24T09:54:52Z</time>
      </trkpt>
      <trkpt lat="47.07444" lon="-0.81258">
        <ele>187.236</ele>
        <time>2019-11-24T09:54:55Z</time>
      </trkpt>
      <trkpt lat="47.07445" lon="-0.81261">
        <ele>187.24</ele>
        <time>2019-11-24T09:54:57Z</time>
      </trkpt>
      <trkpt lat="47.07445" lon="-0.81265">
        <ele>187.243</ele>
        <time>2019-11-24T09:54:59Z</time>
      </trkpt>
      <trkpt lat="47.07446" lon="-0.81272">
        <ele>187.247</ele>
        <time>2019-11-24T09:55:02Z</time>
      </trkpt>
      <trkpt lat="47.07446" lon="-0.81278">
        <ele>187.248</ele>
        <time>2019-11-24T09:55:04Z</time>
      </trkpt>
      <trkpt lat="47.07445" lon="-0.81286">
        <ele>187.252</ele>
        <time>2019-11-24T09:55:08Z</time>
      </trkpt>
      <trkpt lat="47.07445" lon="-0.81291">
        <ele>187.254</ele>
        <time>2019-11-24T09:55:10Z</time>
      </trkpt>
      <trkpt lat="47.07444" lon="-0.81294">
        <ele>187.256</ele>
        <time>2019-11-24T09:55:12Z</time>
      </trkpt>
      <trkpt lat="47.07444" lon="-0.81302">
        <ele>187.259</ele>
        <time>2019-11-24T09:55:15Z</time>
      </trkpt>
      <trkpt lat="47.07444" lon="-0.81306">
        <ele>187.261</ele>
        <time>2019-11-24T09:55:17Z</time>
      </trkpt>
      <trkpt lat="47.07444" lon="-0.81311">
        <ele>187.264</ele>
        <time>2019-11-24T09:55:19Z</time>
      </trkpt>
      <trkpt lat="47.07445" lon="-0.81317">
        <ele>187.27</ele>
        <time>2019-11-24T09:55:23Z</time>
      </trkpt>
      <trkpt lat="47.07445" lon="-0.81322">
        <ele>187.275</ele>
        <time>2019-11-24T09:55:26Z</time>
      </trkpt>
      <trkpt lat="47.07446" lon="-0.81325">
        <ele>187.278</ele>
        <time>2019-11-24T09:55:28Z</time>
      </trkpt>
      <trkpt lat="47.07446" lon="-0.81329">
        <ele>187.281</ele>
        <time>2019-11-24T09:55:30Z</time>
      </trkpt>
      <trkpt lat="47.07446" lon="-0.81336">
        <ele>187.286</ele>
        <time>2019-11-24T09:55:33Z</time>
      </trkpt>
      <trkpt lat="47.07447" lon="-0.81344">
        <ele>187.29</ele>
        <time>2019-11-24T09:55:36Z</time>
      </trkpt>
      <trkpt lat="47.07448" lon="-0.81348">
        <ele>187.293</ele>
        <time>2019-11-24T09:55:38Z</time>
      </trkpt>
      <trkpt lat="47.07449" lon="-0.81352">
        <ele>187.296</ele>
        <time>2019-11-24T09:55:40Z</time>
      </trkpt>
      <trkpt lat="47.07449" lon="-0.81355">
        <ele>187.3</ele>
        <time>2019-11-24T09:55:42Z</time>
      </trkpt>
      <trkpt lat="47.0745" lon="-0.81363">
        <ele>187.307</ele>
        <time>2019-11-24T09:55:46Z</time>
      </trkpt>
      <trkpt lat="47.07451" lon="-0.81369">
        <ele>187.312</ele>
        <time>2019-11-24T09:55:49Z</time>
      </trkpt>
      <trkpt lat="47.07452" lon="-0.81373">
        <ele>187.315</ele>
        <time>2019-11-24T09:55:51Z</time>
      </trkpt>
      <trkpt lat="47.07452" lon="-0.81381">
        <ele>187.32</ele>
        <time>2019-11-24T09:55:55Z</time>
      </trkpt>
      <trkpt lat="47.07452" lon="-0.81386">
        <ele>187.322</ele>
        <time>2019-11-24T09:55:57Z</time>
      </trkpt>
      <trkpt lat="47.07452" lon="-0.8139">
        <ele>187.325</ele>
        <time>2019-11-24T09:55:59Z</time>
      </trkpt>
      <trkpt lat="47.07452" lon="-0.81398">
        <ele>187.329</ele>
        <time>2019-11-24T09:56:03Z</time>
      </trkpt>
      <trkpt lat="47.07452" lon="-0.81407">
        <ele>187.331</ele>
        <time>2019-11-24T09:56:07Z</time>
      </trkpt>
      <trkpt lat="47.07451" lon="-0.81413">
        <ele>187.333</ele>
        <time>2019-11-24T09:56:10Z</time>
      </trkpt>
      <trkpt lat="47.07452" lon="-0.81421">
        <ele>187.335</ele>
        <time>2019-11-24T09:56:14Z</time>
      </trkpt>
      <trkpt lat="47.07452" lon="-0.81426">
        <ele>187.336</ele>
        <time>2019-11-24T09:56:16Z</time>
      </trkpt>
      <trkpt lat="47.07451" lon="-0.81433">
        <ele>187.34</ele>
        <time>2019-11-24T09:56:20Z</time>
      </trkpt>
      <trkpt lat="47.07451" lon="-0.81438">
        <ele>187.343</ele>
        <time>2019-11-24T09:56:23Z</time>
      </trkpt>
      <trkpt lat="47.07451" lon="-0.81446">
        <ele>187.345</ele>
        <time>2019-11-24T09:56:27Z</time>
      </trkpt>
      <trkpt lat="47.07451" lon="-0.81454">
        <ele>187.346</ele>
        <time>2019-11-24T09:56:31Z</time>
      </trkpt>
      <trkpt lat="47.0745" lon="-0.81462">
        <ele>187.348</ele>
        <time>2019-11-24T09:56:34Z</time>
      </trkpt>
      <trkpt lat="47.07448" lon="-0.8147">
        <ele>187.35</ele>
        <time>2019-11-24T09:56:38Z</time>
      </trkpt>
      <trkpt lat="47.07443" lon="-0.81475">
        <ele>187.354</ele>
        <time>2019-11-24T09:56:42Z</time>
      </trkpt>
      <trkpt lat="47.07441" lon="-0.81478">
        <ele>187.356</ele>
        <time>2019-11-24T09:56:44Z</time>
      </trkpt>
      <trkpt lat="47.07437" lon="-0.81484">
        <ele>187.358</ele>
        <time>2019-11-24T09:56:47Z</time>
      </trkpt>
      <trkpt lat="47.07434" lon="-0.81487">
        <ele>187.359</ele>
        <time>2019-11-24T09:56:49Z</time>
      </trkpt>
      <trkpt lat="47.07431" lon="-0.81491">
        <ele>187.361</ele>
        <time>2019-11-24T09:56:53Z</time>
      </trkpt>
      <trkpt lat="47.07427" lon="-0.81495">
        <ele>187.362</ele>
        <time>2019-11-24T09:56:57Z</time>
      </trkpt>
      <trkpt lat="47.07423" lon="-0.81495">
        <ele>187.361</ele>
        <time>2019-11-24T09:57:01Z</time>
      </trkpt>
      <trkpt lat="47.0742" lon="-0.81496">
        <ele>187.36</ele>
        <time>2019-11-24T09:57:03Z</time>
      </trkpt>
      <trkpt lat="47.07414" lon="-0.81497">
        <ele>187.357</ele>
        <time>2019-11-24T09:57:07Z</time>
      </trkpt>
      <trkpt lat="47.07411" lon="-0.81498">
        <ele>187.356</ele>
        <time>2019-11-24T09:57:09Z</time>
      </trkpt>
      <trkpt lat="47.07406" lon="-0.81496">
        <ele>187.353</ele>
        <time>2019-11-24T09:57:14Z</time>
      </trkpt>
      <trkpt lat="47.07402" lon="-0.81494">
        <ele>187.351</ele>
        <time>2019-11-24T09:57:17Z</time>
      </trkpt>
      <trkpt lat="47.07398" lon="-0.81493">
        <ele>187.35</ele>
        <time>2019-11-24T09:57:20Z</time>
      </trkpt>
      <trkpt lat="47.07394" lon="-0.81493">
        <ele>187.345</ele>
        <time>2019-11-24T09:57:28Z</time>
      </trkpt>
      <trkpt lat="47.07391" lon="-0.81492">
        <ele>187.343</ele>
        <time>2019-11-24T09:57:31Z</time>
      </trkpt>
      <trkpt lat="47.07385" lon="-0.81491">
        <ele>187.341</ele>
        <time>2019-11-24T09:57:35Z</time>
      </trkpt>
      <trkpt lat="47.07383" lon="-0.81491">
        <ele>187.341</ele>
        <time>2019-11-24T09:57:37Z</time>
      </trkpt>
      <trkpt lat="47.07378" lon="-0.8149">
        <ele>187.341</ele>
        <time>2019-11-24T09:57:41Z</time>
      </trkpt>
      <trkpt lat="47.07375" lon="-0.8149">
        <ele>187.339</ele>
        <time>2019-11-24T09:57:43Z</time>
      </trkpt>
      <trkpt lat="47.07373" lon="-0.8149">
        <ele>187.336</ele>
        <time>2019-11-24T09:57:45Z</time>
      </trkpt>
      <trkpt lat="47.07371" lon="-0.8149">
        <ele>187.333</ele>
        <time>2019-11-24T09:57:47Z</time>
      </trkpt>
      <trkpt lat="47.07367" lon="-0.81489">
        <ele>187.326</ele>
        <time>2019-11-24T09:57:50Z</time>
      </trkpt>
      <trkpt lat="47.07364" lon="-0.81489">
        <ele>187.319</ele>
        <time>2019-11-24T09:57:52Z</time>
      </trkpt>
      <trkpt lat="47.07361" lon="-0.81488">
        <ele>187.312</ele>
        <time>2019-11-24T09:57:54Z</time>
      </trkpt>
      <trkpt lat="47.07356" lon="-0.81486">
        <ele>187.299</ele>
        <time>2019-11-24T09:57:58Z</time>
      </trkpt>
      <trkpt lat="47.07352" lon="-0.81485">
        <ele>187.285</ele>
        <time>2019-11-24T09:58:02Z</time>
      </trkpt>
      <trkpt lat="47.07349" lon="-0.81484">
        <ele>187.278</ele>
        <time>2019-11-24T09:58:04Z</time>
      </trkpt>
      <trkpt lat="47.07345" lon="-0.81483">
        <ele>187.266</ele>
        <time>2019-11-24T09:58:07Z</time>
      </trkpt>
      <trkpt lat="47.07339" lon="-0.81483">
        <ele>187.251</ele>
        <time>2019-11-24T09:58:11Z</time>
      </trkpt>
      <trkpt lat="47.07336" lon="-0.81482">
        <ele>187.245</ele>
        <time>2019-11-24T09:58:13Z</time>
      </trkpt>
      <trkpt lat="47.07331" lon="-0.81483">
        <ele>187.233</ele>
        <time>2019-11-24T09:58:17Z</time>
      </trkpt>
      <trkpt lat="47.07329" lon="-0.81483">
        <ele>187.227</ele>
        <time>2019-11-24T09:58:19Z</time>
      </trkpt>
      <trkpt lat="47.07324" lon="-0.81482">
        <ele>187.214</ele>
        <time>2019-11-24T09:58:23Z</time>
      </trkpt>
      <trkpt lat="47.07321" lon="-0.81481">
        <ele>187.207</ele>
        <time>2019-11-24T09:58:25Z</time>
      </trkpt>
      <trkpt lat="47.07318" lon="-0.8148">
        <ele>187.199</ele>
        <time>2019-11-24T09:58:27Z</time>
      </trkpt>
      <trkpt lat="47.07315" lon="-0.8148">
        <ele>187.191</ele>
        <time>2019-11-24T09:58:29Z</time>
      </trkpt>
      <trkpt lat="47.07313" lon="-0.81479">
        <ele>187.183</ele>
        <time>2019-11-24T09:58:31Z</time>
      </trkpt>
      <trkpt lat="47.0731" lon="-0.81479">
        <ele>187.175</ele>
        <time>2019-11-24T09:58:33Z</time>
      </trkpt>
      <trkpt lat="47.07308" lon="-0.81478">
        <ele>187.168</ele>
        <time>2019-11-24T09:58:35Z</time>
      </trkpt>
      <trkpt lat="47.07304" lon="-0.81478">
        <ele>187.157</ele>
        <time>2019-11-24T09:58:38Z</time>
      </trkpt>
      <trkpt lat="47.07302" lon="-0.81477">
        <ele>187.149</ele>
        <time>2019-11-24T09:58:40Z</time>
      </trkpt>
      <trkpt lat="47.07297" lon="-0.81477">
        <ele>187.131</ele>
        <time>2019-11-24T09:58:45Z</time>
      </trkpt>
      <trkpt lat="47.07291" lon="-0.81476">
        <ele>187.117</ele>
        <time>2019-11-24T09:58:49Z</time>
      </trkpt>
      <trkpt lat="47.07288" lon="-0.81476">
        <ele>187.108</ele>
        <time>2019-11-24T09:58:52Z</time>
      </trkpt>
      <trkpt lat="47.07285" lon="-0.81475">
        <ele>187.102</ele>
        <time>2019-11-24T09:58:55Z</time>
      </trkpt>
      <trkpt lat="47.07282" lon="-0.81474">
        <ele>187.1</ele>
        <time>2019-11-24T09:58:57Z</time>
      </trkpt>
      <trkpt lat="47.07277" lon="-0.81475">
        <ele>187.099</ele>
        <time>2019-11-24T09:59:01Z</time>
      </trkpt>
      <trkpt lat="47.07271" lon="-0.81474">
        <ele>187.104</ele>
        <time>2019-11-24T09:59:05Z</time>
      </trkpt>
      <trkpt lat="47.07268" lon="-0.81473">
        <ele>187.107</ele>
        <time>2019-11-24T09:59:07Z</time>
      </trkpt>
      <trkpt lat="47.07265" lon="-0.81473">
        <ele>187.111</ele>
        <time>2019-11-24T09:59:09Z</time>
      </trkpt>
      <trkpt lat="47.0726" lon="-0.81472">
        <ele>187.121</ele>
        <time>2019-11-24T09:59:13Z</time>
      </trkpt>
      <trkpt lat="47.07257" lon="-0.81471">
        <ele>187.127</ele>
        <time>2019-11-24T09:59:15Z</time>
      </trkpt>
      <trkpt lat="47.07254" lon="-0.81471">
        <ele>187.132</ele>
        <time>2019-11-24T09:59:17Z</time>
      </trkpt>
      <trkpt lat="47.0725" lon="-0.8147">
        <ele>187.141</ele>
        <time>2019-11-24T09:59:21Z</time>
      </trkpt>
      <trkpt lat="47.07246" lon="-0.8147">
        <ele>187.148</ele>
        <time>2019-11-24T09:59:24Z</time>
      </trkpt>
      <trkpt lat="47.07243" lon="-0.81469">
        <ele>187.155</ele>
        <time>2019-11-24T09:59:27Z</time>
      </trkpt>
      <trkpt lat="47.07241" lon="-0.81468">
        <ele>187.16</ele>
        <time>2019-11-24T09:59:29Z</time>
      </trkpt>
      <trkpt lat="47.07237" lon="-0.81467">
        <ele>187.168</ele>
        <time>2019-11-24T09:59:32Z</time>
      </trkpt>
      <trkpt lat="47.07234" lon="-0.81466">
        <ele>187.174</ele>
        <time>2019-11-24T09:59:34Z</time>
      </trkpt>
      <trkpt lat="47.07227" lon="-0.81464">
        <ele>187.189</ele>
        <time>2019-11-24T09:59:39Z</time>
      </trkpt>
      <trkpt lat="47.07224" lon="-0.81464">
        <ele>187.195</ele>
        <time>2019-11-24T09:59:41Z</time>
      </trkpt>
      <trkpt lat="47.07221" lon="-0.81464">
        <ele>187.202</ele>
        <time>2019-11-24T09:59:43Z</time>
      </trkpt>
      <trkpt lat="47.07218" lon="-0.81463">
        <ele>187.212</ele>
        <time>2019-11-24T09:59:46Z</time>
      </trkpt>
      <trkpt lat="47.07213" lon="-0.81462">
        <ele>187.222</ele>
        <time>2019-11-24T09:59:49Z</time>
      </trkpt>
      <trkpt lat="47.0721" lon="-0.81461">
        <ele>187.227</ele>
        <time>2019-11-24T09:59:51Z</time>
      </trkpt>
      <trkpt lat="47.07206" lon="-0.8146">
        <ele>187.24</ele>
        <time>2019-11-24T09:59:56Z</time>
      </trkpt>
      <trkpt lat="47.07201" lon="-0.81459">
        <ele>187.246</ele>
        <time>2019-11-24T10:00:00Z</time>
      </trkpt>
      <trkpt lat="47.07196" lon="-0.81458">
        <ele>187.25</ele>
        <time>2019-11-24T10:00:04Z</time>
      </trkpt>
      <trkpt lat="47.07194" lon="-0.81458">
        <ele>187.252</ele>
        <time>2019-11-24T10:00:06Z</time>
      </trkpt>
      <trkpt lat="47.07191" lon="-0.81458">
        <ele>187.254</ele>
        <time>2019-11-24T10:00:08Z</time>
      </trkpt>
      <trkpt lat="47.07188" lon="-0.81458">
        <ele>187.256</ele>
        <time>2019-11-24T10:00:10Z</time>
      </trkpt>
      <trkpt lat="47.07185" lon="-0.81458">
        <ele>187.257</ele>
        <time>2019-11-24T10:00:12Z</time>
      </trkpt>
      <trkpt lat="47.07183" lon="-0.81458">
        <ele>187.26</ele>
        <time>2019-11-24T10:00:14Z</time>
      </trkpt>
      <trkpt lat="47.0718" lon="-0.81457">
        <ele>187.262</ele>
        <time>2019-11-24T10:00:16Z</time>
      </trkpt>
      <trkpt lat="47.07177" lon="-0.81457">
        <ele>187.266</ele>
        <time>2019-11-24T10:00:19Z</time>
      </trkpt>
      <trkpt lat="47.07175" lon="-0.81457">
        <ele>187.269</ele>
        <time>2019-11-24T10:00:21Z</time>
      </trkpt>
      <trkpt lat="47.0717" lon="-0.81454">
        <ele>187.276</ele>
        <time>2019-11-24T10:00:25Z</time>
      </trkpt>
      <trkpt lat="47.07167" lon="-0.81452">
        <ele>187.28</ele>
        <time>2019-11-24T10:00:27Z</time>
      </trkpt>
      <trkpt lat="47.07163" lon="-0.81453">
        <ele>187.284</ele>
        <time>2019-11-24T10:00:31Z</time>
      </trkpt>
      <trkpt lat="47.0716" lon="-0.81453">
        <ele>187.284</ele>
        <time>2019-11-24T10:00:34Z</time>
      </trkpt>
      <trkpt lat="47.07156" lon="-0.81453">
        <ele>187.283</ele>
        <time>2019-11-24T10:00:37Z</time>
      </trkpt>
      <trkpt lat="47.07154" lon="-0.81453">
        <ele>187.283</ele>
        <time>2019-11-24T10:00:39Z</time>
      </trkpt>
      <trkpt lat="47.07148" lon="-0.81452">
        <ele>187.281</ele>
        <time>2019-11-24T10:00:43Z</time>
      </trkpt>
      <trkpt lat="47.07145" lon="-0.81451">
        <ele>187.28</ele>
        <time>2019-11-24T10:00:45Z</time>
      </trkpt>
      <trkpt lat="47.07143" lon="-0.81451">
        <ele>187.281</ele>
        <time>2019-11-24T10:00:47Z</time>
      </trkpt>
      <trkpt lat="47.07137" lon="-0.81452">
        <ele>187.283</ele>
        <time>2019-11-24T10:00:51Z</time>
      </trkpt>
      <trkpt lat="47.07132" lon="-0.81451">
        <ele>187.286</ele>
        <time>2019-11-24T10:00:55Z</time>
      </trkpt>
      <trkpt lat="47.0713" lon="-0.8145">
        <ele>187.287</ele>
        <time>2019-11-24T10:00:57Z</time>
      </trkpt>
      <trkpt lat="47.07128" lon="-0.8145">
        <ele>187.289</ele>
        <time>2019-11-24T10:00:59Z</time>
      </trkpt>
      <trkpt lat="47.07125" lon="-0.81449">
        <ele>187.291</ele>
        <time>2019-11-24T10:01:01Z</time>
      </trkpt>
      <trkpt lat="47.07122" lon="-0.81449">
        <ele>187.293</ele>
        <time>2019-11-24T10:01:03Z</time>
      </trkpt>
      <trkpt lat="47.07119" lon="-0.81448">
        <ele>187.295</ele>
        <time>2019-11-24T10:01:05Z</time>
      </trkpt>
      <trkpt lat="47.07114" lon="-0.81447">
        <ele>187.299</ele>
        <time>2019-11-24T10:01:09Z</time>
      </trkpt>
      <trkpt lat="47.07109" lon="-0.81446">
        <ele>187.301</ele>
        <time>2019-11-24T10:01:14Z</time>
      </trkpt>
      <trkpt lat="47.07107" lon="-0.81446">
        <ele>187.299</ele>
        <time>2019-11-24T10:01:17Z</time>
      </trkpt>
      <trkpt lat="47.07104" lon="-0.81445">
        <ele>187.297</ele>
        <time>2019-11-24T10:01:19Z</time>
      </trkpt>
      <trkpt lat="47.071" lon="-0.81445">
        <ele>187.294</ele>
        <time>2019-11-24T10:01:22Z</time>
      </trkpt>
      <trkpt lat="47.07096" lon="-0.81444">
        <ele>187.29</ele>
        <time>2019-11-24T10:01:24Z</time>
      </trkpt>
      <trkpt lat="47.07094" lon="-0.81444">
        <ele>187.287</ele>
        <time>2019-11-24T10:01:26Z</time>
      </trkpt>
      <trkpt lat="47.07088" lon="-0.81445">
        <ele>187.279</ele>
        <time>2019-11-24T10:01:30Z</time>
      </trkpt>
      <trkpt lat="47.07084" lon="-0.81446">
        <ele>187.274</ele>
        <time>2019-11-24T10:01:33Z</time>
      </trkpt>
      <trkpt lat="47.07079" lon="-0.81448">
        <ele>187.267</ele>
        <time>2019-11-24T10:01:37Z</time>
      </trkpt>
      <trkpt lat="47.07075" lon="-0.81449">
        <ele>187.262</ele>
        <time>2019-11-24T10:01:40Z</time>
      </trkpt>
      <trkpt lat="47.07072" lon="-0.81449">
        <ele>187.257</ele>
        <time>2019-11-24T10:01:42Z</time>
      </trkpt>
      <trkpt lat="47.07069" lon="-0.8145">
        <ele>187.252</ele>
        <time>2019-11-24T10:01:44Z</time>
      </trkpt>
      <trkpt lat="47.07066" lon="-0.81451">
        <ele>187.246</ele>
        <time>2019-11-24T10:01:46Z</time>
      </trkpt>
      <trkpt lat="47.07061" lon="-0.81454">
        <ele>187.23</ele>
        <time>2019-11-24T10:01:51Z</time>
      </trkpt>
      <trkpt lat="47.07058" lon="-0.81456">
        <ele>187.22</ele>
        <time>2019-11-24T10:01:54Z</time>
      </trkpt>
      <trkpt lat="47.07056" lon="-0.81458">
        <ele>187.213</ele>
        <time>2019-11-24T10:01:56Z</time>
      </trkpt>
      <trkpt lat="47.07054" lon="-0.8146">
        <ele>187.205</ele>
        <time>2019-11-24T10:01:58Z</time>
      </trkpt>
      <trkpt lat="47.07049" lon="-0.81463">
        <ele>187.188</ele>
        <time>2019-11-24T10:02:02Z</time>
      </trkpt>
      <trkpt lat="47.07044" lon="-0.81466">
        <ele>187.166</ele>
        <time>2019-11-24T10:02:07Z</time>
      </trkpt>
      <trkpt lat="47.07039" lon="-0.8147">
        <ele>187.147</ele>
        <time>2019-11-24T10:02:11Z</time>
      </trkpt>
      <trkpt lat="47.07036" lon="-0.81472">
        <ele>187.138</ele>
        <time>2019-11-24T10:02:13Z</time>
      </trkpt>
      <trkpt lat="47.07032" lon="-0.81475">
        <ele>187.12</ele>
        <time>2019-11-24T10:02:17Z</time>
      </trkpt>
      <trkpt lat="47.0703" lon="-0.81476">
        <ele>187.11</ele>
        <time>2019-11-24T10:02:19Z</time>
      </trkpt>
      <trkpt lat="47.07026" lon="-0.81478">
        <ele>187.096</ele>
        <time>2019-11-24T10:02:22Z</time>
      </trkpt>
      <trkpt lat="47.07022" lon="-0.81483">
        <ele>187.077</ele>
        <time>2019-11-24T10:02:26Z</time>
      </trkpt>
      <trkpt lat="47.07017" lon="-0.81486">
        <ele>187.054</ele>
        <time>2019-11-24T10:02:31Z</time>
      </trkpt>
      <trkpt lat="47.07012" lon="-0.81489">
        <ele>187.036</ele>
        <time>2019-11-24T10:02:35Z</time>
      </trkpt>
      <trkpt lat="47.0701" lon="-0.81491">
        <ele>187.027</ele>
        <time>2019-11-24T10:02:37Z</time>
      </trkpt>
      <trkpt lat="47.07007" lon="-0.81493">
        <ele>187.014</ele>
        <time>2019-11-24T10:02:40Z</time>
      </trkpt>
      <trkpt lat="47.07004" lon="-0.81494">
        <ele>187.005</ele>
        <time>2019-11-24T10:02:42Z</time>
      </trkpt>
      <trkpt lat="47.07002" lon="-0.81496">
        <ele>186.995</ele>
        <time>2019-11-24T10:02:44Z</time>
      </trkpt>
      <trkpt lat="47.07" lon="-0.81498">
        <ele>186.985</ele>
        <time>2019-11-24T10:02:46Z</time>
      </trkpt>
      <trkpt lat="47.06995" lon="-0.815">
        <ele>186.967</ele>
        <time>2019-11-24T10:02:50Z</time>
      </trkpt>
      <trkpt lat="47.06993" lon="-0.81502">
        <ele>186.958</ele>
        <time>2019-11-24T10:02:52Z</time>
      </trkpt>
      <trkpt lat="47.06989" lon="-0.81506">
        <ele>186.941</ele>
        <time>2019-11-24T10:02:56Z</time>
      </trkpt>
      <trkpt lat="47.06985" lon="-0.81509">
        <ele>186.924</ele>
        <time>2019-11-24T10:03:00Z</time>
      </trkpt>
      <trkpt lat="47.06981" lon="-0.81511">
        <ele>186.912</ele>
        <time>2019-11-24T10:03:03Z</time>
      </trkpt>
      <trkpt lat="47.06978" lon="-0.81514">
        <ele>186.897</ele>
        <time>2019-11-24T10:03:07Z</time>
      </trkpt>
      <trkpt lat="47.06974" lon="-0.81516">
        <ele>186.886</ele>
        <time>2019-11-24T10:03:10Z</time>
      </trkpt>
      <trkpt lat="47.06972" lon="-0.81517">
        <ele>186.88</ele>
        <time>2019-11-24T10:03:12Z</time>
      </trkpt>
      <trkpt lat="47.06969" lon="-0.81519">
        <ele>186.87</ele>
        <time>2019-11-24T10:03:15Z</time>
      </trkpt>
      <trkpt lat="47.06963" lon="-0.81522">
        <ele>186.856</ele>
        <time>2019-11-24T10:03:19Z</time>
      </trkpt>
      <trkpt lat="47.06959" lon="-0.81526">
        <ele>186.842</ele>
        <time>2019-11-24T10:03:23Z</time>
      </trkpt>
      <trkpt lat="47.06954" lon="-0.81528">
        <ele>186.819</ele>
        <time>2019-11-24T10:03:29Z</time>
      </trkpt>
      <trkpt lat="47.06951" lon="-0.8153">
        <ele>186.807</ele>
        <time>2019-11-24T10:03:32Z</time>
      </trkpt>
      <trkpt lat="47.06948" lon="-0.81531">
        <ele>186.798</ele>
        <time>2019-11-24T10:03:34Z</time>
      </trkpt>
      <trkpt lat="47.06946" lon="-0.81532">
        <ele>186.788</ele>
        <time>2019-11-24T10:03:36Z</time>
      </trkpt>
      <trkpt lat="47.06941" lon="-0.81535">
        <ele>186.769</ele>
        <time>2019-11-24T10:03:40Z</time>
      </trkpt>
      <trkpt lat="47.06936" lon="-0.81539">
        <ele>186.748</ele>
        <time>2019-11-24T10:03:44Z</time>
      </trkpt>
      <trkpt lat="47.06933" lon="-0.81542">
        <ele>186.737</ele>
        <time>2019-11-24T10:03:46Z</time>
      </trkpt>
      <trkpt lat="47.06929" lon="-0.81547">
        <ele>186.707</ele>
        <time>2019-11-24T10:03:51Z</time>
      </trkpt>
      <trkpt lat="47.06926" lon="-0.81551">
        <ele>186.688</ele>
        <time>2019-11-24T10:03:54Z</time>
      </trkpt>
      <trkpt lat="47.06924" lon="-0.81554">
        <ele>186.675</ele>
        <time>2019-11-24T10:03:56Z</time>
      </trkpt>
      <trkpt lat="47.0692" lon="-0.81557">
        <ele>186.651</ele>
        <time>2019-11-24T10:04:00Z</time>
      </trkpt>
      <trkpt lat="47.06917" lon="-0.81559">
        <ele>186.638</ele>
        <time>2019-11-24T10:04:02Z</time>
      </trkpt>
      <trkpt lat="47.06913" lon="-0.81562">
        <ele>186.612</ele>
        <time>2019-11-24T10:04:06Z</time>
      </trkpt>
      <trkpt lat="47.0691" lon="-0.81564">
        <ele>186.599</ele>
        <time>2019-11-24T10:04:08Z</time>
      </trkpt>
      <trkpt lat="47.06907" lon="-0.81566">
        <ele>186.58</ele>
        <time>2019-11-24T10:04:11Z</time>
      </trkpt>
      <trkpt lat="47.06902" lon="-0.81565">
        <ele>186.555</ele>
        <time>2019-11-24T10:04:15Z</time>
      </trkpt>
      <trkpt lat="47.06898" lon="-0.81563">
        <ele>186.537</ele>
        <time>2019-11-24T10:04:18Z</time>
      </trkpt>
      <trkpt lat="47.06895" lon="-0.81562">
        <ele>186.518</ele>
        <time>2019-11-24T10:04:21Z</time>
      </trkpt>
      <trkpt lat="47.0689" lon="-0.81557">
        <ele>186.488</ele>
        <time>2019-11-24T10:04:26Z</time>
      </trkpt>
      <trkpt lat="47.06886" lon="-0.81554">
        <ele>186.47</ele>
        <time>2019-11-24T10:04:29Z</time>
      </trkpt>
      <trkpt lat="47.06882" lon="-0.8155">
        <ele>186.448</ele>
        <time>2019-11-24T10:04:33Z</time>
      </trkpt>
      <trkpt lat="47.06878" lon="-0.81544">
        <ele>186.426</ele>
        <time>2019-11-24T10:04:37Z</time>
      </trkpt>
      <trkpt lat="47.06875" lon="-0.8154">
        <ele>186.409</ele>
        <time>2019-11-24T10:04:40Z</time>
      </trkpt>
      <trkpt lat="47.06871" lon="-0.81535">
        <ele>186.389</ele>
        <time>2019-11-24T10:04:44Z</time>
      </trkpt>
      <trkpt lat="47.06866" lon="-0.8153">
        <ele>186.363</ele>
        <time>2019-11-24T10:04:49Z</time>
      </trkpt>
      <trkpt lat="47.0686" lon="-0.81527">
        <ele>186.336</ele>
        <time>2019-11-24T10:04:54Z</time>
      </trkpt>
      <trkpt lat="47.06856" lon="-0.81521">
        <ele>186.313</ele>
        <time>2019-11-24T10:04:59Z</time>
      </trkpt>
      <trkpt lat="47.06852" lon="-0.81516">
        <ele>186.302</ele>
        <time>2019-11-24T10:05:02Z</time>
      </trkpt>
      <trkpt lat="47.06849" lon="-0.81512">
        <ele>186.287</ele>
        <time>2019-11-24T10:05:06Z</time>
      </trkpt>
      <trkpt lat="47.06844" lon="-0.81509">
        <ele>186.278</ele>
        <time>2019-11-24T10:05:09Z</time>
      </trkpt>
      <trkpt lat="47.06839" lon="-0.81507">
        <ele>186.264</ele>
        <time>2019-11-24T10:05:13Z</time>
      </trkpt>
      <trkpt lat="47.06834" lon="-0.81503">
        <ele>186.254</ele>
        <time>2019-11-24T10:05:16Z</time>
      </trkpt>
      <trkpt lat="47.0683" lon="-0.815">
        <ele>186.243</ele>
        <time>2019-11-24T10:05:19Z</time>
      </trkpt>
      <trkpt lat="47.06825" lon="-0.81499">
        <ele>186.223</ele>
        <time>2019-11-24T10:05:24Z</time>
      </trkpt>
      <trkpt lat="47.06821" lon="-0.81495">
        <ele>186.211</ele>
        <time>2019-11-24T10:05:27Z</time>
      </trkpt>
      <trkpt lat="47.06816" lon="-0.81493">
        <ele>186.194</ele>
        <time>2019-11-24T10:05:31Z</time>
      </trkpt>
      <trkpt lat="47.06811" lon="-0.8149">
        <ele>186.176</ele>
        <time>2019-11-24T10:05:35Z</time>
      </trkpt>
      <trkpt lat="47.06806" lon="-0.81486">
        <ele>186.154</ele>
        <time>2019-11-24T10:05:40Z</time>
      </trkpt>
      <trkpt lat="47.06803" lon="-0.81483">
        <ele>186.141</ele>
        <time>2019-11-24T10:05:43Z</time>
      </trkpt>
      <trkpt lat="47.06798" lon="-0.81481">
        <ele>186.127</ele>
        <time>2019-11-24T10:05:46Z</time>
      </trkpt>
      <trkpt lat="47.06796" lon="-0.81479">
        <ele>186.123</ele>
        <time>2019-11-24T10:05:47Z</time>
      </trkpt>
      <trkpt lat="47.0679" lon="-0.81474">
        <ele>186.102</ele>
        <time>2019-11-24T10:05:51Z</time>
      </trkpt>
      <trkpt lat="47.06786" lon="-0.81472">
        <ele>186.087</ele>
        <time>2019-11-24T10:05:54Z</time>
      </trkpt>
      <trkpt lat="47.06782" lon="-0.81468">
        <ele>186.064</ele>
        <time>2019-11-24T10:05:59Z</time>
      </trkpt>
      <trkpt lat="47.06778" lon="-0.81465">
        <ele>186.047</ele>
        <time>2019-11-24T10:06:03Z</time>
      </trkpt>
      <trkpt lat="47.06773" lon="-0.81461">
        <ele>186.034</ele>
        <time>2019-11-24T10:06:07Z</time>
      </trkpt>
      <trkpt lat="47.06768" lon="-0.81456">
        <ele>186.023</ele>
        <time>2019-11-24T10:06:11Z</time>
      </trkpt>
      <trkpt lat="47.06765" lon="-0.81451">
        <ele>186.015</ele>
        <time>2019-11-24T10:06:15Z</time>
      </trkpt>
      <trkpt lat="47.06762" lon="-0.81445">
        <ele>186.008</ele>
        <time>2019-11-24T10:06:20Z</time>
      </trkpt>
      <trkpt lat="47.06757" lon="-0.8144">
        <ele>186.002</ele>
        <time>2019-11-24T10:06:25Z</time>
      </trkpt>
      <trkpt lat="47.06753" lon="-0.81437">
        <ele>185.996</ele>
        <time>2019-11-24T10:06:29Z</time>
      </trkpt>
      <trkpt lat="47.06748" lon="-0.81431">
        <ele>185.989</ele>
        <time>2019-11-24T10:06:33Z</time>
      </trkpt>
      <trkpt lat="47.06746" lon="-0.81428">
        <ele>185.985</ele>
        <time>2019-11-24T10:06:35Z</time>
      </trkpt>
      <trkpt lat="47.06744" lon="-0.81425">
        <ele>185.981</ele>
        <time>2019-11-24T10:06:37Z</time>
      </trkpt>
      <trkpt lat="47.06742" lon="-0.81423">
        <ele>185.976</ele>
        <time>2019-11-24T10:06:39Z</time>
      </trkpt>
      <trkpt lat="47.06739" lon="-0.8142">
        <ele>185.97</ele>
        <time>2019-11-24T10:06:41Z</time>
      </trkpt>
      <trkpt lat="47.06737" lon="-0.81417">
        <ele>185.966</ele>
        <time>2019-11-24T10:06:43Z</time>
      </trkpt>
      <trkpt lat="47.06734" lon="-0.81412">
        <ele>185.959</ele>
        <time>2019-11-24T10:06:46Z</time>
      </trkpt>
      <trkpt lat="47.0673" lon="-0.81408">
        <ele>185.953</ele>
        <time>2019-11-24T10:06:49Z</time>
      </trkpt>
      <trkpt lat="47.06725" lon="-0.81405">
        <ele>185.947</ele>
        <time>2019-11-24T10:06:53Z</time>
      </trkpt>
      <trkpt lat="47.0672" lon="-0.81402">
        <ele>185.944</ele>
        <time>2019-11-24T10:06:57Z</time>
      </trkpt>
      <trkpt lat="47.06717" lon="-0.81401">
        <ele>185.942</ele>
        <time>2019-11-24T10:07:00Z</time>
      </trkpt>
      <trkpt lat="47.06715" lon="-0.814">
        <ele>185.943</ele>
        <time>2019-11-24T10:07:02Z</time>
      </trkpt>
      <trkpt lat="47.06713" lon="-0.81399">
        <ele>185.944</ele>
        <time>2019-11-24T10:07:04Z</time>
      </trkpt>
      <trkpt lat="47.0671" lon="-0.81398">
        <ele>185.947</ele>
        <time>2019-11-24T10:07:07Z</time>
      </trkpt>
      <trkpt lat="47.06705" lon="-0.81396">
        <ele>185.955</ele>
        <time>2019-11-24T10:07:14Z</time>
      </trkpt>
      <trkpt lat="47.06701" lon="-0.81392">
        <ele>185.96</ele>
        <time>2019-11-24T10:07:18Z</time>
      </trkpt>
      <trkpt lat="47.06696" lon="-0.8139">
        <ele>185.965</ele>
        <time>2019-11-24T10:07:22Z</time>
      </trkpt>
      <trkpt lat="47.06689" lon="-0.8139">
        <ele>185.972</ele>
        <time>2019-11-24T10:07:26Z</time>
      </trkpt>
      <trkpt lat="47.06684" lon="-0.81392">
        <ele>185.984</ele>
        <time>2019-11-24T10:07:30Z</time>
      </trkpt>
      <trkpt lat="47.06679" lon="-0.81391">
        <ele>186.003</ele>
        <time>2019-11-24T10:07:35Z</time>
      </trkpt>
      <trkpt lat="47.06673" lon="-0.81389">
        <ele>186.026</ele>
        <time>2019-11-24T10:07:40Z</time>
      </trkpt>
      <trkpt lat="47.06668" lon="-0.81386">
        <ele>186.048</ele>
        <time>2019-11-24T10:07:45Z</time>
      </trkpt>
      <trkpt lat="47.06663" lon="-0.81382">
        <ele>186.065</ele>
        <time>2019-11-24T10:07:49Z</time>
      </trkpt>
      <trkpt lat="47.06659" lon="-0.81377">
        <ele>186.081</ele>
        <time>2019-11-24T10:07:54Z</time>
      </trkpt>
      <trkpt lat="47.06657" lon="-0.81374">
        <ele>186.086</ele>
        <time>2019-11-24T10:07:56Z</time>
      </trkpt>
      <trkpt lat="47.06655" lon="-0.81371">
        <ele>186.09</ele>
        <time>2019-11-24T10:07:58Z</time>
      </trkpt>
      <trkpt lat="47.06652" lon="-0.81365">
        <ele>186.098</ele>
        <time>2019-11-24T10:08:02Z</time>
      </trkpt>
      <trkpt lat="47.0665" lon="-0.81361">
        <ele>186.103</ele>
        <time>2019-11-24T10:08:05Z</time>
      </trkpt>
      <trkpt lat="47.06649" lon="-0.81358">
        <ele>186.107</ele>
        <time>2019-11-24T10:08:07Z</time>
      </trkpt>
      <trkpt lat="47.06646" lon="-0.8135">
        <ele>186.12</ele>
        <time>2019-11-24T10:08:12Z</time>
      </trkpt>
      <trkpt lat="47.06644" lon="-0.81345">
        <ele>186.127</ele>
        <time>2019-11-24T10:08:15Z</time>
      </trkpt>
      <trkpt lat="47.06644" lon="-0.81338">
        <ele>186.139</ele>
        <time>2019-11-24T10:08:19Z</time>
      </trkpt>
      <trkpt lat="47.06645" lon="-0.81329">
        <ele>186.151</ele>
        <time>2019-11-24T10:08:23Z</time>
      </trkpt>
      <trkpt lat="47.06644" lon="-0.81321">
        <ele>186.163</ele>
        <time>2019-11-24T10:08:26Z</time>
      </trkpt>
      <trkpt lat="47.06644" lon="-0.81317">
        <ele>186.173</ele>
        <time>2019-11-24T10:08:28Z</time>
      </trkpt>
      <trkpt lat="47.06645" lon="-0.81309">
        <ele>186.196</ele>
        <time>2019-11-24T10:08:32Z</time>
      </trkpt>
      <trkpt lat="47.06646" lon="-0.81305">
        <ele>186.208</ele>
        <time>2019-11-24T10:08:34Z</time>
      </trkpt>
      <trkpt lat="47.06647" lon="-0.81301">
        <ele>186.221</ele>
        <time>2019-11-24T10:08:36Z</time>
      </trkpt>
      <trkpt lat="47.06648" lon="-0.81296">
        <ele>186.241</ele>
        <time>2019-11-24T10:08:39Z</time>
      </trkpt>
      <trkpt lat="47.06649" lon="-0.81292">
        <ele>186.255</ele>
        <time>2019-11-24T10:08:41Z</time>
      </trkpt>
      <trkpt lat="47.06653" lon="-0.81287">
        <ele>186.281</ele>
        <time>2019-11-24T10:08:45Z</time>
      </trkpt>
      <trkpt lat="47.06654" lon="-0.81279">
        <ele>186.311</ele>
        <time>2019-11-24T10:08:49Z</time>
      </trkpt>
      <trkpt lat="47.06656" lon="-0.81271">
        <ele>186.333</ele>
        <time>2019-11-24T10:08:52Z</time>
      </trkpt>
      <trkpt lat="47.06658" lon="-0.81265">
        <ele>186.364</ele>
        <time>2019-11-24T10:08:56Z</time>
      </trkpt>
      <trkpt lat="47.06659" lon="-0.81262">
        <ele>186.38</ele>
        <time>2019-11-24T10:08:58Z</time>
      </trkpt>
      <trkpt lat="47.06662" lon="-0.81256">
        <ele>186.41</ele>
        <time>2019-11-24T10:09:02Z</time>
      </trkpt>
      <trkpt lat="47.06664" lon="-0.8125">
        <ele>186.437</ele>
        <time>2019-11-24T10:09:06Z</time>
      </trkpt>
      <trkpt lat="47.06666" lon="-0.81244">
        <ele>186.46</ele>
        <time>2019-11-24T10:09:10Z</time>
      </trkpt>
      <trkpt lat="47.06667" lon="-0.8124">
        <ele>186.471</ele>
        <time>2019-11-24T10:09:12Z</time>
      </trkpt>
      <trkpt lat="47.06668" lon="-0.81236">
        <ele>186.481</ele>
        <time>2019-11-24T10:09:14Z</time>
      </trkpt>
      <trkpt lat="47.06669" lon="-0.8123">
        <ele>186.495</ele>
        <time>2019-11-24T10:09:17Z</time>
      </trkpt>
      <trkpt lat="47.06667" lon="-0.81223">
        <ele>186.515</ele>
        <time>2019-11-24T10:09:22Z</time>
      </trkpt>
      <trkpt lat="47.06664" lon="-0.81217">
        <ele>186.532</ele>
        <time>2019-11-24T10:09:28Z</time>
      </trkpt>
      <trkpt lat="47.06658" lon="-0.81217">
        <ele>186.54</ele>
        <time>2019-11-24T10:09:32Z</time>
      </trkpt>
      <trkpt lat="47.06653" lon="-0.81216">
        <ele>186.549</ele>
        <time>2019-11-24T10:09:36Z</time>
      </trkpt>
      <trkpt lat="47.0665" lon="-0.81214">
        <ele>186.553</ele>
        <time>2019-11-24T10:09:38Z</time>
      </trkpt>
      <trkpt lat="47.06647" lon="-0.81214">
        <ele>186.558</ele>
        <time>2019-11-24T10:09:40Z</time>
      </trkpt>
      <trkpt lat="47.06642" lon="-0.81213">
        <ele>186.564</ele>
        <time>2019-11-24T10:09:43Z</time>
      </trkpt>
      <trkpt lat="47.06639" lon="-0.81213">
        <ele>186.569</ele>
        <time>2019-11-24T10:09:45Z</time>
      </trkpt>
      <trkpt lat="47.06635" lon="-0.81214">
        <ele>186.576</ele>
        <time>2019-11-24T10:09:48Z</time>
      </trkpt>
      <trkpt lat="47.0663" lon="-0.81214">
        <ele>186.583</ele>
        <time>2019-11-24T10:09:51Z</time>
      </trkpt>
      <trkpt lat="47.06625" lon="-0.81212">
        <ele>186.592</ele>
        <time>2019-11-24T10:09:55Z</time>
      </trkpt>
      <trkpt lat="47.0662" lon="-0.81212">
        <ele>186.601</ele>
        <time>2019-11-24T10:10:00Z</time>
      </trkpt>
      <trkpt lat="47.06615" lon="-0.81211">
        <ele>186.607</ele>
        <time>2019-11-24T10:10:04Z</time>
      </trkpt>
      <trkpt lat="47.06611" lon="-0.81212">
        <ele>186.613</ele>
        <time>2019-11-24T10:10:08Z</time>
      </trkpt>
      <trkpt lat="47.06605" lon="-0.8121">
        <ele>186.619</ele>
        <time>2019-11-24T10:10:12Z</time>
      </trkpt>
      <trkpt lat="47.066" lon="-0.81211">
        <ele>186.622</ele>
        <time>2019-11-24T10:10:15Z</time>
      </trkpt>
      <trkpt lat="47.06594" lon="-0.8121">
        <ele>186.626</ele>
        <time>2019-11-24T10:10:19Z</time>
      </trkpt>
      <trkpt lat="47.0659" lon="-0.81212">
        <ele>186.629</ele>
        <time>2019-11-24T10:10:24Z</time>
      </trkpt>
      <trkpt lat="47.06585" lon="-0.81212">
        <ele>186.632</ele>
        <time>2019-11-24T10:10:28Z</time>
      </trkpt>
      <trkpt lat="47.06582" lon="-0.81212">
        <ele>186.633</ele>
        <time>2019-11-24T10:10:30Z</time>
      </trkpt>
      <trkpt lat="47.06577" lon="-0.81213">
        <ele>186.639</ele>
        <time>2019-11-24T10:10:34Z</time>
      </trkpt>
      <trkpt lat="47.06572" lon="-0.81211">
        <ele>186.647</ele>
        <time>2019-11-24T10:10:37Z</time>
      </trkpt>
      <trkpt lat="47.06567" lon="-0.8121">
        <ele>186.657</ele>
        <time>2019-11-24T10:10:41Z</time>
      </trkpt>
      <trkpt lat="47.06564" lon="-0.81209">
        <ele>186.661</ele>
        <time>2019-11-24T10:10:43Z</time>
      </trkpt>
      <trkpt lat="47.06559" lon="-0.81209">
        <ele>186.67</ele>
        <time>2019-11-24T10:10:47Z</time>
      </trkpt>
      <trkpt lat="47.06556" lon="-0.81209">
        <ele>186.674</ele>
        <time>2019-11-24T10:10:49Z</time>
      </trkpt>
      <trkpt lat="47.06551" lon="-0.81209">
        <ele>186.68</ele>
        <time>2019-11-24T10:10:52Z</time>
      </trkpt>
      <trkpt lat="47.06548" lon="-0.81209">
        <ele>186.683</ele>
        <time>2019-11-24T10:10:54Z</time>
      </trkpt>
      <trkpt lat="47.06543" lon="-0.81209">
        <ele>186.691</ele>
        <time>2019-11-24T10:10:58Z</time>
      </trkpt>
      <trkpt lat="47.0654" lon="-0.81209">
        <ele>186.694</ele>
        <time>2019-11-24T10:11:00Z</time>
      </trkpt>
      <trkpt lat="47.06536" lon="-0.81208">
        <ele>186.698</ele>
        <time>2019-11-24T10:11:03Z</time>
      </trkpt>
      <trkpt lat="47.06533" lon="-0.81207">
        <ele>186.7</ele>
        <time>2019-11-24T10:11:05Z</time>
      </trkpt>
      <trkpt lat="47.06528" lon="-0.81208">
        <ele>186.703</ele>
        <time>2019-11-24T10:11:09Z</time>
      </trkpt>
      <trkpt lat="47.06525" lon="-0.81208">
        <ele>186.705</ele>
        <time>2019-11-24T10:11:12Z</time>
      </trkpt>
      <trkpt lat="47.06522" lon="-0.81208">
        <ele>186.705</ele>
        <time>2019-11-24T10:11:15Z</time>
      </trkpt>
      <trkpt lat="47.06517" lon="-0.81209">
        <ele>186.706</ele>
        <time>2019-11-24T10:11:19Z</time>
      </trkpt>
      <trkpt lat="47.06514" lon="-0.81209">
        <ele>186.705</ele>
        <time>2019-11-24T10:11:22Z</time>
      </trkpt>
      <trkpt lat="47.06511" lon="-0.81209">
        <ele>186.704</ele>
        <time>2019-11-24T10:11:24Z</time>
      </trkpt>
      <trkpt lat="47.06508" lon="-0.81209">
        <ele>186.703</ele>
        <time>2019-11-24T10:11:26Z</time>
      </trkpt>
      <trkpt lat="47.06505" lon="-0.81209">
        <ele>186.701</ele>
        <time>2019-11-24T10:11:28Z</time>
      </trkpt>
      <trkpt lat="47.06502" lon="-0.81209">
        <ele>186.7</ele>
        <time>2019-11-24T10:11:30Z</time>
      </trkpt>
      <trkpt lat="47.06497" lon="-0.81211">
        <ele>186.7</ele>
        <time>2019-11-24T10:11:34Z</time>
      </trkpt>
      <trkpt lat="47.06492" lon="-0.81209">
        <ele>186.701</ele>
        <time>2019-11-24T10:11:38Z</time>
      </trkpt>
      <trkpt lat="47.06486" lon="-0.81211">
        <ele>186.704</ele>
        <time>2019-11-24T10:11:43Z</time>
      </trkpt>
      <trkpt lat="47.06483" lon="-0.81211">
        <ele>186.705</ele>
        <time>2019-11-24T10:11:45Z</time>
      </trkpt>
      <trkpt lat="47.06477" lon="-0.81209">
        <ele>186.707</ele>
        <time>2019-11-24T10:11:48Z</time>
      </trkpt>
      <trkpt lat="47.06472" lon="-0.81208">
        <ele>186.708</ele>
        <time>2019-11-24T10:11:51Z</time>
      </trkpt>
      <trkpt lat="47.06467" lon="-0.81211">
        <ele>186.709</ele>
        <time>2019-11-24T10:11:54Z</time>
      </trkpt>
      <trkpt lat="47.06462" lon="-0.8121">
        <ele>186.711</ele>
        <time>2019-11-24T10:11:58Z</time>
      </trkpt>
      <trkpt lat="47.06459" lon="-0.8121">
        <ele>186.712</ele>
        <time>2019-11-24T10:12:00Z</time>
      </trkpt>
      <trkpt lat="47.06453" lon="-0.81209">
        <ele>186.715</ele>
        <time>2019-11-24T10:12:04Z</time>
      </trkpt>
      <trkpt lat="47.0645" lon="-0.81208">
        <ele>186.718</ele>
        <time>2019-11-24T10:12:06Z</time>
      </trkpt>
      <trkpt lat="47.06446" lon="-0.81208">
        <ele>186.725</ele>
        <time>2019-11-24T10:12:11Z</time>
      </trkpt>
      <trkpt lat="47.06442" lon="-0.81208">
        <ele>186.731</ele>
        <time>2019-11-24T10:12:14Z</time>
      </trkpt>
      <trkpt lat="47.06437" lon="-0.81209">
        <ele>186.742</ele>
        <time>2019-11-24T10:12:18Z</time>
      </trkpt>
      <trkpt lat="47.06434" lon="-0.81209">
        <ele>186.747</ele>
        <time>2019-11-24T10:12:20Z</time>
      </trkpt>
      <trkpt lat="47.06432" lon="-0.81208">
        <ele>186.751</ele>
        <time>2019-11-24T10:12:22Z</time>
      </trkpt>
      <trkpt lat="47.06427" lon="-0.81208">
        <ele>186.762</ele>
        <time>2019-11-24T10:12:26Z</time>
      </trkpt>
      <trkpt lat="47.06422" lon="-0.81208">
        <ele>186.774</ele>
        <time>2019-11-24T10:12:30Z</time>
      </trkpt>
      <trkpt lat="47.06417" lon="-0.81208">
        <ele>186.787</ele>
        <time>2019-11-24T10:12:34Z</time>
      </trkpt>
      <trkpt lat="47.06414" lon="-0.81208">
        <ele>186.794</ele>
        <time>2019-11-24T10:12:36Z</time>
      </trkpt>
      <trkpt lat="47.0641" lon="-0.81208">
        <ele>186.805</ele>
        <time>2019-11-24T10:12:39Z</time>
      </trkpt>
      <trkpt lat="47.06405" lon="-0.8121">
        <ele>186.826</ele>
        <time>2019-11-24T10:12:43Z</time>
      </trkpt>
      <trkpt lat="47.06403" lon="-0.81211">
        <ele>186.837</ele>
        <time>2019-11-24T10:12:45Z</time>
      </trkpt>
      <trkpt lat="47.06397" lon="-0.8121">
        <ele>186.858</ele>
        <time>2019-11-24T10:12:49Z</time>
      </trkpt>
      <trkpt lat="47.06395" lon="-0.8121">
        <ele>186.87</ele>
        <time>2019-11-24T10:12:51Z</time>
      </trkpt>
      <trkpt lat="47.06392" lon="-0.8121">
        <ele>186.881</ele>
        <time>2019-11-24T10:12:53Z</time>
      </trkpt>
      <trkpt lat="47.06387" lon="-0.81211">
        <ele>186.905</ele>
        <time>2019-11-24T10:12:57Z</time>
      </trkpt>
      <trkpt lat="47.06384" lon="-0.81212">
        <ele>186.917</ele>
        <time>2019-11-24T10:12:59Z</time>
      </trkpt>
      <trkpt lat="47.06382" lon="-0.81213">
        <ele>186.929</ele>
        <time>2019-11-24T10:13:01Z</time>
      </trkpt>
      <trkpt lat="47.06378" lon="-0.81213">
        <ele>186.948</ele>
        <time>2019-11-24T10:13:04Z</time>
      </trkpt>
      <trkpt lat="47.06376" lon="-0.81214">
        <ele>186.961</ele>
        <time>2019-11-24T10:13:06Z</time>
      </trkpt>
      <trkpt lat="47.06373" lon="-0.81214">
        <ele>186.973</ele>
        <time>2019-11-24T10:13:08Z</time>
      </trkpt>
      <trkpt lat="47.0637" lon="-0.81214">
        <ele>186.986</ele>
        <time>2019-11-24T10:13:10Z</time>
      </trkpt>
      <trkpt lat="47.06364" lon="-0.81216">
        <ele>187.009</ele>
        <time>2019-11-24T10:13:13Z</time>
      </trkpt>
      <trkpt lat="47.06362" lon="-0.81217">
        <ele>187.017</ele>
        <time>2019-11-24T10:13:14Z</time>
      </trkpt>
      <trkpt lat="47.06359" lon="-0.81219">
        <ele>187.035</ele>
        <time>2019-11-24T10:13:16Z</time>
      </trkpt>
      <trkpt lat="47.06354" lon="-0.8122">
        <ele>187.075</ele>
        <time>2019-11-24T10:13:20Z</time>
      </trkpt>
      <trkpt lat="47.06349" lon="-0.81221">
        <ele>187.119</ele>
        <time>2019-11-24T10:13:24Z</time>
      </trkpt>
      <trkpt lat="47.06344" lon="-0.81222">
        <ele>187.166</ele>
        <time>2019-11-24T10:13:28Z</time>
      </trkpt>
      <trkpt lat="47.06342" lon="-0.81222">
        <ele>187.203</ele>
        <time>2019-11-24T10:13:31Z</time>
      </trkpt>
      <trkpt lat="47.06337" lon="-0.81228">
        <ele>187.26</ele>
        <time>2019-11-24T10:13:36Z</time>
      </trkpt>
      <trkpt lat="47.06335" lon="-0.81229">
        <ele>187.281</ele>
        <time>2019-11-24T10:13:38Z</time>
      </trkpt>
      <trkpt lat="47.06333" lon="-0.81232">
        <ele>187.317</ele>
        <time>2019-11-24T10:13:46Z</time>
      </trkpt>
      <trkpt lat="47.06329" lon="-0.81238">
        <ele>187.376</ele>
        <time>2019-11-24T10:13:52Z</time>
      </trkpt>
      <trkpt lat="47.06326" lon="-0.81242">
        <ele>187.404</ele>
        <time>2019-11-24T10:13:55Z</time>
      </trkpt>
      <trkpt lat="47.06324" lon="-0.81245">
        <ele>187.422</ele>
        <time>2019-11-24T10:13:57Z</time>
      </trkpt>
      <trkpt lat="47.06321" lon="-0.81248">
        <ele>187.441</ele>
        <time>2019-11-24T10:13:59Z</time>
      </trkpt>
      <trkpt lat="47.06318" lon="-0.81255">
        <ele>187.478</ele>
        <time>2019-11-24T10:14:03Z</time>
      </trkpt>
      <trkpt lat="47.06316" lon="-0.81261">
        <ele>187.508</ele>
        <time>2019-11-24T10:14:06Z</time>
      </trkpt>
      <trkpt lat="47.06315" lon="-0.81264">
        <ele>187.528</ele>
        <time>2019-11-24T10:14:08Z</time>
      </trkpt>
      <trkpt lat="47.06314" lon="-0.81267">
        <ele>187.549</ele>
        <time>2019-11-24T10:14:10Z</time>
      </trkpt>
      <trkpt lat="47.06311" lon="-0.81274">
        <ele>187.6</ele>
        <time>2019-11-24T10:14:15Z</time>
      </trkpt>
      <trkpt lat="47.0631" lon="-0.8128">
        <ele>187.629</ele>
        <time>2019-11-24T10:14:18Z</time>
      </trkpt>
      <trkpt lat="47.06308" lon="-0.81287">
        <ele>187.659</ele>
        <time>2019-11-24T10:14:21Z</time>
      </trkpt>
      <trkpt lat="47.06307" lon="-0.8129">
        <ele>187.678</ele>
        <time>2019-11-24T10:14:23Z</time>
      </trkpt>
      <trkpt lat="47.06306" lon="-0.81294">
        <ele>187.698</ele>
        <time>2019-11-24T10:14:25Z</time>
      </trkpt>
      <trkpt lat="47.06304" lon="-0.813">
        <ele>187.729</ele>
        <time>2019-11-24T10:14:28Z</time>
      </trkpt>
      <trkpt lat="47.06303" lon="-0.81304">
        <ele>187.749</ele>
        <time>2019-11-24T10:14:30Z</time>
      </trkpt>
      <trkpt lat="47.06299" lon="-0.81311">
        <ele>187.791</ele>
        <time>2019-11-24T10:14:34Z</time>
      </trkpt>
      <trkpt lat="47.06298" lon="-0.81315">
        <ele>187.822</ele>
        <time>2019-11-24T10:14:37Z</time>
      </trkpt>
      <trkpt lat="47.06296" lon="-0.81319">
        <ele>187.843</ele>
        <time>2019-11-24T10:14:39Z</time>
      </trkpt>
      <trkpt lat="47.06295" lon="-0.81322">
        <ele>187.863</ele>
        <time>2019-11-24T10:14:41Z</time>
      </trkpt>
      <trkpt lat="47.06292" lon="-0.81328">
        <ele>187.911</ele>
        <time>2019-11-24T10:14:46Z</time>
      </trkpt>
      <trkpt lat="47.0629" lon="-0.81332">
        <ele>187.931</ele>
        <time>2019-11-24T10:14:48Z</time>
      </trkpt>
      <trkpt lat="47.06287" lon="-0.8134">
        <ele>187.969</ele>
        <time>2019-11-24T10:14:52Z</time>
      </trkpt>
      <trkpt lat="47.06286" lon="-0.81343">
        <ele>187.988</ele>
        <time>2019-11-24T10:14:54Z</time>
      </trkpt>
      <trkpt lat="47.06285" lon="-0.81347">
        <ele>188.007</ele>
        <time>2019-11-24T10:14:56Z</time>
      </trkpt>
      <trkpt lat="47.06284" lon="-0.81351">
        <ele>188.025</ele>
        <time>2019-11-24T10:14:58Z</time>
      </trkpt>
      <trkpt lat="47.06282" lon="-0.81357">
        <ele>188.051</ele>
        <time>2019-11-24T10:15:01Z</time>
      </trkpt>
      <trkpt lat="47.06281" lon="-0.81362">
        <ele>188.076</ele>
        <time>2019-11-24T10:15:04Z</time>
      </trkpt>
      <trkpt lat="47.06278" lon="-0.81368">
        <ele>188.11</ele>
        <time>2019-11-24T10:15:08Z</time>
      </trkpt>
      <trkpt lat="47.06276" lon="-0.81374">
        <ele>188.136</ele>
        <time>2019-11-24T10:15:11Z</time>
      </trkpt>
      <trkpt lat="47.06272" lon="-0.8138">
        <ele>188.172</ele>
        <time>2019-11-24T10:15:15Z</time>
      </trkpt>
      <trkpt lat="47.0627" lon="-0.81383">
        <ele>188.19</ele>
        <time>2019-11-24T10:15:17Z</time>
      </trkpt>
      <trkpt lat="47.06268" lon="-0.81389">
        <ele>188.226</ele>
        <time>2019-11-24T10:15:21Z</time>
      </trkpt>
      <trkpt lat="47.06266" lon="-0.81395">
        <ele>188.254</ele>
        <time>2019-11-24T10:15:24Z</time>
      </trkpt>
      <trkpt lat="47.06264" lon="-0.814">
        <ele>188.281</ele>
        <time>2019-11-24T10:15:27Z</time>
      </trkpt>
      <trkpt lat="47.06263" lon="-0.81405">
        <ele>188.308</ele>
        <time>2019-11-24T10:15:30Z</time>
      </trkpt>
      <trkpt lat="47.06261" lon="-0.8141">
        <ele>188.332</ele>
        <time>2019-11-24T10:15:33Z</time>
      </trkpt>
      <trkpt lat="47.06259" lon="-0.81414">
        <ele>188.348</ele>
        <time>2019-11-24T10:15:35Z</time>
      </trkpt>
      <trkpt lat="47.06255" lon="-0.8142">
        <ele>188.38</ele>
        <time>2019-11-24T10:15:39Z</time>
      </trkpt>
      <trkpt lat="47.06252" lon="-0.81427">
        <ele>188.403</ele>
        <time>2019-11-24T10:15:42Z</time>
      </trkpt>
      <trkpt lat="47.06252" lon="-0.8143">
        <ele>188.419</ele>
        <time>2019-11-24T10:15:44Z</time>
      </trkpt>
      <trkpt lat="47.0625" lon="-0.81435">
        <ele>188.435</ele>
        <time>2019-11-24T10:15:46Z</time>
      </trkpt>
      <trkpt lat="47.06249" lon="-0.81439">
        <ele>188.45</ele>
        <time>2019-11-24T10:15:48Z</time>
      </trkpt>
      <trkpt lat="47.06246" lon="-0.81445">
        <ele>188.481</ele>
        <time>2019-11-24T10:15:52Z</time>
      </trkpt>
      <trkpt lat="47.06244" lon="-0.81451">
        <ele>188.503</ele>
        <time>2019-11-24T10:15:55Z</time>
      </trkpt>
      <trkpt lat="47.06241" lon="-0.81457">
        <ele>188.527</ele>
        <time>2019-11-24T10:15:58Z</time>
      </trkpt>
      <trkpt lat="47.06238" lon="-0.81464">
        <ele>188.551</ele>
        <time>2019-11-24T10:16:01Z</time>
      </trkpt>
      <trkpt lat="47.06236" lon="-0.81467">
        <ele>188.567</ele>
        <time>2019-11-24T10:16:03Z</time>
      </trkpt>
      <trkpt lat="47.06235" lon="-0.8147">
        <ele>188.592</ele>
        <time>2019-11-24T10:16:06Z</time>
      </trkpt>
      <trkpt lat="47.06231" lon="-0.81476">
        <ele>188.633</ele>
        <time>2019-11-24T10:16:11Z</time>
      </trkpt>
      <trkpt lat="47.06229" lon="-0.81479">
        <ele>188.656</ele>
        <time>2019-11-24T10:16:14Z</time>
      </trkpt>
      <trkpt lat="47.06226" lon="-0.81484">
        <ele>188.684</ele>
        <time>2019-11-24T10:16:18Z</time>
      </trkpt>
      <trkpt lat="47.06223" lon="-0.81488">
        <ele>188.698</ele>
        <time>2019-11-24T10:16:20Z</time>
      </trkpt>
      <trkpt lat="47.0622" lon="-0.81492">
        <ele>188.711</ele>
        <time>2019-11-24T10:16:22Z</time>
      </trkpt>
      <trkpt lat="47.06218" lon="-0.81496">
        <ele>188.724</ele>
        <time>2019-11-24T10:16:24Z</time>
      </trkpt>
      <trkpt lat="47.06216" lon="-0.81499">
        <ele>188.739</ele>
        <time>2019-11-24T10:16:26Z</time>
      </trkpt>
      <trkpt lat="47.06215" lon="-0.81502">
        <ele>188.753</ele>
        <time>2019-11-24T10:16:28Z</time>
      </trkpt>
      <trkpt lat="47.06213" lon="-0.81505">
        <ele>188.769</ele>
        <time>2019-11-24T10:16:30Z</time>
      </trkpt>
      <trkpt lat="47.06209" lon="-0.81511">
        <ele>188.801</ele>
        <time>2019-11-24T10:16:34Z</time>
      </trkpt>
      <trkpt lat="47.06207" lon="-0.81514">
        <ele>188.818</ele>
        <time>2019-11-24T10:16:36Z</time>
      </trkpt>
      <trkpt lat="47.06204" lon="-0.8152">
        <ele>188.854</ele>
        <time>2019-11-24T10:16:40Z</time>
      </trkpt>
      <trkpt lat="47.06202" lon="-0.81525">
        <ele>188.873</ele>
        <time>2019-11-24T10:16:42Z</time>
      </trkpt>
      <trkpt lat="47.06199" lon="-0.81529">
        <ele>188.902</ele>
        <time>2019-11-24T10:16:45Z</time>
      </trkpt>
      <trkpt lat="47.06198" lon="-0.81532">
        <ele>188.922</ele>
        <time>2019-11-24T10:16:47Z</time>
      </trkpt>
      <trkpt lat="47.06195" lon="-0.81536">
        <ele>188.944</ele>
        <time>2019-11-24T10:16:49Z</time>
      </trkpt>
      <trkpt lat="47.06193" lon="-0.8154">
        <ele>188.977</ele>
        <time>2019-11-24T10:16:52Z</time>
      </trkpt>
      <trkpt lat="47.0619" lon="-0.81544">
        <ele>189.009</ele>
        <time>2019-11-24T10:16:55Z</time>
      </trkpt>
      <trkpt lat="47.06187" lon="-0.8155">
        <ele>189.052</ele>
        <time>2019-11-24T10:16:59Z</time>
      </trkpt>
      <trkpt lat="47.06185" lon="-0.81556">
        <ele>189.086</ele>
        <time>2019-11-24T10:17:02Z</time>
      </trkpt>
      <trkpt lat="47.06183" lon="-0.8156">
        <ele>189.12</ele>
        <time>2019-11-24T10:17:05Z</time>
      </trkpt>
      <trkpt lat="47.06181" lon="-0.81566">
        <ele>189.154</ele>
        <time>2019-11-24T10:17:08Z</time>
      </trkpt>
      <trkpt lat="47.06179" lon="-0.81569">
        <ele>189.189</ele>
        <time>2019-11-24T10:17:11Z</time>
      </trkpt>
      <trkpt lat="47.06177" lon="-0.81576">
        <ele>189.233</ele>
        <time>2019-11-24T10:17:15Z</time>
      </trkpt>
      <trkpt lat="47.06176" lon="-0.81579">
        <ele>189.255</ele>
        <time>2019-11-24T10:17:17Z</time>
      </trkpt>
      <trkpt lat="47.06173" lon="-0.81585">
        <ele>189.288</ele>
        <time>2019-11-24T10:17:20Z</time>
      </trkpt>
      <trkpt lat="47.0617" lon="-0.81592">
        <ele>189.334</ele>
        <time>2019-11-24T10:17:24Z</time>
      </trkpt>
      <trkpt lat="47.06169" lon="-0.81595">
        <ele>189.356</ele>
        <time>2019-11-24T10:17:26Z</time>
      </trkpt>
      <trkpt lat="47.06167" lon="-0.81602">
        <ele>189.403</ele>
        <time>2019-11-24T10:17:30Z</time>
      </trkpt>
      <trkpt lat="47.06165" lon="-0.81606">
        <ele>189.426</ele>
        <time>2019-11-24T10:17:32Z</time>
      </trkpt>
      <trkpt lat="47.06164" lon="-0.8161">
        <ele>189.449</ele>
        <time>2019-11-24T10:17:34Z</time>
      </trkpt>
      <trkpt lat="47.06161" lon="-0.81618">
        <ele>189.509</ele>
        <time>2019-11-24T10:17:39Z</time>
      </trkpt>
      <trkpt lat="47.06159" lon="-0.81625">
        <ele>189.556</ele>
        <time>2019-11-24T10:17:43Z</time>
      </trkpt>
      <trkpt lat="47.06156" lon="-0.81631">
        <ele>189.601</ele>
        <time>2019-11-24T10:17:47Z</time>
      </trkpt>
      <trkpt lat="47.06155" lon="-0.81636">
        <ele>189.634</ele>
        <time>2019-11-24T10:17:50Z</time>
      </trkpt>
      <trkpt lat="47.06153" lon="-0.81639">
        <ele>189.655</ele>
        <time>2019-11-24T10:17:52Z</time>
      </trkpt>
      <trkpt lat="47.0615" lon="-0.81644">
        <ele>189.686</ele>
        <time>2019-11-24T10:17:55Z</time>
      </trkpt>
      <trkpt lat="47.06148" lon="-0.8165">
        <ele>189.727</ele>
        <time>2019-11-24T10:17:59Z</time>
      </trkpt>
      <trkpt lat="47.06146" lon="-0.81653">
        <ele>189.747</ele>
        <time>2019-11-24T10:18:01Z</time>
      </trkpt>
      <trkpt lat="47.06144" lon="-0.8166">
        <ele>189.778</ele>
        <time>2019-11-24T10:18:04Z</time>
      </trkpt>
      <trkpt lat="47.06143" lon="-0.81664">
        <ele>189.797</ele>
        <time>2019-11-24T10:18:06Z</time>
      </trkpt>
      <trkpt lat="47.06142" lon="-0.81668">
        <ele>189.817</ele>
        <time>2019-11-24T10:18:08Z</time>
      </trkpt>
      <trkpt lat="47.06141" lon="-0.81673">
        <ele>189.837</ele>
        <time>2019-11-24T10:18:10Z</time>
      </trkpt>
      <trkpt lat="47.06138" lon="-0.8168">
        <ele>189.871</ele>
        <time>2019-11-24T10:18:13Z</time>
      </trkpt>
      <trkpt lat="47.06136" lon="-0.81684">
        <ele>189.906</ele>
        <time>2019-11-24T10:18:16Z</time>
      </trkpt>
      <trkpt lat="47.06135" lon="-0.81687">
        <ele>189.94</ele>
        <time>2019-11-24T10:18:19Z</time>
      </trkpt>
      <trkpt lat="47.06133" lon="-0.81691">
        <ele>189.975</ele>
        <time>2019-11-24T10:18:22Z</time>
      </trkpt>
      <trkpt lat="47.06131" lon="-0.81695">
        <ele>189.998</ele>
        <time>2019-11-24T10:18:24Z</time>
      </trkpt>
      <trkpt lat="47.06129" lon="-0.81701">
        <ele>190.031</ele>
        <time>2019-11-24T10:18:27Z</time>
      </trkpt>
      <trkpt lat="47.06126" lon="-0.81708">
        <ele>190.063</ele>
        <time>2019-11-24T10:18:30Z</time>
      </trkpt>
      <trkpt lat="47.06125" lon="-0.81711">
        <ele>190.083</ele>
        <time>2019-11-24T10:18:32Z</time>
      </trkpt>
      <trkpt lat="47.06122" lon="-0.81716">
        <ele>190.123</ele>
        <time>2019-11-24T10:18:36Z</time>
      </trkpt>
      <trkpt lat="47.0612" lon="-0.81721">
        <ele>190.152</ele>
        <time>2019-11-24T10:18:39Z</time>
      </trkpt>
      <trkpt lat="47.06116" lon="-0.81727">
        <ele>190.188</ele>
        <time>2019-11-24T10:18:43Z</time>
      </trkpt>
      <trkpt lat="47.06114" lon="-0.81731">
        <ele>190.207</ele>
        <time>2019-11-24T10:18:45Z</time>
      </trkpt>
      <trkpt lat="47.06111" lon="-0.81739">
        <ele>190.238</ele>
        <time>2019-11-24T10:18:48Z</time>
      </trkpt>
      <trkpt lat="47.0611" lon="-0.81742">
        <ele>190.262</ele>
        <time>2019-11-24T10:18:50Z</time>
      </trkpt>
      <trkpt lat="47.06108" lon="-0.81745">
        <ele>190.286</ele>
        <time>2019-11-24T10:18:52Z</time>
      </trkpt>
      <trkpt lat="47.06105" lon="-0.8175">
        <ele>190.345</ele>
        <time>2019-11-24T10:18:57Z</time>
      </trkpt>
      <trkpt lat="47.06102" lon="-0.81754">
        <ele>190.38</ele>
        <time>2019-11-24T10:19:00Z</time>
      </trkpt>
      <trkpt lat="47.06098" lon="-0.8176">
        <ele>190.427</ele>
        <time>2019-11-24T10:19:04Z</time>
      </trkpt>
      <trkpt lat="47.06097" lon="-0.81762">
        <ele>190.451</ele>
        <time>2019-11-24T10:19:06Z</time>
      </trkpt>
      <trkpt lat="47.06094" lon="-0.81767">
        <ele>190.485</ele>
        <time>2019-11-24T10:19:09Z</time>
      </trkpt>
      <trkpt lat="47.06091" lon="-0.81772">
        <ele>190.529</ele>
        <time>2019-11-24T10:19:13Z</time>
      </trkpt>
      <trkpt lat="47.06088" lon="-0.81777">
        <ele>190.564</ele>
        <time>2019-11-24T10:19:16Z</time>
      </trkpt>
      <trkpt lat="47.06086" lon="-0.8178">
        <ele>190.589</ele>
        <time>2019-11-24T10:19:18Z</time>
      </trkpt>
      <trkpt lat="47.06085" lon="-0.81784">
        <ele>190.615</ele>
        <time>2019-11-24T10:19:20Z</time>
      </trkpt>
      <trkpt lat="47.06083" lon="-0.81787">
        <ele>190.64</ele>
        <time>2019-11-24T10:19:22Z</time>
      </trkpt>
      <trkpt lat="47.0608" lon="-0.81792">
        <ele>190.678</ele>
        <time>2019-11-24T10:19:25Z</time>
      </trkpt>
      <trkpt lat="47.06078" lon="-0.81795">
        <ele>190.705</ele>
        <time>2019-11-24T10:19:27Z</time>
      </trkpt>
      <trkpt lat="47.06074" lon="-0.81799">
        <ele>190.759</ele>
        <time>2019-11-24T10:19:31Z</time>
      </trkpt>
      <trkpt lat="47.06072" lon="-0.81802">
        <ele>190.788</ele>
        <time>2019-11-24T10:19:33Z</time>
      </trkpt>
      <trkpt lat="47.06068" lon="-0.81805">
        <ele>190.833</ele>
        <time>2019-11-24T10:19:36Z</time>
      </trkpt>
      <trkpt lat="47.06066" lon="-0.81812">
        <ele>190.895</ele>
        <time>2019-11-24T10:19:40Z</time>
      </trkpt>
      <trkpt lat="47.06064" lon="-0.81818">
        <ele>190.955</ele>
        <time>2019-11-24T10:19:44Z</time>
      </trkpt>
      <trkpt lat="47.0606" lon="-0.81823">
        <ele>191.027</ele>
        <time>2019-11-24T10:19:49Z</time>
      </trkpt>
      <trkpt lat="47.06055" lon="-0.81828">
        <ele>191.109</ele>
        <time>2019-11-24T10:19:55Z</time>
      </trkpt>
      <trkpt lat="47.06051" lon="-0.81833">
        <ele>191.161</ele>
        <time>2019-11-24T10:19:59Z</time>
      </trkpt>
      <trkpt lat="47.06048" lon="-0.81839">
        <ele>191.22</ele>
        <time>2019-11-24T10:20:04Z</time>
      </trkpt>
      <trkpt lat="47.06044" lon="-0.81845">
        <ele>191.266</ele>
        <time>2019-11-24T10:20:08Z</time>
      </trkpt>
      <trkpt lat="47.0604" lon="-0.8185">
        <ele>191.309</ele>
        <time>2019-11-24T10:20:12Z</time>
      </trkpt>
      <trkpt lat="47.06036" lon="-0.81855">
        <ele>191.342</ele>
        <time>2019-11-24T10:20:15Z</time>
      </trkpt>
      <trkpt lat="47.06034" lon="-0.81858">
        <ele>191.363</ele>
        <time>2019-11-24T10:20:17Z</time>
      </trkpt>
      <trkpt lat="47.06031" lon="-0.81864">
        <ele>191.399</ele>
        <time>2019-11-24T10:20:20Z</time>
      </trkpt>
      <trkpt lat="47.06027" lon="-0.81868">
        <ele>191.447</ele>
        <time>2019-11-24T10:20:24Z</time>
      </trkpt>
      <trkpt lat="47.06023" lon="-0.81873">
        <ele>191.496</ele>
        <time>2019-11-24T10:20:28Z</time>
      </trkpt>
      <trkpt lat="47.06018" lon="-0.81878">
        <ele>191.544</ele>
        <time>2019-11-24T10:20:32Z</time>
      </trkpt>
      <trkpt lat="47.06014" lon="-0.81883">
        <ele>191.578</ele>
        <time>2019-11-24T10:20:35Z</time>
      </trkpt>
      <trkpt lat="47.06012" lon="-0.81885">
        <ele>191.602</ele>
        <time>2019-11-24T10:20:37Z</time>
      </trkpt>
      <trkpt lat="47.0601" lon="-0.81887">
        <ele>191.626</ele>
        <time>2019-11-24T10:20:39Z</time>
      </trkpt>
      <trkpt lat="47.06007" lon="-0.81892">
        <ele>191.687</ele>
        <time>2019-11-24T10:20:44Z</time>
      </trkpt>
      <trkpt lat="47.06004" lon="-0.81898">
        <ele>191.733</ele>
        <time>2019-11-24T10:20:48Z</time>
      </trkpt>
      <trkpt lat="47.06001" lon="-0.81903">
        <ele>191.767</ele>
        <time>2019-11-24T10:20:51Z</time>
      </trkpt>
      <trkpt lat="47.05997" lon="-0.81909">
        <ele>191.802</ele>
        <time>2019-11-24T10:20:54Z</time>
      </trkpt>
      <trkpt lat="47.05995" lon="-0.81913">
        <ele>191.827</ele>
        <time>2019-11-24T10:20:56Z</time>
      </trkpt>
      <trkpt lat="47.05993" lon="-0.81916">
        <ele>191.852</ele>
        <time>2019-11-24T10:20:58Z</time>
      </trkpt>
      <trkpt lat="47.0599" lon="-0.81921">
        <ele>191.891</ele>
        <time>2019-11-24T10:21:01Z</time>
      </trkpt>
      <trkpt lat="47.05986" lon="-0.81925">
        <ele>191.942</ele>
        <time>2019-11-24T10:21:05Z</time>
      </trkpt>
      <trkpt lat="47.05982" lon="-0.81929">
        <ele>191.983</ele>
        <time>2019-11-24T10:21:08Z</time>
      </trkpt>
      <trkpt lat="47.05979" lon="-0.81933">
        <ele>192.012</ele>
        <time>2019-11-24T10:21:10Z</time>
      </trkpt>
      <trkpt lat="47.05977" lon="-0.81935">
        <ele>192.042</ele>
        <time>2019-11-24T10:21:12Z</time>
      </trkpt>
      <trkpt lat="47.05975" lon="-0.81939">
        <ele>192.091</ele>
        <time>2019-11-24T10:21:15Z</time>
      </trkpt>
      <trkpt lat="47.05971" lon="-0.81944">
        <ele>192.157</ele>
        <time>2019-11-24T10:21:19Z</time>
      </trkpt>
      <trkpt lat="47.05967" lon="-0.81948">
        <ele>192.242</ele>
        <time>2019-11-24T10:21:24Z</time>
      </trkpt>
      <trkpt lat="47.05964" lon="-0.81954">
        <ele>192.296</ele>
        <time>2019-11-24T10:21:27Z</time>
      </trkpt>
      <trkpt lat="47.0596" lon="-0.8196">
        <ele>192.355</ele>
        <time>2019-11-24T10:21:30Z</time>
      </trkpt>
      <trkpt lat="47.05958" lon="-0.81963">
        <ele>192.396</ele>
        <time>2019-11-24T10:21:32Z</time>
      </trkpt>
      <trkpt lat="47.05956" lon="-0.8197">
        <ele>192.504</ele>
        <time>2019-11-24T10:21:37Z</time>
      </trkpt>
      <trkpt lat="47.05954" lon="-0.81974">
        <ele>192.549</ele>
        <time>2019-11-24T10:21:39Z</time>
      </trkpt>
      <trkpt lat="47.05953" lon="-0.81977">
        <ele>192.595</ele>
        <time>2019-11-24T10:21:41Z</time>
      </trkpt>
      <trkpt lat="47.05952" lon="-0.8198">
        <ele>192.642</ele>
        <time>2019-11-24T10:21:43Z</time>
      </trkpt>
      <trkpt lat="47.0595" lon="-0.81984">
        <ele>192.712</ele>
        <time>2019-11-24T10:21:46Z</time>
      </trkpt>
      <trkpt lat="47.05949" lon="-0.81987">
        <ele>192.761</ele>
        <time>2019-11-24T10:21:48Z</time>
      </trkpt>
      <trkpt lat="47.05948" lon="-0.81995">
        <ele>192.913</ele>
        <time>2019-11-24T10:21:54Z</time>
      </trkpt>
      <trkpt lat="47.05947" lon="-0.81999">
        <ele>193.016</ele>
        <time>2019-11-24T10:21:58Z</time>
      </trkpt>
      <trkpt lat="47.05947" lon="-0.82003">
        <ele>193.091</ele>
        <time>2019-11-24T10:22:01Z</time>
      </trkpt>
      <trkpt lat="47.05943" lon="-0.8201">
        <ele>193.19</ele>
        <time>2019-11-24T10:22:05Z</time>
      </trkpt>
      <trkpt lat="47.05942" lon="-0.82016">
        <ele>193.292</ele>
        <time>2019-11-24T10:22:09Z</time>
      </trkpt>
      <trkpt lat="47.0594" lon="-0.82019">
        <ele>193.343</ele>
        <time>2019-11-24T10:22:11Z</time>
      </trkpt>
      <trkpt lat="47.05939" lon="-0.82025">
        <ele>193.42</ele>
        <time>2019-11-24T10:22:14Z</time>
      </trkpt>
      <trkpt lat="47.05938" lon="-0.82029">
        <ele>193.472</ele>
        <time>2019-11-24T10:22:16Z</time>
      </trkpt>
      <trkpt lat="47.05937" lon="-0.82035">
        <ele>193.576</ele>
        <time>2019-11-24T10:22:20Z</time>
      </trkpt>
      <trkpt lat="47.05937" lon="-0.82044">
        <ele>193.751</ele>
        <time>2019-11-24T10:22:27Z</time>
      </trkpt>
      <trkpt lat="47.05933" lon="-0.82053">
        <ele>193.849</ele>
        <time>2019-11-24T10:22:31Z</time>
      </trkpt>
      <trkpt lat="47.05929" lon="-0.82061">
        <ele>193.926</ele>
        <time>2019-11-24T10:22:34Z</time>
      </trkpt>
      <trkpt lat="47.05926" lon="-0.82067">
        <ele>194.004</ele>
        <time>2019-11-24T10:22:37Z</time>
      </trkpt>
      <trkpt lat="47.05925" lon="-0.82071">
        <ele>194.083</ele>
        <time>2019-11-24T10:22:40Z</time>
      </trkpt>
      <trkpt lat="47.05923" lon="-0.82078">
        <ele>194.185</ele>
        <time>2019-11-24T10:22:44Z</time>
      </trkpt>
      <trkpt lat="47.05923" lon="-0.82087">
        <ele>194.313</ele>
        <time>2019-11-24T10:22:49Z</time>
      </trkpt>
      <trkpt lat="47.05923" lon="-0.8209">
        <ele>194.362</ele>
        <time>2019-11-24T10:22:51Z</time>
      </trkpt>
      <trkpt lat="47.05922" lon="-0.82095">
        <ele>194.412</ele>
        <time>2019-11-24T10:22:53Z</time>
      </trkpt>
      <trkpt lat="47.05922" lon="-0.82099">
        <ele>194.463</ele>
        <time>2019-11-24T10:22:55Z</time>
      </trkpt>
      <trkpt lat="47.05922" lon="-0.82103">
        <ele>194.513</ele>
        <time>2019-11-24T10:22:57Z</time>
      </trkpt>
      <trkpt lat="47.05922" lon="-0.82109">
        <ele>194.588</ele>
        <time>2019-11-24T10:23:00Z</time>
      </trkpt>
      <trkpt lat="47.05921" lon="-0.82114">
        <ele>194.639</ele>
        <time>2019-11-24T10:23:02Z</time>
      </trkpt>
      <trkpt lat="47.05919" lon="-0.82121">
        <ele>194.72</ele>
        <time>2019-11-24T10:23:05Z</time>
      </trkpt>
      <trkpt lat="47.05918" lon="-0.82126">
        <ele>194.776</ele>
        <time>2019-11-24T10:23:07Z</time>
      </trkpt>
      <trkpt lat="47.05917" lon="-0.82132">
        <ele>194.891</ele>
        <time>2019-11-24T10:23:11Z</time>
      </trkpt>
      <trkpt lat="47.05916" lon="-0.82136">
        <ele>194.948</ele>
        <time>2019-11-24T10:23:13Z</time>
      </trkpt>
      <trkpt lat="47.05914" lon="-0.82142">
        <ele>195.032</ele>
        <time>2019-11-24T10:23:16Z</time>
      </trkpt>
      <trkpt lat="47.05912" lon="-0.82146">
        <ele>195.089</ele>
        <time>2019-11-24T10:23:18Z</time>
      </trkpt>
      <trkpt lat="47.05911" lon="-0.82149">
        <ele>195.174</ele>
        <time>2019-11-24T10:23:21Z</time>
      </trkpt>
      <trkpt lat="47.05909" lon="-0.82156">
        <ele>195.313</ele>
        <time>2019-11-24T10:23:26Z</time>
      </trkpt>
      <trkpt lat="47.05908" lon="-0.82163">
        <ele>195.448</ele>
        <time>2019-11-24T10:23:31Z</time>
      </trkpt>
      <trkpt lat="47.05906" lon="-0.82169">
        <ele>195.606</ele>
        <time>2019-11-24T10:23:37Z</time>
      </trkpt>
      <trkpt lat="47.05904" lon="-0.82176">
        <ele>195.707</ele>
        <time>2019-11-24T10:23:41Z</time>
      </trkpt>
      <trkpt lat="47.05903" lon="-0.82181">
        <ele>195.755</ele>
        <time>2019-11-24T10:23:43Z</time>
      </trkpt>
      <trkpt lat="47.05903" lon="-0.82185">
        <ele>195.801</ele>
        <time>2019-11-24T10:23:45Z</time>
      </trkpt>
      <trkpt lat="47.05899" lon="-0.82193">
        <ele>195.889</ele>
        <time>2019-11-24T10:23:49Z</time>
      </trkpt>
      <trkpt lat="47.05899" lon="-0.822">
        <ele>195.953</ele>
        <time>2019-11-24T10:23:52Z</time>
      </trkpt>
      <trkpt lat="47.05898" lon="-0.82207">
        <ele>196.02</ele>
        <time>2019-11-24T10:23:55Z</time>
      </trkpt>
      <trkpt lat="47.05897" lon="-0.82213">
        <ele>196.067</ele>
        <time>2019-11-24T10:23:57Z</time>
      </trkpt>
      <trkpt lat="47.05896" lon="-0.82217">
        <ele>196.116</ele>
        <time>2019-11-24T10:23:59Z</time>
      </trkpt>
      <trkpt lat="47.05895" lon="-0.82223">
        <ele>196.194</ele>
        <time>2019-11-24T10:24:02Z</time>
      </trkpt>
      <trkpt lat="47.05894" lon="-0.82231">
        <ele>196.304</ele>
        <time>2019-11-24T10:24:06Z</time>
      </trkpt>
      <trkpt lat="47.05893" lon="-0.82235">
        <ele>196.36</ele>
        <time>2019-11-24T10:24:08Z</time>
      </trkpt>
      <trkpt lat="47.05892" lon="-0.82241">
        <ele>196.471</ele>
        <time>2019-11-24T10:24:12Z</time>
      </trkpt>
      <trkpt lat="47.0589" lon="-0.82248">
        <ele>196.581</ele>
        <time>2019-11-24T10:24:16Z</time>
      </trkpt>
      <trkpt lat="47.05888" lon="-0.82255">
        <ele>196.69</ele>
        <time>2019-11-24T10:24:20Z</time>
      </trkpt>
      <trkpt lat="47.05885" lon="-0.82263">
        <ele>196.798</ele>
        <time>2019-11-24T10:24:24Z</time>
      </trkpt>
      <trkpt lat="47.05882" lon="-0.82269">
        <ele>196.909</ele>
        <time>2019-11-24T10:24:28Z</time>
      </trkpt>
      <trkpt lat="47.0588" lon="-0.82275">
        <ele>197.046</ele>
        <time>2019-11-24T10:24:33Z</time>
      </trkpt>
      <trkpt lat="47.05878" lon="-0.82278">
        <ele>197.101</ele>
        <time>2019-11-24T10:24:35Z</time>
      </trkpt>
      <trkpt lat="47.05877" lon="-0.82282">
        <ele>197.155</ele>
        <time>2019-11-24T10:24:37Z</time>
      </trkpt>
      <trkpt lat="47.05875" lon="-0.82287">
        <ele>197.262</ele>
        <time>2019-11-24T10:24:41Z</time>
      </trkpt>
      <trkpt lat="47.05875" lon="-0.82294">
        <ele>197.34</ele>
        <time>2019-11-24T10:24:44Z</time>
      </trkpt>
      <trkpt lat="47.05874" lon="-0.82301">
        <ele>197.441</ele>
        <time>2019-11-24T10:24:48Z</time>
      </trkpt>
      <trkpt lat="47.05872" lon="-0.82309">
        <ele>197.542</ele>
        <time>2019-11-24T10:24:52Z</time>
      </trkpt>
      <trkpt lat="47.0587" lon="-0.82313">
        <ele>197.593</ele>
        <time>2019-11-24T10:24:54Z</time>
      </trkpt>
      <trkpt lat="47.05869" lon="-0.82317">
        <ele>197.67</ele>
        <time>2019-11-24T10:24:57Z</time>
      </trkpt>
      <trkpt lat="47.05867" lon="-0.82323">
        <ele>197.746</ele>
        <time>2019-11-24T10:25:00Z</time>
      </trkpt>
      <trkpt lat="47.05865" lon="-0.82331">
        <ele>197.851</ele>
        <time>2019-11-24T10:25:04Z</time>
      </trkpt>
      <trkpt lat="47.05865" lon="-0.82335">
        <ele>197.929</ele>
        <time>2019-11-24T10:25:07Z</time>
      </trkpt>
      <trkpt lat="47.05863" lon="-0.8234">
        <ele>198.006</ele>
        <time>2019-11-24T10:25:10Z</time>
      </trkpt>
      <trkpt lat="47.05862" lon="-0.82344">
        <ele>198.056</ele>
        <time>2019-11-24T10:25:12Z</time>
      </trkpt>
      <trkpt lat="47.05861" lon="-0.82348">
        <ele>198.107</ele>
        <time>2019-11-24T10:25:14Z</time>
      </trkpt>
      <trkpt lat="47.0586" lon="-0.82352">
        <ele>198.156</ele>
        <time>2019-11-24T10:25:16Z</time>
      </trkpt>
      <trkpt lat="47.0586" lon="-0.8236">
        <ele>198.253</ele>
        <time>2019-11-24T10:25:20Z</time>
      </trkpt>
      <trkpt lat="47.05857" lon="-0.82367">
        <ele>198.37</ele>
        <time>2019-11-24T10:25:25Z</time>
      </trkpt>
      <trkpt lat="47.05855" lon="-0.82372">
        <ele>198.441</ele>
        <time>2019-11-24T10:25:28Z</time>
      </trkpt>
      <trkpt lat="47.05855" lon="-0.82379">
        <ele>198.534</ele>
        <time>2019-11-24T10:25:32Z</time>
      </trkpt>
      <trkpt lat="47.05853" lon="-0.82386">
        <ele>198.647</ele>
        <time>2019-11-24T10:25:37Z</time>
      </trkpt>
      <trkpt lat="47.05851" lon="-0.82394">
        <ele>198.714</ele>
        <time>2019-11-24T10:25:40Z</time>
      </trkpt>
      <trkpt lat="47.0585" lon="-0.82398">
        <ele>198.738</ele>
        <time>2019-11-24T10:25:41Z</time>
      </trkpt>
      <trkpt lat="47.05848" lon="-0.82404">
        <ele>198.844</ele>
        <time>2019-11-24T10:25:45Z</time>
      </trkpt>
      <trkpt lat="47.05846" lon="-0.82407">
        <ele>198.947</ele>
        <time>2019-11-24T10:25:49Z</time>
      </trkpt>
      <trkpt lat="47.05844" lon="-0.82413">
        <ele>199.046</ele>
        <time>2019-11-24T10:25:53Z</time>
      </trkpt>
      <trkpt lat="47.05843" lon="-0.8242">
        <ele>199.165</ele>
        <time>2019-11-24T10:25:58Z</time>
      </trkpt>
      <trkpt lat="47.05841" lon="-0.82425">
        <ele>199.235</ele>
        <time>2019-11-24T10:26:01Z</time>
      </trkpt>
      <trkpt lat="47.05841" lon="-0.82429">
        <ele>199.282</ele>
        <time>2019-11-24T10:26:03Z</time>
      </trkpt>
      <trkpt lat="47.0584" lon="-0.82432">
        <ele>199.328</ele>
        <time>2019-11-24T10:26:05Z</time>
      </trkpt>
      <trkpt lat="47.05839" lon="-0.82437">
        <ele>199.375</ele>
        <time>2019-11-24T10:26:07Z</time>
      </trkpt>
      <trkpt lat="47.05838" lon="-0.8244">
        <ele>199.422</ele>
        <time>2019-11-24T10:26:09Z</time>
      </trkpt>
      <trkpt lat="47.05837" lon="-0.82447">
        <ele>199.493</ele>
        <time>2019-11-24T10:26:12Z</time>
      </trkpt>
      <trkpt lat="47.05837" lon="-0.82452">
        <ele>199.562</ele>
        <time>2019-11-24T10:26:15Z</time>
      </trkpt>
      <trkpt lat="47.05835" lon="-0.8246">
        <ele>199.649</ele>
        <time>2019-11-24T10:26:19Z</time>
      </trkpt>
      <trkpt lat="47.05833" lon="-0.82468">
        <ele>199.711</ele>
        <time>2019-11-24T10:26:22Z</time>
      </trkpt>
      <trkpt lat="47.05831" lon="-0.82474">
        <ele>199.776</ele>
        <time>2019-11-24T10:26:25Z</time>
      </trkpt>
      <trkpt lat="47.0583" lon="-0.8248">
        <ele>199.863</ele>
        <time>2019-11-24T10:26:29Z</time>
      </trkpt>
      <trkpt lat="47.05827" lon="-0.82488">
        <ele>200.011</ele>
        <time>2019-11-24T10:26:36Z</time>
      </trkpt>
      <trkpt lat="47.05824" lon="-0.82494">
        <ele>200.108</ele>
        <time>2019-11-24T10:26:41Z</time>
      </trkpt>
      <trkpt lat="47.05822" lon="-0.825">
        <ele>200.165</ele>
        <time>2019-11-24T10:26:44Z</time>
      </trkpt>
      <trkpt lat="47.0582" lon="-0.82505">
        <ele>200.203</ele>
        <time>2019-11-24T10:26:46Z</time>
      </trkpt>
      <trkpt lat="47.05818" lon="-0.82512">
        <ele>200.26</ele>
        <time>2019-11-24T10:26:49Z</time>
      </trkpt>
      <trkpt lat="47.05816" lon="-0.82518">
        <ele>200.315</ele>
        <time>2019-11-24T10:26:52Z</time>
      </trkpt>
      <trkpt lat="47.05814" lon="-0.82526">
        <ele>200.37</ele>
        <time>2019-11-24T10:26:55Z</time>
      </trkpt>
      <trkpt lat="47.05813" lon="-0.82535">
        <ele>200.424</ele>
        <time>2019-11-24T10:26:58Z</time>
      </trkpt>
      <trkpt lat="47.05812" lon="-0.82538">
        <ele>200.442</ele>
        <time>2019-11-24T10:26:59Z</time>
      </trkpt>
      <trkpt lat="47.05811" lon="-0.82542">
        <ele>200.461</ele>
        <time>2019-11-24T10:27:00Z</time>
      </trkpt>
      <trkpt lat="47.0581" lon="-0.82547">
        <ele>200.498</ele>
        <time>2019-11-24T10:27:02Z</time>
      </trkpt>
      <trkpt lat="47.05809" lon="-0.82551">
        <ele>200.535</ele>
        <time>2019-11-24T10:27:04Z</time>
      </trkpt>
      <trkpt lat="47.05808" lon="-0.82555">
        <ele>200.572</ele>
        <time>2019-11-24T10:27:06Z</time>
      </trkpt>
      <trkpt lat="47.05807" lon="-0.8256">
        <ele>200.608</ele>
        <time>2019-11-24T10:27:08Z</time>
      </trkpt>
      <trkpt lat="47.05806" lon="-0.82567">
        <ele>200.661</ele>
        <time>2019-11-24T10:27:11Z</time>
      </trkpt>
      <trkpt lat="47.05805" lon="-0.82575">
        <ele>200.715</ele>
        <time>2019-11-24T10:27:14Z</time>
      </trkpt>
      <trkpt lat="47.05804" lon="-0.82581">
        <ele>200.752</ele>
        <time>2019-11-24T10:27:16Z</time>
      </trkpt>
      <trkpt lat="47.05803" lon="-0.82586">
        <ele>200.789</ele>
        <time>2019-11-24T10:27:18Z</time>
      </trkpt>
      <trkpt lat="47.05801" lon="-0.82592">
        <ele>200.829</ele>
        <time>2019-11-24T10:27:20Z</time>
      </trkpt>
      <trkpt lat="47.058" lon="-0.82595">
        <ele>200.871</ele>
        <time>2019-11-24T10:27:22Z</time>
      </trkpt>
      <trkpt lat="47.05799" lon="-0.82601">
        <ele>200.934</ele>
        <time>2019-11-24T10:27:25Z</time>
      </trkpt>
      <trkpt lat="47.05798" lon="-0.82607">
        <ele>200.996</ele>
        <time>2019-11-24T10:27:28Z</time>
      </trkpt>
      <trkpt lat="47.05795" lon="-0.82616">
        <ele>201.059</ele>
        <time>2019-11-24T10:27:31Z</time>
      </trkpt>
      <trkpt lat="47.05793" lon="-0.82622">
        <ele>201.141</ele>
        <time>2019-11-24T10:27:35Z</time>
      </trkpt>
      <trkpt lat="47.05789" lon="-0.82627">
        <ele>201.241</ele>
        <time>2019-11-24T10:27:40Z</time>
      </trkpt>
      <trkpt lat="47.05788" lon="-0.82634">
        <ele>201.301</ele>
        <time>2019-11-24T10:27:43Z</time>
      </trkpt>
      <trkpt lat="47.05787" lon="-0.82638">
        <ele>201.34</ele>
        <time>2019-11-24T10:27:45Z</time>
      </trkpt>
      <trkpt lat="47.05786" lon="-0.82642">
        <ele>201.38</ele>
        <time>2019-11-24T10:27:47Z</time>
      </trkpt>
      <trkpt lat="47.05785" lon="-0.82646">
        <ele>201.418</ele>
        <time>2019-11-24T10:27:49Z</time>
      </trkpt>
      <trkpt lat="47.05784" lon="-0.8265">
        <ele>201.457</ele>
        <time>2019-11-24T10:27:51Z</time>
      </trkpt>
      <trkpt lat="47.05783" lon="-0.82657">
        <ele>201.535</ele>
        <time>2019-11-24T10:27:55Z</time>
      </trkpt>
      <trkpt lat="47.05783" lon="-0.82664">
        <ele>201.612</ele>
        <time>2019-11-24T10:27:59Z</time>
      </trkpt>
      <trkpt lat="47.0578" lon="-0.82671">
        <ele>201.687</ele>
        <time>2019-11-24T10:28:03Z</time>
      </trkpt>
      <trkpt lat="47.05779" lon="-0.82678">
        <ele>201.758</ele>
        <time>2019-11-24T10:28:07Z</time>
      </trkpt>
      <trkpt lat="47.05778" lon="-0.82682">
        <ele>201.794</ele>
        <time>2019-11-24T10:28:09Z</time>
      </trkpt>
      <trkpt lat="47.05777" lon="-0.8269">
        <ele>201.864</ele>
        <time>2019-11-24T10:28:13Z</time>
      </trkpt>
      <trkpt lat="47.05774" lon="-0.82697">
        <ele>201.935</ele>
        <time>2019-11-24T10:28:17Z</time>
      </trkpt>
      <trkpt lat="47.05771" lon="-0.82704">
        <ele>201.974</ele>
        <time>2019-11-24T10:28:19Z</time>
      </trkpt>
      <trkpt lat="47.05768" lon="-0.82709">
        <ele>202.11</ele>
        <time>2019-11-24T10:28:25Z</time>
      </trkpt>
      <trkpt lat="47.05763" lon="-0.82713">
        <ele>202.197</ele>
        <time>2019-11-24T10:28:29Z</time>
      </trkpt>
      <trkpt lat="47.05758" lon="-0.82715">
        <ele>202.26</ele>
        <time>2019-11-24T10:28:32Z</time>
      </trkpt>
      <trkpt lat="47.05754" lon="-0.82715">
        <ele>202.321</ele>
        <time>2019-11-24T10:28:35Z</time>
      </trkpt>
      <trkpt lat="47.05749" lon="-0.82718">
        <ele>202.381</ele>
        <time>2019-11-24T10:28:38Z</time>
      </trkpt>
      <trkpt lat="47.05746" lon="-0.8272">
        <ele>202.422</ele>
        <time>2019-11-24T10:28:40Z</time>
      </trkpt>
      <trkpt lat="47.05742" lon="-0.82723">
        <ele>202.522</ele>
        <time>2019-11-24T10:28:45Z</time>
      </trkpt>
      <trkpt lat="47.05737" lon="-0.82722">
        <ele>202.62</ele>
        <time>2019-11-24T10:28:50Z</time>
      </trkpt>
      <trkpt lat="47.05732" lon="-0.82722">
        <ele>202.656</ele>
        <time>2019-11-24T10:28:52Z</time>
      </trkpt>
      <trkpt lat="47.05726" lon="-0.82725">
        <ele>202.709</ele>
        <time>2019-11-24T10:28:55Z</time>
      </trkpt>
      <trkpt lat="47.05722" lon="-0.8273">
        <ele>202.78</ele>
        <time>2019-11-24T10:28:59Z</time>
      </trkpt>
      <trkpt lat="47.0572" lon="-0.82733">
        <ele>202.817</ele>
        <time>2019-11-24T10:29:01Z</time>
      </trkpt>
      <trkpt lat="47.05717" lon="-0.82736">
        <ele>202.87</ele>
        <time>2019-11-24T10:29:04Z</time>
      </trkpt>
      <trkpt lat="47.05713" lon="-0.82739">
        <ele>202.954</ele>
        <time>2019-11-24T10:29:09Z</time>
      </trkpt>
      <trkpt lat="47.05708" lon="-0.8274">
        <ele>203.021</ele>
        <time>2019-11-24T10:29:13Z</time>
      </trkpt>
      <trkpt lat="47.05703" lon="-0.82742">
        <ele>203.078</ele>
        <time>2019-11-24T10:29:16Z</time>
      </trkpt>
      <trkpt lat="47.05697" lon="-0.82741">
        <ele>203.135</ele>
        <time>2019-11-24T10:29:19Z</time>
      </trkpt>
      <trkpt lat="47.05691" lon="-0.82745">
        <ele>203.193</ele>
        <time>2019-11-24T10:29:22Z</time>
      </trkpt>
      <trkpt lat="47.05687" lon="-0.82748">
        <ele>203.273</ele>
        <time>2019-11-24T10:29:26Z</time>
      </trkpt>
      <trkpt lat="47.05684" lon="-0.82749">
        <ele>203.335</ele>
        <time>2019-11-24T10:29:29Z</time>
      </trkpt>
      <trkpt lat="47.05681" lon="-0.8275">
        <ele>203.399</ele>
        <time>2019-11-24T10:29:32Z</time>
      </trkpt>
      <trkpt lat="47.05679" lon="-0.82751">
        <ele>203.44</ele>
        <time>2019-11-24T10:29:34Z</time>
      </trkpt>
      <trkpt lat="47.05676" lon="-0.82752">
        <ele>203.479</ele>
        <time>2019-11-24T10:29:36Z</time>
      </trkpt>
      <trkpt lat="47.05673" lon="-0.82753">
        <ele>203.517</ele>
        <time>2019-11-24T10:29:38Z</time>
      </trkpt>
      <trkpt lat="47.05668" lon="-0.82756">
        <ele>203.572</ele>
        <time>2019-11-24T10:29:41Z</time>
      </trkpt>
      <trkpt lat="47.05663" lon="-0.82758">
        <ele>203.64</ele>
        <time>2019-11-24T10:29:45Z</time>
      </trkpt>
      <trkpt lat="47.05661" lon="-0.82759">
        <ele>203.671</ele>
        <time>2019-11-24T10:29:47Z</time>
      </trkpt>
      <trkpt lat="47.05656" lon="-0.82763">
        <ele>203.74</ele>
        <time>2019-11-24T10:29:52Z</time>
      </trkpt>
      <trkpt lat="47.05653" lon="-0.82765">
        <ele>203.777</ele>
        <time>2019-11-24T10:29:55Z</time>
      </trkpt>
      <trkpt lat="47.0565" lon="-0.82766">
        <ele>203.802</ele>
        <time>2019-11-24T10:29:57Z</time>
      </trkpt>
      <trkpt lat="47.05647" lon="-0.82769">
        <ele>203.828</ele>
        <time>2019-11-24T10:29:59Z</time>
      </trkpt>
      <trkpt lat="47.05642" lon="-0.82773">
        <ele>203.879</ele>
        <time>2019-11-24T10:30:03Z</time>
      </trkpt>
      <trkpt lat="47.05638" lon="-0.82776">
        <ele>203.905</ele>
        <time>2019-11-24T10:30:05Z</time>
      </trkpt>
      <trkpt lat="47.05636" lon="-0.82778">
        <ele>203.929</ele>
        <time>2019-11-24T10:30:07Z</time>
      </trkpt>
      <trkpt lat="47.05632" lon="-0.82783">
        <ele>203.977</ele>
        <time>2019-11-24T10:30:11Z</time>
      </trkpt>
      <trkpt lat="47.05626" lon="-0.82787">
        <ele>204.024</ele>
        <time>2019-11-24T10:30:15Z</time>
      </trkpt>
      <trkpt lat="47.05623" lon="-0.82789">
        <ele>204.047</ele>
        <time>2019-11-24T10:30:17Z</time>
      </trkpt>
      <trkpt lat="47.0562" lon="-0.82791">
        <ele>204.071</ele>
        <time>2019-11-24T10:30:19Z</time>
      </trkpt>
      <trkpt lat="47.05616" lon="-0.82792">
        <ele>204.105</ele>
        <time>2019-11-24T10:30:22Z</time>
      </trkpt>
      <trkpt lat="47.05611" lon="-0.82796">
        <ele>204.149</ele>
        <time>2019-11-24T10:30:26Z</time>
      </trkpt>
      <trkpt lat="47.05608" lon="-0.82797">
        <ele>204.169</ele>
        <time>2019-11-24T10:30:28Z</time>
      </trkpt>
      <trkpt lat="47.05606" lon="-0.82798">
        <ele>204.189</ele>
        <time>2019-11-24T10:30:30Z</time>
      </trkpt>
      <trkpt lat="47.05603" lon="-0.828">
        <ele>204.209</ele>
        <time>2019-11-24T10:30:32Z</time>
      </trkpt>
      <trkpt lat="47.05601" lon="-0.82802">
        <ele>204.228</ele>
        <time>2019-11-24T10:30:34Z</time>
      </trkpt>
      <trkpt lat="47.05598" lon="-0.82804">
        <ele>204.248</ele>
        <time>2019-11-24T10:30:36Z</time>
      </trkpt>
      <trkpt lat="47.05593" lon="-0.82806">
        <ele>204.286</ele>
        <time>2019-11-24T10:30:40Z</time>
      </trkpt>
      <trkpt lat="47.0559" lon="-0.82807">
        <ele>204.304</ele>
        <time>2019-11-24T10:30:42Z</time>
      </trkpt>
      <trkpt lat="47.05585" lon="-0.82811">
        <ele>204.339</ele>
        <time>2019-11-24T10:30:46Z</time>
      </trkpt>
      <trkpt lat="47.05582" lon="-0.82813">
        <ele>204.356</ele>
        <time>2019-11-24T10:30:48Z</time>
      </trkpt>
      <trkpt lat="47.0558" lon="-0.82815">
        <ele>204.374</ele>
        <time>2019-11-24T10:30:50Z</time>
      </trkpt>
      <trkpt lat="47.05576" lon="-0.82816">
        <ele>204.419</ele>
        <time>2019-11-24T10:30:55Z</time>
      </trkpt>
      <trkpt lat="47.05571" lon="-0.8282">
        <ele>204.459</ele>
        <time>2019-11-24T10:31:00Z</time>
      </trkpt>
      <trkpt lat="47.05567" lon="-0.82825">
        <ele>204.494</ele>
        <time>2019-11-24T10:31:04Z</time>
      </trkpt>
      <trkpt lat="47.05563" lon="-0.82827">
        <ele>204.539</ele>
        <time>2019-11-24T10:31:09Z</time>
      </trkpt>
      <trkpt lat="47.0556" lon="-0.82828">
        <ele>204.556</ele>
        <time>2019-11-24T10:31:11Z</time>
      </trkpt>
      <trkpt lat="47.05558" lon="-0.8283">
        <ele>204.573</ele>
        <time>2019-11-24T10:31:13Z</time>
      </trkpt>
      <trkpt lat="47.05555" lon="-0.82831">
        <ele>204.588</ele>
        <time>2019-11-24T10:31:15Z</time>
      </trkpt>
      <trkpt lat="47.05553" lon="-0.82833">
        <ele>204.602</ele>
        <time>2019-11-24T10:31:17Z</time>
      </trkpt>
      <trkpt lat="47.05549" lon="-0.82835">
        <ele>204.623</ele>
        <time>2019-11-24T10:31:20Z</time>
      </trkpt>
      <trkpt lat="47.05545" lon="-0.82837">
        <ele>204.647</ele>
        <time>2019-11-24T10:31:24Z</time>
      </trkpt>
      <trkpt lat="47.05543" lon="-0.82839">
        <ele>204.659</ele>
        <time>2019-11-24T10:31:26Z</time>
      </trkpt>
      <trkpt lat="47.05538" lon="-0.8284">
        <ele>204.678</ele>
        <time>2019-11-24T10:31:30Z</time>
      </trkpt>
      <trkpt lat="47.05535" lon="-0.82841">
        <ele>204.687</ele>
        <time>2019-11-24T10:31:32Z</time>
      </trkpt>
      <trkpt lat="47.05531" lon="-0.82842">
        <ele>204.701</ele>
        <time>2019-11-24T10:31:35Z</time>
      </trkpt>
      <trkpt lat="47.05526" lon="-0.82846">
        <ele>204.718</ele>
        <time>2019-11-24T10:31:39Z</time>
      </trkpt>
      <trkpt lat="47.05523" lon="-0.82849">
        <ele>204.726</ele>
        <time>2019-11-24T10:31:41Z</time>
      </trkpt>
      <trkpt lat="47.05518" lon="-0.82853">
        <ele>204.74</ele>
        <time>2019-11-24T10:31:44Z</time>
      </trkpt>
      <trkpt lat="47.05514" lon="-0.82858">
        <ele>204.759</ele>
        <time>2019-11-24T10:31:48Z</time>
      </trkpt>
      <trkpt lat="47.05508" lon="-0.8286">
        <ele>204.781</ele>
        <time>2019-11-24T10:31:52Z</time>
      </trkpt>
      <trkpt lat="47.05503" lon="-0.82862">
        <ele>204.801</ele>
        <time>2019-11-24T10:31:55Z</time>
      </trkpt>
      <trkpt lat="47.055" lon="-0.82864">
        <ele>204.814</ele>
        <time>2019-11-24T10:31:57Z</time>
      </trkpt>
      <trkpt lat="47.05496" lon="-0.82865">
        <ele>204.833</ele>
        <time>2019-11-24T10:32:00Z</time>
      </trkpt>
      <trkpt lat="47.05493" lon="-0.82866">
        <ele>204.852</ele>
        <time>2019-11-24T10:32:03Z</time>
      </trkpt>
      <trkpt lat="47.05489" lon="-0.82867">
        <ele>204.878</ele>
        <time>2019-11-24T10:32:07Z</time>
      </trkpt>
      <trkpt lat="47.05484" lon="-0.8287">
        <ele>204.904</ele>
        <time>2019-11-24T10:32:11Z</time>
      </trkpt>
      <trkpt lat="47.05478" lon="-0.82873">
        <ele>204.931</ele>
        <time>2019-11-24T10:32:15Z</time>
      </trkpt>
      <trkpt lat="47.05476" lon="-0.82874">
        <ele>204.944</ele>
        <time>2019-11-24T10:32:17Z</time>
      </trkpt>
      <trkpt lat="47.05471" lon="-0.82877">
        <ele>204.964</ele>
        <time>2019-11-24T10:32:20Z</time>
      </trkpt>
      <trkpt lat="47.05467" lon="-0.8288">
        <ele>204.985</ele>
        <time>2019-11-24T10:32:23Z</time>
      </trkpt>
      <trkpt lat="47.05464" lon="-0.82882">
        <ele>205.005</ele>
        <time>2019-11-24T10:32:26Z</time>
      </trkpt>
      <trkpt lat="47.05464" lon="-0.82882">
        <ele>205.005</ele>
        <time>2019-11-24T10:32:34Z</time>
      </trkpt>
      <trkpt lat="47.05464" lon="-0.82882">
        <ele>205.005</ele>
        <time>2019-11-24T10:32:35Z</time>
      </trkpt>
      <trkpt lat="47.05469" lon="-0.82887">
        <ele>205.012</ele>
        <time>2019-11-24T10:32:45Z</time>
      </trkpt>
      <trkpt lat="47.05475" lon="-0.82885">
        <ele>204.998</ele>
        <time>2019-11-24T10:32:47Z</time>
      </trkpt>
      <trkpt lat="47.05479" lon="-0.8289">
        <ele>204.99</ele>
        <time>2019-11-24T10:32:48Z</time>
      </trkpt>
      <trkpt lat="47.05485" lon="-0.82892">
        <ele>204.975</ele>
        <time>2019-11-24T10:32:50Z</time>
      </trkpt>
      <trkpt lat="47.05486" lon="-0.829">
        <ele>204.951</ele>
        <time>2019-11-24T10:32:53Z</time>
      </trkpt>
      <trkpt lat="47.05488" lon="-0.82908">
        <ele>204.927</ele>
        <time>2019-11-24T10:32:56Z</time>
      </trkpt>
      <trkpt lat="47.0549" lon="-0.82915">
        <ele>204.904</ele>
        <time>2019-11-24T10:32:59Z</time>
      </trkpt>
      <trkpt lat="47.05489" lon="-0.82922">
        <ele>204.875</ele>
        <time>2019-11-24T10:33:03Z</time>
      </trkpt>
      <trkpt lat="47.05492" lon="-0.82929">
        <ele>204.848</ele>
        <time>2019-11-24T10:33:07Z</time>
      </trkpt>
      <trkpt lat="47.05493" lon="-0.82937">
        <ele>204.826</ele>
        <time>2019-11-24T10:33:11Z</time>
      </trkpt>
      <trkpt lat="47.05494" lon="-0.82944">
        <ele>204.808</ele>
        <time>2019-11-24T10:33:15Z</time>
      </trkpt>
      <trkpt lat="47.05496" lon="-0.8295">
        <ele>204.788</ele>
        <time>2019-11-24T10:33:21Z</time>
      </trkpt>
      <trkpt lat="47.05497" lon="-0.82955">
        <ele>204.777</ele>
        <time>2019-11-24T10:33:24Z</time>
      </trkpt>
      <trkpt lat="47.05499" lon="-0.82958">
        <ele>204.769</ele>
        <time>2019-11-24T10:33:26Z</time>
      </trkpt>
      <trkpt lat="47.055" lon="-0.82967">
        <ele>204.756</ele>
        <time>2019-11-24T10:33:29Z</time>
      </trkpt>
      <trkpt lat="47.05499" lon="-0.82978">
        <ele>204.742</ele>
        <time>2019-11-24T10:33:32Z</time>
      </trkpt>
      <trkpt lat="47.05501" lon="-0.82985">
        <ele>204.727</ele>
        <time>2019-11-24T10:33:36Z</time>
      </trkpt>
      <trkpt lat="47.05502" lon="-0.8299">
        <ele>204.72</ele>
        <time>2019-11-24T10:33:38Z</time>
      </trkpt>
      <trkpt lat="47.05503" lon="-0.82993">
        <ele>204.713</ele>
        <time>2019-11-24T10:33:40Z</time>
      </trkpt>
      <trkpt lat="47.05504" lon="-0.82996">
        <ele>204.709</ele>
        <time>2019-11-24T10:33:42Z</time>
      </trkpt>
      <trkpt lat="47.05505" lon="-0.83">
        <ele>204.701</ele>
        <time>2019-11-24T10:33:46Z</time>
      </trkpt>
      <trkpt lat="47.05506" lon="-0.83003">
        <ele>204.694</ele>
        <time>2019-11-24T10:33:48Z</time>
      </trkpt>
      <trkpt lat="47.05506" lon="-0.83007">
        <ele>204.685</ele>
        <time>2019-11-24T10:33:50Z</time>
      </trkpt>
      <trkpt lat="47.05509" lon="-0.83013">
        <ele>204.669</ele>
        <time>2019-11-24T10:33:53Z</time>
      </trkpt>
      <trkpt lat="47.0551" lon="-0.83016">
        <ele>204.659</ele>
        <time>2019-11-24T10:33:55Z</time>
      </trkpt>
      <trkpt lat="47.05511" lon="-0.83023">
        <ele>204.622</ele>
        <time>2019-11-24T10:34:01Z</time>
      </trkpt>
      <trkpt lat="47.05512" lon="-0.83026">
        <ele>204.609</ele>
        <time>2019-11-24T10:34:03Z</time>
      </trkpt>
      <trkpt lat="47.05511" lon="-0.83034">
        <ele>204.563</ele>
        <time>2019-11-24T10:34:10Z</time>
      </trkpt>
      <trkpt lat="47.05511" lon="-0.83034">
        <ele>204.563</ele>
        <time>2019-11-24T10:34:17Z</time>
      </trkpt>
      <trkpt lat="47.05511" lon="-0.83034">
        <ele>204.563</ele>
        <time>2019-11-24T10:34:18Z</time>
      </trkpt>
      <trkpt lat="47.05509" lon="-0.8304">
        <ele>204.297</ele>
        <time>2019-11-24T10:35:07Z</time>
      </trkpt>
      <trkpt lat="47.05512" lon="-0.83047">
        <ele>204.24</ele>
        <time>2019-11-24T10:35:10Z</time>
      </trkpt>
      <trkpt lat="47.05515" lon="-0.83053">
        <ele>204.202</ele>
        <time>2019-11-24T10:35:12Z</time>
      </trkpt>
      <trkpt lat="47.05518" lon="-0.83057">
        <ele>204.165</ele>
        <time>2019-11-24T10:35:14Z</time>
      </trkpt>
      <trkpt lat="47.05519" lon="-0.83065">
        <ele>204.11</ele>
        <time>2019-11-24T10:35:17Z</time>
      </trkpt>
      <trkpt lat="47.0552" lon="-0.83073">
        <ele>204.038</ele>
        <time>2019-11-24T10:35:21Z</time>
      </trkpt>
      <trkpt lat="47.0552" lon="-0.83079">
        <ele>204.002</ele>
        <time>2019-11-24T10:35:23Z</time>
      </trkpt>
      <trkpt lat="47.05521" lon="-0.83083">
        <ele>203.968</ele>
        <time>2019-11-24T10:35:25Z</time>
      </trkpt>
      <trkpt lat="47.05519" lon="-0.83094">
        <ele>203.901</ele>
        <time>2019-11-24T10:35:29Z</time>
      </trkpt>
      <trkpt lat="47.05517" lon="-0.83103">
        <ele>203.869</ele>
        <time>2019-11-24T10:35:31Z</time>
      </trkpt>
      <trkpt lat="47.05517" lon="-0.83111">
        <ele>203.821</ele>
        <time>2019-11-24T10:35:34Z</time>
      </trkpt>
      <trkpt lat="47.05516" lon="-0.83117">
        <ele>203.791</ele>
        <time>2019-11-24T10:35:36Z</time>
      </trkpt>
      <trkpt lat="47.05515" lon="-0.83122">
        <ele>203.762</ele>
        <time>2019-11-24T10:35:38Z</time>
      </trkpt>
      <trkpt lat="47.05515" lon="-0.83126">
        <ele>203.734</ele>
        <time>2019-11-24T10:35:40Z</time>
      </trkpt>
      <trkpt lat="47.05516" lon="-0.83133">
        <ele>203.68</ele>
        <time>2019-11-24T10:35:44Z</time>
      </trkpt>
      <trkpt lat="47.05517" lon="-0.83138">
        <ele>203.653</ele>
        <time>2019-11-24T10:35:46Z</time>
      </trkpt>
      <trkpt lat="47.05518" lon="-0.83144">
        <ele>203.625</ele>
        <time>2019-11-24T10:35:48Z</time>
      </trkpt>
      <trkpt lat="47.0552" lon="-0.83151">
        <ele>203.583</ele>
        <time>2019-11-24T10:35:51Z</time>
      </trkpt>
      <trkpt lat="47.05521" lon="-0.83158">
        <ele>203.541</ele>
        <time>2019-11-24T10:35:54Z</time>
      </trkpt>
      <trkpt lat="47.0552" lon="-0.83167">
        <ele>203.499</ele>
        <time>2019-11-24T10:35:57Z</time>
      </trkpt>
      <trkpt lat="47.0552" lon="-0.83171">
        <ele>203.472</ele>
        <time>2019-11-24T10:35:59Z</time>
      </trkpt>
      <trkpt lat="47.05518" lon="-0.8318">
        <ele>203.419</ele>
        <time>2019-11-24T10:36:03Z</time>
      </trkpt>
      <trkpt lat="47.05516" lon="-0.83186">
        <ele>203.381</ele>
        <time>2019-11-24T10:36:06Z</time>
      </trkpt>
      <trkpt lat="47.05517" lon="-0.83194">
        <ele>203.33</ele>
        <time>2019-11-24T10:36:10Z</time>
      </trkpt>
      <trkpt lat="47.05517" lon="-0.83199">
        <ele>203.306</ele>
        <time>2019-11-24T10:36:12Z</time>
      </trkpt>
      <trkpt lat="47.05517" lon="-0.83203">
        <ele>203.282</ele>
        <time>2019-11-24T10:36:14Z</time>
      </trkpt>
      <trkpt lat="47.05515" lon="-0.83212">
        <ele>203.231</ele>
        <time>2019-11-24T10:36:18Z</time>
      </trkpt>
      <trkpt lat="47.05514" lon="-0.83221">
        <ele>203.177</ele>
        <time>2019-11-24T10:36:22Z</time>
      </trkpt>
      <trkpt lat="47.05512" lon="-0.83229">
        <ele>203.121</ele>
        <time>2019-11-24T10:36:26Z</time>
      </trkpt>
      <trkpt lat="47.05511" lon="-0.83234">
        <ele>203.093</ele>
        <time>2019-11-24T10:36:28Z</time>
      </trkpt>
      <trkpt lat="47.05508" lon="-0.83241">
        <ele>203.034</ele>
        <time>2019-11-24T10:36:32Z</time>
      </trkpt>
      <trkpt lat="47.05506" lon="-0.83245">
        <ele>203.003</ele>
        <time>2019-11-24T10:36:34Z</time>
      </trkpt>
      <trkpt lat="47.05504" lon="-0.8325">
        <ele>202.989</ele>
        <time>2019-11-24T10:36:35Z</time>
      </trkpt>
      <trkpt lat="47.05502" lon="-0.83256">
        <ele>202.963</ele>
        <time>2019-11-24T10:36:37Z</time>
      </trkpt>
      <trkpt lat="47.05501" lon="-0.83259">
        <ele>202.936</ele>
        <time>2019-11-24T10:36:39Z</time>
      </trkpt>
      <trkpt lat="47.055" lon="-0.83263">
        <ele>202.912</ele>
        <time>2019-11-24T10:36:41Z</time>
      </trkpt>
      <trkpt lat="47.05495" lon="-0.83267">
        <ele>202.848</ele>
        <time>2019-11-24T10:36:46Z</time>
      </trkpt>
      <trkpt lat="47.05493" lon="-0.83269">
        <ele>202.821</ele>
        <time>2019-11-24T10:36:48Z</time>
      </trkpt>
      <trkpt lat="47.05488" lon="-0.83268">
        <ele>202.766</ele>
        <time>2019-11-24T10:36:52Z</time>
      </trkpt>
      <trkpt lat="47.05485" lon="-0.83267">
        <ele>202.726</ele>
        <time>2019-11-24T10:36:55Z</time>
      </trkpt>
      <trkpt lat="47.0548" lon="-0.83267">
        <ele>202.673</ele>
        <time>2019-11-24T10:36:59Z</time>
      </trkpt>
      <trkpt lat="47.05476" lon="-0.83269">
        <ele>202.631</ele>
        <time>2019-11-24T10:37:02Z</time>
      </trkpt>
      <trkpt lat="47.05478" lon="-0.8328">
        <ele>202.524</ele>
        <time>2019-11-24T10:37:09Z</time>
      </trkpt>
      <trkpt lat="47.05473" lon="-0.83285">
        <ele>202.456</ele>
        <time>2019-11-24T10:37:13Z</time>
      </trkpt>
      <trkpt lat="47.05468" lon="-0.83289">
        <ele>202.4</ele>
        <time>2019-11-24T10:37:16Z</time>
      </trkpt>
      <trkpt lat="47.05465" lon="-0.83291">
        <ele>202.362</ele>
        <time>2019-11-24T10:37:18Z</time>
      </trkpt>
      <trkpt lat="47.05461" lon="-0.83295">
        <ele>202.305</ele>
        <time>2019-11-24T10:37:21Z</time>
      </trkpt>
      <trkpt lat="47.05457" lon="-0.83299">
        <ele>202.249</ele>
        <time>2019-11-24T10:37:24Z</time>
      </trkpt>
      <trkpt lat="47.05453" lon="-0.83302">
        <ele>202.194</ele>
        <time>2019-11-24T10:37:27Z</time>
      </trkpt>
      <trkpt lat="47.05448" lon="-0.83306">
        <ele>202.099</ele>
        <time>2019-11-24T10:37:32Z</time>
      </trkpt>
      <trkpt lat="47.05443" lon="-0.83308">
        <ele>202.024</ele>
        <time>2019-11-24T10:37:36Z</time>
      </trkpt>
      <trkpt lat="47.05438" lon="-0.83313">
        <ele>201.947</ele>
        <time>2019-11-24T10:37:40Z</time>
      </trkpt>
      <trkpt lat="47.05436" lon="-0.83314">
        <ele>201.91</ele>
        <time>2019-11-24T10:37:42Z</time>
      </trkpt>
      <trkpt lat="47.05433" lon="-0.83316">
        <ele>201.872</ele>
        <time>2019-11-24T10:37:44Z</time>
      </trkpt>
      <trkpt lat="47.0543" lon="-0.83318">
        <ele>201.835</ele>
        <time>2019-11-24T10:37:46Z</time>
      </trkpt>
      <trkpt lat="47.05427" lon="-0.83321">
        <ele>201.799</ele>
        <time>2019-11-24T10:37:48Z</time>
      </trkpt>
      <trkpt lat="47.05423" lon="-0.83324">
        <ele>201.749</ele>
        <time>2019-11-24T10:37:51Z</time>
      </trkpt>
      <trkpt lat="47.0542" lon="-0.83326">
        <ele>201.717</ele>
        <time>2019-11-24T10:37:53Z</time>
      </trkpt>
      <trkpt lat="47.05416" lon="-0.83326">
        <ele>201.672</ele>
        <time>2019-11-24T10:37:56Z</time>
      </trkpt>
      <trkpt lat="47.05411" lon="-0.83329">
        <ele>201.614</ele>
        <time>2019-11-24T10:38:00Z</time>
      </trkpt>
      <trkpt lat="47.05406" lon="-0.83333">
        <ele>201.556</ele>
        <time>2019-11-24T10:38:04Z</time>
      </trkpt>
      <trkpt lat="47.05404" lon="-0.83336">
        <ele>201.527</ele>
        <time>2019-11-24T10:38:06Z</time>
      </trkpt>
      <trkpt lat="47.054" lon="-0.83341">
        <ele>201.471</ele>
        <time>2019-11-24T10:38:10Z</time>
      </trkpt>
      <trkpt lat="47.05398" lon="-0.83344">
        <ele>201.429</ele>
        <time>2019-11-24T10:38:13Z</time>
      </trkpt>
      <trkpt lat="47.05394" lon="-0.83348">
        <ele>201.372</ele>
        <time>2019-11-24T10:38:17Z</time>
      </trkpt>
      <trkpt lat="47.05389" lon="-0.83349">
        <ele>201.329</ele>
        <time>2019-11-24T10:38:20Z</time>
      </trkpt>
      <trkpt lat="47.05384" lon="-0.83351">
        <ele>201.271</ele>
        <time>2019-11-24T10:38:24Z</time>
      </trkpt>
      <trkpt lat="47.0538" lon="-0.83354">
        <ele>201.212</ele>
        <time>2019-11-24T10:38:28Z</time>
      </trkpt>
      <trkpt lat="47.05377" lon="-0.83356">
        <ele>201.182</ele>
        <time>2019-11-24T10:38:30Z</time>
      </trkpt>
      <trkpt lat="47.05372" lon="-0.83362">
        <ele>201.125</ele>
        <time>2019-11-24T10:38:34Z</time>
      </trkpt>
      <trkpt lat="47.05368" lon="-0.83367">
        <ele>201.068</ele>
        <time>2019-11-24T10:38:38Z</time>
      </trkpt>
      <trkpt lat="47.05365" lon="-0.83374">
        <ele>201.013</ele>
        <time>2019-11-24T10:38:42Z</time>
      </trkpt>
      <trkpt lat="47.05363" lon="-0.83381">
        <ele>200.973</ele>
        <time>2019-11-24T10:38:45Z</time>
      </trkpt>
      <trkpt lat="47.05361" lon="-0.83387">
        <ele>200.922</ele>
        <time>2019-11-24T10:38:49Z</time>
      </trkpt>
      <trkpt lat="47.05357" lon="-0.8339">
        <ele>200.872</ele>
        <time>2019-11-24T10:38:53Z</time>
      </trkpt>
      <trkpt lat="47.05352" lon="-0.83391">
        <ele>200.836</ele>
        <time>2019-11-24T10:38:56Z</time>
      </trkpt>
      <trkpt lat="47.05346" lon="-0.83393">
        <ele>200.791</ele>
        <time>2019-11-24T10:39:00Z</time>
      </trkpt>
      <trkpt lat="47.05343" lon="-0.83395">
        <ele>200.77</ele>
        <time>2019-11-24T10:39:02Z</time>
      </trkpt>
      <trkpt lat="47.05337" lon="-0.83395">
        <ele>200.74</ele>
        <time>2019-11-24T10:39:05Z</time>
      </trkpt>
      <trkpt lat="47.05335" lon="-0.83395">
        <ele>200.72</ele>
        <time>2019-11-24T10:39:07Z</time>
      </trkpt>
      <trkpt lat="47.05331" lon="-0.83394">
        <ele>200.668</ele>
        <time>2019-11-24T10:39:12Z</time>
      </trkpt>
      <trkpt lat="47.05327" lon="-0.83393">
        <ele>200.606</ele>
        <time>2019-11-24T10:39:19Z</time>
      </trkpt>
      <trkpt lat="47.05323" lon="-0.83388">
        <ele>200.543</ele>
        <time>2019-11-24T10:39:26Z</time>
      </trkpt>
      <trkpt lat="47.05321" lon="-0.83383">
        <ele>200.504</ele>
        <time>2019-11-24T10:39:31Z</time>
      </trkpt>
      <trkpt lat="47.05326" lon="-0.83371">
        <ele>200.386</ele>
        <time>2019-11-24T10:39:46Z</time>
      </trkpt>
      <trkpt lat="47.05324" lon="-0.83357">
        <ele>200.355</ele>
        <time>2019-11-24T10:39:49Z</time>
      </trkpt>
      <trkpt lat="47.05314" lon="-0.83353">
        <ele>200.321</ele>
        <time>2019-11-24T10:39:53Z</time>
      </trkpt>
      <trkpt lat="47.05307" lon="-0.83344">
        <ele>200.288</ele>
        <time>2019-11-24T10:39:56Z</time>
      </trkpt>
      <trkpt lat="47.05302" lon="-0.83341">
        <ele>200.256</ele>
        <time>2019-11-24T10:39:59Z</time>
      </trkpt>
      <trkpt lat="47.05298" lon="-0.83337">
        <ele>200.235</ele>
        <time>2019-11-24T10:40:02Z</time>
      </trkpt>
      <trkpt lat="47.05298" lon="-0.83337">
        <ele>200.235</ele>
        <time>2019-11-24T10:40:07Z</time>
      </trkpt>
      <trkpt lat="47.05296" lon="-0.83335">
        <ele>200.193</ele>
        <time>2019-11-24T10:40:08Z</time>
      </trkpt>
      <trkpt lat="47.05294" lon="-0.83327">
        <ele>200.155</ele>
        <time>2019-11-24T10:40:12Z</time>
      </trkpt>
      <trkpt lat="47.05289" lon="-0.83324">
        <ele>200.124</ele>
        <time>2019-11-24T10:40:16Z</time>
      </trkpt>
      <trkpt lat="47.05286" lon="-0.83315">
        <ele>200.071</ele>
        <time>2019-11-24T10:40:22Z</time>
      </trkpt>
      <trkpt lat="47.05283" lon="-0.83308">
        <ele>200.038</ele>
        <time>2019-11-24T10:40:25Z</time>
      </trkpt>
      <trkpt lat="47.05281" lon="-0.83304">
        <ele>200.027</ele>
        <time>2019-11-24T10:40:26Z</time>
      </trkpt>
      <trkpt lat="47.0528" lon="-0.83301">
        <ele>200.016</ele>
        <time>2019-11-24T10:40:28Z</time>
      </trkpt>
      <trkpt lat="47.05277" lon="-0.83295">
        <ele>199.963</ele>
        <time>2019-11-24T10:40:35Z</time>
      </trkpt>
      <trkpt lat="47.05275" lon="-0.83291">
        <ele>199.939</ele>
        <time>2019-11-24T10:40:40Z</time>
      </trkpt>
      <trkpt lat="47.05274" lon="-0.83305">
        <ele>199.711</ele>
        <time>2019-11-24T10:41:13Z</time>
      </trkpt>
      <trkpt lat="47.05278" lon="-0.8331">
        <ele>199.69</ele>
        <time>2019-11-24T10:41:16Z</time>
      </trkpt>
      <trkpt lat="47.05281" lon="-0.83317">
        <ele>199.663</ele>
        <time>2019-11-24T10:41:20Z</time>
      </trkpt>
      <trkpt lat="47.05284" lon="-0.83324">
        <ele>199.638</ele>
        <time>2019-11-24T10:41:24Z</time>
      </trkpt>
      <trkpt lat="47.05285" lon="-0.8333">
        <ele>199.613</ele>
        <time>2019-11-24T10:41:29Z</time>
      </trkpt>
      <trkpt lat="47.05288" lon="-0.83335">
        <ele>199.59</ele>
        <time>2019-11-24T10:41:33Z</time>
      </trkpt>
      <trkpt lat="47.05291" lon="-0.8334">
        <ele>199.574</ele>
        <time>2019-11-24T10:41:36Z</time>
      </trkpt>
      <trkpt lat="47.05293" lon="-0.83344">
        <ele>199.559</ele>
        <time>2019-11-24T10:41:39Z</time>
      </trkpt>
      <trkpt lat="47.05295" lon="-0.83352">
        <ele>199.54</ele>
        <time>2019-11-24T10:41:43Z</time>
      </trkpt>
      <trkpt lat="47.05298" lon="-0.83358">
        <ele>199.518</ele>
        <time>2019-11-24T10:41:48Z</time>
      </trkpt>
      <trkpt lat="47.05301" lon="-0.83365">
        <ele>199.499</ele>
        <time>2019-11-24T10:41:52Z</time>
      </trkpt>
      <trkpt lat="47.05302" lon="-0.8337">
        <ele>199.485</ele>
        <time>2019-11-24T10:41:55Z</time>
      </trkpt>
      <trkpt lat="47.05306" lon="-0.83375">
        <ele>199.457</ele>
        <time>2019-11-24T10:42:01Z</time>
      </trkpt>
      <trkpt lat="47.05309" lon="-0.83379">
        <ele>199.442</ele>
        <time>2019-11-24T10:42:04Z</time>
      </trkpt>
      <trkpt lat="47.05311" lon="-0.83389">
        <ele>199.421</ele>
        <time>2019-11-24T10:42:08Z</time>
      </trkpt>
      <trkpt lat="47.05315" lon="-0.83394">
        <ele>199.411</ele>
        <time>2019-11-24T10:42:10Z</time>
      </trkpt>
      <trkpt lat="47.05318" lon="-0.83398">
        <ele>199.402</ele>
        <time>2019-11-24T10:42:12Z</time>
      </trkpt>
      <trkpt lat="47.05323" lon="-0.83399">
        <ele>199.371</ele>
        <time>2019-11-24T10:42:18Z</time>
      </trkpt>
      <trkpt lat="47.05321" lon="-0.8341">
        <ele>199.33</ele>
        <time>2019-11-24T10:42:23Z</time>
      </trkpt>
      <trkpt lat="47.05317" lon="-0.83414">
        <ele>199.31</ele>
        <time>2019-11-24T10:42:25Z</time>
      </trkpt>
      <trkpt lat="47.05314" lon="-0.83416">
        <ele>199.288</ele>
        <time>2019-11-24T10:42:27Z</time>
      </trkpt>
      <trkpt lat="47.05311" lon="-0.83419">
        <ele>199.266</ele>
        <time>2019-11-24T10:42:29Z</time>
      </trkpt>
      <trkpt lat="47.05308" lon="-0.83424">
        <ele>199.234</ele>
        <time>2019-11-24T10:42:32Z</time>
      </trkpt>
      <trkpt lat="47.05306" lon="-0.83426">
        <ele>199.213</ele>
        <time>2019-11-24T10:42:34Z</time>
      </trkpt>
      <trkpt lat="47.05302" lon="-0.83429">
        <ele>199.182</ele>
        <time>2019-11-24T10:42:37Z</time>
      </trkpt>
      <trkpt lat="47.05299" lon="-0.83431">
        <ele>199.162</ele>
        <time>2019-11-24T10:42:39Z</time>
      </trkpt>
      <trkpt lat="47.05296" lon="-0.83433">
        <ele>199.131</ele>
        <time>2019-11-24T10:42:42Z</time>
      </trkpt>
      <trkpt lat="47.05292" lon="-0.83437">
        <ele>199.09</ele>
        <time>2019-11-24T10:42:46Z</time>
      </trkpt>
      <trkpt lat="47.05287" lon="-0.83439">
        <ele>199.053</ele>
        <time>2019-11-24T10:42:50Z</time>
      </trkpt>
      <trkpt lat="47.05285" lon="-0.83441">
        <ele>199.027</ele>
        <time>2019-11-24T10:42:53Z</time>
      </trkpt>
      <trkpt lat="47.05282" lon="-0.83442">
        <ele>199.01</ele>
        <time>2019-11-24T10:42:55Z</time>
      </trkpt>
      <trkpt lat="47.05278" lon="-0.83443">
        <ele>198.984</ele>
        <time>2019-11-24T10:42:58Z</time>
      </trkpt>
      <trkpt lat="47.05274" lon="-0.83446">
        <ele>198.95</ele>
        <time>2019-11-24T10:43:02Z</time>
      </trkpt>
      <trkpt lat="47.05271" lon="-0.83448">
        <ele>198.924</ele>
        <time>2019-11-24T10:43:05Z</time>
      </trkpt>
      <trkpt lat="47.05268" lon="-0.8345">
        <ele>198.906</ele>
        <time>2019-11-24T10:43:07Z</time>
      </trkpt>
      <trkpt lat="47.05266" lon="-0.83452">
        <ele>198.889</ele>
        <time>2019-11-24T10:43:09Z</time>
      </trkpt>
      <trkpt lat="47.05263" lon="-0.83454">
        <ele>198.873</ele>
        <time>2019-11-24T10:43:11Z</time>
      </trkpt>
      <trkpt lat="47.05258" lon="-0.83458">
        <ele>198.84</ele>
        <time>2019-11-24T10:43:15Z</time>
      </trkpt>
      <trkpt lat="47.05255" lon="-0.83461">
        <ele>198.817</ele>
        <time>2019-11-24T10:43:18Z</time>
      </trkpt>
      <trkpt lat="47.05252" lon="-0.83464">
        <ele>198.792</ele>
        <time>2019-11-24T10:43:21Z</time>
      </trkpt>
      <trkpt lat="47.05248" lon="-0.83465">
        <ele>198.768</ele>
        <time>2019-11-24T10:43:24Z</time>
      </trkpt>
      <trkpt lat="47.05245" lon="-0.83465">
        <ele>198.752</ele>
        <time>2019-11-24T10:43:26Z</time>
      </trkpt>
      <trkpt lat="47.0524" lon="-0.83466">
        <ele>198.72</ele>
        <time>2019-11-24T10:43:30Z</time>
      </trkpt>
      <trkpt lat="47.05237" lon="-0.83467">
        <ele>198.695</ele>
        <time>2019-11-24T10:43:33Z</time>
      </trkpt>
      <trkpt lat="47.05234" lon="-0.83468">
        <ele>198.677</ele>
        <time>2019-11-24T10:43:35Z</time>
      </trkpt>
      <trkpt lat="47.0523" lon="-0.83469">
        <ele>198.632</ele>
        <time>2019-11-24T10:43:40Z</time>
      </trkpt>
      <trkpt lat="47.05225" lon="-0.83465">
        <ele>198.582</ele>
        <time>2019-11-24T10:43:45Z</time>
      </trkpt>
      <trkpt lat="47.05222" lon="-0.83461">
        <ele>198.533</ele>
        <time>2019-11-24T10:43:50Z</time>
      </trkpt>
      <trkpt lat="47.0522" lon="-0.83458">
        <ele>198.513</ele>
        <time>2019-11-24T10:43:52Z</time>
      </trkpt>
      <trkpt lat="47.05216" lon="-0.83454">
        <ele>198.469</ele>
        <time>2019-11-24T10:43:56Z</time>
      </trkpt>
      <trkpt lat="47.05212" lon="-0.83448">
        <ele>198.416</ele>
        <time>2019-11-24T10:44:00Z</time>
      </trkpt>
      <trkpt lat="47.0521" lon="-0.8344">
        <ele>198.374</ele>
        <time>2019-11-24T10:44:03Z</time>
      </trkpt>
      <trkpt lat="47.0521" lon="-0.83433">
        <ele>198.331</ele>
        <time>2019-11-24T10:44:06Z</time>
      </trkpt>
      <trkpt lat="47.05207" lon="-0.83427">
        <ele>198.243</ele>
        <time>2019-11-24T10:44:12Z</time>
      </trkpt>
      <trkpt lat="47.05203" lon="-0.83422">
        <ele>198.185</ele>
        <time>2019-11-24T10:44:16Z</time>
      </trkpt>
      <trkpt lat="47.05199" lon="-0.8342">
        <ele>198.127</ele>
        <time>2019-11-24T10:44:20Z</time>
      </trkpt>
      <trkpt lat="47.05194" lon="-0.83419">
        <ele>198.068</ele>
        <time>2019-11-24T10:44:24Z</time>
      </trkpt>
      <trkpt lat="47.05188" lon="-0.83415">
        <ele>197.985</ele>
        <time>2019-11-24T10:44:30Z</time>
      </trkpt>
      <trkpt lat="47.05183" lon="-0.83413">
        <ele>197.948</ele>
        <time>2019-11-24T10:44:33Z</time>
      </trkpt>
      <trkpt lat="47.0518" lon="-0.83412">
        <ele>197.916</ele>
        <time>2019-11-24T10:44:36Z</time>
      </trkpt>
      <trkpt lat="47.05176" lon="-0.83411">
        <ele>197.867</ele>
        <time>2019-11-24T10:44:41Z</time>
      </trkpt>
      <trkpt lat="47.05173" lon="-0.8341">
        <ele>197.838</ele>
        <time>2019-11-24T10:44:44Z</time>
      </trkpt>
      <trkpt lat="47.05167" lon="-0.83411">
        <ele>197.8</ele>
        <time>2019-11-24T10:44:48Z</time>
      </trkpt>
      <trkpt lat="47.05163" lon="-0.83413">
        <ele>197.763</ele>
        <time>2019-11-24T10:44:52Z</time>
      </trkpt>
      <trkpt lat="47.05158" lon="-0.83414">
        <ele>197.737</ele>
        <time>2019-11-24T10:44:55Z</time>
      </trkpt>
      <trkpt lat="47.05155" lon="-0.83415">
        <ele>197.719</ele>
        <time>2019-11-24T10:44:57Z</time>
      </trkpt>
      <trkpt lat="47.05152" lon="-0.83416">
        <ele>197.7</ele>
        <time>2019-11-24T10:44:59Z</time>
      </trkpt>
      <trkpt lat="47.05148" lon="-0.83417">
        <ele>197.675</ele>
        <time>2019-11-24T10:45:02Z</time>
      </trkpt>
      <trkpt lat="47.05142" lon="-0.83417">
        <ele>197.636</ele>
        <time>2019-11-24T10:45:07Z</time>
      </trkpt>
      <trkpt lat="47.05139" lon="-0.83417">
        <ele>197.606</ele>
        <time>2019-11-24T10:45:11Z</time>
      </trkpt>
      <trkpt lat="47.05134" lon="-0.83418">
        <ele>197.575</ele>
        <time>2019-11-24T10:45:15Z</time>
      </trkpt>
      <trkpt lat="47.05131" lon="-0.83419">
        <ele>197.56</ele>
        <time>2019-11-24T10:45:17Z</time>
      </trkpt>
      <trkpt lat="47.05126" lon="-0.83419">
        <ele>197.533</ele>
        <time>2019-11-24T10:45:21Z</time>
      </trkpt>
      <trkpt lat="47.0512" lon="-0.8342">
        <ele>197.498</ele>
        <time>2019-11-24T10:45:26Z</time>
      </trkpt>
      <trkpt lat="47.05116" lon="-0.83419">
        <ele>197.477</ele>
        <time>2019-11-24T10:45:29Z</time>
      </trkpt>
      <trkpt lat="47.05113" lon="-0.83418">
        <ele>197.463</ele>
        <time>2019-11-24T10:45:31Z</time>
      </trkpt>
      <trkpt lat="47.0511" lon="-0.83418">
        <ele>197.44</ele>
        <time>2019-11-24T10:45:34Z</time>
      </trkpt>
      <trkpt lat="47.05105" lon="-0.83419">
        <ele>197.413</ele>
        <time>2019-11-24T10:45:38Z</time>
      </trkpt>
      <trkpt lat="47.05099" lon="-0.83418">
        <ele>197.392</ele>
        <time>2019-11-24T10:45:41Z</time>
      </trkpt>
      <trkpt lat="47.05094" lon="-0.83416">
        <ele>197.367</ele>
        <time>2019-11-24T10:45:45Z</time>
      </trkpt>
      <trkpt lat="47.05092" lon="-0.83415">
        <ele>197.356</ele>
        <time>2019-11-24T10:45:47Z</time>
      </trkpt>
      <trkpt lat="47.05089" lon="-0.83414">
        <ele>197.347</ele>
        <time>2019-11-24T10:45:49Z</time>
      </trkpt>
      <trkpt lat="47.05084" lon="-0.83412">
        <ele>197.331</ele>
        <time>2019-11-24T10:45:53Z</time>
      </trkpt>
      <trkpt lat="47.05079" lon="-0.83412">
        <ele>197.31</ele>
        <time>2019-11-24T10:45:57Z</time>
      </trkpt>
      <trkpt lat="47.05073" lon="-0.83412">
        <ele>197.253</ele>
        <time>2019-11-24T10:46:04Z</time>
      </trkpt>
      <trkpt lat="47.05069" lon="-0.83416">
        <ele>197.217</ele>
        <time>2019-11-24T10:46:07Z</time>
      </trkpt>
      <trkpt lat="47.05065" lon="-0.8342">
        <ele>197.162</ele>
        <time>2019-11-24T10:46:11Z</time>
      </trkpt>
      <trkpt lat="47.05063" lon="-0.83422">
        <ele>197.135</ele>
        <time>2019-11-24T10:46:13Z</time>
      </trkpt>
      <trkpt lat="47.05061" lon="-0.83424">
        <ele>197.107</ele>
        <time>2019-11-24T10:46:15Z</time>
      </trkpt>
      <trkpt lat="47.05055" lon="-0.83427">
        <ele>197.024</ele>
        <time>2019-11-24T10:46:21Z</time>
      </trkpt>
      <trkpt lat="47.05051" lon="-0.8343">
        <ele>196.97</ele>
        <time>2019-11-24T10:46:25Z</time>
      </trkpt>
      <trkpt lat="47.05049" lon="-0.83432">
        <ele>196.941</ele>
        <time>2019-11-24T10:46:27Z</time>
      </trkpt>
      <trkpt lat="47.05046" lon="-0.83434">
        <ele>196.912</ele>
        <time>2019-11-24T10:46:29Z</time>
      </trkpt>
      <trkpt lat="47.05041" lon="-0.83436">
        <ele>196.854</ele>
        <time>2019-11-24T10:46:33Z</time>
      </trkpt>
      <trkpt lat="47.05038" lon="-0.83438">
        <ele>196.826</ele>
        <time>2019-11-24T10:46:35Z</time>
      </trkpt>
      <trkpt lat="47.05033" lon="-0.83439">
        <ele>196.769</ele>
        <time>2019-11-24T10:46:39Z</time>
      </trkpt>
      <trkpt lat="47.0503" lon="-0.83439">
        <ele>196.742</ele>
        <time>2019-11-24T10:46:41Z</time>
      </trkpt>
      <trkpt lat="47.05028" lon="-0.83439">
        <ele>196.714</ele>
        <time>2019-11-24T10:46:43Z</time>
      </trkpt>
      <trkpt lat="47.05023" lon="-0.83443">
        <ele>196.662</ele>
        <time>2019-11-24T10:46:47Z</time>
      </trkpt>
      <trkpt lat="47.05019" lon="-0.83444">
        <ele>196.625</ele>
        <time>2019-11-24T10:46:50Z</time>
      </trkpt>
      <trkpt lat="47.05014" lon="-0.83446">
        <ele>196.579</ele>
        <time>2019-11-24T10:46:54Z</time>
      </trkpt>
      <trkpt lat="47.05009" lon="-0.83447">
        <ele>196.534</ele>
        <time>2019-11-24T10:46:58Z</time>
      </trkpt>
      <trkpt lat="47.05007" lon="-0.83448">
        <ele>196.501</ele>
        <time>2019-11-24T10:47:01Z</time>
      </trkpt>
      <trkpt lat="47.05003" lon="-0.83449">
        <ele>196.481</ele>
        <time>2019-11-24T10:47:03Z</time>
      </trkpt>
      <trkpt lat="47.05" lon="-0.8345">
        <ele>196.45</ele>
        <time>2019-11-24T10:47:06Z</time>
      </trkpt>
      <trkpt lat="47.04993" lon="-0.83458">
        <ele>196.386</ele>
        <time>2019-11-24T10:47:12Z</time>
      </trkpt>
      <trkpt lat="47.04989" lon="-0.83462">
        <ele>196.366</ele>
        <time>2019-11-24T10:47:14Z</time>
      </trkpt>
      <trkpt lat="47.04985" lon="-0.83465">
        <ele>196.345</ele>
        <time>2019-11-24T10:47:16Z</time>
      </trkpt>
      <trkpt lat="47.0498" lon="-0.83468">
        <ele>196.315</ele>
        <time>2019-11-24T10:47:19Z</time>
      </trkpt>
      <trkpt lat="47.04976" lon="-0.83471">
        <ele>196.296</ele>
        <time>2019-11-24T10:47:21Z</time>
      </trkpt>
      <trkpt lat="47.04973" lon="-0.83473">
        <ele>196.277</ele>
        <time>2019-11-24T10:47:23Z</time>
      </trkpt>
      <trkpt lat="47.04969" lon="-0.83478">
        <ele>196.24</ele>
        <time>2019-11-24T10:47:27Z</time>
      </trkpt>
      <trkpt lat="47.04967" lon="-0.83481">
        <ele>196.223</ele>
        <time>2019-11-24T10:47:29Z</time>
      </trkpt>
      <trkpt lat="47.04963" lon="-0.83487">
        <ele>196.198</ele>
        <time>2019-11-24T10:47:32Z</time>
      </trkpt>
      <trkpt lat="47.04959" lon="-0.8349">
        <ele>196.166</ele>
        <time>2019-11-24T10:47:36Z</time>
      </trkpt>
      <trkpt lat="47.04956" lon="-0.83491">
        <ele>196.149</ele>
        <time>2019-11-24T10:47:38Z</time>
      </trkpt>
      <trkpt lat="47.04951" lon="-0.83495">
        <ele>196.118</ele>
        <time>2019-11-24T10:47:42Z</time>
      </trkpt>
      <trkpt lat="47.04947" lon="-0.83499">
        <ele>196.096</ele>
        <time>2019-11-24T10:47:45Z</time>
      </trkpt>
      <trkpt lat="47.04942" lon="-0.83502">
        <ele>196.067</ele>
        <time>2019-11-24T10:47:49Z</time>
      </trkpt>
      <trkpt lat="47.0494" lon="-0.83503">
        <ele>196.053</ele>
        <time>2019-11-24T10:47:51Z</time>
      </trkpt>
      <trkpt lat="47.04937" lon="-0.83505">
        <ele>196.039</ele>
        <time>2019-11-24T10:47:53Z</time>
      </trkpt>
      <trkpt lat="47.04934" lon="-0.8351">
        <ele>196.018</ele>
        <time>2019-11-24T10:47:56Z</time>
      </trkpt>
      <trkpt lat="47.0493" lon="-0.83515">
        <ele>195.992</ele>
        <time>2019-11-24T10:48:00Z</time>
      </trkpt>
      <trkpt lat="47.0493" lon="-0.83515">
        <ele>195.968</ele>
        <time>2019-11-24T10:48:07Z</time>
      </trkpt>
      <trkpt lat="47.04926" lon="-0.8352">
        <ele>195.873</ele>
        <time>2019-11-24T10:48:42Z</time>
      </trkpt>
      <trkpt lat="47.04922" lon="-0.83523">
        <ele>195.833</ele>
        <time>2019-11-24T10:48:45Z</time>
      </trkpt>
      <trkpt lat="47.04918" lon="-0.83527">
        <ele>195.794</ele>
        <time>2019-11-24T10:48:48Z</time>
      </trkpt>
      <trkpt lat="47.04915" lon="-0.83529">
        <ele>195.766</ele>
        <time>2019-11-24T10:48:50Z</time>
      </trkpt>
      <trkpt lat="47.04913" lon="-0.83532">
        <ele>195.739</ele>
        <time>2019-11-24T10:48:52Z</time>
      </trkpt>
      <trkpt lat="47.0491" lon="-0.83535">
        <ele>195.712</ele>
        <time>2019-11-24T10:48:54Z</time>
      </trkpt>
      <trkpt lat="47.04905" lon="-0.83538">
        <ele>195.658</ele>
        <time>2019-11-24T10:48:58Z</time>
      </trkpt>
      <trkpt lat="47.04903" lon="-0.8354">
        <ele>195.632</ele>
        <time>2019-11-24T10:49:00Z</time>
      </trkpt>
      <trkpt lat="47.04896" lon="-0.83542">
        <ele>195.567</ele>
        <time>2019-11-24T10:49:05Z</time>
      </trkpt>
      <trkpt lat="47.04891" lon="-0.83543">
        <ele>195.514</ele>
        <time>2019-11-24T10:49:09Z</time>
      </trkpt>
      <trkpt lat="47.04887" lon="-0.83546">
        <ele>195.477</ele>
        <time>2019-11-24T10:49:12Z</time>
      </trkpt>
      <trkpt lat="47.04884" lon="-0.83548">
        <ele>195.453</ele>
        <time>2019-11-24T10:49:14Z</time>
      </trkpt>
      <trkpt lat="47.04879" lon="-0.83552">
        <ele>195.406</ele>
        <time>2019-11-24T10:49:18Z</time>
      </trkpt>
      <trkpt lat="47.04873" lon="-0.83555">
        <ele>195.373</ele>
        <time>2019-11-24T10:49:21Z</time>
      </trkpt>
      <trkpt lat="47.04869" lon="-0.83558">
        <ele>195.343</ele>
        <time>2019-11-24T10:49:24Z</time>
      </trkpt>
      <trkpt lat="47.04865" lon="-0.83564">
        <ele>195.304</ele>
        <time>2019-11-24T10:49:28Z</time>
      </trkpt>
      <trkpt lat="47.04863" lon="-0.83572">
        <ele>195.277</ele>
        <time>2019-11-24T10:49:31Z</time>
      </trkpt>
      <trkpt lat="47.04863" lon="-0.83579">
        <ele>195.252</ele>
        <time>2019-11-24T10:49:34Z</time>
      </trkpt>
      <trkpt lat="47.04864" lon="-0.83583">
        <ele>195.237</ele>
        <time>2019-11-24T10:49:36Z</time>
      </trkpt>
      <trkpt lat="47.04865" lon="-0.83591">
        <ele>195.215</ele>
        <time>2019-11-24T10:49:39Z</time>
      </trkpt>
      <trkpt lat="47.04866" lon="-0.83596">
        <ele>195.195</ele>
        <time>2019-11-24T10:49:42Z</time>
      </trkpt>
      <trkpt lat="47.04867" lon="-0.836">
        <ele>195.183</ele>
        <time>2019-11-24T10:49:44Z</time>
      </trkpt>
      <trkpt lat="47.04868" lon="-0.83605">
        <ele>195.171</ele>
        <time>2019-11-24T10:49:46Z</time>
      </trkpt>
      <trkpt lat="47.0487" lon="-0.83612">
        <ele>195.154</ele>
        <time>2019-11-24T10:49:49Z</time>
      </trkpt>
      <trkpt lat="47.04873" lon="-0.83619">
        <ele>195.133</ele>
        <time>2019-11-24T10:49:53Z</time>
      </trkpt>
      <trkpt lat="47.04876" lon="-0.83626">
        <ele>195.112</ele>
        <time>2019-11-24T10:49:57Z</time>
      </trkpt>
      <trkpt lat="47.04876" lon="-0.83629">
        <ele>195.101</ele>
        <time>2019-11-24T10:49:59Z</time>
      </trkpt>
      <trkpt lat="47.04877" lon="-0.83633">
        <ele>195.091</ele>
        <time>2019-11-24T10:50:01Z</time>
      </trkpt>
      <trkpt lat="47.04879" lon="-0.83639">
        <ele>195.075</ele>
        <time>2019-11-24T10:50:04Z</time>
      </trkpt>
      <trkpt lat="47.04881" lon="-0.83647">
        <ele>195.052</ele>
        <time>2019-11-24T10:50:08Z</time>
      </trkpt>
      <trkpt lat="47.04881" lon="-0.83655">
        <ele>195.031</ele>
        <time>2019-11-24T10:50:12Z</time>
      </trkpt>
      <trkpt lat="47.0488" lon="-0.83662">
        <ele>195.011</ele>
        <time>2019-11-24T10:50:16Z</time>
      </trkpt>
      <trkpt lat="47.04879" lon="-0.83666">
        <ele>195.001</ele>
        <time>2019-11-24T10:50:18Z</time>
      </trkpt>
      <trkpt lat="47.04877" lon="-0.83673">
        <ele>194.987</ele>
        <time>2019-11-24T10:50:21Z</time>
      </trkpt>
      <trkpt lat="47.04875" lon="-0.83677">
        <ele>194.976</ele>
        <time>2019-11-24T10:50:23Z</time>
      </trkpt>
      <trkpt lat="47.04872" lon="-0.83683">
        <ele>194.96</ele>
        <time>2019-11-24T10:50:26Z</time>
      </trkpt>
      <trkpt lat="47.04868" lon="-0.83688">
        <ele>194.938</ele>
        <time>2019-11-24T10:50:30Z</time>
      </trkpt>
      <trkpt lat="47.04865" lon="-0.83691">
        <ele>194.927</ele>
        <time>2019-11-24T10:50:32Z</time>
      </trkpt>
      <trkpt lat="47.04861" lon="-0.83694">
        <ele>194.904</ele>
        <time>2019-11-24T10:50:36Z</time>
      </trkpt>
      <trkpt lat="47.04858" lon="-0.83696">
        <ele>194.892</ele>
        <time>2019-11-24T10:50:38Z</time>
      </trkpt>
      <trkpt lat="47.04855" lon="-0.83697">
        <ele>194.88</ele>
        <time>2019-11-24T10:50:40Z</time>
      </trkpt>
      <trkpt lat="47.04852" lon="-0.83698">
        <ele>194.867</ele>
        <time>2019-11-24T10:50:42Z</time>
      </trkpt>
      <trkpt lat="47.04849" lon="-0.837">
        <ele>194.855</ele>
        <time>2019-11-24T10:50:44Z</time>
      </trkpt>
      <trkpt lat="47.04846" lon="-0.83702">
        <ele>194.842</ele>
        <time>2019-11-24T10:50:46Z</time>
      </trkpt>
      <trkpt lat="47.04843" lon="-0.83703">
        <ele>194.829</ele>
        <time>2019-11-24T10:50:48Z</time>
      </trkpt>
      <trkpt lat="47.04841" lon="-0.83705">
        <ele>194.816</ele>
        <time>2019-11-24T10:50:50Z</time>
      </trkpt>
      <trkpt lat="47.04836" lon="-0.83708">
        <ele>194.788</ele>
        <time>2019-11-24T10:50:54Z</time>
      </trkpt>
      <trkpt lat="47.04834" lon="-0.8371">
        <ele>194.773</ele>
        <time>2019-11-24T10:50:56Z</time>
      </trkpt>
      <trkpt lat="47.04829" lon="-0.83713">
        <ele>194.745</ele>
        <time>2019-11-24T10:51:00Z</time>
      </trkpt>
      <trkpt lat="47.04827" lon="-0.83714">
        <ele>194.73</ele>
        <time>2019-11-24T10:51:02Z</time>
      </trkpt>
      <trkpt lat="47.04824" lon="-0.83716">
        <ele>194.715</ele>
        <time>2019-11-24T10:51:04Z</time>
      </trkpt>
      <trkpt lat="47.04821" lon="-0.83718">
        <ele>194.7</ele>
        <time>2019-11-24T10:51:06Z</time>
      </trkpt>
      <trkpt lat="47.04818" lon="-0.8372">
        <ele>194.685</ele>
        <time>2019-11-24T10:51:08Z</time>
      </trkpt>
      <trkpt lat="47.04813" lon="-0.83721">
        <ele>194.654</ele>
        <time>2019-11-24T10:51:12Z</time>
      </trkpt>
      <trkpt lat="47.0481" lon="-0.83723">
        <ele>194.631</ele>
        <time>2019-11-24T10:51:15Z</time>
      </trkpt>
      <trkpt lat="47.04805" lon="-0.83724">
        <ele>194.607</ele>
        <time>2019-11-24T10:51:18Z</time>
      </trkpt>
      <trkpt lat="47.04803" lon="-0.83725">
        <ele>194.591</ele>
        <time>2019-11-24T10:51:20Z</time>
      </trkpt>
      <trkpt lat="47.04798" lon="-0.83729">
        <ele>194.559</ele>
        <time>2019-11-24T10:51:24Z</time>
      </trkpt>
      <trkpt lat="47.04795" lon="-0.83731">
        <ele>194.534</ele>
        <time>2019-11-24T10:51:27Z</time>
      </trkpt>
      <trkpt lat="47.04792" lon="-0.83732">
        <ele>194.517</ele>
        <time>2019-11-24T10:51:29Z</time>
      </trkpt>
      <trkpt lat="47.04789" lon="-0.83734">
        <ele>194.492</ele>
        <time>2019-11-24T10:51:32Z</time>
      </trkpt>
      <trkpt lat="47.04786" lon="-0.83735">
        <ele>194.476</ele>
        <time>2019-11-24T10:51:34Z</time>
      </trkpt>
      <trkpt lat="47.04783" lon="-0.83737">
        <ele>194.46</ele>
        <time>2019-11-24T10:51:36Z</time>
      </trkpt>
      <trkpt lat="47.04781" lon="-0.83738">
        <ele>194.444</ele>
        <time>2019-11-24T10:51:38Z</time>
      </trkpt>
      <trkpt lat="47.04775" lon="-0.8374">
        <ele>194.412</ele>
        <time>2019-11-24T10:51:42Z</time>
      </trkpt>
      <trkpt lat="47.04772" lon="-0.83742">
        <ele>194.397</ele>
        <time>2019-11-24T10:51:44Z</time>
      </trkpt>
      <trkpt lat="47.04769" lon="-0.83743">
        <ele>194.381</ele>
        <time>2019-11-24T10:51:46Z</time>
      </trkpt>
      <trkpt lat="47.04766" lon="-0.83745">
        <ele>194.366</ele>
        <time>2019-11-24T10:51:48Z</time>
      </trkpt>
      <trkpt lat="47.04762" lon="-0.83747">
        <ele>194.343</ele>
        <time>2019-11-24T10:51:51Z</time>
      </trkpt>
      <trkpt lat="47.04759" lon="-0.83749">
        <ele>194.329</ele>
        <time>2019-11-24T10:51:53Z</time>
      </trkpt>
      <trkpt lat="47.04757" lon="-0.8375">
        <ele>194.316</ele>
        <time>2019-11-24T10:51:55Z</time>
      </trkpt>
      <trkpt lat="47.04754" lon="-0.83751">
        <ele>194.303</ele>
        <time>2019-11-24T10:51:57Z</time>
      </trkpt>
      <trkpt lat="47.04751" lon="-0.83753">
        <ele>194.29</ele>
        <time>2019-11-24T10:51:59Z</time>
      </trkpt>
      <trkpt lat="47.04746" lon="-0.83756">
        <ele>194.266</ele>
        <time>2019-11-24T10:52:03Z</time>
      </trkpt>
      <trkpt lat="47.04742" lon="-0.83754">
        <ele>194.207</ele>
        <time>2019-11-24T10:52:09Z</time>
      </trkpt>
      <trkpt lat="47.04738" lon="-0.83757">
        <ele>194.173</ele>
        <time>2019-11-24T10:52:12Z</time>
      </trkpt>
      <trkpt lat="47.04735" lon="-0.83759">
        <ele>194.151</ele>
        <time>2019-11-24T10:52:14Z</time>
      </trkpt>
      <trkpt lat="47.04732" lon="-0.83761">
        <ele>194.128</ele>
        <time>2019-11-24T10:52:16Z</time>
      </trkpt>
      <trkpt lat="47.04729" lon="-0.83763">
        <ele>194.105</ele>
        <time>2019-11-24T10:52:18Z</time>
      </trkpt>
      <trkpt lat="47.04726" lon="-0.83765">
        <ele>194.083</ele>
        <time>2019-11-24T10:52:20Z</time>
      </trkpt>
      <trkpt lat="47.04724" lon="-0.83767">
        <ele>194.06</ele>
        <time>2019-11-24T10:52:22Z</time>
      </trkpt>
      <trkpt lat="47.04722" lon="-0.83768">
        <ele>194.038</ele>
        <time>2019-11-24T10:52:24Z</time>
      </trkpt>
      <trkpt lat="47.04719" lon="-0.83771">
        <ele>194.016</ele>
        <time>2019-11-24T10:52:26Z</time>
      </trkpt>
      <trkpt lat="47.04714" lon="-0.83774">
        <ele>193.973</ele>
        <time>2019-11-24T10:52:30Z</time>
      </trkpt>
      <trkpt lat="47.04711" lon="-0.83776">
        <ele>193.953</ele>
        <time>2019-11-24T10:52:32Z</time>
      </trkpt>
      <trkpt lat="47.04709" lon="-0.83778">
        <ele>193.932</ele>
        <time>2019-11-24T10:52:34Z</time>
      </trkpt>
      <trkpt lat="47.04704" lon="-0.83781">
        <ele>193.891</ele>
        <time>2019-11-24T10:52:38Z</time>
      </trkpt>
      <trkpt lat="47.04699" lon="-0.83782">
        <ele>193.863</ele>
        <time>2019-11-24T10:52:41Z</time>
      </trkpt>
      <trkpt lat="47.04694" lon="-0.83785">
        <ele>193.827</ele>
        <time>2019-11-24T10:52:45Z</time>
      </trkpt>
      <trkpt lat="47.04692" lon="-0.83787">
        <ele>193.809</ele>
        <time>2019-11-24T10:52:47Z</time>
      </trkpt>
      <trkpt lat="47.04689" lon="-0.83789">
        <ele>193.792</ele>
        <time>2019-11-24T10:52:49Z</time>
      </trkpt>
      <trkpt lat="47.04686" lon="-0.83791">
        <ele>193.774</ele>
        <time>2019-11-24T10:52:51Z</time>
      </trkpt>
      <trkpt lat="47.04681" lon="-0.83793">
        <ele>193.749</ele>
        <time>2019-11-24T10:52:54Z</time>
      </trkpt>
      <trkpt lat="47.04678" lon="-0.83794">
        <ele>193.732</ele>
        <time>2019-11-24T10:52:56Z</time>
      </trkpt>
      <trkpt lat="47.04673" lon="-0.83797">
        <ele>193.71</ele>
        <time>2019-11-24T10:52:59Z</time>
      </trkpt>
      <trkpt lat="47.04668" lon="-0.83799">
        <ele>193.681</ele>
        <time>2019-11-24T10:53:03Z</time>
      </trkpt>
      <trkpt lat="47.04665" lon="-0.838">
        <ele>193.664</ele>
        <time>2019-11-24T10:53:05Z</time>
      </trkpt>
      <trkpt lat="47.04661" lon="-0.83803">
        <ele>193.627</ele>
        <time>2019-11-24T10:53:09Z</time>
      </trkpt>
      <trkpt lat="47.04657" lon="-0.83807">
        <ele>193.598</ele>
        <time>2019-11-24T10:53:12Z</time>
      </trkpt>
      <trkpt lat="47.04654" lon="-0.83809">
        <ele>193.578</ele>
        <time>2019-11-24T10:53:14Z</time>
      </trkpt>
      <trkpt lat="47.04652" lon="-0.83811">
        <ele>193.559</ele>
        <time>2019-11-24T10:53:16Z</time>
      </trkpt>
      <trkpt lat="47.0465" lon="-0.83813">
        <ele>193.54</ele>
        <time>2019-11-24T10:53:18Z</time>
      </trkpt>
      <trkpt lat="47.04648" lon="-0.83815">
        <ele>193.521</ele>
        <time>2019-11-24T10:53:20Z</time>
      </trkpt>
      <trkpt lat="47.04645" lon="-0.83817">
        <ele>193.503</ele>
        <time>2019-11-24T10:53:22Z</time>
      </trkpt>
      <trkpt lat="47.04642" lon="-0.83819">
        <ele>193.475</ele>
        <time>2019-11-24T10:53:25Z</time>
      </trkpt>
      <trkpt lat="47.0464" lon="-0.83822">
        <ele>193.457</ele>
        <time>2019-11-24T10:53:27Z</time>
      </trkpt>
      <trkpt lat="47.04637" lon="-0.83824">
        <ele>193.439</ele>
        <time>2019-11-24T10:53:29Z</time>
      </trkpt>
      <trkpt lat="47.04633" lon="-0.83827">
        <ele>193.413</ele>
        <time>2019-11-24T10:53:32Z</time>
      </trkpt>
      <trkpt lat="47.04628" lon="-0.8383">
        <ele>193.389</ele>
        <time>2019-11-24T10:53:35Z</time>
      </trkpt>
      <trkpt lat="47.04624" lon="-0.83834">
        <ele>193.366</ele>
        <time>2019-11-24T10:53:38Z</time>
      </trkpt>
      <trkpt lat="47.04622" lon="-0.83836">
        <ele>193.35</ele>
        <time>2019-11-24T10:53:40Z</time>
      </trkpt>
      <trkpt lat="47.04618" lon="-0.83838">
        <ele>193.328</ele>
        <time>2019-11-24T10:53:43Z</time>
      </trkpt>
      <trkpt lat="47.04615" lon="-0.8384">
        <ele>193.314</ele>
        <time>2019-11-24T10:53:45Z</time>
      </trkpt>
      <trkpt lat="47.04612" lon="-0.83842">
        <ele>193.295</ele>
        <time>2019-11-24T10:53:48Z</time>
      </trkpt>
      <trkpt lat="47.04608" lon="-0.83844">
        <ele>193.276</ele>
        <time>2019-11-24T10:53:51Z</time>
      </trkpt>
      <trkpt lat="47.04605" lon="-0.83845">
        <ele>193.264</ele>
        <time>2019-11-24T10:53:53Z</time>
      </trkpt>
      <trkpt lat="47.04602" lon="-0.83847">
        <ele>193.252</ele>
        <time>2019-11-24T10:53:55Z</time>
      </trkpt>
      <trkpt lat="47.046" lon="-0.83849">
        <ele>193.241</ele>
        <time>2019-11-24T10:53:57Z</time>
      </trkpt>
      <trkpt lat="47.04597" lon="-0.8385">
        <ele>193.228</ele>
        <time>2019-11-24T10:53:59Z</time>
      </trkpt>
      <trkpt lat="47.04594" lon="-0.83852">
        <ele>193.215</ele>
        <time>2019-11-24T10:54:01Z</time>
      </trkpt>
      <trkpt lat="47.04592" lon="-0.83854">
        <ele>193.203</ele>
        <time>2019-11-24T10:54:03Z</time>
      </trkpt>
      <trkpt lat="47.04588" lon="-0.83857">
        <ele>193.185</ele>
        <time>2019-11-24T10:54:06Z</time>
      </trkpt>
      <trkpt lat="47.04585" lon="-0.83859">
        <ele>193.173</ele>
        <time>2019-11-24T10:54:08Z</time>
      </trkpt>
      <trkpt lat="47.04583" lon="-0.8386">
        <ele>193.162</ele>
        <time>2019-11-24T10:54:10Z</time>
      </trkpt>
      <trkpt lat="47.04581" lon="-0.83862">
        <ele>193.15</ele>
        <time>2019-11-24T10:54:12Z</time>
      </trkpt>
      <trkpt lat="47.04576" lon="-0.83863">
        <ele>193.091</ele>
        <time>2019-11-24T10:54:19Z</time>
      </trkpt>
      <trkpt lat="47.04574" lon="-0.83864">
        <ele>193.054</ele>
        <time>2019-11-24T10:54:22Z</time>
      </trkpt>
      <trkpt lat="47.04568" lon="-0.83867">
        <ele>193.009</ele>
        <time>2019-11-24T10:54:25Z</time>
      </trkpt>
      <trkpt lat="47.04564" lon="-0.83869">
        <ele>192.974</ele>
        <time>2019-11-24T10:54:27Z</time>
      </trkpt>
      <trkpt lat="47.04559" lon="-0.83873">
        <ele>192.92</ele>
        <time>2019-11-24T10:54:30Z</time>
      </trkpt>
      <trkpt lat="47.04557" lon="-0.83875">
        <ele>192.884</ele>
        <time>2019-11-24T10:54:32Z</time>
      </trkpt>
      <trkpt lat="47.04554" lon="-0.83877">
        <ele>192.847</ele>
        <time>2019-11-24T10:54:34Z</time>
      </trkpt>
      <trkpt lat="47.0455" lon="-0.83879">
        <ele>192.793</ele>
        <time>2019-11-24T10:54:37Z</time>
      </trkpt>
      <trkpt lat="47.04547" lon="-0.83881">
        <ele>192.756</ele>
        <time>2019-11-24T10:54:39Z</time>
      </trkpt>
      <trkpt lat="47.04544" lon="-0.83883">
        <ele>192.716</ele>
        <time>2019-11-24T10:54:41Z</time>
      </trkpt>
      <trkpt lat="47.04541" lon="-0.83885">
        <ele>192.674</ele>
        <time>2019-11-24T10:54:43Z</time>
      </trkpt>
      <trkpt lat="47.04536" lon="-0.8389">
        <ele>192.587</ele>
        <time>2019-11-24T10:54:47Z</time>
      </trkpt>
      <trkpt lat="47.04533" lon="-0.83892">
        <ele>192.544</ele>
        <time>2019-11-24T10:54:49Z</time>
      </trkpt>
      <trkpt lat="47.04529" lon="-0.83897">
        <ele>192.479</ele>
        <time>2019-11-24T10:54:52Z</time>
      </trkpt>
      <trkpt lat="47.04526" lon="-0.839">
        <ele>192.436</ele>
        <time>2019-11-24T10:54:54Z</time>
      </trkpt>
      <trkpt lat="47.04524" lon="-0.83903">
        <ele>192.393</ele>
        <time>2019-11-24T10:54:56Z</time>
      </trkpt>
      <trkpt lat="47.0452" lon="-0.83907">
        <ele>192.331</ele>
        <time>2019-11-24T10:54:59Z</time>
      </trkpt>
      <trkpt lat="47.04517" lon="-0.8391">
        <ele>192.292</ele>
        <time>2019-11-24T10:55:01Z</time>
      </trkpt>
      <trkpt lat="47.04512" lon="-0.83913">
        <ele>192.216</ele>
        <time>2019-11-24T10:55:05Z</time>
      </trkpt>
      <trkpt lat="47.04509" lon="-0.83915">
        <ele>192.179</ele>
        <time>2019-11-24T10:55:07Z</time>
      </trkpt>
      <trkpt lat="47.04507" lon="-0.83917">
        <ele>192.144</ele>
        <time>2019-11-24T10:55:09Z</time>
      </trkpt>
      <trkpt lat="47.04504" lon="-0.83918">
        <ele>192.108</ele>
        <time>2019-11-24T10:55:11Z</time>
      </trkpt>
      <trkpt lat="47.04501" lon="-0.83919">
        <ele>192.074</ele>
        <time>2019-11-24T10:55:13Z</time>
      </trkpt>
      <trkpt lat="47.04497" lon="-0.83923">
        <ele>192.008</ele>
        <time>2019-11-24T10:55:17Z</time>
      </trkpt>
      <trkpt lat="47.04491" lon="-0.83927">
        <ele>191.928</ele>
        <time>2019-11-24T10:55:22Z</time>
      </trkpt>
      <trkpt lat="47.04489" lon="-0.83928">
        <ele>191.897</ele>
        <time>2019-11-24T10:55:24Z</time>
      </trkpt>
      <trkpt lat="47.04485" lon="-0.83931">
        <ele>191.851</ele>
        <time>2019-11-24T10:55:27Z</time>
      </trkpt>
      <trkpt lat="47.04482" lon="-0.83933">
        <ele>191.82</ele>
        <time>2019-11-24T10:55:29Z</time>
      </trkpt>
      <trkpt lat="47.04479" lon="-0.83935">
        <ele>191.79</ele>
        <time>2019-11-24T10:55:31Z</time>
      </trkpt>
      <trkpt lat="47.04476" lon="-0.83937">
        <ele>191.76</ele>
        <time>2019-11-24T10:55:33Z</time>
      </trkpt>
      <trkpt lat="47.04474" lon="-0.83939">
        <ele>191.731</ele>
        <time>2019-11-24T10:55:35Z</time>
      </trkpt>
      <trkpt lat="47.04471" lon="-0.83942">
        <ele>191.702</ele>
        <time>2019-11-24T10:55:37Z</time>
      </trkpt>
      <trkpt lat="47.04469" lon="-0.83944">
        <ele>191.673</ele>
        <time>2019-11-24T10:55:39Z</time>
      </trkpt>
      <trkpt lat="47.04466" lon="-0.83946">
        <ele>191.644</ele>
        <time>2019-11-24T10:55:41Z</time>
      </trkpt>
      <trkpt lat="47.04464" lon="-0.83947">
        <ele>191.615</ele>
        <time>2019-11-24T10:55:43Z</time>
      </trkpt>
      <trkpt lat="47.04459" lon="-0.8395">
        <ele>191.558</ele>
        <time>2019-11-24T10:55:47Z</time>
      </trkpt>
      <trkpt lat="47.04456" lon="-0.83952">
        <ele>191.53</ele>
        <time>2019-11-24T10:55:49Z</time>
      </trkpt>
      <trkpt lat="47.04452" lon="-0.83955">
        <ele>191.475</ele>
        <time>2019-11-24T10:55:53Z</time>
      </trkpt>
      <trkpt lat="47.04448" lon="-0.83959">
        <ele>191.421</ele>
        <time>2019-11-24T10:55:57Z</time>
      </trkpt>
      <trkpt lat="47.04444" lon="-0.83961">
        <ele>191.355</ele>
        <time>2019-11-24T10:56:02Z</time>
      </trkpt>
      <trkpt lat="47.04438" lon="-0.83963">
        <ele>191.304</ele>
        <time>2019-11-24T10:56:06Z</time>
      </trkpt>
      <trkpt lat="47.04434" lon="-0.83967">
        <ele>191.268</ele>
        <time>2019-11-24T10:56:09Z</time>
      </trkpt>
      <trkpt lat="47.04429" lon="-0.8397">
        <ele>191.233</ele>
        <time>2019-11-24T10:56:12Z</time>
      </trkpt>
      <trkpt lat="47.04426" lon="-0.83974">
        <ele>191.199</ele>
        <time>2019-11-24T10:56:15Z</time>
      </trkpt>
      <trkpt lat="47.04421" lon="-0.83977">
        <ele>191.153</ele>
        <time>2019-11-24T10:56:19Z</time>
      </trkpt>
      <trkpt lat="47.04416" lon="-0.83977">
        <ele>191.115</ele>
        <time>2019-11-24T10:56:22Z</time>
      </trkpt>
      <trkpt lat="47.04413" lon="-0.83976">
        <ele>191.089</ele>
        <time>2019-11-24T10:56:24Z</time>
      </trkpt>
      <trkpt lat="47.0441" lon="-0.83976">
        <ele>191.061</ele>
        <time>2019-11-24T10:56:26Z</time>
      </trkpt>
      <trkpt lat="47.04404" lon="-0.83973">
        <ele>191.004</ele>
        <time>2019-11-24T10:56:30Z</time>
      </trkpt>
      <trkpt lat="47.044" lon="-0.8397">
        <ele>190.973</ele>
        <time>2019-11-24T10:56:32Z</time>
      </trkpt>
      <trkpt lat="47.04395" lon="-0.83965">
        <ele>190.942</ele>
        <time>2019-11-24T10:56:34Z</time>
      </trkpt>
      <trkpt lat="47.04392" lon="-0.83962">
        <ele>190.912</ele>
        <time>2019-11-24T10:56:36Z</time>
      </trkpt>
      <trkpt lat="47.04389" lon="-0.83955">
        <ele>190.87</ele>
        <time>2019-11-24T10:56:39Z</time>
      </trkpt>
      <trkpt lat="47.04387" lon="-0.8395">
        <ele>190.817</ele>
        <time>2019-11-24T10:56:43Z</time>
      </trkpt>
      <trkpt lat="47.04381" lon="-0.83943">
        <ele>190.741</ele>
        <time>2019-11-24T10:56:49Z</time>
      </trkpt>
      <trkpt lat="47.04376" lon="-0.83939">
        <ele>190.702</ele>
        <time>2019-11-24T10:56:52Z</time>
      </trkpt>
      <trkpt lat="47.04373" lon="-0.83934">
        <ele>190.662</ele>
        <time>2019-11-24T10:56:55Z</time>
      </trkpt>
      <trkpt lat="47.04369" lon="-0.8393">
        <ele>190.621</ele>
        <time>2019-11-24T10:56:58Z</time>
      </trkpt>
      <trkpt lat="47.04365" lon="-0.83926">
        <ele>190.579</ele>
        <time>2019-11-24T10:57:01Z</time>
      </trkpt>
      <trkpt lat="47.04361" lon="-0.8392">
        <ele>190.51</ele>
        <time>2019-11-24T10:57:06Z</time>
      </trkpt>
      <trkpt lat="47.04359" lon="-0.83918">
        <ele>190.468</ele>
        <time>2019-11-24T10:57:09Z</time>
      </trkpt>
      <trkpt lat="47.04356" lon="-0.83914">
        <ele>190.427</ele>
        <time>2019-11-24T10:57:12Z</time>
      </trkpt>
      <trkpt lat="47.04351" lon="-0.8391">
        <ele>190.385</ele>
        <time>2019-11-24T10:57:15Z</time>
      </trkpt>
      <trkpt lat="47.04347" lon="-0.83904">
        <ele>190.342</ele>
        <time>2019-11-24T10:57:18Z</time>
      </trkpt>
      <trkpt lat="47.04344" lon="-0.83901">
        <ele>190.314</ele>
        <time>2019-11-24T10:57:20Z</time>
      </trkpt>
      <trkpt lat="47.04342" lon="-0.83895">
        <ele>190.23</ele>
        <time>2019-11-24T10:57:26Z</time>
      </trkpt>
      <trkpt lat="47.04338" lon="-0.83889">
        <ele>190.145</ele>
        <time>2019-11-24T10:57:32Z</time>
      </trkpt>
      <trkpt lat="47.04333" lon="-0.83882">
        <ele>190.088</ele>
        <time>2019-11-24T10:57:36Z</time>
      </trkpt>
      <trkpt lat="47.04329" lon="-0.83877">
        <ele>190.02</ele>
        <time>2019-11-24T10:57:41Z</time>
      </trkpt>
      <trkpt lat="47.04326" lon="-0.83874">
        <ele>189.979</ele>
        <time>2019-11-24T10:57:44Z</time>
      </trkpt>
      <trkpt lat="47.04323" lon="-0.8387">
        <ele>189.952</ele>
        <time>2019-11-24T10:57:46Z</time>
      </trkpt>
      <trkpt lat="47.04321" lon="-0.83867">
        <ele>189.925</ele>
        <time>2019-11-24T10:57:48Z</time>
      </trkpt>
      <trkpt lat="47.04318" lon="-0.83864">
        <ele>189.898</ele>
        <time>2019-11-24T10:57:50Z</time>
      </trkpt>
      <trkpt lat="47.04316" lon="-0.83861">
        <ele>189.871</ele>
        <time>2019-11-24T10:57:52Z</time>
      </trkpt>
      <trkpt lat="47.04312" lon="-0.83855">
        <ele>189.819</ele>
        <time>2019-11-24T10:57:56Z</time>
      </trkpt>
      <trkpt lat="47.0431" lon="-0.83852">
        <ele>189.794</ele>
        <time>2019-11-24T10:57:58Z</time>
      </trkpt>
      <trkpt lat="47.04308" lon="-0.83849">
        <ele>189.757</ele>
        <time>2019-11-24T10:58:01Z</time>
      </trkpt>
      <trkpt lat="47.04306" lon="-0.83846">
        <ele>189.696</ele>
        <time>2019-11-24T10:58:06Z</time>
      </trkpt>
      <trkpt lat="47.04304" lon="-0.83841">
        <ele>189.672</ele>
        <time>2019-11-24T10:58:08Z</time>
      </trkpt>
      <trkpt lat="47.04302" lon="-0.83836">
        <ele>189.649</ele>
        <time>2019-11-24T10:58:10Z</time>
      </trkpt>
      <trkpt lat="47.043" lon="-0.8383">
        <ele>189.616</ele>
        <time>2019-11-24T10:58:13Z</time>
      </trkpt>
      <trkpt lat="47.04298" lon="-0.83822">
        <ele>189.583</ele>
        <time>2019-11-24T10:58:16Z</time>
      </trkpt>
      <trkpt lat="47.04295" lon="-0.83815">
        <ele>189.528</ele>
        <time>2019-11-24T10:58:21Z</time>
      </trkpt>
      <trkpt lat="47.04293" lon="-0.8381">
        <ele>189.506</ele>
        <time>2019-11-24T10:58:23Z</time>
      </trkpt>
      <trkpt lat="47.04292" lon="-0.83807">
        <ele>189.482</ele>
        <time>2019-11-24T10:58:25Z</time>
      </trkpt>
      <trkpt lat="47.04288" lon="-0.83801">
        <ele>189.434</ele>
        <time>2019-11-24T10:58:29Z</time>
      </trkpt>
      <trkpt lat="47.04285" lon="-0.83798">
        <ele>189.409</ele>
        <time>2019-11-24T10:58:31Z</time>
      </trkpt>
      <trkpt lat="47.04283" lon="-0.83794">
        <ele>189.382</ele>
        <time>2019-11-24T10:58:33Z</time>
      </trkpt>
      <trkpt lat="47.04279" lon="-0.83788">
        <ele>189.341</ele>
        <time>2019-11-24T10:58:36Z</time>
      </trkpt>
      <trkpt lat="47.04278" lon="-0.83786">
        <ele>189.313</ele>
        <time>2019-11-24T10:58:38Z</time>
      </trkpt>
      <trkpt lat="47.04274" lon="-0.83781">
        <ele>189.272</ele>
        <time>2019-11-24T10:58:41Z</time>
      </trkpt>
      <trkpt lat="47.0427" lon="-0.83775">
        <ele>189.216</ele>
        <time>2019-11-24T10:58:45Z</time>
      </trkpt>
      <trkpt lat="47.04268" lon="-0.83771">
        <ele>189.189</ele>
        <time>2019-11-24T10:58:47Z</time>
      </trkpt>
      <trkpt lat="47.04265" lon="-0.83766">
        <ele>189.146</ele>
        <time>2019-11-24T10:58:50Z</time>
      </trkpt>
      <trkpt lat="47.04262" lon="-0.83761">
        <ele>189.104</ele>
        <time>2019-11-24T10:58:53Z</time>
      </trkpt>
      <trkpt lat="47.04259" lon="-0.83754">
        <ele>189.05</ele>
        <time>2019-11-24T10:58:57Z</time>
      </trkpt>
      <trkpt lat="47.04258" lon="-0.8375">
        <ele>189.023</ele>
        <time>2019-11-24T10:58:59Z</time>
      </trkpt>
      <trkpt lat="47.04255" lon="-0.83742">
        <ele>188.972</ele>
        <time>2019-11-24T10:59:03Z</time>
      </trkpt>
      <trkpt lat="47.04254" lon="-0.83739">
        <ele>188.946</ele>
        <time>2019-11-24T10:59:05Z</time>
      </trkpt>
      <trkpt lat="47.04253" lon="-0.83736">
        <ele>188.921</ele>
        <time>2019-11-24T10:59:07Z</time>
      </trkpt>
      <trkpt lat="47.04249" lon="-0.83732">
        <ele>188.869</ele>
        <time>2019-11-24T10:59:11Z</time>
      </trkpt>
      <trkpt lat="47.04244" lon="-0.83731">
        <ele>188.814</ele>
        <time>2019-11-24T10:59:15Z</time>
      </trkpt>
      <trkpt lat="47.04239" lon="-0.83736">
        <ele>188.753</ele>
        <time>2019-11-24T10:59:19Z</time>
      </trkpt>
      <trkpt lat="47.04235" lon="-0.83742">
        <ele>188.684</ele>
        <time>2019-11-24T10:59:23Z</time>
      </trkpt>
      <trkpt lat="47.04233" lon="-0.83745">
        <ele>188.667</ele>
        <time>2019-11-24T10:59:24Z</time>
      </trkpt>
      <trkpt lat="47.0423" lon="-0.83751">
        <ele>188.632</ele>
        <time>2019-11-24T10:59:26Z</time>
      </trkpt>
      <trkpt lat="47.04229" lon="-0.83754">
        <ele>188.615</ele>
        <time>2019-11-24T10:59:27Z</time>
      </trkpt>
      <trkpt lat="47.04227" lon="-0.83763">
        <ele>188.563</ele>
        <time>2019-11-24T10:59:30Z</time>
      </trkpt>
      <trkpt lat="47.04226" lon="-0.83769">
        <ele>188.527</ele>
        <time>2019-11-24T10:59:32Z</time>
      </trkpt>
      <trkpt lat="47.04225" lon="-0.83773">
        <ele>188.489</ele>
        <time>2019-11-24T10:59:34Z</time>
      </trkpt>
      <trkpt lat="47.04224" lon="-0.83778">
        <ele>188.449</ele>
        <time>2019-11-24T10:59:36Z</time>
      </trkpt>
      <trkpt lat="47.04223" lon="-0.83783">
        <ele>188.406</ele>
        <time>2019-11-24T10:59:38Z</time>
      </trkpt>
      <trkpt lat="47.04222" lon="-0.83788">
        <ele>188.362</ele>
        <time>2019-11-24T10:59:40Z</time>
      </trkpt>
      <trkpt lat="47.04221" lon="-0.83793">
        <ele>188.316</ele>
        <time>2019-11-24T10:59:42Z</time>
      </trkpt>
      <trkpt lat="47.04219" lon="-0.838">
        <ele>188.246</ele>
        <time>2019-11-24T10:59:45Z</time>
      </trkpt>
      <trkpt lat="47.04218" lon="-0.83803">
        <ele>188.198</ele>
        <time>2019-11-24T10:59:47Z</time>
      </trkpt>
      <trkpt lat="47.04217" lon="-0.8381">
        <ele>188.124</ele>
        <time>2019-11-24T10:59:50Z</time>
      </trkpt>
      <trkpt lat="47.04215" lon="-0.83816">
        <ele>188.024</ele>
        <time>2019-11-24T10:59:54Z</time>
      </trkpt>
      <trkpt lat="47.04214" lon="-0.8382">
        <ele>187.974</ele>
        <time>2019-11-24T10:59:56Z</time>
      </trkpt>
      <trkpt lat="47.04213" lon="-0.83824">
        <ele>187.923</ele>
        <time>2019-11-24T10:59:58Z</time>
      </trkpt>
      <trkpt lat="47.04212" lon="-0.83827">
        <ele>187.872</ele>
        <time>2019-11-24T11:00:00Z</time>
      </trkpt>
      <trkpt lat="47.04211" lon="-0.83831">
        <ele>187.821</ele>
        <time>2019-11-24T11:00:02Z</time>
      </trkpt>
      <trkpt lat="47.0421" lon="-0.83835">
        <ele>187.769</ele>
        <time>2019-11-24T11:00:04Z</time>
      </trkpt>
      <trkpt lat="47.04209" lon="-0.83838">
        <ele>187.719</ele>
        <time>2019-11-24T11:00:06Z</time>
      </trkpt>
      <trkpt lat="47.04208" lon="-0.83846">
        <ele>187.616</ele>
        <time>2019-11-24T11:00:10Z</time>
      </trkpt>
      <trkpt lat="47.04207" lon="-0.83849">
        <ele>187.565</ele>
        <time>2019-11-24T11:00:12Z</time>
      </trkpt>
      <trkpt lat="47.04208" lon="-0.83846">
        <ele>187.616</ele>
        <time>2019-11-24T11:00:21Z</time>
      </trkpt>
      <trkpt lat="47.04204" lon="-0.83843">
        <ele>187.153</ele>
        <time>2019-11-24T11:00:24Z</time>
      </trkpt>
      <trkpt lat="47.042" lon="-0.83853">
        <ele>186.876</ele>
        <time>2019-11-24T11:00:31Z</time>
      </trkpt>
      <trkpt lat="47.04197" lon="-0.83864">
        <ele>186.79</ele>
        <time>2019-11-24T11:00:33Z</time>
      </trkpt>
      <trkpt lat="47.04195" lon="-0.83872">
        <ele>186.703</ele>
        <time>2019-11-24T11:00:35Z</time>
      </trkpt>
      <trkpt lat="47.04195" lon="-0.83879">
        <ele>186.572</ele>
        <time>2019-11-24T11:00:38Z</time>
      </trkpt>
      <trkpt lat="47.04192" lon="-0.83886">
        <ele>186.4</ele>
        <time>2019-11-24T11:00:42Z</time>
      </trkpt>
      <trkpt lat="47.04191" lon="-0.8389">
        <ele>186.316</ele>
        <time>2019-11-24T11:00:44Z</time>
      </trkpt>
      <trkpt lat="47.0419" lon="-0.83892">
        <ele>186.234</ele>
        <time>2019-11-24T11:00:46Z</time>
      </trkpt>
      <trkpt lat="47.04188" lon="-0.83898">
        <ele>186.073</ele>
        <time>2019-11-24T11:00:50Z</time>
      </trkpt>
      <trkpt lat="47.04186" lon="-0.83902">
        <ele>185.957</ele>
        <time>2019-11-24T11:00:53Z</time>
      </trkpt>
      <trkpt lat="47.04182" lon="-0.83907">
        <ele>185.767</ele>
        <time>2019-11-24T11:00:58Z</time>
      </trkpt>
      <trkpt lat="47.04178" lon="-0.83911">
        <ele>185.658</ele>
        <time>2019-11-24T11:01:01Z</time>
      </trkpt>
      <trkpt lat="47.04173" lon="-0.83914">
        <ele>185.522</ele>
        <time>2019-11-24T11:01:05Z</time>
      </trkpt>
      <trkpt lat="47.04169" lon="-0.83915">
        <ele>185.458</ele>
        <time>2019-11-24T11:01:07Z</time>
      </trkpt>
      <trkpt lat="47.04165" lon="-0.83918">
        <ele>185.364</ele>
        <time>2019-11-24T11:01:10Z</time>
      </trkpt>
      <trkpt lat="47.04161" lon="-0.8392">
        <ele>185.273</ele>
        <time>2019-11-24T11:01:13Z</time>
      </trkpt>
      <trkpt lat="47.04157" lon="-0.83921">
        <ele>185.184</ele>
        <time>2019-11-24T11:01:16Z</time>
      </trkpt>
      <trkpt lat="47.04154" lon="-0.83922">
        <ele>185.126</ele>
        <time>2019-11-24T11:01:18Z</time>
      </trkpt>
      <trkpt lat="47.04148" lon="-0.83923">
        <ele>185.042</ele>
        <time>2019-11-24T11:01:21Z</time>
      </trkpt>
      <trkpt lat="47.04145" lon="-0.83918">
        <ele>184.984</ele>
        <time>2019-11-24T11:01:23Z</time>
      </trkpt>
      <trkpt lat="47.04141" lon="-0.83914">
        <ele>184.924</ele>
        <time>2019-11-24T11:01:25Z</time>
      </trkpt>
      <trkpt lat="47.04138" lon="-0.8391">
        <ele>184.864</ele>
        <time>2019-11-24T11:01:27Z</time>
      </trkpt>
      <trkpt lat="47.04136" lon="-0.83908">
        <ele>184.834</ele>
        <time>2019-11-24T11:01:28Z</time>
      </trkpt>
      <trkpt lat="47.04134" lon="-0.83905">
        <ele>184.803</ele>
        <time>2019-11-24T11:01:29Z</time>
      </trkpt>
      <trkpt lat="47.0413" lon="-0.83898">
        <ele>184.714</ele>
        <time>2019-11-24T11:01:32Z</time>
      </trkpt>
      <trkpt lat="47.04128" lon="-0.8389">
        <ele>184.629</ele>
        <time>2019-11-24T11:01:35Z</time>
      </trkpt>
      <trkpt lat="47.04126" lon="-0.83883">
        <ele>184.549</ele>
        <time>2019-11-24T11:01:38Z</time>
      </trkpt>
      <trkpt lat="47.04124" lon="-0.83877">
        <ele>184.471</ele>
        <time>2019-11-24T11:01:41Z</time>
      </trkpt>
      <trkpt lat="47.04122" lon="-0.8387">
        <ele>184.396</ele>
        <time>2019-11-24T11:01:44Z</time>
      </trkpt>
      <trkpt lat="47.04122" lon="-0.83861">
        <ele>184.298</ele>
        <time>2019-11-24T11:01:48Z</time>
      </trkpt>
      <trkpt lat="47.04122" lon="-0.83857">
        <ele>184.251</ele>
        <time>2019-11-24T11:01:50Z</time>
      </trkpt>
      <trkpt lat="47.04122" lon="-0.83853">
        <ele>184.205</ele>
        <time>2019-11-24T11:01:52Z</time>
      </trkpt>
      <trkpt lat="47.04121" lon="-0.83849">
        <ele>184.161</ele>
        <time>2019-11-24T11:01:54Z</time>
      </trkpt>
      <trkpt lat="47.04121" lon="-0.83844">
        <ele>184.117</ele>
        <time>2019-11-24T11:01:56Z</time>
      </trkpt>
      <trkpt lat="47.0412" lon="-0.83837">
        <ele>184.054</ele>
        <time>2019-11-24T11:01:59Z</time>
      </trkpt>
      <trkpt lat="47.04119" lon="-0.83832">
        <ele>184.013</ele>
        <time>2019-11-24T11:02:01Z</time>
      </trkpt>
      <trkpt lat="47.0412" lon="-0.83824">
        <ele>183.933</ele>
        <time>2019-11-24T11:02:05Z</time>
      </trkpt>
      <trkpt lat="47.0412" lon="-0.83821">
        <ele>183.894</ele>
        <time>2019-11-24T11:02:07Z</time>
      </trkpt>
      <trkpt lat="47.0412" lon="-0.83817">
        <ele>183.854</ele>
        <time>2019-11-24T11:02:09Z</time>
      </trkpt>
      <trkpt lat="47.0412" lon="-0.83813">
        <ele>183.815</ele>
        <time>2019-11-24T11:02:11Z</time>
      </trkpt>
      <trkpt lat="47.0412" lon="-0.83805">
        <ele>183.737</ele>
        <time>2019-11-24T11:02:15Z</time>
      </trkpt>
      <trkpt lat="47.04118" lon="-0.83798">
        <ele>183.657</ele>
        <time>2019-11-24T11:02:19Z</time>
      </trkpt>
      <trkpt lat="47.04118" lon="-0.83795">
        <ele>183.617</ele>
        <time>2019-11-24T11:02:21Z</time>
      </trkpt>
      <trkpt lat="47.04117" lon="-0.83791">
        <ele>183.576</ele>
        <time>2019-11-24T11:02:23Z</time>
      </trkpt>
      <trkpt lat="47.04116" lon="-0.83788">
        <ele>183.534</ele>
        <time>2019-11-24T11:02:25Z</time>
      </trkpt>
      <trkpt lat="47.04115" lon="-0.83781">
        <ele>183.469</ele>
        <time>2019-11-24T11:02:28Z</time>
      </trkpt>
      <trkpt lat="47.04114" lon="-0.83776">
        <ele>183.425</ele>
        <time>2019-11-24T11:02:30Z</time>
      </trkpt>
      <trkpt lat="47.04114" lon="-0.83769">
        <ele>183.36</ele>
        <time>2019-11-24T11:02:33Z</time>
      </trkpt>
      <trkpt lat="47.04114" lon="-0.83765">
        <ele>183.316</ele>
        <time>2019-11-24T11:02:35Z</time>
      </trkpt>
      <trkpt lat="47.04113" lon="-0.83758">
        <ele>183.224</ele>
        <time>2019-11-24T11:02:39Z</time>
      </trkpt>
      <trkpt lat="47.04112" lon="-0.83752">
        <ele>183.129</ele>
        <time>2019-11-24T11:02:43Z</time>
      </trkpt>
      <trkpt lat="47.04109" lon="-0.83746">
        <ele>182.988</ele>
        <time>2019-11-24T11:02:49Z</time>
      </trkpt>
      <trkpt lat="47.04105" lon="-0.83741">
        <ele>182.873</ele>
        <time>2019-11-24T11:02:54Z</time>
      </trkpt>
      <trkpt lat="47.04103" lon="-0.83734">
        <ele>182.784</ele>
        <time>2019-11-24T11:02:58Z</time>
      </trkpt>
      <trkpt lat="47.041" lon="-0.83727">
        <ele>182.694</ele>
        <time>2019-11-24T11:03:02Z</time>
      </trkpt>
      <trkpt lat="47.04096" lon="-0.83721">
        <ele>182.606</ele>
        <time>2019-11-24T11:03:06Z</time>
      </trkpt>
      <trkpt lat="47.04094" lon="-0.83717">
        <ele>182.562</ele>
        <time>2019-11-24T11:03:08Z</time>
      </trkpt>
      <trkpt lat="47.0409" lon="-0.83714">
        <ele>182.477</ele>
        <time>2019-11-24T11:03:12Z</time>
      </trkpt>
      <trkpt lat="47.04084" lon="-0.83714">
        <ele>182.366</ele>
        <time>2019-11-24T11:03:17Z</time>
      </trkpt>
      <trkpt lat="47.04081" lon="-0.83714">
        <ele>182.319</ele>
        <time>2019-11-24T11:03:19Z</time>
      </trkpt>
      <trkpt lat="47.04078" lon="-0.83714">
        <ele>182.27</ele>
        <time>2019-11-24T11:03:21Z</time>
      </trkpt>
      <trkpt lat="47.04073" lon="-0.83716">
        <ele>182.195</ele>
        <time>2019-11-24T11:03:24Z</time>
      </trkpt>
      <trkpt lat="47.0407" lon="-0.83717">
        <ele>182.143</ele>
        <time>2019-11-24T11:03:26Z</time>
      </trkpt>
      <trkpt lat="47.04066" lon="-0.83719">
        <ele>182.09</ele>
        <time>2019-11-24T11:03:28Z</time>
      </trkpt>
      <trkpt lat="47.04061" lon="-0.8372">
        <ele>182.008</ele>
        <time>2019-11-24T11:03:31Z</time>
      </trkpt>
      <trkpt lat="47.04058" lon="-0.8372">
        <ele>181.953</ele>
        <time>2019-11-24T11:03:33Z</time>
      </trkpt>
      <trkpt lat="47.04054" lon="-0.83722">
        <ele>181.844</ele>
        <time>2019-11-24T11:03:37Z</time>
      </trkpt>
      <trkpt lat="47.04049" lon="-0.83723">
        <ele>181.738</ele>
        <time>2019-11-24T11:03:41Z</time>
      </trkpt>
      <trkpt lat="47.04044" lon="-0.83718">
        <ele>181.632</ele>
        <time>2019-11-24T11:03:45Z</time>
      </trkpt>
      <trkpt lat="47.04041" lon="-0.83715">
        <ele>181.579</ele>
        <time>2019-11-24T11:03:47Z</time>
      </trkpt>
      <trkpt lat="47.04037" lon="-0.8371">
        <ele>181.494</ele>
        <time>2019-11-24T11:03:50Z</time>
      </trkpt>
      <trkpt lat="47.04033" lon="-0.83707">
        <ele>181.401</ele>
        <time>2019-11-24T11:03:53Z</time>
      </trkpt>
      <trkpt lat="47.04034" lon="-0.83702">
        <ele>181.309</ele>
        <time>2019-11-24T11:04:01Z</time>
      </trkpt>
      <trkpt lat="47.04038" lon="-0.83686">
        <ele>180.548</ele>
        <time>2019-11-24T11:04:27Z</time>
      </trkpt>
      <trkpt lat="47.04034" lon="-0.83681">
        <ele>180.355</ele>
        <time>2019-11-24T11:04:31Z</time>
      </trkpt>
      <trkpt lat="47.04029" lon="-0.83673">
        <ele>180.211</ele>
        <time>2019-11-24T11:04:34Z</time>
      </trkpt>
      <trkpt lat="47.04026" lon="-0.83668">
        <ele>180.117</ele>
        <time>2019-11-24T11:04:36Z</time>
      </trkpt>
      <trkpt lat="47.04022" lon="-0.83663">
        <ele>179.933</ele>
        <time>2019-11-24T11:04:40Z</time>
      </trkpt>
      <trkpt lat="47.04018" lon="-0.83659">
        <ele>179.758</ele>
        <time>2019-11-24T11:04:44Z</time>
      </trkpt>
      <trkpt lat="47.04013" lon="-0.83657">
        <ele>179.632</ele>
        <time>2019-11-24T11:04:47Z</time>
      </trkpt>
      <trkpt lat="47.0401" lon="-0.83655">
        <ele>179.55</ele>
        <time>2019-11-24T11:04:49Z</time>
      </trkpt>
      <trkpt lat="47.04006" lon="-0.83654">
        <ele>179.429</ele>
        <time>2019-11-24T11:04:52Z</time>
      </trkpt>
      <trkpt lat="47.04" lon="-0.83655">
        <ele>179.27</ele>
        <time>2019-11-24T11:04:56Z</time>
      </trkpt>
      <trkpt lat="47.03995" lon="-0.83658">
        <ele>179.15</ele>
        <time>2019-11-24T11:04:59Z</time>
      </trkpt>
      <trkpt lat="47.03993" lon="-0.83659">
        <ele>179.029</ele>
        <time>2019-11-24T11:05:02Z</time>
      </trkpt>
      <trkpt lat="47.03988" lon="-0.83662">
        <ele>178.907</ele>
        <time>2019-11-24T11:05:05Z</time>
      </trkpt>
      <trkpt lat="47.03983" lon="-0.83659">
        <ele>178.745</ele>
        <time>2019-11-24T11:05:09Z</time>
      </trkpt>
      <trkpt lat="47.03978" lon="-0.83655">
        <ele>178.625</ele>
        <time>2019-11-24T11:05:12Z</time>
      </trkpt>
      <trkpt lat="47.03974" lon="-0.83652">
        <ele>178.465</ele>
        <time>2019-11-24T11:05:16Z</time>
      </trkpt>
      <trkpt lat="47.03971" lon="-0.8365">
        <ele>178.387</ele>
        <time>2019-11-24T11:05:18Z</time>
      </trkpt>
      <trkpt lat="47.03966" lon="-0.83648">
        <ele>178.189</ele>
        <time>2019-11-24T11:05:23Z</time>
      </trkpt>
      <trkpt lat="47.03962" lon="-0.83647">
        <ele>178.069</ele>
        <time>2019-11-24T11:05:26Z</time>
      </trkpt>
      <trkpt lat="47.03958" lon="-0.83646">
        <ele>177.946</ele>
        <time>2019-11-24T11:05:29Z</time>
      </trkpt>
      <trkpt lat="47.03953" lon="-0.83647">
        <ele>177.817</ele>
        <time>2019-11-24T11:05:32Z</time>
      </trkpt>
      <trkpt lat="47.03948" lon="-0.8365">
        <ele>177.686</ele>
        <time>2019-11-24T11:05:35Z</time>
      </trkpt>
      <trkpt lat="47.03943" lon="-0.83653">
        <ele>177.555</ele>
        <time>2019-11-24T11:05:38Z</time>
      </trkpt>
      <trkpt lat="47.03939" lon="-0.83655">
        <ele>177.382</ele>
        <time>2019-11-24T11:05:42Z</time>
      </trkpt>
      <trkpt lat="47.03936" lon="-0.83657">
        <ele>177.296</ele>
        <time>2019-11-24T11:05:44Z</time>
      </trkpt>
      <trkpt lat="47.03931" lon="-0.83658">
        <ele>177.127</ele>
        <time>2019-11-24T11:05:48Z</time>
      </trkpt>
      <trkpt lat="47.03926" lon="-0.83662">
        <ele>177.005</ele>
        <time>2019-11-24T11:05:51Z</time>
      </trkpt>
      <trkpt lat="47.03923" lon="-0.83664">
        <ele>176.926</ele>
        <time>2019-11-24T11:05:53Z</time>
      </trkpt>
      <trkpt lat="47.03918" lon="-0.83664">
        <ele>176.729</ele>
        <time>2019-11-24T11:05:58Z</time>
      </trkpt>
      <trkpt lat="47.03913" lon="-0.83666">
        <ele>176.5</ele>
        <time>2019-11-24T11:06:04Z</time>
      </trkpt>
      <trkpt lat="47.03908" lon="-0.83666">
        <ele>176.283</ele>
        <time>2019-11-24T11:06:10Z</time>
      </trkpt>
      <trkpt lat="47.03904" lon="-0.83669">
        <ele>176.143</ele>
        <time>2019-11-24T11:06:14Z</time>
      </trkpt>
      <trkpt lat="47.03899" lon="-0.83672">
        <ele>176.041</ele>
        <time>2019-11-24T11:06:17Z</time>
      </trkpt>
      <trkpt lat="47.03896" lon="-0.83674">
        <ele>175.972</ele>
        <time>2019-11-24T11:06:19Z</time>
      </trkpt>
      <trkpt lat="47.03893" lon="-0.83675">
        <ele>175.905</ele>
        <time>2019-11-24T11:06:21Z</time>
      </trkpt>
      <trkpt lat="47.03891" lon="-0.83677">
        <ele>175.837</ele>
        <time>2019-11-24T11:06:23Z</time>
      </trkpt>
      <trkpt lat="47.03888" lon="-0.83681">
        <ele>175.664</ele>
        <time>2019-11-24T11:06:28Z</time>
      </trkpt>
      <trkpt lat="47.03885" lon="-0.83687">
        <ele>175.523</ele>
        <time>2019-11-24T11:06:32Z</time>
      </trkpt>
      <trkpt lat="47.03884" lon="-0.83691">
        <ele>175.452</ele>
        <time>2019-11-24T11:06:34Z</time>
      </trkpt>
      <trkpt lat="47.03882" lon="-0.83698">
        <ele>175.309</ele>
        <time>2019-11-24T11:06:38Z</time>
      </trkpt>
      <trkpt lat="47.03878" lon="-0.83702">
        <ele>175.131</ele>
        <time>2019-11-24T11:06:43Z</time>
      </trkpt>
      <trkpt lat="47.03873" lon="-0.83703">
        <ele>174.988</ele>
        <time>2019-11-24T11:06:47Z</time>
      </trkpt>
      <trkpt lat="47.0387" lon="-0.83703">
        <ele>174.918</ele>
        <time>2019-11-24T11:06:49Z</time>
      </trkpt>
      <trkpt lat="47.03868" lon="-0.83704">
        <ele>174.846</ele>
        <time>2019-11-24T11:06:51Z</time>
      </trkpt>
      <trkpt lat="47.03863" lon="-0.83708">
        <ele>174.703</ele>
        <time>2019-11-24T11:06:55Z</time>
      </trkpt>
      <trkpt lat="47.03858" lon="-0.83712">
        <ele>174.566</ele>
        <time>2019-11-24T11:06:59Z</time>
      </trkpt>
      <trkpt lat="47.03854" lon="-0.83717">
        <ele>174.466</ele>
        <time>2019-11-24T11:07:02Z</time>
      </trkpt>
      <trkpt lat="47.03851" lon="-0.83721">
        <ele>174.339</ele>
        <time>2019-11-24T11:07:06Z</time>
      </trkpt>
      <trkpt lat="47.03851" lon="-0.83723">
        <ele>174.101</ele>
        <time>2019-11-24T11:07:16Z</time>
      </trkpt>
      <trkpt lat="47.03851" lon="-0.83723">
        <ele>103.7</ele>
        <time>2019-11-24T11:08:10Z</time>
      </trkpt>
      <trkpt lat="47.03851" lon="-0.83723">
        <ele>103.7</ele>
        <time>2019-11-24T11:08:16Z</time>
      </trkpt>
    </trkseg>
  </trk>
</gpx>